<?xml version="1.0" encoding="UTF-8" standalone="no" ?>
<gpx xmlns="http://www.topografix.com/GPX/1/1" xmlns:xsi="http://www.w3.org/2001/XMLSchema-instance" xsi:schemaLocation="http://www.topografix.com/GPX/1/1 http://www.topografix.com/GPX/1/1/gpx.xsd" version="1.1" creator="VisuGPX - https://www.visugpx.com">
  <metadata>
    <name>rando entre vigne et pierre d\'orées .</name>
    <desc><![CDATA[pour decouvrir le beaujolais .c\'etais le parcours le plus long 55 km ,]]></desc>
  </metadata>
  <trk>
    <name><![CDATA[rando entre vigne et pierre d\'orées ._1]]></name>
    <trkseg>
      <trkpt lat="45.84772" lon="4.6081">
        <ele>195.6</ele>
        <time>2015-04-05T05:35:36Z</time>
      </trkpt>
      <trkpt lat="45.84773" lon="4.60808">
        <ele>195.5</ele>
        <time>2015-04-05T05:35:46Z</time>
      </trkpt>
      <trkpt lat="45.84778" lon="4.60802">
        <ele>194.6</ele>
        <time>2015-04-05T05:35:51Z</time>
      </trkpt>
      <trkpt lat="45.84783" lon="4.608">
        <ele>194.8</ele>
        <time>2015-04-05T05:35:56Z</time>
      </trkpt>
      <trkpt lat="45.84793" lon="4.60798">
        <ele>194.4</ele>
        <time>2015-04-05T05:36:01Z</time>
      </trkpt>
      <trkpt lat="45.84802" lon="4.60798">
        <ele>195</ele>
        <time>2015-04-05T05:36:06Z</time>
      </trkpt>
      <trkpt lat="45.84813" lon="4.60798">
        <ele>194.2</ele>
        <time>2015-04-05T05:36:11Z</time>
      </trkpt>
      <trkpt lat="45.84825" lon="4.608">
        <ele>193.4</ele>
        <time>2015-04-05T05:36:16Z</time>
      </trkpt>
      <trkpt lat="45.8484" lon="4.60803">
        <ele>194.3</ele>
        <time>2015-04-05T05:36:21Z</time>
      </trkpt>
      <trkpt lat="45.84852" lon="4.60815">
        <ele>192.7</ele>
        <time>2015-04-05T05:36:26Z</time>
      </trkpt>
      <trkpt lat="45.84858" lon="4.60833">
        <ele>193.4</ele>
        <time>2015-04-05T05:36:31Z</time>
      </trkpt>
      <trkpt lat="45.84867" lon="4.60842">
        <ele>193.9</ele>
        <time>2015-04-05T05:36:36Z</time>
      </trkpt>
      <trkpt lat="45.84867" lon="4.6084">
        <ele>193.3</ele>
        <time>2015-04-05T05:36:41Z</time>
      </trkpt>
      <trkpt lat="45.84867" lon="4.60835">
        <ele>193.5</ele>
        <time>2015-04-05T05:36:56Z</time>
      </trkpt>
      <trkpt lat="45.84868" lon="4.6083">
        <ele>193.5</ele>
        <time>2015-04-05T05:37:01Z</time>
      </trkpt>
      <trkpt lat="45.84867" lon="4.60823">
        <ele>193</ele>
        <time>2015-04-05T05:37:16Z</time>
      </trkpt>
      <trkpt lat="45.84858" lon="4.60812">
        <ele>193.3</ele>
        <time>2015-04-05T05:37:21Z</time>
      </trkpt>
      <trkpt lat="45.8485" lon="4.60792">
        <ele>194</ele>
        <time>2015-04-05T05:37:26Z</time>
      </trkpt>
      <trkpt lat="45.84843" lon="4.6077">
        <ele>194.1</ele>
        <time>2015-04-05T05:37:31Z</time>
      </trkpt>
      <trkpt lat="45.84838" lon="4.60748">
        <ele>194</ele>
        <time>2015-04-05T05:37:36Z</time>
      </trkpt>
      <trkpt lat="45.84832" lon="4.60725">
        <ele>194</ele>
        <time>2015-04-05T05:37:41Z</time>
      </trkpt>
      <trkpt lat="45.84827" lon="4.60698">
        <ele>191.7</ele>
        <time>2015-04-05T05:37:46Z</time>
      </trkpt>
      <trkpt lat="45.84823" lon="4.60673">
        <ele>194.6</ele>
        <time>2015-04-05T05:37:51Z</time>
      </trkpt>
      <trkpt lat="45.84822" lon="4.60648">
        <ele>193.4</ele>
        <time>2015-04-05T05:37:56Z</time>
      </trkpt>
      <trkpt lat="45.84818" lon="4.60623">
        <ele>194.1</ele>
        <time>2015-04-05T05:38:01Z</time>
      </trkpt>
      <trkpt lat="45.84815" lon="4.606">
        <ele>193.1</ele>
        <time>2015-04-05T05:38:06Z</time>
      </trkpt>
      <trkpt lat="45.84813" lon="4.60575">
        <ele>194.3</ele>
        <time>2015-04-05T05:38:11Z</time>
      </trkpt>
      <trkpt lat="45.84812" lon="4.6055">
        <ele>193.6</ele>
        <time>2015-04-05T05:38:16Z</time>
      </trkpt>
      <trkpt lat="45.8481" lon="4.60525">
        <ele>194.2</ele>
        <time>2015-04-05T05:38:21Z</time>
      </trkpt>
      <trkpt lat="45.84822" lon="4.60518">
        <ele>196</ele>
        <time>2015-04-05T05:38:26Z</time>
      </trkpt>
      <trkpt lat="45.8484" lon="4.60523">
        <ele>193.9</ele>
        <time>2015-04-05T05:38:31Z</time>
      </trkpt>
      <trkpt lat="45.84858" lon="4.60528">
        <ele>192.9</ele>
        <time>2015-04-05T05:38:36Z</time>
      </trkpt>
      <trkpt lat="45.84878" lon="4.60535">
        <ele>194.5</ele>
        <time>2015-04-05T05:38:41Z</time>
      </trkpt>
      <trkpt lat="45.84898" lon="4.6054">
        <ele>195.8</ele>
        <time>2015-04-05T05:38:46Z</time>
      </trkpt>
      <trkpt lat="45.84918" lon="4.60545">
        <ele>194</ele>
        <time>2015-04-05T05:38:51Z</time>
      </trkpt>
      <trkpt lat="45.84938" lon="4.60548">
        <ele>194.9</ele>
        <time>2015-04-05T05:38:56Z</time>
      </trkpt>
      <trkpt lat="45.84958" lon="4.60555">
        <ele>193.1</ele>
        <time>2015-04-05T05:39:01Z</time>
      </trkpt>
      <trkpt lat="45.84978" lon="4.60563">
        <ele>192.5</ele>
        <time>2015-04-05T05:39:06Z</time>
      </trkpt>
      <trkpt lat="45.84998" lon="4.60572">
        <ele>192.2</ele>
        <time>2015-04-05T05:39:11Z</time>
      </trkpt>
      <trkpt lat="45.85015" lon="4.60577">
        <ele>192</ele>
        <time>2015-04-05T05:39:16Z</time>
      </trkpt>
      <trkpt lat="45.85025" lon="4.60565">
        <ele>191.3</ele>
        <time>2015-04-05T05:39:21Z</time>
      </trkpt>
      <trkpt lat="45.85035" lon="4.60553">
        <ele>191.4</ele>
        <time>2015-04-05T05:39:26Z</time>
      </trkpt>
      <trkpt lat="45.8504" lon="4.60533">
        <ele>192.1</ele>
        <time>2015-04-05T05:39:31Z</time>
      </trkpt>
      <trkpt lat="45.85045" lon="4.60513">
        <ele>192.5</ele>
        <time>2015-04-05T05:39:36Z</time>
      </trkpt>
      <trkpt lat="45.85048" lon="4.60497">
        <ele>191.8</ele>
        <time>2015-04-05T05:39:41Z</time>
      </trkpt>
      <trkpt lat="45.85052" lon="4.60478">
        <ele>192.6</ele>
        <time>2015-04-05T05:39:46Z</time>
      </trkpt>
      <trkpt lat="45.85057" lon="4.60462">
        <ele>192.5</ele>
        <time>2015-04-05T05:39:51Z</time>
      </trkpt>
      <trkpt lat="45.85062" lon="4.60445">
        <ele>192.4</ele>
        <time>2015-04-05T05:39:56Z</time>
      </trkpt>
      <trkpt lat="45.85067" lon="4.60428">
        <ele>193.4</ele>
        <time>2015-04-05T05:40:01Z</time>
      </trkpt>
      <trkpt lat="45.85072" lon="4.6041">
        <ele>193.3</ele>
        <time>2015-04-05T05:40:06Z</time>
      </trkpt>
      <trkpt lat="45.85058" lon="4.60405">
        <ele>192.9</ele>
        <time>2015-04-05T05:40:11Z</time>
      </trkpt>
      <trkpt lat="45.85042" lon="4.60395">
        <ele>192.7</ele>
        <time>2015-04-05T05:40:16Z</time>
      </trkpt>
      <trkpt lat="45.85025" lon="4.6038">
        <ele>192.9</ele>
        <time>2015-04-05T05:40:21Z</time>
      </trkpt>
      <trkpt lat="45.85025" lon="4.60353">
        <ele>192.4</ele>
        <time>2015-04-05T05:40:26Z</time>
      </trkpt>
      <trkpt lat="45.8503" lon="4.60325">
        <ele>191.6</ele>
        <time>2015-04-05T05:40:31Z</time>
      </trkpt>
      <trkpt lat="45.85035" lon="4.60293">
        <ele>193.2</ele>
        <time>2015-04-05T05:40:36Z</time>
      </trkpt>
      <trkpt lat="45.8504" lon="4.60265">
        <ele>192.3</ele>
        <time>2015-04-05T05:40:41Z</time>
      </trkpt>
      <trkpt lat="45.85043" lon="4.60242">
        <ele>192.3</ele>
        <time>2015-04-05T05:40:46Z</time>
      </trkpt>
      <trkpt lat="45.85035" lon="4.60222">
        <ele>193.9</ele>
        <time>2015-04-05T05:40:51Z</time>
      </trkpt>
      <trkpt lat="45.85027" lon="4.602">
        <ele>192</ele>
        <time>2015-04-05T05:40:56Z</time>
      </trkpt>
      <trkpt lat="45.85018" lon="4.6018">
        <ele>195.2</ele>
        <time>2015-04-05T05:41:01Z</time>
      </trkpt>
      <trkpt lat="45.85012" lon="4.6016">
        <ele>194</ele>
        <time>2015-04-05T05:41:06Z</time>
      </trkpt>
      <trkpt lat="45.85007" lon="4.60138">
        <ele>195.7</ele>
        <time>2015-04-05T05:41:11Z</time>
      </trkpt>
      <trkpt lat="45.85" lon="4.60122">
        <ele>195.7</ele>
        <time>2015-04-05T05:41:16Z</time>
      </trkpt>
      <trkpt lat="45.8499" lon="4.6011">
        <ele>198</ele>
        <time>2015-04-05T05:41:21Z</time>
      </trkpt>
      <trkpt lat="45.8498" lon="4.60097">
        <ele>198.6</ele>
        <time>2015-04-05T05:41:26Z</time>
      </trkpt>
      <trkpt lat="45.84968" lon="4.60083">
        <ele>198.7</ele>
        <time>2015-04-05T05:41:31Z</time>
      </trkpt>
      <trkpt lat="45.84958" lon="4.60068">
        <ele>200</ele>
        <time>2015-04-05T05:41:36Z</time>
      </trkpt>
      <trkpt lat="45.84948" lon="4.60057">
        <ele>201.8</ele>
        <time>2015-04-05T05:41:41Z</time>
      </trkpt>
      <trkpt lat="45.84938" lon="4.60042">
        <ele>201.1</ele>
        <time>2015-04-05T05:41:46Z</time>
      </trkpt>
      <trkpt lat="45.84927" lon="4.60028">
        <ele>204.8</ele>
        <time>2015-04-05T05:41:51Z</time>
      </trkpt>
      <trkpt lat="45.84917" lon="4.60015">
        <ele>203.8</ele>
        <time>2015-04-05T05:41:56Z</time>
      </trkpt>
      <trkpt lat="45.84907" lon="4.6">
        <ele>203.7</ele>
        <time>2015-04-05T05:42:01Z</time>
      </trkpt>
      <trkpt lat="45.84898" lon="4.59987">
        <ele>206.4</ele>
        <time>2015-04-05T05:42:06Z</time>
      </trkpt>
      <trkpt lat="45.84902" lon="4.59968">
        <ele>206.2</ele>
        <time>2015-04-05T05:42:11Z</time>
      </trkpt>
      <trkpt lat="45.8491" lon="4.59948">
        <ele>206.7</ele>
        <time>2015-04-05T05:42:16Z</time>
      </trkpt>
      <trkpt lat="45.84918" lon="4.59923">
        <ele>207.3</ele>
        <time>2015-04-05T05:42:21Z</time>
      </trkpt>
      <trkpt lat="45.84927" lon="4.599">
        <ele>207.2</ele>
        <time>2015-04-05T05:42:26Z</time>
      </trkpt>
      <trkpt lat="45.84938" lon="4.59878">
        <ele>207.6</ele>
        <time>2015-04-05T05:42:31Z</time>
      </trkpt>
      <trkpt lat="45.84948" lon="4.59853">
        <ele>208.1</ele>
        <time>2015-04-05T05:42:36Z</time>
      </trkpt>
      <trkpt lat="45.84962" lon="4.59827">
        <ele>206.9</ele>
        <time>2015-04-05T05:42:41Z</time>
      </trkpt>
      <trkpt lat="45.84982" lon="4.59803">
        <ele>206.2</ele>
        <time>2015-04-05T05:42:46Z</time>
      </trkpt>
      <trkpt lat="45.85" lon="4.5978">
        <ele>204.7</ele>
        <time>2015-04-05T05:42:51Z</time>
      </trkpt>
      <trkpt lat="45.85015" lon="4.5975">
        <ele>202</ele>
        <time>2015-04-05T05:42:56Z</time>
      </trkpt>
      <trkpt lat="45.85032" lon="4.59718">
        <ele>201.8</ele>
        <time>2015-04-05T05:43:01Z</time>
      </trkpt>
      <trkpt lat="45.85047" lon="4.59693">
        <ele>198.9</ele>
        <time>2015-04-05T05:43:06Z</time>
      </trkpt>
      <trkpt lat="45.8506" lon="4.59668">
        <ele>194.4</ele>
        <time>2015-04-05T05:43:11Z</time>
      </trkpt>
      <trkpt lat="45.8507" lon="4.59648">
        <ele>193.5</ele>
        <time>2015-04-05T05:43:16Z</time>
      </trkpt>
      <trkpt lat="45.85077" lon="4.59625">
        <ele>190.8</ele>
        <time>2015-04-05T05:43:21Z</time>
      </trkpt>
      <trkpt lat="45.8509" lon="4.59583">
        <ele>187.9</ele>
        <time>2015-04-05T05:43:26Z</time>
      </trkpt>
      <trkpt lat="45.85108" lon="4.59535">
        <ele>182.3</ele>
        <time>2015-04-05T05:43:31Z</time>
      </trkpt>
      <trkpt lat="45.85127" lon="4.59482">
        <ele>183.7</ele>
        <time>2015-04-05T05:43:36Z</time>
      </trkpt>
      <trkpt lat="45.85142" lon="4.59425">
        <ele>174.4</ele>
        <time>2015-04-05T05:43:41Z</time>
      </trkpt>
      <trkpt lat="45.85145" lon="4.59397">
        <ele>168.8</ele>
        <time>2015-04-05T05:43:46Z</time>
      </trkpt>
      <trkpt lat="45.85148" lon="4.5939">
        <ele>168.5</ele>
        <time>2015-04-05T05:43:51Z</time>
      </trkpt>
      <trkpt lat="45.85152" lon="4.59382">
        <ele>168.9</ele>
        <time>2015-04-05T05:43:56Z</time>
      </trkpt>
      <trkpt lat="45.85155" lon="4.5937">
        <ele>168.9</ele>
        <time>2015-04-05T05:44:01Z</time>
      </trkpt>
      <trkpt lat="45.8516" lon="4.59352">
        <ele>167.7</ele>
        <time>2015-04-05T05:44:06Z</time>
      </trkpt>
      <trkpt lat="45.85165" lon="4.59335">
        <ele>168.8</ele>
        <time>2015-04-05T05:44:11Z</time>
      </trkpt>
      <trkpt lat="45.85167" lon="4.59322">
        <ele>169.8</ele>
        <time>2015-04-05T05:44:16Z</time>
      </trkpt>
      <trkpt lat="45.85162" lon="4.5932">
        <ele>171</ele>
        <time>2015-04-05T05:44:21Z</time>
      </trkpt>
      <trkpt lat="45.85148" lon="4.5932">
        <ele>170.5</ele>
        <time>2015-04-05T05:44:26Z</time>
      </trkpt>
      <trkpt lat="45.85135" lon="4.59322">
        <ele>170.4</ele>
        <time>2015-04-05T05:44:31Z</time>
      </trkpt>
      <trkpt lat="45.85122" lon="4.59325">
        <ele>170.1</ele>
        <time>2015-04-05T05:44:36Z</time>
      </trkpt>
      <trkpt lat="45.85107" lon="4.59328">
        <ele>169.9</ele>
        <time>2015-04-05T05:44:41Z</time>
      </trkpt>
      <trkpt lat="45.85095" lon="4.59327">
        <ele>170.4</ele>
        <time>2015-04-05T05:44:46Z</time>
      </trkpt>
      <trkpt lat="45.85082" lon="4.59327">
        <ele>169</ele>
        <time>2015-04-05T05:44:51Z</time>
      </trkpt>
      <trkpt lat="45.85065" lon="4.59333">
        <ele>167.2</ele>
        <time>2015-04-05T05:44:56Z</time>
      </trkpt>
      <trkpt lat="45.85048" lon="4.59343">
        <ele>169.1</ele>
        <time>2015-04-05T05:45:01Z</time>
      </trkpt>
      <trkpt lat="45.8503" lon="4.59352">
        <ele>167.9</ele>
        <time>2015-04-05T05:45:06Z</time>
      </trkpt>
      <trkpt lat="45.85015" lon="4.59355">
        <ele>165.7</ele>
        <time>2015-04-05T05:45:11Z</time>
      </trkpt>
      <trkpt lat="45.84997" lon="4.5936">
        <ele>167.3</ele>
        <time>2015-04-05T05:45:16Z</time>
      </trkpt>
      <trkpt lat="45.84978" lon="4.59363">
        <ele>165.6</ele>
        <time>2015-04-05T05:45:21Z</time>
      </trkpt>
      <trkpt lat="45.84963" lon="4.59367">
        <ele>165</ele>
        <time>2015-04-05T05:45:26Z</time>
      </trkpt>
      <trkpt lat="45.84942" lon="4.59367">
        <ele>164</ele>
        <time>2015-04-05T05:45:31Z</time>
      </trkpt>
      <trkpt lat="45.84923" lon="4.5936">
        <ele>161.8</ele>
        <time>2015-04-05T05:45:36Z</time>
      </trkpt>
      <trkpt lat="45.84903" lon="4.59345">
        <ele>161.2</ele>
        <time>2015-04-05T05:45:41Z</time>
      </trkpt>
      <trkpt lat="45.8489" lon="4.59328">
        <ele>160.8</ele>
        <time>2015-04-05T05:45:46Z</time>
      </trkpt>
      <trkpt lat="45.8488" lon="4.59315">
        <ele>160.8</ele>
        <time>2015-04-05T05:45:51Z</time>
      </trkpt>
      <trkpt lat="45.84873" lon="4.59308">
        <ele>160</ele>
        <time>2015-04-05T05:45:56Z</time>
      </trkpt>
      <trkpt lat="45.84865" lon="4.59302">
        <ele>160.5</ele>
        <time>2015-04-05T05:46:01Z</time>
      </trkpt>
      <trkpt lat="45.8485" lon="4.59302">
        <ele>158.4</ele>
        <time>2015-04-05T05:46:06Z</time>
      </trkpt>
      <trkpt lat="45.84838" lon="4.59298">
        <ele>157.2</ele>
        <time>2015-04-05T05:46:11Z</time>
      </trkpt>
      <trkpt lat="45.84828" lon="4.59293">
        <ele>156.7</ele>
        <time>2015-04-05T05:46:16Z</time>
      </trkpt>
      <trkpt lat="45.8482" lon="4.59287">
        <ele>158.4</ele>
        <time>2015-04-05T05:46:21Z</time>
      </trkpt>
      <trkpt lat="45.84808" lon="4.59273">
        <ele>158.1</ele>
        <time>2015-04-05T05:46:26Z</time>
      </trkpt>
      <trkpt lat="45.848" lon="4.59257">
        <ele>158</ele>
        <time>2015-04-05T05:46:31Z</time>
      </trkpt>
      <trkpt lat="45.84793" lon="4.59243">
        <ele>157.7</ele>
        <time>2015-04-05T05:46:36Z</time>
      </trkpt>
      <trkpt lat="45.84785" lon="4.59227">
        <ele>156.6</ele>
        <time>2015-04-05T05:46:41Z</time>
      </trkpt>
      <trkpt lat="45.84777" lon="4.59218">
        <ele>157.3</ele>
        <time>2015-04-05T05:46:46Z</time>
      </trkpt>
      <trkpt lat="45.84768" lon="4.59208">
        <ele>157.3</ele>
        <time>2015-04-05T05:46:51Z</time>
      </trkpt>
      <trkpt lat="45.84758" lon="4.59188">
        <ele>156.9</ele>
        <time>2015-04-05T05:46:56Z</time>
      </trkpt>
      <trkpt lat="45.84747" lon="4.59163">
        <ele>154.5</ele>
        <time>2015-04-05T05:47:01Z</time>
      </trkpt>
      <trkpt lat="45.84733" lon="4.59143">
        <ele>153.6</ele>
        <time>2015-04-05T05:47:06Z</time>
      </trkpt>
      <trkpt lat="45.8472" lon="4.59125">
        <ele>153.8</ele>
        <time>2015-04-05T05:47:11Z</time>
      </trkpt>
      <trkpt lat="45.84705" lon="4.5912">
        <ele>152.8</ele>
        <time>2015-04-05T05:47:16Z</time>
      </trkpt>
      <trkpt lat="45.8469" lon="4.59113">
        <ele>154.3</ele>
        <time>2015-04-05T05:47:21Z</time>
      </trkpt>
      <trkpt lat="45.84673" lon="4.59117">
        <ele>150.6</ele>
        <time>2015-04-05T05:47:26Z</time>
      </trkpt>
      <trkpt lat="45.84657" lon="4.59117">
        <ele>151.3</ele>
        <time>2015-04-05T05:47:31Z</time>
      </trkpt>
      <trkpt lat="45.84643" lon="4.59117">
        <ele>152.8</ele>
        <time>2015-04-05T05:47:36Z</time>
      </trkpt>
      <trkpt lat="45.84628" lon="4.59117">
        <ele>153.6</ele>
        <time>2015-04-05T05:47:41Z</time>
      </trkpt>
      <trkpt lat="45.84613" lon="4.59115">
        <ele>154.4</ele>
        <time>2015-04-05T05:47:46Z</time>
      </trkpt>
      <trkpt lat="45.846" lon="4.59113">
        <ele>155</ele>
        <time>2015-04-05T05:47:51Z</time>
      </trkpt>
      <trkpt lat="45.84588" lon="4.59112">
        <ele>155.7</ele>
        <time>2015-04-05T05:47:56Z</time>
      </trkpt>
      <trkpt lat="45.8458" lon="4.59105">
        <ele>156.6</ele>
        <time>2015-04-05T05:48:01Z</time>
      </trkpt>
      <trkpt lat="45.84568" lon="4.591">
        <ele>157.9</ele>
        <time>2015-04-05T05:48:06Z</time>
      </trkpt>
      <trkpt lat="45.84558" lon="4.59098">
        <ele>159.4</ele>
        <time>2015-04-05T05:48:11Z</time>
      </trkpt>
      <trkpt lat="45.8455" lon="4.59102">
        <ele>160.1</ele>
        <time>2015-04-05T05:48:16Z</time>
      </trkpt>
      <trkpt lat="45.84542" lon="4.59105">
        <ele>161.4</ele>
        <time>2015-04-05T05:48:21Z</time>
      </trkpt>
      <trkpt lat="45.8454" lon="4.59115">
        <ele>163.8</ele>
        <time>2015-04-05T05:48:26Z</time>
      </trkpt>
      <trkpt lat="45.84543" lon="4.59113">
        <ele>164.4</ele>
        <time>2015-04-05T05:48:31Z</time>
      </trkpt>
      <trkpt lat="45.8454" lon="4.59107">
        <ele>163.3</ele>
        <time>2015-04-05T05:48:36Z</time>
      </trkpt>
      <trkpt lat="45.84538" lon="4.59103">
        <ele>162.7</ele>
        <time>2015-04-05T05:48:41Z</time>
      </trkpt>
      <trkpt lat="45.84537" lon="4.59102">
        <ele>162.3</ele>
        <time>2015-04-05T05:48:46Z</time>
      </trkpt>
      <trkpt lat="45.84533" lon="4.59095">
        <ele>162.6</ele>
        <time>2015-04-05T05:48:51Z</time>
      </trkpt>
      <trkpt lat="45.84533" lon="4.59085">
        <ele>160.5</ele>
        <time>2015-04-05T05:48:56Z</time>
      </trkpt>
      <trkpt lat="45.84535" lon="4.59083">
        <ele>159.8</ele>
        <time>2015-04-05T05:49:01Z</time>
      </trkpt>
      <trkpt lat="45.84537" lon="4.59087">
        <ele>160.6</ele>
        <time>2015-04-05T05:49:06Z</time>
      </trkpt>
      <trkpt lat="45.84545" lon="4.59088">
        <ele>160.8</ele>
        <time>2015-04-05T05:49:11Z</time>
      </trkpt>
      <trkpt lat="45.84558" lon="4.59085">
        <ele>157.8</ele>
        <time>2015-04-05T05:49:16Z</time>
      </trkpt>
      <trkpt lat="45.84568" lon="4.59078">
        <ele>154.2</ele>
        <time>2015-04-05T05:49:21Z</time>
      </trkpt>
      <trkpt lat="45.84573" lon="4.59067">
        <ele>150.5</ele>
        <time>2015-04-05T05:49:26Z</time>
      </trkpt>
      <trkpt lat="45.84568" lon="4.59063">
        <ele>149.3</ele>
        <time>2015-04-05T05:49:31Z</time>
      </trkpt>
      <trkpt lat="45.84567" lon="4.59062">
        <ele>151.3</ele>
        <time>2015-04-05T05:49:36Z</time>
      </trkpt>
      <trkpt lat="45.84562" lon="4.5906">
        <ele>150.9</ele>
        <time>2015-04-05T05:49:41Z</time>
      </trkpt>
      <trkpt lat="45.84557" lon="4.59062">
        <ele>152.3</ele>
        <time>2015-04-05T05:49:46Z</time>
      </trkpt>
      <trkpt lat="45.8455" lon="4.5906">
        <ele>153.4</ele>
        <time>2015-04-05T05:49:51Z</time>
      </trkpt>
      <trkpt lat="45.8455" lon="4.59045">
        <ele>151.8</ele>
        <time>2015-04-05T05:49:56Z</time>
      </trkpt>
      <trkpt lat="45.8456" lon="4.5904">
        <ele>151.8</ele>
        <time>2015-04-05T05:50:01Z</time>
      </trkpt>
      <trkpt lat="45.84573" lon="4.59037">
        <ele>151.9</ele>
        <time>2015-04-05T05:50:06Z</time>
      </trkpt>
      <trkpt lat="45.84585" lon="4.5903">
        <ele>154.1</ele>
        <time>2015-04-05T05:50:11Z</time>
      </trkpt>
      <trkpt lat="45.84597" lon="4.59022">
        <ele>153.6</ele>
        <time>2015-04-05T05:50:16Z</time>
      </trkpt>
      <trkpt lat="45.84608" lon="4.59012">
        <ele>153.6</ele>
        <time>2015-04-05T05:50:21Z</time>
      </trkpt>
      <trkpt lat="45.84618" lon="4.59002">
        <ele>153.3</ele>
        <time>2015-04-05T05:50:26Z</time>
      </trkpt>
      <trkpt lat="45.84628" lon="4.58988">
        <ele>154.3</ele>
        <time>2015-04-05T05:50:31Z</time>
      </trkpt>
      <trkpt lat="45.84637" lon="4.58977">
        <ele>155.7</ele>
        <time>2015-04-05T05:50:36Z</time>
      </trkpt>
      <trkpt lat="45.84645" lon="4.58962">
        <ele>157.6</ele>
        <time>2015-04-05T05:50:41Z</time>
      </trkpt>
      <trkpt lat="45.84655" lon="4.5895">
        <ele>160</ele>
        <time>2015-04-05T05:50:46Z</time>
      </trkpt>
      <trkpt lat="45.8467" lon="4.58955">
        <ele>161</ele>
        <time>2015-04-05T05:50:51Z</time>
      </trkpt>
      <trkpt lat="45.84685" lon="4.58963">
        <ele>161.3</ele>
        <time>2015-04-05T05:50:56Z</time>
      </trkpt>
      <trkpt lat="45.84698" lon="4.58972">
        <ele>160.2</ele>
        <time>2015-04-05T05:51:01Z</time>
      </trkpt>
      <trkpt lat="45.84712" lon="4.58973">
        <ele>160.8</ele>
        <time>2015-04-05T05:51:06Z</time>
      </trkpt>
      <trkpt lat="45.84725" lon="4.58972">
        <ele>160.6</ele>
        <time>2015-04-05T05:51:11Z</time>
      </trkpt>
      <trkpt lat="45.84738" lon="4.58968">
        <ele>159.7</ele>
        <time>2015-04-05T05:51:16Z</time>
      </trkpt>
      <trkpt lat="45.84748" lon="4.58962">
        <ele>160.3</ele>
        <time>2015-04-05T05:51:21Z</time>
      </trkpt>
      <trkpt lat="45.84762" lon="4.58968">
        <ele>159.4</ele>
        <time>2015-04-05T05:51:26Z</time>
      </trkpt>
      <trkpt lat="45.84773" lon="4.58972">
        <ele>159.1</ele>
        <time>2015-04-05T05:51:31Z</time>
      </trkpt>
      <trkpt lat="45.84785" lon="4.58977">
        <ele>159.6</ele>
        <time>2015-04-05T05:51:36Z</time>
      </trkpt>
      <trkpt lat="45.84798" lon="4.58985">
        <ele>159.8</ele>
        <time>2015-04-05T05:51:41Z</time>
      </trkpt>
      <trkpt lat="45.84808" lon="4.58995">
        <ele>161.1</ele>
        <time>2015-04-05T05:51:46Z</time>
      </trkpt>
      <trkpt lat="45.8482" lon="4.59005">
        <ele>162</ele>
        <time>2015-04-05T05:51:51Z</time>
      </trkpt>
      <trkpt lat="45.84833" lon="4.59015">
        <ele>164</ele>
        <time>2015-04-05T05:51:56Z</time>
      </trkpt>
      <trkpt lat="45.84848" lon="4.59022">
        <ele>164.5</ele>
        <time>2015-04-05T05:52:01Z</time>
      </trkpt>
      <trkpt lat="45.84863" lon="4.59022">
        <ele>164.8</ele>
        <time>2015-04-05T05:52:06Z</time>
      </trkpt>
      <trkpt lat="45.84877" lon="4.59018">
        <ele>166.8</ele>
        <time>2015-04-05T05:52:11Z</time>
      </trkpt>
      <trkpt lat="45.84892" lon="4.59013">
        <ele>165.5</ele>
        <time>2015-04-05T05:52:16Z</time>
      </trkpt>
      <trkpt lat="45.84908" lon="4.59013">
        <ele>167.4</ele>
        <time>2015-04-05T05:52:21Z</time>
      </trkpt>
      <trkpt lat="45.84928" lon="4.59023">
        <ele>166.4</ele>
        <time>2015-04-05T05:52:26Z</time>
      </trkpt>
      <trkpt lat="45.84952" lon="4.59042">
        <ele>167.5</ele>
        <time>2015-04-05T05:52:31Z</time>
      </trkpt>
      <trkpt lat="45.84977" lon="4.59053">
        <ele>162.5</ele>
        <time>2015-04-05T05:52:36Z</time>
      </trkpt>
      <trkpt lat="45.84995" lon="4.59062">
        <ele>163.3</ele>
        <time>2015-04-05T05:52:41Z</time>
      </trkpt>
      <trkpt lat="45.85007" lon="4.59075">
        <ele>161.2</ele>
        <time>2015-04-05T05:52:46Z</time>
      </trkpt>
      <trkpt lat="45.85012" lon="4.59093">
        <ele>163.3</ele>
        <time>2015-04-05T05:52:51Z</time>
      </trkpt>
      <trkpt lat="45.8502" lon="4.59107">
        <ele>163.5</ele>
        <time>2015-04-05T05:52:56Z</time>
      </trkpt>
      <trkpt lat="45.85028" lon="4.59117">
        <ele>164.2</ele>
        <time>2015-04-05T05:53:01Z</time>
      </trkpt>
      <trkpt lat="45.85038" lon="4.59127">
        <ele>165.2</ele>
        <time>2015-04-05T05:53:06Z</time>
      </trkpt>
      <trkpt lat="45.85048" lon="4.59137">
        <ele>166.5</ele>
        <time>2015-04-05T05:53:11Z</time>
      </trkpt>
      <trkpt lat="45.85058" lon="4.59148">
        <ele>167.7</ele>
        <time>2015-04-05T05:53:16Z</time>
      </trkpt>
      <trkpt lat="45.85068" lon="4.5916">
        <ele>169.1</ele>
        <time>2015-04-05T05:53:21Z</time>
      </trkpt>
      <trkpt lat="45.8508" lon="4.59172">
        <ele>171.1</ele>
        <time>2015-04-05T05:53:26Z</time>
      </trkpt>
      <trkpt lat="45.8509" lon="4.59182">
        <ele>171.1</ele>
        <time>2015-04-05T05:53:31Z</time>
      </trkpt>
      <trkpt lat="45.851" lon="4.5919">
        <ele>171.3</ele>
        <time>2015-04-05T05:53:36Z</time>
      </trkpt>
      <trkpt lat="45.85108" lon="4.59198">
        <ele>172.2</ele>
        <time>2015-04-05T05:53:41Z</time>
      </trkpt>
      <trkpt lat="45.8511" lon="4.59202">
        <ele>172</ele>
        <time>2015-04-05T05:53:46Z</time>
      </trkpt>
      <trkpt lat="45.85113" lon="4.59205">
        <ele>171.7</ele>
        <time>2015-04-05T05:53:51Z</time>
      </trkpt>
      <trkpt lat="45.8512" lon="4.59212">
        <ele>171.9</ele>
        <time>2015-04-05T05:53:56Z</time>
      </trkpt>
      <trkpt lat="45.85132" lon="4.59218">
        <ele>171.9</ele>
        <time>2015-04-05T05:54:01Z</time>
      </trkpt>
      <trkpt lat="45.85142" lon="4.59228">
        <ele>171.8</ele>
        <time>2015-04-05T05:54:06Z</time>
      </trkpt>
      <trkpt lat="45.85153" lon="4.59238">
        <ele>173.2</ele>
        <time>2015-04-05T05:54:11Z</time>
      </trkpt>
      <trkpt lat="45.85165" lon="4.59248">
        <ele>172.9</ele>
        <time>2015-04-05T05:54:16Z</time>
      </trkpt>
      <trkpt lat="45.85177" lon="4.59257">
        <ele>172.9</ele>
        <time>2015-04-05T05:54:21Z</time>
      </trkpt>
      <trkpt lat="45.8519" lon="4.59265">
        <ele>174</ele>
        <time>2015-04-05T05:54:26Z</time>
      </trkpt>
      <trkpt lat="45.852" lon="4.59275">
        <ele>172.7</ele>
        <time>2015-04-05T05:54:31Z</time>
      </trkpt>
      <trkpt lat="45.85208" lon="4.59273">
        <ele>172.5</ele>
        <time>2015-04-05T05:54:36Z</time>
      </trkpt>
      <trkpt lat="45.85217" lon="4.59265">
        <ele>175.1</ele>
        <time>2015-04-05T05:54:41Z</time>
      </trkpt>
      <trkpt lat="45.85225" lon="4.59253">
        <ele>175.3</ele>
        <time>2015-04-05T05:54:46Z</time>
      </trkpt>
      <trkpt lat="45.85233" lon="4.59243">
        <ele>176.3</ele>
        <time>2015-04-05T05:54:51Z</time>
      </trkpt>
      <trkpt lat="45.8524" lon="4.59235">
        <ele>177.6</ele>
        <time>2015-04-05T05:54:56Z</time>
      </trkpt>
      <trkpt lat="45.85248" lon="4.59225">
        <ele>179.4</ele>
        <time>2015-04-05T05:55:01Z</time>
      </trkpt>
      <trkpt lat="45.85257" lon="4.59215">
        <ele>179.8</ele>
        <time>2015-04-05T05:55:06Z</time>
      </trkpt>
      <trkpt lat="45.85263" lon="4.59205">
        <ele>182.8</ele>
        <time>2015-04-05T05:55:11Z</time>
      </trkpt>
      <trkpt lat="45.8527" lon="4.59195">
        <ele>184.7</ele>
        <time>2015-04-05T05:55:16Z</time>
      </trkpt>
      <trkpt lat="45.85277" lon="4.59185">
        <ele>184.8</ele>
        <time>2015-04-05T05:55:21Z</time>
      </trkpt>
      <trkpt lat="45.85285" lon="4.59178">
        <ele>185.6</ele>
        <time>2015-04-05T05:55:26Z</time>
      </trkpt>
      <trkpt lat="45.85293" lon="4.59168">
        <ele>187.6</ele>
        <time>2015-04-05T05:55:31Z</time>
      </trkpt>
      <trkpt lat="45.85302" lon="4.59158">
        <ele>188.9</ele>
        <time>2015-04-05T05:55:36Z</time>
      </trkpt>
      <trkpt lat="45.85307" lon="4.59147">
        <ele>189</ele>
        <time>2015-04-05T05:55:41Z</time>
      </trkpt>
      <trkpt lat="45.85313" lon="4.59137">
        <ele>191</ele>
        <time>2015-04-05T05:55:46Z</time>
      </trkpt>
      <trkpt lat="45.85322" lon="4.59127">
        <ele>191.6</ele>
        <time>2015-04-05T05:55:51Z</time>
      </trkpt>
      <trkpt lat="45.8533" lon="4.59115">
        <ele>192.5</ele>
        <time>2015-04-05T05:55:56Z</time>
      </trkpt>
      <trkpt lat="45.85338" lon="4.59105">
        <ele>194.2</ele>
        <time>2015-04-05T05:56:01Z</time>
      </trkpt>
      <trkpt lat="45.8535" lon="4.59112">
        <ele>194.9</ele>
        <time>2015-04-05T05:56:06Z</time>
      </trkpt>
      <trkpt lat="45.85365" lon="4.59125">
        <ele>195.2</ele>
        <time>2015-04-05T05:56:11Z</time>
      </trkpt>
      <trkpt lat="45.85375" lon="4.59133">
        <ele>196.1</ele>
        <time>2015-04-05T05:56:16Z</time>
      </trkpt>
      <trkpt lat="45.8539" lon="4.59147">
        <ele>194</ele>
        <time>2015-04-05T05:56:21Z</time>
      </trkpt>
      <trkpt lat="45.85405" lon="4.59157">
        <ele>194.1</ele>
        <time>2015-04-05T05:56:26Z</time>
      </trkpt>
      <trkpt lat="45.85417" lon="4.59157">
        <ele>193</ele>
        <time>2015-04-05T05:56:31Z</time>
      </trkpt>
      <trkpt lat="45.85425" lon="4.59145">
        <ele>194.7</ele>
        <time>2015-04-05T05:56:36Z</time>
      </trkpt>
      <trkpt lat="45.85428" lon="4.59133">
        <ele>196.8</ele>
        <time>2015-04-05T05:56:41Z</time>
      </trkpt>
      <trkpt lat="45.85435" lon="4.59122">
        <ele>196.6</ele>
        <time>2015-04-05T05:56:46Z</time>
      </trkpt>
      <trkpt lat="45.85442" lon="4.59112">
        <ele>198.2</ele>
        <time>2015-04-05T05:56:51Z</time>
      </trkpt>
      <trkpt lat="45.85445" lon="4.59102">
        <ele>199.3</ele>
        <time>2015-04-05T05:56:56Z</time>
      </trkpt>
      <trkpt lat="45.85452" lon="4.59093">
        <ele>200.3</ele>
        <time>2015-04-05T05:57:01Z</time>
      </trkpt>
      <trkpt lat="45.8546" lon="4.59085">
        <ele>201.2</ele>
        <time>2015-04-05T05:57:06Z</time>
      </trkpt>
      <trkpt lat="45.85468" lon="4.59078">
        <ele>201.8</ele>
        <time>2015-04-05T05:57:11Z</time>
      </trkpt>
      <trkpt lat="45.85477" lon="4.59075">
        <ele>203.4</ele>
        <time>2015-04-05T05:57:16Z</time>
      </trkpt>
      <trkpt lat="45.85485" lon="4.59073">
        <ele>203.4</ele>
        <time>2015-04-05T05:57:21Z</time>
      </trkpt>
      <trkpt lat="45.85495" lon="4.59072">
        <ele>204</ele>
        <time>2015-04-05T05:57:26Z</time>
      </trkpt>
      <trkpt lat="45.85503" lon="4.59068">
        <ele>205</ele>
        <time>2015-04-05T05:57:31Z</time>
      </trkpt>
      <trkpt lat="45.85512" lon="4.59067">
        <ele>205.4</ele>
        <time>2015-04-05T05:57:36Z</time>
      </trkpt>
      <trkpt lat="45.85522" lon="4.59065">
        <ele>206.8</ele>
        <time>2015-04-05T05:57:41Z</time>
      </trkpt>
      <trkpt lat="45.8553" lon="4.59062">
        <ele>207.5</ele>
        <time>2015-04-05T05:57:46Z</time>
      </trkpt>
      <trkpt lat="45.8554" lon="4.59063">
        <ele>209.4</ele>
        <time>2015-04-05T05:57:51Z</time>
      </trkpt>
      <trkpt lat="45.85548" lon="4.5907">
        <ele>209.4</ele>
        <time>2015-04-05T05:57:56Z</time>
      </trkpt>
      <trkpt lat="45.85552" lon="4.59093">
        <ele>208.4</ele>
        <time>2015-04-05T05:58:01Z</time>
      </trkpt>
      <trkpt lat="45.85555" lon="4.59137">
        <ele>205.9</ele>
        <time>2015-04-05T05:58:06Z</time>
      </trkpt>
      <trkpt lat="45.85567" lon="4.5919">
        <ele>201.3</ele>
        <time>2015-04-05T05:58:11Z</time>
      </trkpt>
      <trkpt lat="45.85577" lon="4.59233">
        <ele>193.2</ele>
        <time>2015-04-05T05:58:16Z</time>
      </trkpt>
      <trkpt lat="45.85585" lon="4.5928">
        <ele>192.8</ele>
        <time>2015-04-05T05:58:21Z</time>
      </trkpt>
      <trkpt lat="45.85595" lon="4.59317">
        <ele>191</ele>
        <time>2015-04-05T05:58:26Z</time>
      </trkpt>
      <trkpt lat="45.85607" lon="4.59318">
        <ele>190.4</ele>
        <time>2015-04-05T05:58:31Z</time>
      </trkpt>
      <trkpt lat="45.85618" lon="4.59313">
        <ele>192.1</ele>
        <time>2015-04-05T05:58:36Z</time>
      </trkpt>
      <trkpt lat="45.85632" lon="4.59312">
        <ele>193.1</ele>
        <time>2015-04-05T05:58:41Z</time>
      </trkpt>
      <trkpt lat="45.85643" lon="4.59313">
        <ele>194.6</ele>
        <time>2015-04-05T05:58:46Z</time>
      </trkpt>
      <trkpt lat="45.85657" lon="4.59315">
        <ele>196.3</ele>
        <time>2015-04-05T05:58:51Z</time>
      </trkpt>
      <trkpt lat="45.85668" lon="4.59313">
        <ele>197</ele>
        <time>2015-04-05T05:58:56Z</time>
      </trkpt>
      <trkpt lat="45.8568" lon="4.59307">
        <ele>197.7</ele>
        <time>2015-04-05T05:59:01Z</time>
      </trkpt>
      <trkpt lat="45.85687" lon="4.59328">
        <ele>197.8</ele>
        <time>2015-04-05T05:59:06Z</time>
      </trkpt>
      <trkpt lat="45.8569" lon="4.59362">
        <ele>196.9</ele>
        <time>2015-04-05T05:59:11Z</time>
      </trkpt>
      <trkpt lat="45.85707" lon="4.5938">
        <ele>197.2</ele>
        <time>2015-04-05T05:59:16Z</time>
      </trkpt>
      <trkpt lat="45.8572" lon="4.59395">
        <ele>197.1</ele>
        <time>2015-04-05T05:59:21Z</time>
      </trkpt>
      <trkpt lat="45.85735" lon="4.5941">
        <ele>197.1</ele>
        <time>2015-04-05T05:59:26Z</time>
      </trkpt>
      <trkpt lat="45.85748" lon="4.59422">
        <ele>197.1</ele>
        <time>2015-04-05T05:59:31Z</time>
      </trkpt>
      <trkpt lat="45.85762" lon="4.59435">
        <ele>198</ele>
        <time>2015-04-05T05:59:36Z</time>
      </trkpt>
      <trkpt lat="45.85777" lon="4.5945">
        <ele>198</ele>
        <time>2015-04-05T05:59:41Z</time>
      </trkpt>
      <trkpt lat="45.8579" lon="4.59463">
        <ele>197.4</ele>
        <time>2015-04-05T05:59:46Z</time>
      </trkpt>
      <trkpt lat="45.85803" lon="4.59478">
        <ele>199</ele>
        <time>2015-04-05T05:59:51Z</time>
      </trkpt>
      <trkpt lat="45.8582" lon="4.59495">
        <ele>198.4</ele>
        <time>2015-04-05T05:59:56Z</time>
      </trkpt>
      <trkpt lat="45.85837" lon="4.59508">
        <ele>198.3</ele>
        <time>2015-04-05T06:00:01Z</time>
      </trkpt>
      <trkpt lat="45.85855" lon="4.59525">
        <ele>197.5</ele>
        <time>2015-04-05T06:00:06Z</time>
      </trkpt>
      <trkpt lat="45.85872" lon="4.5954">
        <ele>198.4</ele>
        <time>2015-04-05T06:00:11Z</time>
      </trkpt>
      <trkpt lat="45.85887" lon="4.59552">
        <ele>199.1</ele>
        <time>2015-04-05T06:00:16Z</time>
      </trkpt>
      <trkpt lat="45.85905" lon="4.59562">
        <ele>200.4</ele>
        <time>2015-04-05T06:00:21Z</time>
      </trkpt>
      <trkpt lat="45.8592" lon="4.59568">
        <ele>201.5</ele>
        <time>2015-04-05T06:00:26Z</time>
      </trkpt>
      <trkpt lat="45.8593" lon="4.59577">
        <ele>200.4</ele>
        <time>2015-04-05T06:00:31Z</time>
      </trkpt>
      <trkpt lat="45.85935" lon="4.59573">
        <ele>199.3</ele>
        <time>2015-04-05T06:00:36Z</time>
      </trkpt>
      <trkpt lat="45.85932" lon="4.5956">
        <ele>199.1</ele>
        <time>2015-04-05T06:00:41Z</time>
      </trkpt>
      <trkpt lat="45.85932" lon="4.59543">
        <ele>201.4</ele>
        <time>2015-04-05T06:00:46Z</time>
      </trkpt>
      <trkpt lat="45.8593" lon="4.59525">
        <ele>202.9</ele>
        <time>2015-04-05T06:00:51Z</time>
      </trkpt>
      <trkpt lat="45.85928" lon="4.59508">
        <ele>203.6</ele>
        <time>2015-04-05T06:00:56Z</time>
      </trkpt>
      <trkpt lat="45.85928" lon="4.59493">
        <ele>205</ele>
        <time>2015-04-05T06:01:01Z</time>
      </trkpt>
      <trkpt lat="45.85927" lon="4.59477">
        <ele>207</ele>
        <time>2015-04-05T06:01:06Z</time>
      </trkpt>
      <trkpt lat="45.85928" lon="4.59462">
        <ele>207.8</ele>
        <time>2015-04-05T06:01:11Z</time>
      </trkpt>
      <trkpt lat="45.85927" lon="4.59445">
        <ele>207.8</ele>
        <time>2015-04-05T06:01:16Z</time>
      </trkpt>
      <trkpt lat="45.85927" lon="4.59428">
        <ele>210</ele>
        <time>2015-04-05T06:01:21Z</time>
      </trkpt>
      <trkpt lat="45.85925" lon="4.59413">
        <ele>211.5</ele>
        <time>2015-04-05T06:01:26Z</time>
      </trkpt>
      <trkpt lat="45.85925" lon="4.59398">
        <ele>212.1</ele>
        <time>2015-04-05T06:01:31Z</time>
      </trkpt>
      <trkpt lat="45.85925" lon="4.59383">
        <ele>213.3</ele>
        <time>2015-04-05T06:01:36Z</time>
      </trkpt>
      <trkpt lat="45.85927" lon="4.59367">
        <ele>215</ele>
        <time>2015-04-05T06:01:41Z</time>
      </trkpt>
      <trkpt lat="45.8593" lon="4.59352">
        <ele>216</ele>
        <time>2015-04-05T06:01:46Z</time>
      </trkpt>
      <trkpt lat="45.85933" lon="4.59337">
        <ele>217.5</ele>
        <time>2015-04-05T06:01:51Z</time>
      </trkpt>
      <trkpt lat="45.85937" lon="4.59322">
        <ele>218.7</ele>
        <time>2015-04-05T06:01:56Z</time>
      </trkpt>
      <trkpt lat="45.85935" lon="4.59305">
        <ele>219.2</ele>
        <time>2015-04-05T06:02:01Z</time>
      </trkpt>
      <trkpt lat="45.85925" lon="4.59295">
        <ele>220.5</ele>
        <time>2015-04-05T06:02:06Z</time>
      </trkpt>
      <trkpt lat="45.8591" lon="4.59288">
        <ele>221.6</ele>
        <time>2015-04-05T06:02:11Z</time>
      </trkpt>
      <trkpt lat="45.85895" lon="4.5928">
        <ele>222.6</ele>
        <time>2015-04-05T06:02:16Z</time>
      </trkpt>
      <trkpt lat="45.8588" lon="4.59272">
        <ele>223</ele>
        <time>2015-04-05T06:02:21Z</time>
      </trkpt>
      <trkpt lat="45.85865" lon="4.59263">
        <ele>224.3</ele>
        <time>2015-04-05T06:02:26Z</time>
      </trkpt>
      <trkpt lat="45.85852" lon="4.59252">
        <ele>224.8</ele>
        <time>2015-04-05T06:02:31Z</time>
      </trkpt>
      <trkpt lat="45.8584" lon="4.59238">
        <ele>226.3</ele>
        <time>2015-04-05T06:02:36Z</time>
      </trkpt>
      <trkpt lat="45.85833" lon="4.5923">
        <ele>228.2</ele>
        <time>2015-04-05T06:02:41Z</time>
      </trkpt>
      <trkpt lat="45.85833" lon="4.5923">
        <ele>227.5</ele>
        <time>2015-04-05T06:02:46Z</time>
      </trkpt>
      <trkpt lat="45.85833" lon="4.59237">
        <ele>227.2</ele>
        <time>2015-04-05T06:02:51Z</time>
      </trkpt>
      <trkpt lat="45.85852" lon="4.59253">
        <ele>227</ele>
        <time>2015-04-05T06:02:56Z</time>
      </trkpt>
      <trkpt lat="45.8588" lon="4.59272">
        <ele>224.7</ele>
        <time>2015-04-05T06:03:01Z</time>
      </trkpt>
      <trkpt lat="45.85905" lon="4.59287">
        <ele>221.7</ele>
        <time>2015-04-05T06:03:06Z</time>
      </trkpt>
      <trkpt lat="45.85912" lon="4.5929">
        <ele>221.8</ele>
        <time>2015-04-05T06:03:11Z</time>
      </trkpt>
      <trkpt lat="45.85927" lon="4.59297">
        <ele>221.5</ele>
        <time>2015-04-05T06:03:16Z</time>
      </trkpt>
      <trkpt lat="45.85935" lon="4.59292">
        <ele>221.1</ele>
        <time>2015-04-05T06:03:21Z</time>
      </trkpt>
      <trkpt lat="45.85935" lon="4.59277">
        <ele>222.1</ele>
        <time>2015-04-05T06:03:26Z</time>
      </trkpt>
      <trkpt lat="45.85937" lon="4.59265">
        <ele>222.6</ele>
        <time>2015-04-05T06:03:31Z</time>
      </trkpt>
      <trkpt lat="45.85942" lon="4.59253">
        <ele>222.3</ele>
        <time>2015-04-05T06:03:36Z</time>
      </trkpt>
      <trkpt lat="45.85948" lon="4.59238">
        <ele>224.1</ele>
        <time>2015-04-05T06:03:41Z</time>
      </trkpt>
      <trkpt lat="45.85952" lon="4.59223">
        <ele>224.7</ele>
        <time>2015-04-05T06:03:46Z</time>
      </trkpt>
      <trkpt lat="45.85957" lon="4.5921">
        <ele>225.8</ele>
        <time>2015-04-05T06:03:51Z</time>
      </trkpt>
      <trkpt lat="45.8596" lon="4.59195">
        <ele>225.6</ele>
        <time>2015-04-05T06:03:56Z</time>
      </trkpt>
      <trkpt lat="45.85963" lon="4.5918">
        <ele>227.1</ele>
        <time>2015-04-05T06:04:01Z</time>
      </trkpt>
      <trkpt lat="45.85965" lon="4.59163">
        <ele>228.7</ele>
        <time>2015-04-05T06:04:06Z</time>
      </trkpt>
      <trkpt lat="45.85968" lon="4.59147">
        <ele>228.9</ele>
        <time>2015-04-05T06:04:11Z</time>
      </trkpt>
      <trkpt lat="45.85973" lon="4.5913">
        <ele>229.1</ele>
        <time>2015-04-05T06:04:16Z</time>
      </trkpt>
      <trkpt lat="45.85975" lon="4.59113">
        <ele>230.2</ele>
        <time>2015-04-05T06:04:21Z</time>
      </trkpt>
      <trkpt lat="45.85975" lon="4.59097">
        <ele>231</ele>
        <time>2015-04-05T06:04:26Z</time>
      </trkpt>
      <trkpt lat="45.85977" lon="4.59082">
        <ele>230.4</ele>
        <time>2015-04-05T06:04:31Z</time>
      </trkpt>
      <trkpt lat="45.85982" lon="4.59072">
        <ele>232.7</ele>
        <time>2015-04-05T06:04:36Z</time>
      </trkpt>
      <trkpt lat="45.85998" lon="4.59075">
        <ele>230.9</ele>
        <time>2015-04-05T06:04:41Z</time>
      </trkpt>
      <trkpt lat="45.86013" lon="4.59087">
        <ele>230.9</ele>
        <time>2015-04-05T06:04:46Z</time>
      </trkpt>
      <trkpt lat="45.86017" lon="4.59088">
        <ele>227.1</ele>
        <time>2015-04-05T06:04:51Z</time>
      </trkpt>
      <trkpt lat="45.8602" lon="4.59087">
        <ele>227.7</ele>
        <time>2015-04-05T06:04:56Z</time>
      </trkpt>
      <trkpt lat="45.8603" lon="4.5909">
        <ele>227.7</ele>
        <time>2015-04-05T06:05:01Z</time>
      </trkpt>
      <trkpt lat="45.86043" lon="4.59087">
        <ele>225.5</ele>
        <time>2015-04-05T06:05:06Z</time>
      </trkpt>
      <trkpt lat="45.8606" lon="4.59068">
        <ele>220.5</ele>
        <time>2015-04-05T06:05:11Z</time>
      </trkpt>
      <trkpt lat="45.86068" lon="4.59058">
        <ele>219.8</ele>
        <time>2015-04-05T06:05:16Z</time>
      </trkpt>
      <trkpt lat="45.86072" lon="4.59057">
        <ele>219.8</ele>
        <time>2015-04-05T06:05:21Z</time>
      </trkpt>
      <trkpt lat="45.86073" lon="4.59057">
        <ele>219.4</ele>
        <time>2015-04-05T06:05:26Z</time>
      </trkpt>
      <trkpt lat="45.86078" lon="4.59058">
        <ele>219.8</ele>
        <time>2015-04-05T06:05:31Z</time>
      </trkpt>
      <trkpt lat="45.86085" lon="4.5906">
        <ele>218.6</ele>
        <time>2015-04-05T06:05:36Z</time>
      </trkpt>
      <trkpt lat="45.86097" lon="4.59065">
        <ele>220</ele>
        <time>2015-04-05T06:05:41Z</time>
      </trkpt>
      <trkpt lat="45.86103" lon="4.59073">
        <ele>221.4</ele>
        <time>2015-04-05T06:05:46Z</time>
      </trkpt>
      <trkpt lat="45.86108" lon="4.59082">
        <ele>222.8</ele>
        <time>2015-04-05T06:05:51Z</time>
      </trkpt>
      <trkpt lat="45.86113" lon="4.59088">
        <ele>225.6</ele>
        <time>2015-04-05T06:05:56Z</time>
      </trkpt>
      <trkpt lat="45.8612" lon="4.59095">
        <ele>226.5</ele>
        <time>2015-04-05T06:06:01Z</time>
      </trkpt>
      <trkpt lat="45.86125" lon="4.59098">
        <ele>228.1</ele>
        <time>2015-04-05T06:06:06Z</time>
      </trkpt>
      <trkpt lat="45.86132" lon="4.59107">
        <ele>230</ele>
        <time>2015-04-05T06:06:11Z</time>
      </trkpt>
      <trkpt lat="45.8614" lon="4.5911">
        <ele>231.4</ele>
        <time>2015-04-05T06:06:16Z</time>
      </trkpt>
      <trkpt lat="45.86147" lon="4.59113">
        <ele>233.1</ele>
        <time>2015-04-05T06:06:21Z</time>
      </trkpt>
      <trkpt lat="45.86155" lon="4.59118">
        <ele>233.6</ele>
        <time>2015-04-05T06:06:26Z</time>
      </trkpt>
      <trkpt lat="45.86163" lon="4.59123">
        <ele>235.5</ele>
        <time>2015-04-05T06:06:31Z</time>
      </trkpt>
      <trkpt lat="45.8617" lon="4.59127">
        <ele>237.6</ele>
        <time>2015-04-05T06:06:36Z</time>
      </trkpt>
      <trkpt lat="45.86177" lon="4.59128">
        <ele>239.1</ele>
        <time>2015-04-05T06:06:41Z</time>
      </trkpt>
      <trkpt lat="45.86185" lon="4.59132">
        <ele>240.7</ele>
        <time>2015-04-05T06:06:46Z</time>
      </trkpt>
      <trkpt lat="45.86192" lon="4.59133">
        <ele>242.7</ele>
        <time>2015-04-05T06:06:51Z</time>
      </trkpt>
      <trkpt lat="45.86198" lon="4.59138">
        <ele>243.6</ele>
        <time>2015-04-05T06:06:56Z</time>
      </trkpt>
      <trkpt lat="45.86203" lon="4.59142">
        <ele>245.4</ele>
        <time>2015-04-05T06:07:01Z</time>
      </trkpt>
      <trkpt lat="45.8621" lon="4.59145">
        <ele>246</ele>
        <time>2015-04-05T06:07:06Z</time>
      </trkpt>
      <trkpt lat="45.86218" lon="4.59148">
        <ele>247.3</ele>
        <time>2015-04-05T06:07:11Z</time>
      </trkpt>
      <trkpt lat="45.86223" lon="4.59153">
        <ele>248</ele>
        <time>2015-04-05T06:07:16Z</time>
      </trkpt>
      <trkpt lat="45.8623" lon="4.59155">
        <ele>249</ele>
        <time>2015-04-05T06:07:21Z</time>
      </trkpt>
      <trkpt lat="45.86238" lon="4.59158">
        <ele>250.1</ele>
        <time>2015-04-05T06:07:26Z</time>
      </trkpt>
      <trkpt lat="45.86245" lon="4.59162">
        <ele>251.4</ele>
        <time>2015-04-05T06:07:31Z</time>
      </trkpt>
      <trkpt lat="45.86255" lon="4.59165">
        <ele>252.6</ele>
        <time>2015-04-05T06:07:36Z</time>
      </trkpt>
      <trkpt lat="45.86262" lon="4.5917">
        <ele>252.6</ele>
        <time>2015-04-05T06:07:41Z</time>
      </trkpt>
      <trkpt lat="45.8627" lon="4.59177">
        <ele>253.1</ele>
        <time>2015-04-05T06:07:46Z</time>
      </trkpt>
      <trkpt lat="45.86278" lon="4.5918">
        <ele>254.9</ele>
        <time>2015-04-05T06:07:51Z</time>
      </trkpt>
      <trkpt lat="45.86287" lon="4.59187">
        <ele>255.3</ele>
        <time>2015-04-05T06:07:56Z</time>
      </trkpt>
      <trkpt lat="45.86292" lon="4.59197">
        <ele>255.4</ele>
        <time>2015-04-05T06:08:01Z</time>
      </trkpt>
      <trkpt lat="45.86302" lon="4.59203">
        <ele>256.7</ele>
        <time>2015-04-05T06:08:06Z</time>
      </trkpt>
      <trkpt lat="45.86307" lon="4.59218">
        <ele>257.1</ele>
        <time>2015-04-05T06:08:11Z</time>
      </trkpt>
      <trkpt lat="45.86303" lon="4.5925">
        <ele>256.1</ele>
        <time>2015-04-05T06:08:16Z</time>
      </trkpt>
      <trkpt lat="45.86298" lon="4.5929">
        <ele>252.1</ele>
        <time>2015-04-05T06:08:21Z</time>
      </trkpt>
      <trkpt lat="45.86295" lon="4.5933">
        <ele>249.4</ele>
        <time>2015-04-05T06:08:26Z</time>
      </trkpt>
      <trkpt lat="45.8629" lon="4.59365">
        <ele>246.2</ele>
        <time>2015-04-05T06:08:31Z</time>
      </trkpt>
      <trkpt lat="45.86285" lon="4.59397">
        <ele>243.2</ele>
        <time>2015-04-05T06:08:36Z</time>
      </trkpt>
      <trkpt lat="45.86268" lon="4.59412">
        <ele>240.8</ele>
        <time>2015-04-05T06:08:41Z</time>
      </trkpt>
      <trkpt lat="45.86255" lon="4.59425">
        <ele>239.4</ele>
        <time>2015-04-05T06:08:46Z</time>
      </trkpt>
      <trkpt lat="45.86243" lon="4.59435">
        <ele>239.5</ele>
        <time>2015-04-05T06:08:51Z</time>
      </trkpt>
      <trkpt lat="45.86238" lon="4.59453">
        <ele>238.9</ele>
        <time>2015-04-05T06:08:56Z</time>
      </trkpt>
      <trkpt lat="45.86238" lon="4.59493">
        <ele>231.7</ele>
        <time>2015-04-05T06:09:01Z</time>
      </trkpt>
      <trkpt lat="45.86238" lon="4.59547">
        <ele>227.1</ele>
        <time>2015-04-05T06:09:06Z</time>
      </trkpt>
      <trkpt lat="45.86237" lon="4.59608">
        <ele>223.2</ele>
        <time>2015-04-05T06:09:11Z</time>
      </trkpt>
      <trkpt lat="45.8624" lon="4.5963">
        <ele>217.4</ele>
        <time>2015-04-05T06:09:16Z</time>
      </trkpt>
      <trkpt lat="45.86243" lon="4.59637">
        <ele>214.8</ele>
        <time>2015-04-05T06:09:21Z</time>
      </trkpt>
      <trkpt lat="45.86242" lon="4.59643">
        <ele>213.9</ele>
        <time>2015-04-05T06:09:26Z</time>
      </trkpt>
      <trkpt lat="45.86238" lon="4.59645">
        <ele>213.8</ele>
        <time>2015-04-05T06:09:31Z</time>
      </trkpt>
      <trkpt lat="45.86237" lon="4.5965">
        <ele>212.3</ele>
        <time>2015-04-05T06:09:36Z</time>
      </trkpt>
      <trkpt lat="45.86228" lon="4.59648">
        <ele>212.3</ele>
        <time>2015-04-05T06:09:41Z</time>
      </trkpt>
      <trkpt lat="45.8622" lon="4.59647">
        <ele>213.3</ele>
        <time>2015-04-05T06:09:46Z</time>
      </trkpt>
      <trkpt lat="45.86212" lon="4.59647">
        <ele>213.8</ele>
        <time>2015-04-05T06:09:51Z</time>
      </trkpt>
      <trkpt lat="45.86197" lon="4.5965">
        <ele>212.3</ele>
        <time>2015-04-05T06:09:56Z</time>
      </trkpt>
      <trkpt lat="45.86187" lon="4.59653">
        <ele>209.5</ele>
        <time>2015-04-05T06:10:01Z</time>
      </trkpt>
      <trkpt lat="45.86173" lon="4.59655">
        <ele>209.5</ele>
        <time>2015-04-05T06:10:06Z</time>
      </trkpt>
      <trkpt lat="45.86155" lon="4.59662">
        <ele>208.1</ele>
        <time>2015-04-05T06:10:11Z</time>
      </trkpt>
      <trkpt lat="45.8614" lon="4.59665">
        <ele>207.2</ele>
        <time>2015-04-05T06:10:16Z</time>
      </trkpt>
      <trkpt lat="45.86122" lon="4.5967">
        <ele>208.3</ele>
        <time>2015-04-05T06:10:21Z</time>
      </trkpt>
      <trkpt lat="45.86103" lon="4.5968">
        <ele>207.4</ele>
        <time>2015-04-05T06:10:26Z</time>
      </trkpt>
      <trkpt lat="45.86092" lon="4.59692">
        <ele>205.6</ele>
        <time>2015-04-05T06:10:31Z</time>
      </trkpt>
      <trkpt lat="45.86082" lon="4.59698">
        <ele>205.2</ele>
        <time>2015-04-05T06:10:36Z</time>
      </trkpt>
      <trkpt lat="45.8607" lon="4.59708">
        <ele>203.6</ele>
        <time>2015-04-05T06:10:41Z</time>
      </trkpt>
      <trkpt lat="45.86065" lon="4.59713">
        <ele>203.4</ele>
        <time>2015-04-05T06:10:46Z</time>
      </trkpt>
      <trkpt lat="45.86058" lon="4.59722">
        <ele>202.7</ele>
        <time>2015-04-05T06:10:51Z</time>
      </trkpt>
      <trkpt lat="45.8605" lon="4.59732">
        <ele>203.9</ele>
        <time>2015-04-05T06:10:56Z</time>
      </trkpt>
      <trkpt lat="45.86028" lon="4.59723">
        <ele>200.4</ele>
        <time>2015-04-05T06:11:01Z</time>
      </trkpt>
      <trkpt lat="45.8601" lon="4.59715">
        <ele>199.4</ele>
        <time>2015-04-05T06:11:06Z</time>
      </trkpt>
      <trkpt lat="45.85992" lon="4.5971">
        <ele>199.4</ele>
        <time>2015-04-05T06:11:11Z</time>
      </trkpt>
      <trkpt lat="45.85975" lon="4.59707">
        <ele>198.8</ele>
        <time>2015-04-05T06:11:16Z</time>
      </trkpt>
      <trkpt lat="45.85958" lon="4.59705">
        <ele>197.5</ele>
        <time>2015-04-05T06:11:21Z</time>
      </trkpt>
      <trkpt lat="45.85947" lon="4.59708">
        <ele>198.4</ele>
        <time>2015-04-05T06:11:26Z</time>
      </trkpt>
      <trkpt lat="45.85943" lon="4.59723">
        <ele>198.9</ele>
        <time>2015-04-05T06:11:31Z</time>
      </trkpt>
      <trkpt lat="45.85942" lon="4.5974">
        <ele>199.8</ele>
        <time>2015-04-05T06:11:36Z</time>
      </trkpt>
      <trkpt lat="45.85937" lon="4.59755">
        <ele>202</ele>
        <time>2015-04-05T06:11:41Z</time>
      </trkpt>
      <trkpt lat="45.85933" lon="4.59768">
        <ele>202.5</ele>
        <time>2015-04-05T06:11:46Z</time>
      </trkpt>
      <trkpt lat="45.85928" lon="4.59783">
        <ele>205.6</ele>
        <time>2015-04-05T06:11:51Z</time>
      </trkpt>
      <trkpt lat="45.85925" lon="4.598">
        <ele>206.5</ele>
        <time>2015-04-05T06:11:56Z</time>
      </trkpt>
      <trkpt lat="45.85922" lon="4.59815">
        <ele>208.5</ele>
        <time>2015-04-05T06:12:01Z</time>
      </trkpt>
      <trkpt lat="45.8592" lon="4.59832">
        <ele>210.7</ele>
        <time>2015-04-05T06:12:06Z</time>
      </trkpt>
      <trkpt lat="45.85918" lon="4.59848">
        <ele>212.5</ele>
        <time>2015-04-05T06:12:11Z</time>
      </trkpt>
      <trkpt lat="45.85917" lon="4.59865">
        <ele>213.4</ele>
        <time>2015-04-05T06:12:16Z</time>
      </trkpt>
      <trkpt lat="45.85918" lon="4.59882">
        <ele>215</ele>
        <time>2015-04-05T06:12:21Z</time>
      </trkpt>
      <trkpt lat="45.85917" lon="4.59898">
        <ele>217.2</ele>
        <time>2015-04-05T06:12:26Z</time>
      </trkpt>
      <trkpt lat="45.85915" lon="4.59915">
        <ele>218.1</ele>
        <time>2015-04-05T06:12:31Z</time>
      </trkpt>
      <trkpt lat="45.85915" lon="4.59933">
        <ele>218.6</ele>
        <time>2015-04-05T06:12:36Z</time>
      </trkpt>
      <trkpt lat="45.85915" lon="4.5995">
        <ele>220.4</ele>
        <time>2015-04-05T06:12:41Z</time>
      </trkpt>
      <trkpt lat="45.85913" lon="4.59963">
        <ele>221.8</ele>
        <time>2015-04-05T06:12:46Z</time>
      </trkpt>
      <trkpt lat="45.859" lon="4.59968">
        <ele>220.2</ele>
        <time>2015-04-05T06:12:51Z</time>
      </trkpt>
      <trkpt lat="45.85878" lon="4.59968">
        <ele>219</ele>
        <time>2015-04-05T06:12:56Z</time>
      </trkpt>
      <trkpt lat="45.85853" lon="4.59968">
        <ele>217.1</ele>
        <time>2015-04-05T06:13:01Z</time>
      </trkpt>
      <trkpt lat="45.85823" lon="4.5996">
        <ele>215.6</ele>
        <time>2015-04-05T06:13:06Z</time>
      </trkpt>
      <trkpt lat="45.85802" lon="4.59977">
        <ele>213.9</ele>
        <time>2015-04-05T06:13:11Z</time>
      </trkpt>
      <trkpt lat="45.85792" lon="4.59998">
        <ele>213.9</ele>
        <time>2015-04-05T06:13:16Z</time>
      </trkpt>
      <trkpt lat="45.85785" lon="4.60027">
        <ele>213</ele>
        <time>2015-04-05T06:13:21Z</time>
      </trkpt>
      <trkpt lat="45.85777" lon="4.60057">
        <ele>212.8</ele>
        <time>2015-04-05T06:13:26Z</time>
      </trkpt>
      <trkpt lat="45.85782" lon="4.60087">
        <ele>214.3</ele>
        <time>2015-04-05T06:13:31Z</time>
      </trkpt>
      <trkpt lat="45.85787" lon="4.6011">
        <ele>215.1</ele>
        <time>2015-04-05T06:13:36Z</time>
      </trkpt>
      <trkpt lat="45.85785" lon="4.60133">
        <ele>214.9</ele>
        <time>2015-04-05T06:13:41Z</time>
      </trkpt>
      <trkpt lat="45.85783" lon="4.60158">
        <ele>216.7</ele>
        <time>2015-04-05T06:13:46Z</time>
      </trkpt>
      <trkpt lat="45.85782" lon="4.60183">
        <ele>217.1</ele>
        <time>2015-04-05T06:13:51Z</time>
      </trkpt>
      <trkpt lat="45.85782" lon="4.60208">
        <ele>219.1</ele>
        <time>2015-04-05T06:13:56Z</time>
      </trkpt>
      <trkpt lat="45.85782" lon="4.60233">
        <ele>218.8</ele>
        <time>2015-04-05T06:14:01Z</time>
      </trkpt>
      <trkpt lat="45.8578" lon="4.60257">
        <ele>221</ele>
        <time>2015-04-05T06:14:06Z</time>
      </trkpt>
      <trkpt lat="45.85778" lon="4.6028">
        <ele>221.1</ele>
        <time>2015-04-05T06:14:11Z</time>
      </trkpt>
      <trkpt lat="45.85778" lon="4.60302">
        <ele>222.2</ele>
        <time>2015-04-05T06:14:16Z</time>
      </trkpt>
      <trkpt lat="45.85778" lon="4.60327">
        <ele>224.4</ele>
        <time>2015-04-05T06:14:21Z</time>
      </trkpt>
      <trkpt lat="45.85778" lon="4.60348">
        <ele>225.6</ele>
        <time>2015-04-05T06:14:26Z</time>
      </trkpt>
      <trkpt lat="45.85778" lon="4.6037">
        <ele>226</ele>
        <time>2015-04-05T06:14:31Z</time>
      </trkpt>
      <trkpt lat="45.85778" lon="4.60392">
        <ele>226.7</ele>
        <time>2015-04-05T06:14:36Z</time>
      </trkpt>
      <trkpt lat="45.85777" lon="4.60417">
        <ele>228.5</ele>
        <time>2015-04-05T06:14:41Z</time>
      </trkpt>
      <trkpt lat="45.85777" lon="4.6044">
        <ele>229.2</ele>
        <time>2015-04-05T06:14:46Z</time>
      </trkpt>
      <trkpt lat="45.85778" lon="4.6046">
        <ele>230</ele>
        <time>2015-04-05T06:14:51Z</time>
      </trkpt>
      <trkpt lat="45.85792" lon="4.60468">
        <ele>230.5</ele>
        <time>2015-04-05T06:14:56Z</time>
      </trkpt>
      <trkpt lat="45.85807" lon="4.60475">
        <ele>230.3</ele>
        <time>2015-04-05T06:15:01Z</time>
      </trkpt>
      <trkpt lat="45.8582" lon="4.60482">
        <ele>233.1</ele>
        <time>2015-04-05T06:15:06Z</time>
      </trkpt>
      <trkpt lat="45.85835" lon="4.60488">
        <ele>232.3</ele>
        <time>2015-04-05T06:15:11Z</time>
      </trkpt>
      <trkpt lat="45.8585" lon="4.60495">
        <ele>233.2</ele>
        <time>2015-04-05T06:15:16Z</time>
      </trkpt>
      <trkpt lat="45.85865" lon="4.605">
        <ele>232.8</ele>
        <time>2015-04-05T06:15:21Z</time>
      </trkpt>
      <trkpt lat="45.85883" lon="4.60507">
        <ele>232.4</ele>
        <time>2015-04-05T06:15:26Z</time>
      </trkpt>
      <trkpt lat="45.859" lon="4.60512">
        <ele>234.6</ele>
        <time>2015-04-05T06:15:31Z</time>
      </trkpt>
      <trkpt lat="45.85917" lon="4.60517">
        <ele>233.8</ele>
        <time>2015-04-05T06:15:36Z</time>
      </trkpt>
      <trkpt lat="45.85933" lon="4.60522">
        <ele>233.8</ele>
        <time>2015-04-05T06:15:41Z</time>
      </trkpt>
      <trkpt lat="45.85952" lon="4.60527">
        <ele>234.2</ele>
        <time>2015-04-05T06:15:46Z</time>
      </trkpt>
      <trkpt lat="45.85967" lon="4.60532">
        <ele>235</ele>
        <time>2015-04-05T06:15:51Z</time>
      </trkpt>
      <trkpt lat="45.85983" lon="4.60542">
        <ele>234.1</ele>
        <time>2015-04-05T06:15:56Z</time>
      </trkpt>
      <trkpt lat="45.85998" lon="4.60545">
        <ele>235</ele>
        <time>2015-04-05T06:16:01Z</time>
      </trkpt>
      <trkpt lat="45.86013" lon="4.60557">
        <ele>235.6</ele>
        <time>2015-04-05T06:16:06Z</time>
      </trkpt>
      <trkpt lat="45.86025" lon="4.60565">
        <ele>237.4</ele>
        <time>2015-04-05T06:16:11Z</time>
      </trkpt>
      <trkpt lat="45.86035" lon="4.60557">
        <ele>237.1</ele>
        <time>2015-04-05T06:16:16Z</time>
      </trkpt>
      <trkpt lat="45.86043" lon="4.6054">
        <ele>236.7</ele>
        <time>2015-04-05T06:16:21Z</time>
      </trkpt>
      <trkpt lat="45.86055" lon="4.6052">
        <ele>238</ele>
        <time>2015-04-05T06:16:26Z</time>
      </trkpt>
      <trkpt lat="45.86067" lon="4.60502">
        <ele>238.3</ele>
        <time>2015-04-05T06:16:31Z</time>
      </trkpt>
      <trkpt lat="45.86077" lon="4.6048">
        <ele>237.3</ele>
        <time>2015-04-05T06:16:36Z</time>
      </trkpt>
      <trkpt lat="45.86088" lon="4.60468">
        <ele>237.2</ele>
        <time>2015-04-05T06:16:41Z</time>
      </trkpt>
      <trkpt lat="45.86102" lon="4.60475">
        <ele>237.7</ele>
        <time>2015-04-05T06:16:46Z</time>
      </trkpt>
      <trkpt lat="45.86115" lon="4.60465">
        <ele>239.3</ele>
        <time>2015-04-05T06:16:51Z</time>
      </trkpt>
      <trkpt lat="45.86125" lon="4.60445">
        <ele>237.5</ele>
        <time>2015-04-05T06:16:56Z</time>
      </trkpt>
      <trkpt lat="45.86135" lon="4.60425">
        <ele>237.3</ele>
        <time>2015-04-05T06:17:01Z</time>
      </trkpt>
      <trkpt lat="45.86133" lon="4.60405">
        <ele>240.1</ele>
        <time>2015-04-05T06:17:06Z</time>
      </trkpt>
      <trkpt lat="45.86127" lon="4.60383">
        <ele>238.5</ele>
        <time>2015-04-05T06:17:11Z</time>
      </trkpt>
      <trkpt lat="45.86135" lon="4.60367">
        <ele>240.5</ele>
        <time>2015-04-05T06:17:16Z</time>
      </trkpt>
      <trkpt lat="45.86148" lon="4.60365">
        <ele>239</ele>
        <time>2015-04-05T06:17:21Z</time>
      </trkpt>
      <trkpt lat="45.86162" lon="4.60362">
        <ele>242.3</ele>
        <time>2015-04-05T06:17:26Z</time>
      </trkpt>
      <trkpt lat="45.86175" lon="4.60358">
        <ele>242.8</ele>
        <time>2015-04-05T06:17:31Z</time>
      </trkpt>
      <trkpt lat="45.86182" lon="4.60345">
        <ele>243.6</ele>
        <time>2015-04-05T06:17:36Z</time>
      </trkpt>
      <trkpt lat="45.86182" lon="4.60323">
        <ele>241.3</ele>
        <time>2015-04-05T06:17:41Z</time>
      </trkpt>
      <trkpt lat="45.86185" lon="4.603">
        <ele>243.3</ele>
        <time>2015-04-05T06:17:46Z</time>
      </trkpt>
      <trkpt lat="45.86187" lon="4.60275">
        <ele>242.4</ele>
        <time>2015-04-05T06:17:51Z</time>
      </trkpt>
      <trkpt lat="45.86188" lon="4.60248">
        <ele>240.2</ele>
        <time>2015-04-05T06:17:56Z</time>
      </trkpt>
      <trkpt lat="45.8619" lon="4.60218">
        <ele>243.1</ele>
        <time>2015-04-05T06:18:01Z</time>
      </trkpt>
      <trkpt lat="45.86192" lon="4.60192">
        <ele>241.3</ele>
        <time>2015-04-05T06:18:06Z</time>
      </trkpt>
      <trkpt lat="45.86193" lon="4.60163">
        <ele>241.8</ele>
        <time>2015-04-05T06:18:11Z</time>
      </trkpt>
      <trkpt lat="45.86195" lon="4.60133">
        <ele>240.8</ele>
        <time>2015-04-05T06:18:16Z</time>
      </trkpt>
      <trkpt lat="45.86197" lon="4.60107">
        <ele>240.2</ele>
        <time>2015-04-05T06:18:21Z</time>
      </trkpt>
      <trkpt lat="45.86202" lon="4.60082">
        <ele>240.4</ele>
        <time>2015-04-05T06:18:26Z</time>
      </trkpt>
      <trkpt lat="45.86217" lon="4.60065">
        <ele>241.8</ele>
        <time>2015-04-05T06:18:31Z</time>
      </trkpt>
      <trkpt lat="45.8623" lon="4.60055">
        <ele>239.3</ele>
        <time>2015-04-05T06:18:36Z</time>
      </trkpt>
      <trkpt lat="45.86243" lon="4.60063">
        <ele>242</ele>
        <time>2015-04-05T06:18:41Z</time>
      </trkpt>
      <trkpt lat="45.86257" lon="4.60073">
        <ele>242.2</ele>
        <time>2015-04-05T06:18:46Z</time>
      </trkpt>
      <trkpt lat="45.8627" lon="4.60087">
        <ele>243.7</ele>
        <time>2015-04-05T06:18:51Z</time>
      </trkpt>
      <trkpt lat="45.8628" lon="4.60098">
        <ele>245</ele>
        <time>2015-04-05T06:18:56Z</time>
      </trkpt>
      <trkpt lat="45.86293" lon="4.6011">
        <ele>245.9</ele>
        <time>2015-04-05T06:19:01Z</time>
      </trkpt>
      <trkpt lat="45.86305" lon="4.60123">
        <ele>247</ele>
        <time>2015-04-05T06:19:06Z</time>
      </trkpt>
      <trkpt lat="45.86315" lon="4.60133">
        <ele>246.5</ele>
        <time>2015-04-05T06:19:11Z</time>
      </trkpt>
      <trkpt lat="45.86327" lon="4.60145">
        <ele>248.3</ele>
        <time>2015-04-05T06:19:16Z</time>
      </trkpt>
      <trkpt lat="45.86342" lon="4.6016">
        <ele>248.8</ele>
        <time>2015-04-05T06:19:21Z</time>
      </trkpt>
      <trkpt lat="45.86355" lon="4.60175">
        <ele>248.8</ele>
        <time>2015-04-05T06:19:26Z</time>
      </trkpt>
      <trkpt lat="45.86363" lon="4.60197">
        <ele>249.1</ele>
        <time>2015-04-05T06:19:31Z</time>
      </trkpt>
      <trkpt lat="45.86375" lon="4.60208">
        <ele>251.3</ele>
        <time>2015-04-05T06:19:36Z</time>
      </trkpt>
      <trkpt lat="45.86387" lon="4.60218">
        <ele>251.7</ele>
        <time>2015-04-05T06:19:41Z</time>
      </trkpt>
      <trkpt lat="45.86398" lon="4.6023">
        <ele>252.3</ele>
        <time>2015-04-05T06:19:46Z</time>
      </trkpt>
      <trkpt lat="45.86408" lon="4.60245">
        <ele>254</ele>
        <time>2015-04-05T06:19:51Z</time>
      </trkpt>
      <trkpt lat="45.86415" lon="4.60262">
        <ele>254.9</ele>
        <time>2015-04-05T06:19:56Z</time>
      </trkpt>
      <trkpt lat="45.86422" lon="4.60278">
        <ele>257.6</ele>
        <time>2015-04-05T06:20:01Z</time>
      </trkpt>
      <trkpt lat="45.86428" lon="4.60295">
        <ele>258.5</ele>
        <time>2015-04-05T06:20:06Z</time>
      </trkpt>
      <trkpt lat="45.86435" lon="4.60313">
        <ele>258.9</ele>
        <time>2015-04-05T06:20:11Z</time>
      </trkpt>
      <trkpt lat="45.86448" lon="4.60327">
        <ele>260.8</ele>
        <time>2015-04-05T06:20:16Z</time>
      </trkpt>
      <trkpt lat="45.86457" lon="4.60347">
        <ele>260.8</ele>
        <time>2015-04-05T06:20:21Z</time>
      </trkpt>
      <trkpt lat="45.86458" lon="4.60373">
        <ele>262.4</ele>
        <time>2015-04-05T06:20:26Z</time>
      </trkpt>
      <trkpt lat="45.8646" lon="4.604">
        <ele>263.3</ele>
        <time>2015-04-05T06:20:31Z</time>
      </trkpt>
      <trkpt lat="45.86463" lon="4.60428">
        <ele>262.4</ele>
        <time>2015-04-05T06:20:36Z</time>
      </trkpt>
      <trkpt lat="45.86467" lon="4.60455">
        <ele>260.5</ele>
        <time>2015-04-05T06:20:41Z</time>
      </trkpt>
      <trkpt lat="45.86472" lon="4.60483">
        <ele>260</ele>
        <time>2015-04-05T06:20:46Z</time>
      </trkpt>
      <trkpt lat="45.86475" lon="4.60512">
        <ele>257.2</ele>
        <time>2015-04-05T06:20:51Z</time>
      </trkpt>
      <trkpt lat="45.86483" lon="4.60535">
        <ele>258.1</ele>
        <time>2015-04-05T06:20:56Z</time>
      </trkpt>
      <trkpt lat="45.86483" lon="4.60557">
        <ele>258.2</ele>
        <time>2015-04-05T06:21:01Z</time>
      </trkpt>
      <trkpt lat="45.86492" lon="4.6056">
        <ele>259.5</ele>
        <time>2015-04-05T06:21:06Z</time>
      </trkpt>
      <trkpt lat="45.8651" lon="4.6056">
        <ele>260.7</ele>
        <time>2015-04-05T06:21:11Z</time>
      </trkpt>
      <trkpt lat="45.8653" lon="4.6056">
        <ele>261</ele>
        <time>2015-04-05T06:21:16Z</time>
      </trkpt>
      <trkpt lat="45.86548" lon="4.6056">
        <ele>261</ele>
        <time>2015-04-05T06:21:21Z</time>
      </trkpt>
      <trkpt lat="45.86563" lon="4.60547">
        <ele>259.8</ele>
        <time>2015-04-05T06:21:26Z</time>
      </trkpt>
      <trkpt lat="45.86562" lon="4.6052">
        <ele>262.7</ele>
        <time>2015-04-05T06:21:31Z</time>
      </trkpt>
      <trkpt lat="45.8656" lon="4.60495">
        <ele>262.8</ele>
        <time>2015-04-05T06:21:36Z</time>
      </trkpt>
      <trkpt lat="45.8656" lon="4.60472">
        <ele>262.8</ele>
        <time>2015-04-05T06:21:41Z</time>
      </trkpt>
      <trkpt lat="45.86558" lon="4.60447">
        <ele>266</ele>
        <time>2015-04-05T06:21:46Z</time>
      </trkpt>
      <trkpt lat="45.86557" lon="4.60423">
        <ele>266.1</ele>
        <time>2015-04-05T06:21:51Z</time>
      </trkpt>
      <trkpt lat="45.86555" lon="4.60398">
        <ele>269.4</ele>
        <time>2015-04-05T06:21:56Z</time>
      </trkpt>
      <trkpt lat="45.8655" lon="4.60377">
        <ele>267.3</ele>
        <time>2015-04-05T06:22:01Z</time>
      </trkpt>
      <trkpt lat="45.86548" lon="4.60355">
        <ele>269.3</ele>
        <time>2015-04-05T06:22:06Z</time>
      </trkpt>
      <trkpt lat="45.86558" lon="4.60343">
        <ele>269</ele>
        <time>2015-04-05T06:22:11Z</time>
      </trkpt>
      <trkpt lat="45.86575" lon="4.6034">
        <ele>271.2</ele>
        <time>2015-04-05T06:22:16Z</time>
      </trkpt>
      <trkpt lat="45.86592" lon="4.60338">
        <ele>272.4</ele>
        <time>2015-04-05T06:22:21Z</time>
      </trkpt>
      <trkpt lat="45.866" lon="4.60358">
        <ele>270.1</ele>
        <time>2015-04-05T06:22:26Z</time>
      </trkpt>
      <trkpt lat="45.86613" lon="4.6038">
        <ele>270.9</ele>
        <time>2015-04-05T06:22:31Z</time>
      </trkpt>
      <trkpt lat="45.86638" lon="4.60377">
        <ele>270.4</ele>
        <time>2015-04-05T06:22:36Z</time>
      </trkpt>
      <trkpt lat="45.86662" lon="4.60372">
        <ele>270.1</ele>
        <time>2015-04-05T06:22:41Z</time>
      </trkpt>
      <trkpt lat="45.86682" lon="4.60368">
        <ele>272.7</ele>
        <time>2015-04-05T06:22:46Z</time>
      </trkpt>
      <trkpt lat="45.86702" lon="4.60365">
        <ele>271.5</ele>
        <time>2015-04-05T06:22:51Z</time>
      </trkpt>
      <trkpt lat="45.86722" lon="4.60363">
        <ele>271.6</ele>
        <time>2015-04-05T06:22:56Z</time>
      </trkpt>
      <trkpt lat="45.86742" lon="4.60357">
        <ele>271.3</ele>
        <time>2015-04-05T06:23:01Z</time>
      </trkpt>
      <trkpt lat="45.8676" lon="4.60348">
        <ele>271.6</ele>
        <time>2015-04-05T06:23:06Z</time>
      </trkpt>
      <trkpt lat="45.8677" lon="4.60352">
        <ele>272</ele>
        <time>2015-04-05T06:23:11Z</time>
      </trkpt>
      <trkpt lat="45.86783" lon="4.60365">
        <ele>271</ele>
        <time>2015-04-05T06:23:16Z</time>
      </trkpt>
      <trkpt lat="45.86802" lon="4.60383">
        <ele>270.6</ele>
        <time>2015-04-05T06:23:21Z</time>
      </trkpt>
      <trkpt lat="45.86818" lon="4.60402">
        <ele>271.3</ele>
        <time>2015-04-05T06:23:26Z</time>
      </trkpt>
      <trkpt lat="45.86833" lon="4.60422">
        <ele>270.6</ele>
        <time>2015-04-05T06:23:31Z</time>
      </trkpt>
      <trkpt lat="45.86848" lon="4.60438">
        <ele>272.6</ele>
        <time>2015-04-05T06:23:36Z</time>
      </trkpt>
      <trkpt lat="45.8686" lon="4.60453">
        <ele>273</ele>
        <time>2015-04-05T06:23:41Z</time>
      </trkpt>
      <trkpt lat="45.86867" lon="4.60468">
        <ele>273.2</ele>
        <time>2015-04-05T06:23:46Z</time>
      </trkpt>
      <trkpt lat="45.8687" lon="4.60492">
        <ele>274.6</ele>
        <time>2015-04-05T06:23:51Z</time>
      </trkpt>
      <trkpt lat="45.86883" lon="4.60507">
        <ele>275.3</ele>
        <time>2015-04-05T06:23:56Z</time>
      </trkpt>
      <trkpt lat="45.86895" lon="4.60522">
        <ele>275.8</ele>
        <time>2015-04-05T06:24:01Z</time>
      </trkpt>
      <trkpt lat="45.86908" lon="4.60537">
        <ele>276.4</ele>
        <time>2015-04-05T06:24:06Z</time>
      </trkpt>
      <trkpt lat="45.86917" lon="4.60557">
        <ele>278.4</ele>
        <time>2015-04-05T06:24:11Z</time>
      </trkpt>
      <trkpt lat="45.86918" lon="4.60587">
        <ele>275.6</ele>
        <time>2015-04-05T06:24:16Z</time>
      </trkpt>
      <trkpt lat="45.8692" lon="4.6061">
        <ele>278.1</ele>
        <time>2015-04-05T06:24:21Z</time>
      </trkpt>
      <trkpt lat="45.86923" lon="4.60633">
        <ele>276.8</ele>
        <time>2015-04-05T06:24:26Z</time>
      </trkpt>
      <trkpt lat="45.86927" lon="4.60658">
        <ele>277.2</ele>
        <time>2015-04-05T06:24:31Z</time>
      </trkpt>
      <trkpt lat="45.86933" lon="4.60678">
        <ele>278.2</ele>
        <time>2015-04-05T06:24:36Z</time>
      </trkpt>
      <trkpt lat="45.86943" lon="4.60695">
        <ele>278.2</ele>
        <time>2015-04-05T06:24:41Z</time>
      </trkpt>
      <trkpt lat="45.8695" lon="4.60717">
        <ele>277.9</ele>
        <time>2015-04-05T06:24:46Z</time>
      </trkpt>
      <trkpt lat="45.86953" lon="4.60737">
        <ele>281.5</ele>
        <time>2015-04-05T06:24:51Z</time>
      </trkpt>
      <trkpt lat="45.86958" lon="4.60758">
        <ele>281.5</ele>
        <time>2015-04-05T06:24:56Z</time>
      </trkpt>
      <trkpt lat="45.86965" lon="4.60777">
        <ele>283.3</ele>
        <time>2015-04-05T06:25:01Z</time>
      </trkpt>
      <trkpt lat="45.8697" lon="4.60798">
        <ele>284.5</ele>
        <time>2015-04-05T06:25:06Z</time>
      </trkpt>
      <trkpt lat="45.86975" lon="4.60813">
        <ele>285.4</ele>
        <time>2015-04-05T06:25:11Z</time>
      </trkpt>
      <trkpt lat="45.8698" lon="4.60823">
        <ele>286.9</ele>
        <time>2015-04-05T06:25:16Z</time>
      </trkpt>
      <trkpt lat="45.86987" lon="4.60832">
        <ele>287.9</ele>
        <time>2015-04-05T06:25:21Z</time>
      </trkpt>
      <trkpt lat="45.86983" lon="4.60838">
        <ele>287.1</ele>
        <time>2015-04-05T06:25:26Z</time>
      </trkpt>
      <trkpt lat="45.86968" lon="4.60847">
        <ele>286.2</ele>
        <time>2015-04-05T06:25:31Z</time>
      </trkpt>
      <trkpt lat="45.86943" lon="4.60857">
        <ele>281.9</ele>
        <time>2015-04-05T06:25:36Z</time>
      </trkpt>
      <trkpt lat="45.86925" lon="4.60858">
        <ele>279.5</ele>
        <time>2015-04-05T06:25:41Z</time>
      </trkpt>
      <trkpt lat="45.8692" lon="4.60868">
        <ele>278.5</ele>
        <time>2015-04-05T06:25:46Z</time>
      </trkpt>
      <trkpt lat="45.86923" lon="4.60878">
        <ele>278.2</ele>
        <time>2015-04-05T06:25:51Z</time>
      </trkpt>
      <trkpt lat="45.86927" lon="4.60892">
        <ele>277.2</ele>
        <time>2015-04-05T06:25:56Z</time>
      </trkpt>
      <trkpt lat="45.86927" lon="4.60902">
        <ele>279</ele>
        <time>2015-04-05T06:26:01Z</time>
      </trkpt>
      <trkpt lat="45.8693" lon="4.60915">
        <ele>279.3</ele>
        <time>2015-04-05T06:26:06Z</time>
      </trkpt>
      <trkpt lat="45.86935" lon="4.60925">
        <ele>280</ele>
        <time>2015-04-05T06:26:11Z</time>
      </trkpt>
      <trkpt lat="45.8694" lon="4.6094">
        <ele>280.7</ele>
        <time>2015-04-05T06:26:16Z</time>
      </trkpt>
      <trkpt lat="45.8694" lon="4.60952">
        <ele>281.7</ele>
        <time>2015-04-05T06:26:21Z</time>
      </trkpt>
      <trkpt lat="45.86948" lon="4.60963">
        <ele>282.9</ele>
        <time>2015-04-05T06:26:26Z</time>
      </trkpt>
      <trkpt lat="45.86955" lon="4.60977">
        <ele>284.5</ele>
        <time>2015-04-05T06:26:31Z</time>
      </trkpt>
      <trkpt lat="45.86963" lon="4.60985">
        <ele>283.9</ele>
        <time>2015-04-05T06:26:36Z</time>
      </trkpt>
      <trkpt lat="45.86968" lon="4.60988">
        <ele>285.7</ele>
        <time>2015-04-05T06:26:41Z</time>
      </trkpt>
      <trkpt lat="45.86977" lon="4.6099">
        <ele>286.3</ele>
        <time>2015-04-05T06:26:46Z</time>
      </trkpt>
      <trkpt lat="45.86985" lon="4.60998">
        <ele>286.3</ele>
        <time>2015-04-05T06:26:51Z</time>
      </trkpt>
      <trkpt lat="45.86992" lon="4.61005">
        <ele>286.7</ele>
        <time>2015-04-05T06:26:56Z</time>
      </trkpt>
      <trkpt lat="45.86997" lon="4.61015">
        <ele>286.2</ele>
        <time>2015-04-05T06:27:01Z</time>
      </trkpt>
      <trkpt lat="45.86993" lon="4.61032">
        <ele>286.5</ele>
        <time>2015-04-05T06:27:06Z</time>
      </trkpt>
      <trkpt lat="45.86987" lon="4.61047">
        <ele>286.5</ele>
        <time>2015-04-05T06:27:11Z</time>
      </trkpt>
      <trkpt lat="45.86973" lon="4.61065">
        <ele>282.8</ele>
        <time>2015-04-05T06:27:16Z</time>
      </trkpt>
      <trkpt lat="45.86963" lon="4.61092">
        <ele>281.9</ele>
        <time>2015-04-05T06:27:21Z</time>
      </trkpt>
      <trkpt lat="45.86952" lon="4.61125">
        <ele>278.5</ele>
        <time>2015-04-05T06:27:26Z</time>
      </trkpt>
      <trkpt lat="45.86948" lon="4.61158">
        <ele>278.8</ele>
        <time>2015-04-05T06:27:31Z</time>
      </trkpt>
      <trkpt lat="45.86962" lon="4.61173">
        <ele>276.4</ele>
        <time>2015-04-05T06:27:36Z</time>
      </trkpt>
      <trkpt lat="45.86982" lon="4.61182">
        <ele>276.9</ele>
        <time>2015-04-05T06:27:41Z</time>
      </trkpt>
      <trkpt lat="45.87002" lon="4.61185">
        <ele>276.9</ele>
        <time>2015-04-05T06:27:46Z</time>
      </trkpt>
      <trkpt lat="45.8702" lon="4.61187">
        <ele>272</ele>
        <time>2015-04-05T06:27:51Z</time>
      </trkpt>
      <trkpt lat="45.87038" lon="4.61182">
        <ele>272.1</ele>
        <time>2015-04-05T06:27:56Z</time>
      </trkpt>
      <trkpt lat="45.87058" lon="4.61173">
        <ele>275.1</ele>
        <time>2015-04-05T06:28:01Z</time>
      </trkpt>
      <trkpt lat="45.87077" lon="4.61165">
        <ele>272.1</ele>
        <time>2015-04-05T06:28:06Z</time>
      </trkpt>
      <trkpt lat="45.87098" lon="4.61163">
        <ele>273.3</ele>
        <time>2015-04-05T06:28:11Z</time>
      </trkpt>
      <trkpt lat="45.87122" lon="4.61162">
        <ele>273.8</ele>
        <time>2015-04-05T06:28:16Z</time>
      </trkpt>
      <trkpt lat="45.87142" lon="4.6116">
        <ele>267.9</ele>
        <time>2015-04-05T06:28:21Z</time>
      </trkpt>
      <trkpt lat="45.87157" lon="4.61172">
        <ele>269.3</ele>
        <time>2015-04-05T06:28:26Z</time>
      </trkpt>
      <trkpt lat="45.8717" lon="4.61182">
        <ele>267</ele>
        <time>2015-04-05T06:28:31Z</time>
      </trkpt>
      <trkpt lat="45.87185" lon="4.61175">
        <ele>267.3</ele>
        <time>2015-04-05T06:28:36Z</time>
      </trkpt>
      <trkpt lat="45.87188" lon="4.61158">
        <ele>267.6</ele>
        <time>2015-04-05T06:28:41Z</time>
      </trkpt>
      <trkpt lat="45.87187" lon="4.61142">
        <ele>270.3</ele>
        <time>2015-04-05T06:28:46Z</time>
      </trkpt>
      <trkpt lat="45.87188" lon="4.61123">
        <ele>271</ele>
        <time>2015-04-05T06:28:51Z</time>
      </trkpt>
      <trkpt lat="45.87192" lon="4.61107">
        <ele>273.2</ele>
        <time>2015-04-05T06:28:56Z</time>
      </trkpt>
      <trkpt lat="45.8719" lon="4.61092">
        <ele>274</ele>
        <time>2015-04-05T06:29:01Z</time>
      </trkpt>
      <trkpt lat="45.872" lon="4.61075">
        <ele>274</ele>
        <time>2015-04-05T06:29:06Z</time>
      </trkpt>
      <trkpt lat="45.87212" lon="4.61057">
        <ele>275.5</ele>
        <time>2015-04-05T06:29:11Z</time>
      </trkpt>
      <trkpt lat="45.87225" lon="4.61042">
        <ele>276.3</ele>
        <time>2015-04-05T06:29:16Z</time>
      </trkpt>
      <trkpt lat="45.8724" lon="4.61027">
        <ele>277.4</ele>
        <time>2015-04-05T06:29:21Z</time>
      </trkpt>
      <trkpt lat="45.87257" lon="4.61017">
        <ele>277.4</ele>
        <time>2015-04-05T06:29:26Z</time>
      </trkpt>
      <trkpt lat="45.87267" lon="4.60998">
        <ele>277.4</ele>
        <time>2015-04-05T06:29:31Z</time>
      </trkpt>
      <trkpt lat="45.87272" lon="4.60978">
        <ele>278.8</ele>
        <time>2015-04-05T06:29:36Z</time>
      </trkpt>
      <trkpt lat="45.87277" lon="4.6096">
        <ele>278.8</ele>
        <time>2015-04-05T06:29:41Z</time>
      </trkpt>
      <trkpt lat="45.87282" lon="4.60943">
        <ele>281.8</ele>
        <time>2015-04-05T06:29:46Z</time>
      </trkpt>
      <trkpt lat="45.87287" lon="4.60925">
        <ele>281.8</ele>
        <time>2015-04-05T06:29:51Z</time>
      </trkpt>
      <trkpt lat="45.8729" lon="4.60908">
        <ele>282.8</ele>
        <time>2015-04-05T06:29:56Z</time>
      </trkpt>
      <trkpt lat="45.87293" lon="4.60892">
        <ele>285.2</ele>
        <time>2015-04-05T06:30:01Z</time>
      </trkpt>
      <trkpt lat="45.873" lon="4.60873">
        <ele>286.5</ele>
        <time>2015-04-05T06:30:06Z</time>
      </trkpt>
      <trkpt lat="45.87307" lon="4.60853">
        <ele>286.5</ele>
        <time>2015-04-05T06:30:11Z</time>
      </trkpt>
      <trkpt lat="45.87312" lon="4.60833">
        <ele>289.2</ele>
        <time>2015-04-05T06:30:16Z</time>
      </trkpt>
      <trkpt lat="45.87318" lon="4.60817">
        <ele>290</ele>
        <time>2015-04-05T06:30:21Z</time>
      </trkpt>
      <trkpt lat="45.87323" lon="4.60798">
        <ele>291.5</ele>
        <time>2015-04-05T06:30:26Z</time>
      </trkpt>
      <trkpt lat="45.87337" lon="4.60795">
        <ele>292.8</ele>
        <time>2015-04-05T06:30:31Z</time>
      </trkpt>
      <trkpt lat="45.87353" lon="4.60798">
        <ele>292.2</ele>
        <time>2015-04-05T06:30:36Z</time>
      </trkpt>
      <trkpt lat="45.87368" lon="4.60802">
        <ele>292.9</ele>
        <time>2015-04-05T06:30:41Z</time>
      </trkpt>
      <trkpt lat="45.87385" lon="4.60807">
        <ele>293.9</ele>
        <time>2015-04-05T06:30:46Z</time>
      </trkpt>
      <trkpt lat="45.874" lon="4.60808">
        <ele>293.9</ele>
        <time>2015-04-05T06:30:51Z</time>
      </trkpt>
      <trkpt lat="45.87418" lon="4.60812">
        <ele>295</ele>
        <time>2015-04-05T06:30:56Z</time>
      </trkpt>
      <trkpt lat="45.87435" lon="4.60813">
        <ele>295.7</ele>
        <time>2015-04-05T06:31:01Z</time>
      </trkpt>
      <trkpt lat="45.87452" lon="4.60818">
        <ele>297</ele>
        <time>2015-04-05T06:31:06Z</time>
      </trkpt>
      <trkpt lat="45.87467" lon="4.60827">
        <ele>297.7</ele>
        <time>2015-04-05T06:31:11Z</time>
      </trkpt>
      <trkpt lat="45.87482" lon="4.60835">
        <ele>298.8</ele>
        <time>2015-04-05T06:31:16Z</time>
      </trkpt>
      <trkpt lat="45.87495" lon="4.60843">
        <ele>300.9</ele>
        <time>2015-04-05T06:31:21Z</time>
      </trkpt>
      <trkpt lat="45.87508" lon="4.60852">
        <ele>302.3</ele>
        <time>2015-04-05T06:31:26Z</time>
      </trkpt>
      <trkpt lat="45.87522" lon="4.60858">
        <ele>303.3</ele>
        <time>2015-04-05T06:31:31Z</time>
      </trkpt>
      <trkpt lat="45.87532" lon="4.60865">
        <ele>305.1</ele>
        <time>2015-04-05T06:31:36Z</time>
      </trkpt>
      <trkpt lat="45.87542" lon="4.60872">
        <ele>307.1</ele>
        <time>2015-04-05T06:31:41Z</time>
      </trkpt>
      <trkpt lat="45.87555" lon="4.60877">
        <ele>308.5</ele>
        <time>2015-04-05T06:31:46Z</time>
      </trkpt>
      <trkpt lat="45.8757" lon="4.6088">
        <ele>309.9</ele>
        <time>2015-04-05T06:31:51Z</time>
      </trkpt>
      <trkpt lat="45.87582" lon="4.60883">
        <ele>311.1</ele>
        <time>2015-04-05T06:31:56Z</time>
      </trkpt>
      <trkpt lat="45.87595" lon="4.60885">
        <ele>311.9</ele>
        <time>2015-04-05T06:32:01Z</time>
      </trkpt>
      <trkpt lat="45.87608" lon="4.60887">
        <ele>313.3</ele>
        <time>2015-04-05T06:32:06Z</time>
      </trkpt>
      <trkpt lat="45.87622" lon="4.60892">
        <ele>315.1</ele>
        <time>2015-04-05T06:32:11Z</time>
      </trkpt>
      <trkpt lat="45.87635" lon="4.60893">
        <ele>314.9</ele>
        <time>2015-04-05T06:32:16Z</time>
      </trkpt>
      <trkpt lat="45.87637" lon="4.60893">
        <ele>315.6</ele>
        <time>2015-04-05T06:32:21Z</time>
      </trkpt>
      <trkpt lat="45.87638" lon="4.60893">
        <ele>315.4</ele>
        <time>2015-04-05T06:32:26Z</time>
      </trkpt>
      <trkpt lat="45.87648" lon="4.60897">
        <ele>316.5</ele>
        <time>2015-04-05T06:32:31Z</time>
      </trkpt>
      <trkpt lat="45.8767" lon="4.60898">
        <ele>316.8</ele>
        <time>2015-04-05T06:32:36Z</time>
      </trkpt>
      <trkpt lat="45.8769" lon="4.60897">
        <ele>318.2</ele>
        <time>2015-04-05T06:32:41Z</time>
      </trkpt>
      <trkpt lat="45.87707" lon="4.60898">
        <ele>319.5</ele>
        <time>2015-04-05T06:32:46Z</time>
      </trkpt>
      <trkpt lat="45.87725" lon="4.60902">
        <ele>319</ele>
        <time>2015-04-05T06:32:51Z</time>
      </trkpt>
      <trkpt lat="45.87743" lon="4.60908">
        <ele>318.8</ele>
        <time>2015-04-05T06:32:56Z</time>
      </trkpt>
      <trkpt lat="45.87747" lon="4.6093">
        <ele>319.3</ele>
        <time>2015-04-05T06:33:01Z</time>
      </trkpt>
      <trkpt lat="45.87745" lon="4.60962">
        <ele>315.7</ele>
        <time>2015-04-05T06:33:06Z</time>
      </trkpt>
      <trkpt lat="45.87745" lon="4.61">
        <ele>317.4</ele>
        <time>2015-04-05T06:33:11Z</time>
      </trkpt>
      <trkpt lat="45.8773" lon="4.61038">
        <ele>316.4</ele>
        <time>2015-04-05T06:33:16Z</time>
      </trkpt>
      <trkpt lat="45.87717" lon="4.61065">
        <ele>310.5</ele>
        <time>2015-04-05T06:33:21Z</time>
      </trkpt>
      <trkpt lat="45.87733" lon="4.61082">
        <ele>309.8</ele>
        <time>2015-04-05T06:33:26Z</time>
      </trkpt>
      <trkpt lat="45.87753" lon="4.61078">
        <ele>310</ele>
        <time>2015-04-05T06:33:31Z</time>
      </trkpt>
      <trkpt lat="45.8776" lon="4.6108">
        <ele>311.6</ele>
        <time>2015-04-05T06:33:36Z</time>
      </trkpt>
      <trkpt lat="45.87763" lon="4.61078">
        <ele>311.5</ele>
        <time>2015-04-05T06:37:26Z</time>
      </trkpt>
      <trkpt lat="45.87763" lon="4.61078">
        <ele>311.6</ele>
        <time>2015-04-05T06:37:31Z</time>
      </trkpt>
      <trkpt lat="45.8776" lon="4.61075">
        <ele>311.7</ele>
        <time>2015-04-05T06:37:36Z</time>
      </trkpt>
      <trkpt lat="45.87753" lon="4.61083">
        <ele>310.8</ele>
        <time>2015-04-05T06:37:41Z</time>
      </trkpt>
      <trkpt lat="45.87763" lon="4.61087">
        <ele>310.3</ele>
        <time>2015-04-05T06:37:46Z</time>
      </trkpt>
      <trkpt lat="45.87782" lon="4.61062">
        <ele>312.9</ele>
        <time>2015-04-05T06:37:51Z</time>
      </trkpt>
      <trkpt lat="45.87792" lon="4.61022">
        <ele>312.7</ele>
        <time>2015-04-05T06:37:56Z</time>
      </trkpt>
      <trkpt lat="45.878" lon="4.60987">
        <ele>314.5</ele>
        <time>2015-04-05T06:38:01Z</time>
      </trkpt>
      <trkpt lat="45.87797" lon="4.60957">
        <ele>315.3</ele>
        <time>2015-04-05T06:38:06Z</time>
      </trkpt>
      <trkpt lat="45.8778" lon="4.60937">
        <ele>317</ele>
        <time>2015-04-05T06:38:11Z</time>
      </trkpt>
      <trkpt lat="45.87762" lon="4.6092">
        <ele>318.4</ele>
        <time>2015-04-05T06:38:16Z</time>
      </trkpt>
      <trkpt lat="45.87743" lon="4.6091">
        <ele>317.8</ele>
        <time>2015-04-05T06:38:21Z</time>
      </trkpt>
      <trkpt lat="45.87732" lon="4.609">
        <ele>319.4</ele>
        <time>2015-04-05T06:38:26Z</time>
      </trkpt>
      <trkpt lat="45.87722" lon="4.60892">
        <ele>319.2</ele>
        <time>2015-04-05T06:38:31Z</time>
      </trkpt>
      <trkpt lat="45.8771" lon="4.60895">
        <ele>319.9</ele>
        <time>2015-04-05T06:38:36Z</time>
      </trkpt>
      <trkpt lat="45.87707" lon="4.60895">
        <ele>320.2</ele>
        <time>2015-04-05T06:38:41Z</time>
      </trkpt>
      <trkpt lat="45.87705" lon="4.60895">
        <ele>321.6</ele>
        <time>2015-04-05T06:38:46Z</time>
      </trkpt>
      <trkpt lat="45.877" lon="4.60897">
        <ele>319.7</ele>
        <time>2015-04-05T06:39:26Z</time>
      </trkpt>
      <trkpt lat="45.87692" lon="4.6089">
        <ele>318.6</ele>
        <time>2015-04-05T06:39:31Z</time>
      </trkpt>
      <trkpt lat="45.87705" lon="4.60868">
        <ele>314.2</ele>
        <time>2015-04-05T06:39:36Z</time>
      </trkpt>
      <trkpt lat="45.87718" lon="4.60855">
        <ele>305</ele>
        <time>2015-04-05T06:39:41Z</time>
      </trkpt>
      <trkpt lat="45.87738" lon="4.60848">
        <ele>298.6</ele>
        <time>2015-04-05T06:39:46Z</time>
      </trkpt>
      <trkpt lat="45.87752" lon="4.60828">
        <ele>290.6</ele>
        <time>2015-04-05T06:39:51Z</time>
      </trkpt>
      <trkpt lat="45.87777" lon="4.60798">
        <ele>288.6</ele>
        <time>2015-04-05T06:39:56Z</time>
      </trkpt>
      <trkpt lat="45.87802" lon="4.60772">
        <ele>274.7</ele>
        <time>2015-04-05T06:40:01Z</time>
      </trkpt>
      <trkpt lat="45.8782" lon="4.60788">
        <ele>273.4</ele>
        <time>2015-04-05T06:40:06Z</time>
      </trkpt>
      <trkpt lat="45.8784" lon="4.60807">
        <ele>273.9</ele>
        <time>2015-04-05T06:40:11Z</time>
      </trkpt>
      <trkpt lat="45.87853" lon="4.60827">
        <ele>274.2</ele>
        <time>2015-04-05T06:40:16Z</time>
      </trkpt>
      <trkpt lat="45.87875" lon="4.60808">
        <ele>268.9</ele>
        <time>2015-04-05T06:40:21Z</time>
      </trkpt>
      <trkpt lat="45.87907" lon="4.60768">
        <ele>266.5</ele>
        <time>2015-04-05T06:40:26Z</time>
      </trkpt>
      <trkpt lat="45.87942" lon="4.60722">
        <ele>256.4</ele>
        <time>2015-04-05T06:40:31Z</time>
      </trkpt>
      <trkpt lat="45.87957" lon="4.60695">
        <ele>249.5</ele>
        <time>2015-04-05T06:40:36Z</time>
      </trkpt>
      <trkpt lat="45.87963" lon="4.60707">
        <ele>248.5</ele>
        <time>2015-04-05T06:40:41Z</time>
      </trkpt>
      <trkpt lat="45.87977" lon="4.60735">
        <ele>248.5</ele>
        <time>2015-04-05T06:40:46Z</time>
      </trkpt>
      <trkpt lat="45.8799" lon="4.60763">
        <ele>246.8</ele>
        <time>2015-04-05T06:40:51Z</time>
      </trkpt>
      <trkpt lat="45.8801" lon="4.6079">
        <ele>243.7</ele>
        <time>2015-04-05T06:40:56Z</time>
      </trkpt>
      <trkpt lat="45.88027" lon="4.60788">
        <ele>239.4</ele>
        <time>2015-04-05T06:41:01Z</time>
      </trkpt>
      <trkpt lat="45.88042" lon="4.6076">
        <ele>239.3</ele>
        <time>2015-04-05T06:41:06Z</time>
      </trkpt>
      <trkpt lat="45.88058" lon="4.60732">
        <ele>237.7</ele>
        <time>2015-04-05T06:41:11Z</time>
      </trkpt>
      <trkpt lat="45.88072" lon="4.6071">
        <ele>239.6</ele>
        <time>2015-04-05T06:41:16Z</time>
      </trkpt>
      <trkpt lat="45.88087" lon="4.60697">
        <ele>238</ele>
        <time>2015-04-05T06:41:21Z</time>
      </trkpt>
      <trkpt lat="45.88105" lon="4.60713">
        <ele>238.5</ele>
        <time>2015-04-05T06:41:26Z</time>
      </trkpt>
      <trkpt lat="45.88123" lon="4.60732">
        <ele>236.7</ele>
        <time>2015-04-05T06:41:31Z</time>
      </trkpt>
      <trkpt lat="45.88145" lon="4.60767">
        <ele>228.1</ele>
        <time>2015-04-05T06:41:36Z</time>
      </trkpt>
      <trkpt lat="45.88178" lon="4.60798">
        <ele>227.1</ele>
        <time>2015-04-05T06:41:41Z</time>
      </trkpt>
      <trkpt lat="45.88207" lon="4.60805">
        <ele>223</ele>
        <time>2015-04-05T06:41:46Z</time>
      </trkpt>
      <trkpt lat="45.88225" lon="4.60805">
        <ele>222.4</ele>
        <time>2015-04-05T06:41:51Z</time>
      </trkpt>
      <trkpt lat="45.88233" lon="4.60788">
        <ele>223.9</ele>
        <time>2015-04-05T06:41:56Z</time>
      </trkpt>
      <trkpt lat="45.88238" lon="4.60775">
        <ele>225.1</ele>
        <time>2015-04-05T06:42:01Z</time>
      </trkpt>
      <trkpt lat="45.88245" lon="4.60762">
        <ele>224.6</ele>
        <time>2015-04-05T06:42:06Z</time>
      </trkpt>
      <trkpt lat="45.88258" lon="4.6074">
        <ele>223.2</ele>
        <time>2015-04-05T06:42:11Z</time>
      </trkpt>
      <trkpt lat="45.88268" lon="4.60717">
        <ele>223.5</ele>
        <time>2015-04-05T06:42:16Z</time>
      </trkpt>
      <trkpt lat="45.88277" lon="4.60692">
        <ele>223.2</ele>
        <time>2015-04-05T06:42:21Z</time>
      </trkpt>
      <trkpt lat="45.88297" lon="4.607">
        <ele>222</ele>
        <time>2015-04-05T06:42:26Z</time>
      </trkpt>
      <trkpt lat="45.88333" lon="4.60713">
        <ele>217</ele>
        <time>2015-04-05T06:42:31Z</time>
      </trkpt>
      <trkpt lat="45.88373" lon="4.6073">
        <ele>202.5</ele>
        <time>2015-04-05T06:42:36Z</time>
      </trkpt>
      <trkpt lat="45.884" lon="4.60727">
        <ele>201.3</ele>
        <time>2015-04-05T06:42:41Z</time>
      </trkpt>
      <trkpt lat="45.88437" lon="4.60738">
        <ele>189.8</ele>
        <time>2015-04-05T06:42:46Z</time>
      </trkpt>
      <trkpt lat="45.88472" lon="4.60745">
        <ele>181.9</ele>
        <time>2015-04-05T06:42:51Z</time>
      </trkpt>
      <trkpt lat="45.88498" lon="4.60733">
        <ele>174.8</ele>
        <time>2015-04-05T06:42:56Z</time>
      </trkpt>
      <trkpt lat="45.88538" lon="4.6073">
        <ele>169.6</ele>
        <time>2015-04-05T06:43:01Z</time>
      </trkpt>
      <trkpt lat="45.88562" lon="4.60725">
        <ele>167.4</ele>
        <time>2015-04-05T06:43:06Z</time>
      </trkpt>
      <trkpt lat="45.88555" lon="4.60702">
        <ele>164.9</ele>
        <time>2015-04-05T06:43:11Z</time>
      </trkpt>
      <trkpt lat="45.88542" lon="4.60673">
        <ele>164.3</ele>
        <time>2015-04-05T06:43:16Z</time>
      </trkpt>
      <trkpt lat="45.88528" lon="4.60643">
        <ele>167.6</ele>
        <time>2015-04-05T06:43:21Z</time>
      </trkpt>
      <trkpt lat="45.88515" lon="4.60613">
        <ele>167</ele>
        <time>2015-04-05T06:43:26Z</time>
      </trkpt>
      <trkpt lat="45.88507" lon="4.60588">
        <ele>167.1</ele>
        <time>2015-04-05T06:43:31Z</time>
      </trkpt>
      <trkpt lat="45.88522" lon="4.60572">
        <ele>164.9</ele>
        <time>2015-04-05T06:43:36Z</time>
      </trkpt>
      <trkpt lat="45.88532" lon="4.60558">
        <ele>160.7</ele>
        <time>2015-04-05T06:43:41Z</time>
      </trkpt>
      <trkpt lat="45.88528" lon="4.60547">
        <ele>159.8</ele>
        <time>2015-04-05T06:43:46Z</time>
      </trkpt>
      <trkpt lat="45.88532" lon="4.60543">
        <ele>160.1</ele>
        <time>2015-04-05T06:43:51Z</time>
      </trkpt>
      <trkpt lat="45.88542" lon="4.60545">
        <ele>158.8</ele>
        <time>2015-04-05T06:43:56Z</time>
      </trkpt>
      <trkpt lat="45.88568" lon="4.60518">
        <ele>154.7</ele>
        <time>2015-04-05T06:44:01Z</time>
      </trkpt>
      <trkpt lat="45.88585" lon="4.60518">
        <ele>150.8</ele>
        <time>2015-04-05T06:44:06Z</time>
      </trkpt>
      <trkpt lat="45.88603" lon="4.60555">
        <ele>149.8</ele>
        <time>2015-04-05T06:44:11Z</time>
      </trkpt>
      <trkpt lat="45.88625" lon="4.60592">
        <ele>148.7</ele>
        <time>2015-04-05T06:44:16Z</time>
      </trkpt>
      <trkpt lat="45.88647" lon="4.60632">
        <ele>145.5</ele>
        <time>2015-04-05T06:44:21Z</time>
      </trkpt>
      <trkpt lat="45.88668" lon="4.60672">
        <ele>145.1</ele>
        <time>2015-04-05T06:44:26Z</time>
      </trkpt>
      <trkpt lat="45.8869" lon="4.60713">
        <ele>138.6</ele>
        <time>2015-04-05T06:44:31Z</time>
      </trkpt>
      <trkpt lat="45.88707" lon="4.60742">
        <ele>136.9</ele>
        <time>2015-04-05T06:44:36Z</time>
      </trkpt>
      <trkpt lat="45.88728" lon="4.60747">
        <ele>134.4</ele>
        <time>2015-04-05T06:44:41Z</time>
      </trkpt>
      <trkpt lat="45.88747" lon="4.60735">
        <ele>131.2</ele>
        <time>2015-04-05T06:44:46Z</time>
      </trkpt>
      <trkpt lat="45.88777" lon="4.60718">
        <ele>130.4</ele>
        <time>2015-04-05T06:44:51Z</time>
      </trkpt>
      <trkpt lat="45.88813" lon="4.60697">
        <ele>127.3</ele>
        <time>2015-04-05T06:44:56Z</time>
      </trkpt>
      <trkpt lat="45.88848" lon="4.60677">
        <ele>126.5</ele>
        <time>2015-04-05T06:45:01Z</time>
      </trkpt>
      <trkpt lat="45.8888" lon="4.60658">
        <ele>125.6</ele>
        <time>2015-04-05T06:45:06Z</time>
      </trkpt>
      <trkpt lat="45.8891" lon="4.6064">
        <ele>126.5</ele>
        <time>2015-04-05T06:45:11Z</time>
      </trkpt>
      <trkpt lat="45.88942" lon="4.6063">
        <ele>126.5</ele>
        <time>2015-04-05T06:45:16Z</time>
      </trkpt>
      <trkpt lat="45.88967" lon="4.6064">
        <ele>130.4</ele>
        <time>2015-04-05T06:45:21Z</time>
      </trkpt>
      <trkpt lat="45.88987" lon="4.60652">
        <ele>131.2</ele>
        <time>2015-04-05T06:45:26Z</time>
      </trkpt>
      <trkpt lat="45.89003" lon="4.60655">
        <ele>131.8</ele>
        <time>2015-04-05T06:45:31Z</time>
      </trkpt>
      <trkpt lat="45.89023" lon="4.6066">
        <ele>132.9</ele>
        <time>2015-04-05T06:45:36Z</time>
      </trkpt>
      <trkpt lat="45.8904" lon="4.60673">
        <ele>133.1</ele>
        <time>2015-04-05T06:45:41Z</time>
      </trkpt>
      <trkpt lat="45.89053" lon="4.60692">
        <ele>135.3</ele>
        <time>2015-04-05T06:45:46Z</time>
      </trkpt>
      <trkpt lat="45.89063" lon="4.60715">
        <ele>133.6</ele>
        <time>2015-04-05T06:45:51Z</time>
      </trkpt>
      <trkpt lat="45.89073" lon="4.60738">
        <ele>136.5</ele>
        <time>2015-04-05T06:45:56Z</time>
      </trkpt>
      <trkpt lat="45.89083" lon="4.60762">
        <ele>137.1</ele>
        <time>2015-04-05T06:46:01Z</time>
      </trkpt>
      <trkpt lat="45.89097" lon="4.60782">
        <ele>137.4</ele>
        <time>2015-04-05T06:46:06Z</time>
      </trkpt>
      <trkpt lat="45.8911" lon="4.608">
        <ele>140.3</ele>
        <time>2015-04-05T06:46:11Z</time>
      </trkpt>
      <trkpt lat="45.8912" lon="4.60815">
        <ele>138.2</ele>
        <time>2015-04-05T06:46:16Z</time>
      </trkpt>
      <trkpt lat="45.89135" lon="4.60817">
        <ele>140.1</ele>
        <time>2015-04-05T06:46:21Z</time>
      </trkpt>
      <trkpt lat="45.89148" lon="4.60813">
        <ele>143.3</ele>
        <time>2015-04-05T06:46:26Z</time>
      </trkpt>
      <trkpt lat="45.89163" lon="4.60807">
        <ele>142.3</ele>
        <time>2015-04-05T06:46:31Z</time>
      </trkpt>
      <trkpt lat="45.89178" lon="4.60798">
        <ele>144.5</ele>
        <time>2015-04-05T06:46:36Z</time>
      </trkpt>
      <trkpt lat="45.89197" lon="4.60793">
        <ele>143.5</ele>
        <time>2015-04-05T06:46:41Z</time>
      </trkpt>
      <trkpt lat="45.89212" lon="4.60795">
        <ele>145.7</ele>
        <time>2015-04-05T06:46:46Z</time>
      </trkpt>
      <trkpt lat="45.89225" lon="4.60797">
        <ele>146.1</ele>
        <time>2015-04-05T06:46:51Z</time>
      </trkpt>
      <trkpt lat="45.89237" lon="4.60797">
        <ele>149</ele>
        <time>2015-04-05T06:46:56Z</time>
      </trkpt>
      <trkpt lat="45.89252" lon="4.60802">
        <ele>149.4</ele>
        <time>2015-04-05T06:47:01Z</time>
      </trkpt>
      <trkpt lat="45.8926" lon="4.60815">
        <ele>149.4</ele>
        <time>2015-04-05T06:47:06Z</time>
      </trkpt>
      <trkpt lat="45.89265" lon="4.60833">
        <ele>152.4</ele>
        <time>2015-04-05T06:47:11Z</time>
      </trkpt>
      <trkpt lat="45.89267" lon="4.60852">
        <ele>153.3</ele>
        <time>2015-04-05T06:47:16Z</time>
      </trkpt>
      <trkpt lat="45.89267" lon="4.60873">
        <ele>154.3</ele>
        <time>2015-04-05T06:47:21Z</time>
      </trkpt>
      <trkpt lat="45.89268" lon="4.60895">
        <ele>154.1</ele>
        <time>2015-04-05T06:47:26Z</time>
      </trkpt>
      <trkpt lat="45.8927" lon="4.60918">
        <ele>154</ele>
        <time>2015-04-05T06:47:31Z</time>
      </trkpt>
      <trkpt lat="45.8927" lon="4.60937">
        <ele>153.7</ele>
        <time>2015-04-05T06:47:36Z</time>
      </trkpt>
      <trkpt lat="45.8927" lon="4.60943">
        <ele>154.2</ele>
        <time>2015-04-05T06:47:41Z</time>
      </trkpt>
      <trkpt lat="45.8928" lon="4.60942">
        <ele>155.9</ele>
        <time>2015-04-05T06:47:46Z</time>
      </trkpt>
      <trkpt lat="45.89287" lon="4.60935">
        <ele>157</ele>
        <time>2015-04-05T06:47:51Z</time>
      </trkpt>
      <trkpt lat="45.89293" lon="4.60932">
        <ele>158.9</ele>
        <time>2015-04-05T06:47:56Z</time>
      </trkpt>
      <trkpt lat="45.893" lon="4.60925">
        <ele>160.8</ele>
        <time>2015-04-05T06:48:01Z</time>
      </trkpt>
      <trkpt lat="45.89307" lon="4.6092">
        <ele>162.2</ele>
        <time>2015-04-05T06:48:06Z</time>
      </trkpt>
      <trkpt lat="45.89315" lon="4.60915">
        <ele>163.4</ele>
        <time>2015-04-05T06:48:11Z</time>
      </trkpt>
      <trkpt lat="45.89323" lon="4.60913">
        <ele>165.5</ele>
        <time>2015-04-05T06:48:16Z</time>
      </trkpt>
      <trkpt lat="45.89332" lon="4.60912">
        <ele>167</ele>
        <time>2015-04-05T06:48:21Z</time>
      </trkpt>
      <trkpt lat="45.89342" lon="4.60908">
        <ele>168.5</ele>
        <time>2015-04-05T06:48:26Z</time>
      </trkpt>
      <trkpt lat="45.8935" lon="4.60903">
        <ele>169.1</ele>
        <time>2015-04-05T06:48:31Z</time>
      </trkpt>
      <trkpt lat="45.8936" lon="4.60897">
        <ele>169.5</ele>
        <time>2015-04-05T06:48:36Z</time>
      </trkpt>
      <trkpt lat="45.89372" lon="4.6089">
        <ele>169.6</ele>
        <time>2015-04-05T06:48:41Z</time>
      </trkpt>
      <trkpt lat="45.89383" lon="4.60887">
        <ele>170.3</ele>
        <time>2015-04-05T06:48:46Z</time>
      </trkpt>
      <trkpt lat="45.89393" lon="4.60882">
        <ele>171.7</ele>
        <time>2015-04-05T06:48:51Z</time>
      </trkpt>
      <trkpt lat="45.89407" lon="4.6088">
        <ele>172.5</ele>
        <time>2015-04-05T06:48:56Z</time>
      </trkpt>
      <trkpt lat="45.8942" lon="4.6088">
        <ele>172.8</ele>
        <time>2015-04-05T06:49:01Z</time>
      </trkpt>
      <trkpt lat="45.89432" lon="4.6088">
        <ele>172.2</ele>
        <time>2015-04-05T06:49:06Z</time>
      </trkpt>
      <trkpt lat="45.89445" lon="4.60882">
        <ele>173.3</ele>
        <time>2015-04-05T06:49:11Z</time>
      </trkpt>
      <trkpt lat="45.89457" lon="4.6088">
        <ele>173.7</ele>
        <time>2015-04-05T06:49:16Z</time>
      </trkpt>
      <trkpt lat="45.89468" lon="4.60877">
        <ele>174.7</ele>
        <time>2015-04-05T06:49:21Z</time>
      </trkpt>
      <trkpt lat="45.89482" lon="4.60873">
        <ele>175.2</ele>
        <time>2015-04-05T06:49:26Z</time>
      </trkpt>
      <trkpt lat="45.89493" lon="4.60872">
        <ele>176</ele>
        <time>2015-04-05T06:49:31Z</time>
      </trkpt>
      <trkpt lat="45.89505" lon="4.60867">
        <ele>177.1</ele>
        <time>2015-04-05T06:49:36Z</time>
      </trkpt>
      <trkpt lat="45.89517" lon="4.60863">
        <ele>177.9</ele>
        <time>2015-04-05T06:49:41Z</time>
      </trkpt>
      <trkpt lat="45.89515" lon="4.60852">
        <ele>178.7</ele>
        <time>2015-04-05T06:49:46Z</time>
      </trkpt>
      <trkpt lat="45.89507" lon="4.60837">
        <ele>178.6</ele>
        <time>2015-04-05T06:49:51Z</time>
      </trkpt>
      <trkpt lat="45.895" lon="4.60815">
        <ele>179.4</ele>
        <time>2015-04-05T06:49:56Z</time>
      </trkpt>
      <trkpt lat="45.89492" lon="4.60787">
        <ele>179.1</ele>
        <time>2015-04-05T06:50:01Z</time>
      </trkpt>
      <trkpt lat="45.8949" lon="4.60778">
        <ele>177.7</ele>
        <time>2015-04-05T06:50:06Z</time>
      </trkpt>
      <trkpt lat="45.89492" lon="4.60773">
        <ele>178</ele>
        <time>2015-04-05T06:50:11Z</time>
      </trkpt>
      <trkpt lat="45.89492" lon="4.6076">
        <ele>177.8</ele>
        <time>2015-04-05T06:50:16Z</time>
      </trkpt>
      <trkpt lat="45.89485" lon="4.60728">
        <ele>178.2</ele>
        <time>2015-04-05T06:50:21Z</time>
      </trkpt>
      <trkpt lat="45.89473" lon="4.607">
        <ele>175</ele>
        <time>2015-04-05T06:50:26Z</time>
      </trkpt>
      <trkpt lat="45.8946" lon="4.60677">
        <ele>168.9</ele>
        <time>2015-04-05T06:50:31Z</time>
      </trkpt>
      <trkpt lat="45.8947" lon="4.60658">
        <ele>170.2</ele>
        <time>2015-04-05T06:50:36Z</time>
      </trkpt>
      <trkpt lat="45.89488" lon="4.60637">
        <ele>168.4</ele>
        <time>2015-04-05T06:50:41Z</time>
      </trkpt>
      <trkpt lat="45.89485" lon="4.60608">
        <ele>167.7</ele>
        <time>2015-04-05T06:50:46Z</time>
      </trkpt>
      <trkpt lat="45.89473" lon="4.60568">
        <ele>169.2</ele>
        <time>2015-04-05T06:50:51Z</time>
      </trkpt>
      <trkpt lat="45.89467" lon="4.60538">
        <ele>165.7</ele>
        <time>2015-04-05T06:50:56Z</time>
      </trkpt>
      <trkpt lat="45.8947" lon="4.60517">
        <ele>168.3</ele>
        <time>2015-04-05T06:51:01Z</time>
      </trkpt>
      <trkpt lat="45.89472" lon="4.60497">
        <ele>168.4</ele>
        <time>2015-04-05T06:51:06Z</time>
      </trkpt>
      <trkpt lat="45.89473" lon="4.60475">
        <ele>170.8</ele>
        <time>2015-04-05T06:51:11Z</time>
      </trkpt>
      <trkpt lat="45.89475" lon="4.60457">
        <ele>172</ele>
        <time>2015-04-05T06:51:16Z</time>
      </trkpt>
      <trkpt lat="45.89473" lon="4.60437">
        <ele>172.6</ele>
        <time>2015-04-05T06:51:21Z</time>
      </trkpt>
      <trkpt lat="45.89473" lon="4.60415">
        <ele>174.8</ele>
        <time>2015-04-05T06:51:26Z</time>
      </trkpt>
      <trkpt lat="45.89472" lon="4.60393">
        <ele>175.8</ele>
        <time>2015-04-05T06:51:31Z</time>
      </trkpt>
      <trkpt lat="45.89468" lon="4.60372">
        <ele>176.5</ele>
        <time>2015-04-05T06:51:36Z</time>
      </trkpt>
      <trkpt lat="45.89465" lon="4.60348">
        <ele>177.6</ele>
        <time>2015-04-05T06:51:41Z</time>
      </trkpt>
      <trkpt lat="45.8946" lon="4.60325">
        <ele>176.8</ele>
        <time>2015-04-05T06:51:46Z</time>
      </trkpt>
      <trkpt lat="45.89453" lon="4.60305">
        <ele>177.3</ele>
        <time>2015-04-05T06:51:51Z</time>
      </trkpt>
      <trkpt lat="45.89443" lon="4.60287">
        <ele>177.8</ele>
        <time>2015-04-05T06:51:56Z</time>
      </trkpt>
      <trkpt lat="45.8945" lon="4.60268">
        <ele>179.8</ele>
        <time>2015-04-05T06:52:01Z</time>
      </trkpt>
      <trkpt lat="45.8946" lon="4.60248">
        <ele>178.9</ele>
        <time>2015-04-05T06:52:06Z</time>
      </trkpt>
      <trkpt lat="45.89468" lon="4.6023">
        <ele>180.3</ele>
        <time>2015-04-05T06:52:11Z</time>
      </trkpt>
      <trkpt lat="45.89477" lon="4.60208">
        <ele>179.7</ele>
        <time>2015-04-05T06:52:16Z</time>
      </trkpt>
      <trkpt lat="45.89483" lon="4.60188">
        <ele>180.2</ele>
        <time>2015-04-05T06:52:21Z</time>
      </trkpt>
      <trkpt lat="45.89487" lon="4.60165">
        <ele>183.4</ele>
        <time>2015-04-05T06:52:26Z</time>
      </trkpt>
      <trkpt lat="45.8949" lon="4.60143">
        <ele>182.5</ele>
        <time>2015-04-05T06:52:31Z</time>
      </trkpt>
      <trkpt lat="45.89495" lon="4.60118">
        <ele>182.8</ele>
        <time>2015-04-05T06:52:36Z</time>
      </trkpt>
      <trkpt lat="45.895" lon="4.60093">
        <ele>183.5</ele>
        <time>2015-04-05T06:52:41Z</time>
      </trkpt>
      <trkpt lat="45.89507" lon="4.60067">
        <ele>181.6</ele>
        <time>2015-04-05T06:52:46Z</time>
      </trkpt>
      <trkpt lat="45.89517" lon="4.60045">
        <ele>184.5</ele>
        <time>2015-04-05T06:52:51Z</time>
      </trkpt>
      <trkpt lat="45.8953" lon="4.60025">
        <ele>183.9</ele>
        <time>2015-04-05T06:52:56Z</time>
      </trkpt>
      <trkpt lat="45.89543" lon="4.60003">
        <ele>184.5</ele>
        <time>2015-04-05T06:53:01Z</time>
      </trkpt>
      <trkpt lat="45.89557" lon="4.59985">
        <ele>187.2</ele>
        <time>2015-04-05T06:53:06Z</time>
      </trkpt>
      <trkpt lat="45.89565" lon="4.5996">
        <ele>185.6</ele>
        <time>2015-04-05T06:53:11Z</time>
      </trkpt>
      <trkpt lat="45.89575" lon="4.59955">
        <ele>186.6</ele>
        <time>2015-04-05T06:53:16Z</time>
      </trkpt>
      <trkpt lat="45.89585" lon="4.5996">
        <ele>187.7</ele>
        <time>2015-04-05T06:53:21Z</time>
      </trkpt>
      <trkpt lat="45.89595" lon="4.59968">
        <ele>188.6</ele>
        <time>2015-04-05T06:53:26Z</time>
      </trkpt>
      <trkpt lat="45.89607" lon="4.59977">
        <ele>190.1</ele>
        <time>2015-04-05T06:53:31Z</time>
      </trkpt>
      <trkpt lat="45.89617" lon="4.59987">
        <ele>190.8</ele>
        <time>2015-04-05T06:53:36Z</time>
      </trkpt>
      <trkpt lat="45.89628" lon="4.59995">
        <ele>192.8</ele>
        <time>2015-04-05T06:53:41Z</time>
      </trkpt>
      <trkpt lat="45.8964" lon="4.60003">
        <ele>194.5</ele>
        <time>2015-04-05T06:53:46Z</time>
      </trkpt>
      <trkpt lat="45.8965" lon="4.60012">
        <ele>195.7</ele>
        <time>2015-04-05T06:53:51Z</time>
      </trkpt>
      <trkpt lat="45.89662" lon="4.60018">
        <ele>196.2</ele>
        <time>2015-04-05T06:53:56Z</time>
      </trkpt>
      <trkpt lat="45.8967" lon="4.60025">
        <ele>197.4</ele>
        <time>2015-04-05T06:54:01Z</time>
      </trkpt>
      <trkpt lat="45.8968" lon="4.60032">
        <ele>199.1</ele>
        <time>2015-04-05T06:54:06Z</time>
      </trkpt>
      <trkpt lat="45.8969" lon="4.6003">
        <ele>199.8</ele>
        <time>2015-04-05T06:54:11Z</time>
      </trkpt>
      <trkpt lat="45.89695" lon="4.60012">
        <ele>200</ele>
        <time>2015-04-05T06:54:16Z</time>
      </trkpt>
      <trkpt lat="45.897" lon="4.5999">
        <ele>200.5</ele>
        <time>2015-04-05T06:54:21Z</time>
      </trkpt>
      <trkpt lat="45.8971" lon="4.59967">
        <ele>200.3</ele>
        <time>2015-04-05T06:54:26Z</time>
      </trkpt>
      <trkpt lat="45.89718" lon="4.59947">
        <ele>199.9</ele>
        <time>2015-04-05T06:54:31Z</time>
      </trkpt>
      <trkpt lat="45.89735" lon="4.5994">
        <ele>202</ele>
        <time>2015-04-05T06:54:36Z</time>
      </trkpt>
      <trkpt lat="45.8975" lon="4.59933">
        <ele>203</ele>
        <time>2015-04-05T06:54:41Z</time>
      </trkpt>
      <trkpt lat="45.89765" lon="4.59928">
        <ele>204.8</ele>
        <time>2015-04-05T06:54:46Z</time>
      </trkpt>
      <trkpt lat="45.89777" lon="4.59913">
        <ele>204.1</ele>
        <time>2015-04-05T06:54:51Z</time>
      </trkpt>
      <trkpt lat="45.89785" lon="4.59888">
        <ele>205.1</ele>
        <time>2015-04-05T06:54:56Z</time>
      </trkpt>
      <trkpt lat="45.898" lon="4.59867">
        <ele>204.4</ele>
        <time>2015-04-05T06:55:01Z</time>
      </trkpt>
      <trkpt lat="45.8982" lon="4.59853">
        <ele>201.9</ele>
        <time>2015-04-05T06:55:06Z</time>
      </trkpt>
      <trkpt lat="45.89838" lon="4.59847">
        <ele>204.1</ele>
        <time>2015-04-05T06:55:11Z</time>
      </trkpt>
      <trkpt lat="45.89858" lon="4.5984">
        <ele>205.6</ele>
        <time>2015-04-05T06:55:16Z</time>
      </trkpt>
      <trkpt lat="45.89878" lon="4.59833">
        <ele>208.4</ele>
        <time>2015-04-05T06:55:21Z</time>
      </trkpt>
      <trkpt lat="45.89897" lon="4.59817">
        <ele>205.4</ele>
        <time>2015-04-05T06:55:26Z</time>
      </trkpt>
      <trkpt lat="45.89918" lon="4.598">
        <ele>207.4</ele>
        <time>2015-04-05T06:55:31Z</time>
      </trkpt>
      <trkpt lat="45.89935" lon="4.5979">
        <ele>205.3</ele>
        <time>2015-04-05T06:55:36Z</time>
      </trkpt>
      <trkpt lat="45.89943" lon="4.59805">
        <ele>207.6</ele>
        <time>2015-04-05T06:55:41Z</time>
      </trkpt>
      <trkpt lat="45.89953" lon="4.59817">
        <ele>208.7</ele>
        <time>2015-04-05T06:55:46Z</time>
      </trkpt>
      <trkpt lat="45.89962" lon="4.59828">
        <ele>209.4</ele>
        <time>2015-04-05T06:55:51Z</time>
      </trkpt>
      <trkpt lat="45.89972" lon="4.59842">
        <ele>210.6</ele>
        <time>2015-04-05T06:55:56Z</time>
      </trkpt>
      <trkpt lat="45.8998" lon="4.59858">
        <ele>212.1</ele>
        <time>2015-04-05T06:56:01Z</time>
      </trkpt>
      <trkpt lat="45.89988" lon="4.59873">
        <ele>212.1</ele>
        <time>2015-04-05T06:56:06Z</time>
      </trkpt>
      <trkpt lat="45.89998" lon="4.5989">
        <ele>212.1</ele>
        <time>2015-04-05T06:56:11Z</time>
      </trkpt>
      <trkpt lat="45.90007" lon="4.59905">
        <ele>213.1</ele>
        <time>2015-04-05T06:56:16Z</time>
      </trkpt>
      <trkpt lat="45.90018" lon="4.59898">
        <ele>212</ele>
        <time>2015-04-05T06:56:21Z</time>
      </trkpt>
      <trkpt lat="45.9003" lon="4.59885">
        <ele>213.7</ele>
        <time>2015-04-05T06:56:26Z</time>
      </trkpt>
      <trkpt lat="45.90045" lon="4.59875">
        <ele>214.2</ele>
        <time>2015-04-05T06:56:31Z</time>
      </trkpt>
      <trkpt lat="45.90058" lon="4.59863">
        <ele>215.4</ele>
        <time>2015-04-05T06:56:36Z</time>
      </trkpt>
      <trkpt lat="45.90073" lon="4.5985">
        <ele>215.5</ele>
        <time>2015-04-05T06:56:41Z</time>
      </trkpt>
      <trkpt lat="45.90088" lon="4.59837">
        <ele>216</ele>
        <time>2015-04-05T06:56:46Z</time>
      </trkpt>
      <trkpt lat="45.90103" lon="4.59825">
        <ele>215</ele>
        <time>2015-04-05T06:56:51Z</time>
      </trkpt>
      <trkpt lat="45.90118" lon="4.59812">
        <ele>218.4</ele>
        <time>2015-04-05T06:56:56Z</time>
      </trkpt>
      <trkpt lat="45.90132" lon="4.59797">
        <ele>218.4</ele>
        <time>2015-04-05T06:57:01Z</time>
      </trkpt>
      <trkpt lat="45.90148" lon="4.59783">
        <ele>218</ele>
        <time>2015-04-05T06:57:06Z</time>
      </trkpt>
      <trkpt lat="45.90163" lon="4.59772">
        <ele>219</ele>
        <time>2015-04-05T06:57:11Z</time>
      </trkpt>
      <trkpt lat="45.90172" lon="4.59753">
        <ele>220</ele>
        <time>2015-04-05T06:57:16Z</time>
      </trkpt>
      <trkpt lat="45.90182" lon="4.59732">
        <ele>220</ele>
        <time>2015-04-05T06:57:21Z</time>
      </trkpt>
      <trkpt lat="45.90192" lon="4.59712">
        <ele>220.1</ele>
        <time>2015-04-05T06:57:26Z</time>
      </trkpt>
      <trkpt lat="45.90202" lon="4.59688">
        <ele>221.4</ele>
        <time>2015-04-05T06:57:31Z</time>
      </trkpt>
      <trkpt lat="45.90213" lon="4.59667">
        <ele>221.9</ele>
        <time>2015-04-05T06:57:36Z</time>
      </trkpt>
      <trkpt lat="45.90225" lon="4.59643">
        <ele>221.9</ele>
        <time>2015-04-05T06:57:41Z</time>
      </trkpt>
      <trkpt lat="45.90237" lon="4.59622">
        <ele>221.9</ele>
        <time>2015-04-05T06:57:46Z</time>
      </trkpt>
      <trkpt lat="45.90248" lon="4.59598">
        <ele>221.2</ele>
        <time>2015-04-05T06:57:51Z</time>
      </trkpt>
      <trkpt lat="45.9026" lon="4.59582">
        <ele>223.6</ele>
        <time>2015-04-05T06:57:56Z</time>
      </trkpt>
      <trkpt lat="45.90272" lon="4.59557">
        <ele>223.6</ele>
        <time>2015-04-05T06:58:01Z</time>
      </trkpt>
      <trkpt lat="45.90285" lon="4.59533">
        <ele>222.3</ele>
        <time>2015-04-05T06:58:06Z</time>
      </trkpt>
      <trkpt lat="45.90297" lon="4.59508">
        <ele>223.1</ele>
        <time>2015-04-05T06:58:11Z</time>
      </trkpt>
      <trkpt lat="45.9031" lon="4.59488">
        <ele>223.6</ele>
        <time>2015-04-05T06:58:16Z</time>
      </trkpt>
      <trkpt lat="45.90323" lon="4.59467">
        <ele>224</ele>
        <time>2015-04-05T06:58:21Z</time>
      </trkpt>
      <trkpt lat="45.90338" lon="4.59448">
        <ele>224.4</ele>
        <time>2015-04-05T06:58:26Z</time>
      </trkpt>
      <trkpt lat="45.90352" lon="4.5943">
        <ele>224.4</ele>
        <time>2015-04-05T06:58:31Z</time>
      </trkpt>
      <trkpt lat="45.90367" lon="4.59412">
        <ele>223.8</ele>
        <time>2015-04-05T06:58:36Z</time>
      </trkpt>
      <trkpt lat="45.90383" lon="4.59392">
        <ele>224.5</ele>
        <time>2015-04-05T06:58:41Z</time>
      </trkpt>
      <trkpt lat="45.90395" lon="4.59377">
        <ele>224.1</ele>
        <time>2015-04-05T06:58:46Z</time>
      </trkpt>
      <trkpt lat="45.90395" lon="4.59357">
        <ele>222.7</ele>
        <time>2015-04-05T06:58:51Z</time>
      </trkpt>
      <trkpt lat="45.90378" lon="4.59325">
        <ele>219.2</ele>
        <time>2015-04-05T06:58:56Z</time>
      </trkpt>
      <trkpt lat="45.90357" lon="4.59283">
        <ele>211.9</ele>
        <time>2015-04-05T06:59:01Z</time>
      </trkpt>
      <trkpt lat="45.90342" lon="4.59247">
        <ele>211.1</ele>
        <time>2015-04-05T06:59:06Z</time>
      </trkpt>
      <trkpt lat="45.90338" lon="4.59227">
        <ele>208.7</ele>
        <time>2015-04-05T06:59:11Z</time>
      </trkpt>
      <trkpt lat="45.90353" lon="4.59212">
        <ele>208.2</ele>
        <time>2015-04-05T06:59:16Z</time>
      </trkpt>
      <trkpt lat="45.9035" lon="4.59183">
        <ele>204.4</ele>
        <time>2015-04-05T06:59:21Z</time>
      </trkpt>
      <trkpt lat="45.90355" lon="4.59133">
        <ele>204.7</ele>
        <time>2015-04-05T06:59:26Z</time>
      </trkpt>
      <trkpt lat="45.90362" lon="4.59082">
        <ele>196.9</ele>
        <time>2015-04-05T06:59:31Z</time>
      </trkpt>
      <trkpt lat="45.90365" lon="4.5903">
        <ele>195.5</ele>
        <time>2015-04-05T06:59:36Z</time>
      </trkpt>
      <trkpt lat="45.90387" lon="4.59005">
        <ele>194</ele>
        <time>2015-04-05T06:59:41Z</time>
      </trkpt>
      <trkpt lat="45.904" lon="4.58967">
        <ele>193.5</ele>
        <time>2015-04-05T06:59:46Z</time>
      </trkpt>
      <trkpt lat="45.90417" lon="4.58922">
        <ele>190</ele>
        <time>2015-04-05T06:59:51Z</time>
      </trkpt>
      <trkpt lat="45.90432" lon="4.58885">
        <ele>185</ele>
        <time>2015-04-05T06:59:56Z</time>
      </trkpt>
      <trkpt lat="45.90448" lon="4.5884">
        <ele>181.6</ele>
        <time>2015-04-05T07:00:01Z</time>
      </trkpt>
      <trkpt lat="45.90457" lon="4.58798">
        <ele>172.7</ele>
        <time>2015-04-05T07:00:06Z</time>
      </trkpt>
      <trkpt lat="45.90463" lon="4.5877">
        <ele>167.3</ele>
        <time>2015-04-05T07:00:11Z</time>
      </trkpt>
      <trkpt lat="45.90492" lon="4.58753">
        <ele>160.4</ele>
        <time>2015-04-05T07:00:16Z</time>
      </trkpt>
      <trkpt lat="45.90513" lon="4.58758">
        <ele>157.1</ele>
        <time>2015-04-05T07:00:21Z</time>
      </trkpt>
      <trkpt lat="45.9052" lon="4.58743">
        <ele>154.5</ele>
        <time>2015-04-05T07:00:26Z</time>
      </trkpt>
      <trkpt lat="45.90547" lon="4.58753">
        <ele>152.7</ele>
        <time>2015-04-05T07:00:31Z</time>
      </trkpt>
      <trkpt lat="45.90572" lon="4.58755">
        <ele>150.9</ele>
        <time>2015-04-05T07:00:36Z</time>
      </trkpt>
      <trkpt lat="45.90598" lon="4.58738">
        <ele>151.1</ele>
        <time>2015-04-05T07:00:41Z</time>
      </trkpt>
      <trkpt lat="45.90618" lon="4.58717">
        <ele>151.5</ele>
        <time>2015-04-05T07:00:46Z</time>
      </trkpt>
      <trkpt lat="45.90637" lon="4.58703">
        <ele>154</ele>
        <time>2015-04-05T07:00:51Z</time>
      </trkpt>
      <trkpt lat="45.90652" lon="4.58687">
        <ele>155.5</ele>
        <time>2015-04-05T07:00:56Z</time>
      </trkpt>
      <trkpt lat="45.9065" lon="4.58668">
        <ele>156.3</ele>
        <time>2015-04-05T07:01:01Z</time>
      </trkpt>
      <trkpt lat="45.9064" lon="4.58653">
        <ele>159.1</ele>
        <time>2015-04-05T07:01:06Z</time>
      </trkpt>
      <trkpt lat="45.90627" lon="4.58638">
        <ele>159.5</ele>
        <time>2015-04-05T07:01:11Z</time>
      </trkpt>
      <trkpt lat="45.90615" lon="4.58622">
        <ele>162.1</ele>
        <time>2015-04-05T07:01:16Z</time>
      </trkpt>
      <trkpt lat="45.90603" lon="4.5861">
        <ele>163.2</ele>
        <time>2015-04-05T07:01:21Z</time>
      </trkpt>
      <trkpt lat="45.9059" lon="4.58598">
        <ele>164.4</ele>
        <time>2015-04-05T07:01:26Z</time>
      </trkpt>
      <trkpt lat="45.9058" lon="4.58587">
        <ele>166.9</ele>
        <time>2015-04-05T07:01:31Z</time>
      </trkpt>
      <trkpt lat="45.90592" lon="4.58585">
        <ele>168.1</ele>
        <time>2015-04-05T07:01:36Z</time>
      </trkpt>
      <trkpt lat="45.90607" lon="4.58588">
        <ele>168.1</ele>
        <time>2015-04-05T07:01:41Z</time>
      </trkpt>
      <trkpt lat="45.90622" lon="4.58595">
        <ele>168.8</ele>
        <time>2015-04-05T07:01:46Z</time>
      </trkpt>
      <trkpt lat="45.90638" lon="4.58605">
        <ele>170.4</ele>
        <time>2015-04-05T07:01:51Z</time>
      </trkpt>
      <trkpt lat="45.90655" lon="4.5862">
        <ele>170.2</ele>
        <time>2015-04-05T07:01:56Z</time>
      </trkpt>
      <trkpt lat="45.9067" lon="4.58633">
        <ele>171.9</ele>
        <time>2015-04-05T07:02:01Z</time>
      </trkpt>
      <trkpt lat="45.90685" lon="4.58648">
        <ele>173.3</ele>
        <time>2015-04-05T07:02:06Z</time>
      </trkpt>
      <trkpt lat="45.90703" lon="4.58663">
        <ele>172.9</ele>
        <time>2015-04-05T07:02:11Z</time>
      </trkpt>
      <trkpt lat="45.90723" lon="4.58677">
        <ele>172.5</ele>
        <time>2015-04-05T07:02:16Z</time>
      </trkpt>
      <trkpt lat="45.90745" lon="4.58692">
        <ele>173.9</ele>
        <time>2015-04-05T07:02:21Z</time>
      </trkpt>
      <trkpt lat="45.90767" lon="4.58707">
        <ele>173.5</ele>
        <time>2015-04-05T07:02:26Z</time>
      </trkpt>
      <trkpt lat="45.90785" lon="4.58725">
        <ele>175.2</ele>
        <time>2015-04-05T07:02:31Z</time>
      </trkpt>
      <trkpt lat="45.90805" lon="4.58743">
        <ele>177.5</ele>
        <time>2015-04-05T07:02:36Z</time>
      </trkpt>
      <trkpt lat="45.90823" lon="4.58762">
        <ele>178.2</ele>
        <time>2015-04-05T07:02:41Z</time>
      </trkpt>
      <trkpt lat="45.90838" lon="4.58782">
        <ele>177.2</ele>
        <time>2015-04-05T07:02:46Z</time>
      </trkpt>
      <trkpt lat="45.90853" lon="4.588">
        <ele>178.1</ele>
        <time>2015-04-05T07:02:51Z</time>
      </trkpt>
      <trkpt lat="45.9087" lon="4.58815">
        <ele>179.2</ele>
        <time>2015-04-05T07:02:56Z</time>
      </trkpt>
      <trkpt lat="45.9089" lon="4.58827">
        <ele>182.1</ele>
        <time>2015-04-05T07:03:01Z</time>
      </trkpt>
      <trkpt lat="45.90912" lon="4.58843">
        <ele>181.4</ele>
        <time>2015-04-05T07:03:06Z</time>
      </trkpt>
      <trkpt lat="45.90928" lon="4.58865">
        <ele>183.1</ele>
        <time>2015-04-05T07:03:11Z</time>
      </trkpt>
      <trkpt lat="45.90945" lon="4.58883">
        <ele>181.7</ele>
        <time>2015-04-05T07:03:16Z</time>
      </trkpt>
      <trkpt lat="45.90963" lon="4.58903">
        <ele>185.5</ele>
        <time>2015-04-05T07:03:21Z</time>
      </trkpt>
      <trkpt lat="45.90982" lon="4.58923">
        <ele>184.5</ele>
        <time>2015-04-05T07:03:26Z</time>
      </trkpt>
      <trkpt lat="45.91002" lon="4.58938">
        <ele>186</ele>
        <time>2015-04-05T07:03:31Z</time>
      </trkpt>
      <trkpt lat="45.9102" lon="4.58948">
        <ele>185.5</ele>
        <time>2015-04-05T07:03:36Z</time>
      </trkpt>
      <trkpt lat="45.91038" lon="4.58948">
        <ele>188.8</ele>
        <time>2015-04-05T07:03:41Z</time>
      </trkpt>
      <trkpt lat="45.91057" lon="4.58947">
        <ele>188.2</ele>
        <time>2015-04-05T07:03:46Z</time>
      </trkpt>
      <trkpt lat="45.91075" lon="4.58947">
        <ele>189.8</ele>
        <time>2015-04-05T07:03:51Z</time>
      </trkpt>
      <trkpt lat="45.91093" lon="4.58947">
        <ele>190.8</ele>
        <time>2015-04-05T07:03:56Z</time>
      </trkpt>
      <trkpt lat="45.91115" lon="4.58955">
        <ele>191.6</ele>
        <time>2015-04-05T07:04:01Z</time>
      </trkpt>
      <trkpt lat="45.91137" lon="4.58967">
        <ele>190.4</ele>
        <time>2015-04-05T07:04:06Z</time>
      </trkpt>
      <trkpt lat="45.91153" lon="4.58978">
        <ele>192.2</ele>
        <time>2015-04-05T07:04:11Z</time>
      </trkpt>
      <trkpt lat="45.91172" lon="4.58987">
        <ele>192</ele>
        <time>2015-04-05T07:04:16Z</time>
      </trkpt>
      <trkpt lat="45.91187" lon="4.58983">
        <ele>193.5</ele>
        <time>2015-04-05T07:04:21Z</time>
      </trkpt>
      <trkpt lat="45.91205" lon="4.58987">
        <ele>194.6</ele>
        <time>2015-04-05T07:04:26Z</time>
      </trkpt>
      <trkpt lat="45.91222" lon="4.58987">
        <ele>195.4</ele>
        <time>2015-04-05T07:04:31Z</time>
      </trkpt>
      <trkpt lat="45.91242" lon="4.58995">
        <ele>194.7</ele>
        <time>2015-04-05T07:04:36Z</time>
      </trkpt>
      <trkpt lat="45.91263" lon="4.59007">
        <ele>196.4</ele>
        <time>2015-04-05T07:04:41Z</time>
      </trkpt>
      <trkpt lat="45.9128" lon="4.5902">
        <ele>196.6</ele>
        <time>2015-04-05T07:04:46Z</time>
      </trkpt>
      <trkpt lat="45.91298" lon="4.59032">
        <ele>197.1</ele>
        <time>2015-04-05T07:04:51Z</time>
      </trkpt>
      <trkpt lat="45.91315" lon="4.59045">
        <ele>197.8</ele>
        <time>2015-04-05T07:04:56Z</time>
      </trkpt>
      <trkpt lat="45.91333" lon="4.59058">
        <ele>199.3</ele>
        <time>2015-04-05T07:05:01Z</time>
      </trkpt>
      <trkpt lat="45.91348" lon="4.5907">
        <ele>199.1</ele>
        <time>2015-04-05T07:05:06Z</time>
      </trkpt>
      <trkpt lat="45.91365" lon="4.59082">
        <ele>200.9</ele>
        <time>2015-04-05T07:05:11Z</time>
      </trkpt>
      <trkpt lat="45.91383" lon="4.59092">
        <ele>202</ele>
        <time>2015-04-05T07:05:16Z</time>
      </trkpt>
      <trkpt lat="45.91398" lon="4.59098">
        <ele>202.7</ele>
        <time>2015-04-05T07:05:21Z</time>
      </trkpt>
      <trkpt lat="45.91267" lon="4.588">
        <ele>199.8</ele>
        <time>2015-04-05T07:05:26Z</time>
      </trkpt>
      <trkpt lat="45.91317" lon="4.58868">
        <ele>205.3</ele>
        <time>2015-04-05T07:05:31Z</time>
      </trkpt>
      <trkpt lat="45.91327" lon="4.58863">
        <ele>203.4</ele>
        <time>2015-04-05T07:05:36Z</time>
      </trkpt>
      <trkpt lat="45.9135" lon="4.58885">
        <ele>206.2</ele>
        <time>2015-04-05T07:05:41Z</time>
      </trkpt>
      <trkpt lat="45.91473" lon="4.59157">
        <ele>206.2</ele>
        <time>2015-04-05T07:05:46Z</time>
      </trkpt>
      <trkpt lat="45.9149" lon="4.59168">
        <ele>205.7</ele>
        <time>2015-04-05T07:05:51Z</time>
      </trkpt>
      <trkpt lat="45.91505" lon="4.59173">
        <ele>207</ele>
        <time>2015-04-05T07:05:56Z</time>
      </trkpt>
      <trkpt lat="45.9152" lon="4.59173">
        <ele>209.3</ele>
        <time>2015-04-05T07:06:01Z</time>
      </trkpt>
      <trkpt lat="45.91532" lon="4.59172">
        <ele>208</ele>
        <time>2015-04-05T07:06:06Z</time>
      </trkpt>
      <trkpt lat="45.91532" lon="4.59157">
        <ele>209.3</ele>
        <time>2015-04-05T07:06:11Z</time>
      </trkpt>
      <trkpt lat="45.9153" lon="4.5914">
        <ele>211.1</ele>
        <time>2015-04-05T07:06:16Z</time>
      </trkpt>
      <trkpt lat="45.91528" lon="4.59127">
        <ele>211.6</ele>
        <time>2015-04-05T07:06:21Z</time>
      </trkpt>
      <trkpt lat="45.91527" lon="4.59113">
        <ele>213.3</ele>
        <time>2015-04-05T07:06:26Z</time>
      </trkpt>
      <trkpt lat="45.91523" lon="4.59098">
        <ele>215.2</ele>
        <time>2015-04-05T07:06:31Z</time>
      </trkpt>
      <trkpt lat="45.91522" lon="4.59085">
        <ele>217.5</ele>
        <time>2015-04-05T07:06:36Z</time>
      </trkpt>
      <trkpt lat="45.91522" lon="4.59072">
        <ele>218.2</ele>
        <time>2015-04-05T07:06:41Z</time>
      </trkpt>
      <trkpt lat="45.9152" lon="4.59058">
        <ele>219.5</ele>
        <time>2015-04-05T07:06:46Z</time>
      </trkpt>
      <trkpt lat="45.91518" lon="4.59043">
        <ele>220</ele>
        <time>2015-04-05T07:06:51Z</time>
      </trkpt>
      <trkpt lat="45.91517" lon="4.59028">
        <ele>221.2</ele>
        <time>2015-04-05T07:06:56Z</time>
      </trkpt>
      <trkpt lat="45.91515" lon="4.59013">
        <ele>221.7</ele>
        <time>2015-04-05T07:07:01Z</time>
      </trkpt>
      <trkpt lat="45.91512" lon="4.58995">
        <ele>221.6</ele>
        <time>2015-04-05T07:07:06Z</time>
      </trkpt>
      <trkpt lat="45.9151" lon="4.58978">
        <ele>222.7</ele>
        <time>2015-04-05T07:07:11Z</time>
      </trkpt>
      <trkpt lat="45.91507" lon="4.5896">
        <ele>225.4</ele>
        <time>2015-04-05T07:07:16Z</time>
      </trkpt>
      <trkpt lat="45.91505" lon="4.58943">
        <ele>224.1</ele>
        <time>2015-04-05T07:07:21Z</time>
      </trkpt>
      <trkpt lat="45.91502" lon="4.58925">
        <ele>225.4</ele>
        <time>2015-04-05T07:07:26Z</time>
      </trkpt>
      <trkpt lat="45.91498" lon="4.58908">
        <ele>228.6</ele>
        <time>2015-04-05T07:07:31Z</time>
      </trkpt>
      <trkpt lat="45.91497" lon="4.58895">
        <ele>229.9</ele>
        <time>2015-04-05T07:07:36Z</time>
      </trkpt>
      <trkpt lat="45.91508" lon="4.5889">
        <ele>230.3</ele>
        <time>2015-04-05T07:07:41Z</time>
      </trkpt>
      <trkpt lat="45.91518" lon="4.58883">
        <ele>230.3</ele>
        <time>2015-04-05T07:07:46Z</time>
      </trkpt>
      <trkpt lat="45.91527" lon="4.58873">
        <ele>231.4</ele>
        <time>2015-04-05T07:07:51Z</time>
      </trkpt>
      <trkpt lat="45.91538" lon="4.58865">
        <ele>231.4</ele>
        <time>2015-04-05T07:07:56Z</time>
      </trkpt>
      <trkpt lat="45.91552" lon="4.5886">
        <ele>231.6</ele>
        <time>2015-04-05T07:08:01Z</time>
      </trkpt>
      <trkpt lat="45.91565" lon="4.58857">
        <ele>231.5</ele>
        <time>2015-04-05T07:08:06Z</time>
      </trkpt>
      <trkpt lat="45.91577" lon="4.58847">
        <ele>232.8</ele>
        <time>2015-04-05T07:08:11Z</time>
      </trkpt>
      <trkpt lat="45.91588" lon="4.58835">
        <ele>232.2</ele>
        <time>2015-04-05T07:08:16Z</time>
      </trkpt>
      <trkpt lat="45.91598" lon="4.58822">
        <ele>233.9</ele>
        <time>2015-04-05T07:08:21Z</time>
      </trkpt>
      <trkpt lat="45.9161" lon="4.5881">
        <ele>233.9</ele>
        <time>2015-04-05T07:08:26Z</time>
      </trkpt>
      <trkpt lat="45.9162" lon="4.58797">
        <ele>234</ele>
        <time>2015-04-05T07:08:31Z</time>
      </trkpt>
      <trkpt lat="45.9163" lon="4.58783">
        <ele>236.8</ele>
        <time>2015-04-05T07:08:36Z</time>
      </trkpt>
      <trkpt lat="45.91638" lon="4.58772">
        <ele>237</ele>
        <time>2015-04-05T07:08:41Z</time>
      </trkpt>
      <trkpt lat="45.91645" lon="4.5876">
        <ele>238</ele>
        <time>2015-04-05T07:08:46Z</time>
      </trkpt>
      <trkpt lat="45.91652" lon="4.5875">
        <ele>240.4</ele>
        <time>2015-04-05T07:08:51Z</time>
      </trkpt>
      <trkpt lat="45.91658" lon="4.58738">
        <ele>240.4</ele>
        <time>2015-04-05T07:08:56Z</time>
      </trkpt>
      <trkpt lat="45.91667" lon="4.5873">
        <ele>242.4</ele>
        <time>2015-04-05T07:09:01Z</time>
      </trkpt>
      <trkpt lat="45.91675" lon="4.58723">
        <ele>243.6</ele>
        <time>2015-04-05T07:09:06Z</time>
      </trkpt>
      <trkpt lat="45.91685" lon="4.58715">
        <ele>244.2</ele>
        <time>2015-04-05T07:09:11Z</time>
      </trkpt>
      <trkpt lat="45.91693" lon="4.58707">
        <ele>244.4</ele>
        <time>2015-04-05T07:09:16Z</time>
      </trkpt>
      <trkpt lat="45.91703" lon="4.587">
        <ele>246.5</ele>
        <time>2015-04-05T07:09:21Z</time>
      </trkpt>
      <trkpt lat="45.91712" lon="4.58693">
        <ele>247</ele>
        <time>2015-04-05T07:09:26Z</time>
      </trkpt>
      <trkpt lat="45.91722" lon="4.58685">
        <ele>248.5</ele>
        <time>2015-04-05T07:09:31Z</time>
      </trkpt>
      <trkpt lat="45.91732" lon="4.5868">
        <ele>250.7</ele>
        <time>2015-04-05T07:09:36Z</time>
      </trkpt>
      <trkpt lat="45.91742" lon="4.58685">
        <ele>249.3</ele>
        <time>2015-04-05T07:09:41Z</time>
      </trkpt>
      <trkpt lat="45.91762" lon="4.5869">
        <ele>248.9</ele>
        <time>2015-04-05T07:09:46Z</time>
      </trkpt>
      <trkpt lat="45.91787" lon="4.587">
        <ele>251.3</ele>
        <time>2015-04-05T07:09:51Z</time>
      </trkpt>
      <trkpt lat="45.918" lon="4.58738">
        <ele>247.5</ele>
        <time>2015-04-05T07:09:56Z</time>
      </trkpt>
      <trkpt lat="45.91817" lon="4.58788">
        <ele>242.6</ele>
        <time>2015-04-05T07:10:01Z</time>
      </trkpt>
      <trkpt lat="45.91835" lon="4.58847">
        <ele>238.4</ele>
        <time>2015-04-05T07:10:06Z</time>
      </trkpt>
      <trkpt lat="45.91863" lon="4.58892">
        <ele>230.1</ele>
        <time>2015-04-05T07:10:11Z</time>
      </trkpt>
      <trkpt lat="45.91877" lon="4.58915">
        <ele>225.3</ele>
        <time>2015-04-05T07:10:16Z</time>
      </trkpt>
      <trkpt lat="45.9189" lon="4.58902">
        <ele>226.4</ele>
        <time>2015-04-05T07:10:21Z</time>
      </trkpt>
      <trkpt lat="45.91903" lon="4.58883">
        <ele>227.3</ele>
        <time>2015-04-05T07:10:26Z</time>
      </trkpt>
      <trkpt lat="45.91925" lon="4.58902">
        <ele>227.3</ele>
        <time>2015-04-05T07:10:31Z</time>
      </trkpt>
      <trkpt lat="45.9195" lon="4.5893">
        <ele>224.9</ele>
        <time>2015-04-05T07:10:36Z</time>
      </trkpt>
      <trkpt lat="45.91977" lon="4.5896">
        <ele>224.4</ele>
        <time>2015-04-05T07:10:41Z</time>
      </trkpt>
      <trkpt lat="45.9201" lon="4.58983">
        <ele>220.8</ele>
        <time>2015-04-05T07:10:46Z</time>
      </trkpt>
      <trkpt lat="45.92045" lon="4.59">
        <ele>219</ele>
        <time>2015-04-05T07:10:51Z</time>
      </trkpt>
      <trkpt lat="45.9207" lon="4.59048">
        <ele>212.3</ele>
        <time>2015-04-05T07:10:56Z</time>
      </trkpt>
      <trkpt lat="45.92085" lon="4.59112">
        <ele>209.4</ele>
        <time>2015-04-05T07:11:01Z</time>
      </trkpt>
      <trkpt lat="45.92103" lon="4.59163">
        <ele>207.1</ele>
        <time>2015-04-05T07:11:06Z</time>
      </trkpt>
      <trkpt lat="45.92107" lon="4.59197">
        <ele>208.7</ele>
        <time>2015-04-05T07:11:11Z</time>
      </trkpt>
      <trkpt lat="45.92097" lon="4.59215">
        <ele>208.5</ele>
        <time>2015-04-05T07:11:16Z</time>
      </trkpt>
      <trkpt lat="45.92083" lon="4.59227">
        <ele>211.2</ele>
        <time>2015-04-05T07:11:21Z</time>
      </trkpt>
      <trkpt lat="45.92072" lon="4.59238">
        <ele>213.1</ele>
        <time>2015-04-05T07:11:26Z</time>
      </trkpt>
      <trkpt lat="45.92063" lon="4.59247">
        <ele>215.9</ele>
        <time>2015-04-05T07:11:31Z</time>
      </trkpt>
      <trkpt lat="45.92055" lon="4.59255">
        <ele>215.9</ele>
        <time>2015-04-05T07:11:36Z</time>
      </trkpt>
      <trkpt lat="45.92047" lon="4.59263">
        <ele>218.6</ele>
        <time>2015-04-05T07:11:41Z</time>
      </trkpt>
      <trkpt lat="45.9204" lon="4.59272">
        <ele>220</ele>
        <time>2015-04-05T07:11:46Z</time>
      </trkpt>
      <trkpt lat="45.92033" lon="4.5928">
        <ele>222</ele>
        <time>2015-04-05T07:11:51Z</time>
      </trkpt>
      <trkpt lat="45.92027" lon="4.59288">
        <ele>223.3</ele>
        <time>2015-04-05T07:11:56Z</time>
      </trkpt>
      <trkpt lat="45.92022" lon="4.59297">
        <ele>224.8</ele>
        <time>2015-04-05T07:12:01Z</time>
      </trkpt>
      <trkpt lat="45.9202" lon="4.59305">
        <ele>225.9</ele>
        <time>2015-04-05T07:12:06Z</time>
      </trkpt>
      <trkpt lat="45.92018" lon="4.59315">
        <ele>228.2</ele>
        <time>2015-04-05T07:12:11Z</time>
      </trkpt>
      <trkpt lat="45.92017" lon="4.59323">
        <ele>229.8</ele>
        <time>2015-04-05T07:12:16Z</time>
      </trkpt>
      <trkpt lat="45.92015" lon="4.59332">
        <ele>229.8</ele>
        <time>2015-04-05T07:12:21Z</time>
      </trkpt>
      <trkpt lat="45.92013" lon="4.5934">
        <ele>231.7</ele>
        <time>2015-04-05T07:12:26Z</time>
      </trkpt>
      <trkpt lat="45.92013" lon="4.59348">
        <ele>232.4</ele>
        <time>2015-04-05T07:12:31Z</time>
      </trkpt>
      <trkpt lat="45.92012" lon="4.59357">
        <ele>234.4</ele>
        <time>2015-04-05T07:12:36Z</time>
      </trkpt>
      <trkpt lat="45.9201" lon="4.59365">
        <ele>236.2</ele>
        <time>2015-04-05T07:12:41Z</time>
      </trkpt>
      <trkpt lat="45.9201" lon="4.59373">
        <ele>237.7</ele>
        <time>2015-04-05T07:12:46Z</time>
      </trkpt>
      <trkpt lat="45.92007" lon="4.59382">
        <ele>239.1</ele>
        <time>2015-04-05T07:12:51Z</time>
      </trkpt>
      <trkpt lat="45.92007" lon="4.59388">
        <ele>240.9</ele>
        <time>2015-04-05T07:12:56Z</time>
      </trkpt>
      <trkpt lat="45.92003" lon="4.59395">
        <ele>242</ele>
        <time>2015-04-05T07:13:01Z</time>
      </trkpt>
      <trkpt lat="45.92002" lon="4.59403">
        <ele>242.8</ele>
        <time>2015-04-05T07:13:06Z</time>
      </trkpt>
      <trkpt lat="45.92" lon="4.5941">
        <ele>245.2</ele>
        <time>2015-04-05T07:13:11Z</time>
      </trkpt>
      <trkpt lat="45.91998" lon="4.59417">
        <ele>246.4</ele>
        <time>2015-04-05T07:13:16Z</time>
      </trkpt>
      <trkpt lat="45.91998" lon="4.59423">
        <ele>247.8</ele>
        <time>2015-04-05T07:13:21Z</time>
      </trkpt>
      <trkpt lat="45.91998" lon="4.59425">
        <ele>248.3</ele>
        <time>2015-04-05T07:13:26Z</time>
      </trkpt>
      <trkpt lat="45.91997" lon="4.59433">
        <ele>249.7</ele>
        <time>2015-04-05T07:13:31Z</time>
      </trkpt>
      <trkpt lat="45.91995" lon="4.59438">
        <ele>250.2</ele>
        <time>2015-04-05T07:13:36Z</time>
      </trkpt>
      <trkpt lat="45.91993" lon="4.59447">
        <ele>251.9</ele>
        <time>2015-04-05T07:13:41Z</time>
      </trkpt>
      <trkpt lat="45.91992" lon="4.59452">
        <ele>251.4</ele>
        <time>2015-04-05T07:13:46Z</time>
      </trkpt>
      <trkpt lat="45.91992" lon="4.59458">
        <ele>253.5</ele>
        <time>2015-04-05T07:13:51Z</time>
      </trkpt>
      <trkpt lat="45.91993" lon="4.59462">
        <ele>254.4</ele>
        <time>2015-04-05T07:13:56Z</time>
      </trkpt>
      <trkpt lat="45.91997" lon="4.59468">
        <ele>255.7</ele>
        <time>2015-04-05T07:14:06Z</time>
      </trkpt>
      <trkpt lat="45.91997" lon="4.5948">
        <ele>257.1</ele>
        <time>2015-04-05T07:14:11Z</time>
      </trkpt>
      <trkpt lat="45.92" lon="4.59492">
        <ele>257.5</ele>
        <time>2015-04-05T07:14:16Z</time>
      </trkpt>
      <trkpt lat="45.92003" lon="4.59507">
        <ele>258.2</ele>
        <time>2015-04-05T07:14:21Z</time>
      </trkpt>
      <trkpt lat="45.92007" lon="4.5952">
        <ele>258.2</ele>
        <time>2015-04-05T07:14:26Z</time>
      </trkpt>
      <trkpt lat="45.92012" lon="4.59535">
        <ele>259</ele>
        <time>2015-04-05T07:14:31Z</time>
      </trkpt>
      <trkpt lat="45.92018" lon="4.59548">
        <ele>259.9</ele>
        <time>2015-04-05T07:14:36Z</time>
      </trkpt>
      <trkpt lat="45.92025" lon="4.5956">
        <ele>259.9</ele>
        <time>2015-04-05T07:14:41Z</time>
      </trkpt>
      <trkpt lat="45.92033" lon="4.5957">
        <ele>261.4</ele>
        <time>2015-04-05T07:14:46Z</time>
      </trkpt>
      <trkpt lat="45.92038" lon="4.59582">
        <ele>263</ele>
        <time>2015-04-05T07:14:51Z</time>
      </trkpt>
      <trkpt lat="45.92045" lon="4.59592">
        <ele>263</ele>
        <time>2015-04-05T07:14:56Z</time>
      </trkpt>
      <trkpt lat="45.92052" lon="4.59603">
        <ele>263.9</ele>
        <time>2015-04-05T07:15:01Z</time>
      </trkpt>
      <trkpt lat="45.92057" lon="4.59615">
        <ele>265.8</ele>
        <time>2015-04-05T07:15:06Z</time>
      </trkpt>
      <trkpt lat="45.92062" lon="4.59627">
        <ele>267.2</ele>
        <time>2015-04-05T07:15:11Z</time>
      </trkpt>
      <trkpt lat="45.9207" lon="4.59635">
        <ele>270.1</ele>
        <time>2015-04-05T07:15:16Z</time>
      </trkpt>
      <trkpt lat="45.92078" lon="4.59632">
        <ele>271.1</ele>
        <time>2015-04-05T07:15:21Z</time>
      </trkpt>
      <trkpt lat="45.92087" lon="4.5963">
        <ele>272.3</ele>
        <time>2015-04-05T07:15:26Z</time>
      </trkpt>
      <trkpt lat="45.92097" lon="4.59637">
        <ele>273.6</ele>
        <time>2015-04-05T07:15:31Z</time>
      </trkpt>
      <trkpt lat="45.92102" lon="4.5965">
        <ele>273.9</ele>
        <time>2015-04-05T07:15:36Z</time>
      </trkpt>
      <trkpt lat="45.92102" lon="4.59663">
        <ele>274.4</ele>
        <time>2015-04-05T07:15:41Z</time>
      </trkpt>
      <trkpt lat="45.92098" lon="4.59673">
        <ele>276.5</ele>
        <time>2015-04-05T07:15:46Z</time>
      </trkpt>
      <trkpt lat="45.92095" lon="4.59683">
        <ele>276.5</ele>
        <time>2015-04-05T07:15:51Z</time>
      </trkpt>
      <trkpt lat="45.92097" lon="4.59697">
        <ele>279.3</ele>
        <time>2015-04-05T07:15:56Z</time>
      </trkpt>
      <trkpt lat="45.921" lon="4.59708">
        <ele>280.4</ele>
        <time>2015-04-05T07:16:01Z</time>
      </trkpt>
      <trkpt lat="45.92102" lon="4.5972">
        <ele>281.9</ele>
        <time>2015-04-05T07:16:06Z</time>
      </trkpt>
      <trkpt lat="45.92107" lon="4.5973">
        <ele>283.1</ele>
        <time>2015-04-05T07:16:11Z</time>
      </trkpt>
      <trkpt lat="45.92115" lon="4.59732">
        <ele>284.8</ele>
        <time>2015-04-05T07:16:16Z</time>
      </trkpt>
      <trkpt lat="45.92123" lon="4.59732">
        <ele>285.8</ele>
        <time>2015-04-05T07:16:21Z</time>
      </trkpt>
      <trkpt lat="45.92132" lon="4.59733">
        <ele>286.6</ele>
        <time>2015-04-05T07:16:26Z</time>
      </trkpt>
      <trkpt lat="45.92142" lon="4.59737">
        <ele>287.4</ele>
        <time>2015-04-05T07:16:31Z</time>
      </trkpt>
      <trkpt lat="45.92152" lon="4.59743">
        <ele>288.9</ele>
        <time>2015-04-05T07:16:36Z</time>
      </trkpt>
      <trkpt lat="45.92162" lon="4.59748">
        <ele>288.9</ele>
        <time>2015-04-05T07:16:41Z</time>
      </trkpt>
      <trkpt lat="45.92172" lon="4.59752">
        <ele>290.2</ele>
        <time>2015-04-05T07:16:46Z</time>
      </trkpt>
      <trkpt lat="45.92183" lon="4.59765">
        <ele>291.1</ele>
        <time>2015-04-05T07:16:51Z</time>
      </trkpt>
      <trkpt lat="45.92195" lon="4.59775">
        <ele>291</ele>
        <time>2015-04-05T07:16:56Z</time>
      </trkpt>
      <trkpt lat="45.92205" lon="4.59787">
        <ele>292.1</ele>
        <time>2015-04-05T07:17:01Z</time>
      </trkpt>
      <trkpt lat="45.92217" lon="4.59797">
        <ele>293.5</ele>
        <time>2015-04-05T07:17:06Z</time>
      </trkpt>
      <trkpt lat="45.92227" lon="4.59807">
        <ele>293.1</ele>
        <time>2015-04-05T07:17:11Z</time>
      </trkpt>
      <trkpt lat="45.92237" lon="4.59817">
        <ele>294.9</ele>
        <time>2015-04-05T07:17:16Z</time>
      </trkpt>
      <trkpt lat="45.92248" lon="4.59825">
        <ele>295.6</ele>
        <time>2015-04-05T07:17:21Z</time>
      </trkpt>
      <trkpt lat="45.92258" lon="4.59835">
        <ele>294.8</ele>
        <time>2015-04-05T07:17:26Z</time>
      </trkpt>
      <trkpt lat="45.92272" lon="4.59842">
        <ele>296.3</ele>
        <time>2015-04-05T07:17:31Z</time>
      </trkpt>
      <trkpt lat="45.92283" lon="4.5985">
        <ele>298.2</ele>
        <time>2015-04-05T07:17:36Z</time>
      </trkpt>
      <trkpt lat="45.92295" lon="4.5986">
        <ele>298.4</ele>
        <time>2015-04-05T07:17:41Z</time>
      </trkpt>
      <trkpt lat="45.92305" lon="4.5987">
        <ele>299.9</ele>
        <time>2015-04-05T07:17:46Z</time>
      </trkpt>
      <trkpt lat="45.92317" lon="4.5988">
        <ele>300.8</ele>
        <time>2015-04-05T07:17:51Z</time>
      </trkpt>
      <trkpt lat="45.92328" lon="4.5989">
        <ele>300.8</ele>
        <time>2015-04-05T07:17:56Z</time>
      </trkpt>
      <trkpt lat="45.9234" lon="4.59902">
        <ele>301.6</ele>
        <time>2015-04-05T07:18:01Z</time>
      </trkpt>
      <trkpt lat="45.9235" lon="4.59912">
        <ele>301.9</ele>
        <time>2015-04-05T07:18:06Z</time>
      </trkpt>
      <trkpt lat="45.92362" lon="4.59923">
        <ele>303.3</ele>
        <time>2015-04-05T07:18:11Z</time>
      </trkpt>
      <trkpt lat="45.92372" lon="4.59935">
        <ele>302</ele>
        <time>2015-04-05T07:18:16Z</time>
      </trkpt>
      <trkpt lat="45.92383" lon="4.59945">
        <ele>305.4</ele>
        <time>2015-04-05T07:18:21Z</time>
      </trkpt>
      <trkpt lat="45.92395" lon="4.59955">
        <ele>305.1</ele>
        <time>2015-04-05T07:18:26Z</time>
      </trkpt>
      <trkpt lat="45.92405" lon="4.59965">
        <ele>305.1</ele>
        <time>2015-04-05T07:18:31Z</time>
      </trkpt>
      <trkpt lat="45.92413" lon="4.59973">
        <ele>305.7</ele>
        <time>2015-04-05T07:18:36Z</time>
      </trkpt>
      <trkpt lat="45.92422" lon="4.59982">
        <ele>307.1</ele>
        <time>2015-04-05T07:18:41Z</time>
      </trkpt>
      <trkpt lat="45.9243" lon="4.59988">
        <ele>307.1</ele>
        <time>2015-04-05T07:18:46Z</time>
      </trkpt>
      <trkpt lat="45.92438" lon="4.59997">
        <ele>308.5</ele>
        <time>2015-04-05T07:18:51Z</time>
      </trkpt>
      <trkpt lat="45.92447" lon="4.60003">
        <ele>309</ele>
        <time>2015-04-05T07:18:56Z</time>
      </trkpt>
      <trkpt lat="45.92453" lon="4.60013">
        <ele>310.3</ele>
        <time>2015-04-05T07:19:01Z</time>
      </trkpt>
      <trkpt lat="45.92462" lon="4.60022">
        <ele>311.3</ele>
        <time>2015-04-05T07:19:06Z</time>
      </trkpt>
      <trkpt lat="45.92472" lon="4.60033">
        <ele>312.3</ele>
        <time>2015-04-05T07:19:11Z</time>
      </trkpt>
      <trkpt lat="45.92482" lon="4.60043">
        <ele>313.4</ele>
        <time>2015-04-05T07:19:16Z</time>
      </trkpt>
      <trkpt lat="45.9249" lon="4.60053">
        <ele>314.1</ele>
        <time>2015-04-05T07:19:21Z</time>
      </trkpt>
      <trkpt lat="45.92498" lon="4.60063">
        <ele>314.9</ele>
        <time>2015-04-05T07:19:26Z</time>
      </trkpt>
      <trkpt lat="45.92508" lon="4.60078">
        <ele>315.7</ele>
        <time>2015-04-05T07:19:31Z</time>
      </trkpt>
      <trkpt lat="45.9252" lon="4.60087">
        <ele>317.5</ele>
        <time>2015-04-05T07:19:36Z</time>
      </trkpt>
      <trkpt lat="45.92528" lon="4.60095">
        <ele>318.9</ele>
        <time>2015-04-05T07:19:41Z</time>
      </trkpt>
      <trkpt lat="45.92537" lon="4.60102">
        <ele>320</ele>
        <time>2015-04-05T07:19:46Z</time>
      </trkpt>
      <trkpt lat="45.92545" lon="4.6011">
        <ele>319.9</ele>
        <time>2015-04-05T07:19:51Z</time>
      </trkpt>
      <trkpt lat="45.92555" lon="4.60117">
        <ele>321.7</ele>
        <time>2015-04-05T07:19:56Z</time>
      </trkpt>
      <trkpt lat="45.92563" lon="4.60108">
        <ele>322.2</ele>
        <time>2015-04-05T07:20:01Z</time>
      </trkpt>
      <trkpt lat="45.9257" lon="4.60092">
        <ele>323.7</ele>
        <time>2015-04-05T07:20:06Z</time>
      </trkpt>
      <trkpt lat="45.92577" lon="4.60078">
        <ele>325.2</ele>
        <time>2015-04-05T07:20:11Z</time>
      </trkpt>
      <trkpt lat="45.92585" lon="4.60065">
        <ele>325.1</ele>
        <time>2015-04-05T07:20:16Z</time>
      </trkpt>
      <trkpt lat="45.92593" lon="4.60048">
        <ele>326.1</ele>
        <time>2015-04-05T07:20:21Z</time>
      </trkpt>
      <trkpt lat="45.92602" lon="4.60045">
        <ele>326.2</ele>
        <time>2015-04-05T07:20:26Z</time>
      </trkpt>
      <trkpt lat="45.92608" lon="4.60047">
        <ele>326.6</ele>
        <time>2015-04-05T07:20:31Z</time>
      </trkpt>
      <trkpt lat="45.92617" lon="4.60048">
        <ele>327.6</ele>
        <time>2015-04-05T07:20:36Z</time>
      </trkpt>
      <trkpt lat="45.92625" lon="4.60048">
        <ele>330.2</ele>
        <time>2015-04-05T07:20:41Z</time>
      </trkpt>
      <trkpt lat="45.92633" lon="4.60048">
        <ele>331.3</ele>
        <time>2015-04-05T07:20:46Z</time>
      </trkpt>
      <trkpt lat="45.92642" lon="4.6005">
        <ele>331.3</ele>
        <time>2015-04-05T07:20:51Z</time>
      </trkpt>
      <trkpt lat="45.92648" lon="4.6005">
        <ele>333.3</ele>
        <time>2015-04-05T07:20:56Z</time>
      </trkpt>
      <trkpt lat="45.92657" lon="4.60053">
        <ele>333.7</ele>
        <time>2015-04-05T07:21:01Z</time>
      </trkpt>
      <trkpt lat="45.92665" lon="4.60055">
        <ele>335.3</ele>
        <time>2015-04-05T07:21:06Z</time>
      </trkpt>
      <trkpt lat="45.92672" lon="4.60065">
        <ele>335.3</ele>
        <time>2015-04-05T07:21:11Z</time>
      </trkpt>
      <trkpt lat="45.92673" lon="4.60067">
        <ele>336.2</ele>
        <time>2015-04-05T07:21:16Z</time>
      </trkpt>
      <trkpt lat="45.92675" lon="4.60067">
        <ele>337.8</ele>
        <time>2015-04-05T07:21:21Z</time>
      </trkpt>
      <trkpt lat="45.92683" lon="4.60063">
        <ele>338.1</ele>
        <time>2015-04-05T07:21:26Z</time>
      </trkpt>
      <trkpt lat="45.9269" lon="4.60067">
        <ele>338.7</ele>
        <time>2015-04-05T07:21:31Z</time>
      </trkpt>
      <trkpt lat="45.92697" lon="4.60077">
        <ele>341.2</ele>
        <time>2015-04-05T07:21:36Z</time>
      </trkpt>
      <trkpt lat="45.92702" lon="4.60082">
        <ele>340.9</ele>
        <time>2015-04-05T07:21:41Z</time>
      </trkpt>
      <trkpt lat="45.92707" lon="4.6009">
        <ele>342</ele>
        <time>2015-04-05T07:21:46Z</time>
      </trkpt>
      <trkpt lat="45.92712" lon="4.60097">
        <ele>343.5</ele>
        <time>2015-04-05T07:21:51Z</time>
      </trkpt>
      <trkpt lat="45.92717" lon="4.60105">
        <ele>343.4</ele>
        <time>2015-04-05T07:21:56Z</time>
      </trkpt>
      <trkpt lat="45.9272" lon="4.60112">
        <ele>348.2</ele>
        <time>2015-04-05T07:22:01Z</time>
      </trkpt>
      <trkpt lat="45.92723" lon="4.60122">
        <ele>347.9</ele>
        <time>2015-04-05T07:22:06Z</time>
      </trkpt>
      <trkpt lat="45.92728" lon="4.60128">
        <ele>348.8</ele>
        <time>2015-04-05T07:22:11Z</time>
      </trkpt>
      <trkpt lat="45.92733" lon="4.60132">
        <ele>348.8</ele>
        <time>2015-04-05T07:22:16Z</time>
      </trkpt>
      <trkpt lat="45.92738" lon="4.60135">
        <ele>351.1</ele>
        <time>2015-04-05T07:22:21Z</time>
      </trkpt>
      <trkpt lat="45.92743" lon="4.60137">
        <ele>352</ele>
        <time>2015-04-05T07:22:26Z</time>
      </trkpt>
      <trkpt lat="45.9275" lon="4.60142">
        <ele>351.7</ele>
        <time>2015-04-05T07:22:31Z</time>
      </trkpt>
      <trkpt lat="45.9275" lon="4.60143">
        <ele>354</ele>
        <time>2015-04-05T07:22:36Z</time>
      </trkpt>
      <trkpt lat="45.92753" lon="4.60147">
        <ele>355.4</ele>
        <time>2015-04-05T07:22:41Z</time>
      </trkpt>
      <trkpt lat="45.92755" lon="4.60148">
        <ele>355.3</ele>
        <time>2015-04-05T07:22:46Z</time>
      </trkpt>
      <trkpt lat="45.92757" lon="4.60162">
        <ele>355.8</ele>
        <time>2015-04-05T07:22:51Z</time>
      </trkpt>
      <trkpt lat="45.9276" lon="4.6018">
        <ele>356.6</ele>
        <time>2015-04-05T07:22:56Z</time>
      </trkpt>
      <trkpt lat="45.92763" lon="4.60203">
        <ele>356.5</ele>
        <time>2015-04-05T07:23:01Z</time>
      </trkpt>
      <trkpt lat="45.92768" lon="4.60227">
        <ele>357</ele>
        <time>2015-04-05T07:23:06Z</time>
      </trkpt>
      <trkpt lat="45.92773" lon="4.6025">
        <ele>357.4</ele>
        <time>2015-04-05T07:23:11Z</time>
      </trkpt>
      <trkpt lat="45.92772" lon="4.60273">
        <ele>357</ele>
        <time>2015-04-05T07:23:16Z</time>
      </trkpt>
      <trkpt lat="45.9277" lon="4.60292">
        <ele>357</ele>
        <time>2015-04-05T07:23:21Z</time>
      </trkpt>
      <trkpt lat="45.9277" lon="4.60312">
        <ele>357.1</ele>
        <time>2015-04-05T07:23:26Z</time>
      </trkpt>
      <trkpt lat="45.92768" lon="4.60332">
        <ele>360</ele>
        <time>2015-04-05T07:23:31Z</time>
      </trkpt>
      <trkpt lat="45.92772" lon="4.6035">
        <ele>357.9</ele>
        <time>2015-04-05T07:23:36Z</time>
      </trkpt>
      <trkpt lat="45.92783" lon="4.60343">
        <ele>359.6</ele>
        <time>2015-04-05T07:23:41Z</time>
      </trkpt>
      <trkpt lat="45.92795" lon="4.60338">
        <ele>360.8</ele>
        <time>2015-04-05T07:23:46Z</time>
      </trkpt>
      <trkpt lat="45.92808" lon="4.60333">
        <ele>361.3</ele>
        <time>2015-04-05T07:23:51Z</time>
      </trkpt>
      <trkpt lat="45.9282" lon="4.6033">
        <ele>362.9</ele>
        <time>2015-04-05T07:23:56Z</time>
      </trkpt>
      <trkpt lat="45.92832" lon="4.60335">
        <ele>363.3</ele>
        <time>2015-04-05T07:24:01Z</time>
      </trkpt>
      <trkpt lat="45.92842" lon="4.60348">
        <ele>363.3</ele>
        <time>2015-04-05T07:24:06Z</time>
      </trkpt>
      <trkpt lat="45.92852" lon="4.60362">
        <ele>364.3</ele>
        <time>2015-04-05T07:24:11Z</time>
      </trkpt>
      <trkpt lat="45.92863" lon="4.60372">
        <ele>366</ele>
        <time>2015-04-05T07:24:16Z</time>
      </trkpt>
      <trkpt lat="45.92873" lon="4.60382">
        <ele>366.9</ele>
        <time>2015-04-05T07:24:21Z</time>
      </trkpt>
      <trkpt lat="45.92883" lon="4.60388">
        <ele>367.3</ele>
        <time>2015-04-05T07:24:26Z</time>
      </trkpt>
      <trkpt lat="45.92892" lon="4.60397">
        <ele>368.7</ele>
        <time>2015-04-05T07:24:31Z</time>
      </trkpt>
      <trkpt lat="45.929" lon="4.60403">
        <ele>368.7</ele>
        <time>2015-04-05T07:24:36Z</time>
      </trkpt>
      <trkpt lat="45.92908" lon="4.60412">
        <ele>369.2</ele>
        <time>2015-04-05T07:24:41Z</time>
      </trkpt>
      <trkpt lat="45.92917" lon="4.60417">
        <ele>371.1</ele>
        <time>2015-04-05T07:24:46Z</time>
      </trkpt>
      <trkpt lat="45.92925" lon="4.60423">
        <ele>371</ele>
        <time>2015-04-05T07:24:51Z</time>
      </trkpt>
      <trkpt lat="45.92932" lon="4.60428">
        <ele>373.3</ele>
        <time>2015-04-05T07:24:56Z</time>
      </trkpt>
      <trkpt lat="45.92938" lon="4.60433">
        <ele>374.5</ele>
        <time>2015-04-05T07:25:01Z</time>
      </trkpt>
      <trkpt lat="45.92945" lon="4.6044">
        <ele>376.1</ele>
        <time>2015-04-05T07:25:06Z</time>
      </trkpt>
      <trkpt lat="45.92953" lon="4.60443">
        <ele>378.1</ele>
        <time>2015-04-05T07:25:11Z</time>
      </trkpt>
      <trkpt lat="45.92958" lon="4.60448">
        <ele>378.4</ele>
        <time>2015-04-05T07:25:16Z</time>
      </trkpt>
      <trkpt lat="45.92965" lon="4.60453">
        <ele>380.2</ele>
        <time>2015-04-05T07:25:21Z</time>
      </trkpt>
      <trkpt lat="45.92972" lon="4.60457">
        <ele>382.4</ele>
        <time>2015-04-05T07:25:26Z</time>
      </trkpt>
      <trkpt lat="45.92977" lon="4.60462">
        <ele>383.3</ele>
        <time>2015-04-05T07:25:31Z</time>
      </trkpt>
      <trkpt lat="45.92983" lon="4.60467">
        <ele>384.2</ele>
        <time>2015-04-05T07:25:36Z</time>
      </trkpt>
      <trkpt lat="45.9299" lon="4.60472">
        <ele>385.9</ele>
        <time>2015-04-05T07:25:41Z</time>
      </trkpt>
      <trkpt lat="45.92997" lon="4.60477">
        <ele>386.3</ele>
        <time>2015-04-05T07:25:46Z</time>
      </trkpt>
      <trkpt lat="45.93003" lon="4.60482">
        <ele>387.2</ele>
        <time>2015-04-05T07:25:51Z</time>
      </trkpt>
      <trkpt lat="45.93008" lon="4.60487">
        <ele>389.4</ele>
        <time>2015-04-05T07:25:56Z</time>
      </trkpt>
      <trkpt lat="45.93013" lon="4.6049">
        <ele>390.8</ele>
        <time>2015-04-05T07:26:01Z</time>
      </trkpt>
      <trkpt lat="45.93018" lon="4.60495">
        <ele>392</ele>
        <time>2015-04-05T07:26:06Z</time>
      </trkpt>
      <trkpt lat="45.93023" lon="4.60498">
        <ele>393.8</ele>
        <time>2015-04-05T07:26:11Z</time>
      </trkpt>
      <trkpt lat="45.93028" lon="4.60502">
        <ele>394.6</ele>
        <time>2015-04-05T07:26:16Z</time>
      </trkpt>
      <trkpt lat="45.93033" lon="4.60505">
        <ele>396.4</ele>
        <time>2015-04-05T07:26:21Z</time>
      </trkpt>
      <trkpt lat="45.93038" lon="4.60512">
        <ele>397.6</ele>
        <time>2015-04-05T07:26:26Z</time>
      </trkpt>
      <trkpt lat="45.93043" lon="4.60513">
        <ele>398.3</ele>
        <time>2015-04-05T07:26:31Z</time>
      </trkpt>
      <trkpt lat="45.93048" lon="4.60517">
        <ele>400.1</ele>
        <time>2015-04-05T07:26:36Z</time>
      </trkpt>
      <trkpt lat="45.93052" lon="4.60522">
        <ele>401.4</ele>
        <time>2015-04-05T07:26:41Z</time>
      </trkpt>
      <trkpt lat="45.93057" lon="4.60525">
        <ele>402.7</ele>
        <time>2015-04-05T07:26:46Z</time>
      </trkpt>
      <trkpt lat="45.9306" lon="4.60528">
        <ele>404.3</ele>
        <time>2015-04-05T07:26:51Z</time>
      </trkpt>
      <trkpt lat="45.93065" lon="4.60533">
        <ele>405.3</ele>
        <time>2015-04-05T07:26:56Z</time>
      </trkpt>
      <trkpt lat="45.93072" lon="4.60538">
        <ele>406.7</ele>
        <time>2015-04-05T07:27:01Z</time>
      </trkpt>
      <trkpt lat="45.93077" lon="4.60543">
        <ele>407.6</ele>
        <time>2015-04-05T07:27:06Z</time>
      </trkpt>
      <trkpt lat="45.93082" lon="4.6055">
        <ele>409.1</ele>
        <time>2015-04-05T07:27:11Z</time>
      </trkpt>
      <trkpt lat="45.93085" lon="4.60557">
        <ele>411.4</ele>
        <time>2015-04-05T07:27:16Z</time>
      </trkpt>
      <trkpt lat="45.9309" lon="4.60563">
        <ele>411.9</ele>
        <time>2015-04-05T07:27:21Z</time>
      </trkpt>
      <trkpt lat="45.93097" lon="4.6057">
        <ele>411.2</ele>
        <time>2015-04-05T07:27:26Z</time>
      </trkpt>
      <trkpt lat="45.93103" lon="4.60565">
        <ele>411.2</ele>
        <time>2015-04-05T07:27:31Z</time>
      </trkpt>
      <trkpt lat="45.93107" lon="4.60553">
        <ele>413</ele>
        <time>2015-04-05T07:27:36Z</time>
      </trkpt>
      <trkpt lat="45.9311" lon="4.60543">
        <ele>413.9</ele>
        <time>2015-04-05T07:27:41Z</time>
      </trkpt>
      <trkpt lat="45.93123" lon="4.60548">
        <ele>414.8</ele>
        <time>2015-04-05T07:27:46Z</time>
      </trkpt>
      <trkpt lat="45.93137" lon="4.6055">
        <ele>412.8</ele>
        <time>2015-04-05T07:27:51Z</time>
      </trkpt>
      <trkpt lat="45.93155" lon="4.60555">
        <ele>412.3</ele>
        <time>2015-04-05T07:27:56Z</time>
      </trkpt>
      <trkpt lat="45.93177" lon="4.6056">
        <ele>405.7</ele>
        <time>2015-04-05T07:28:01Z</time>
      </trkpt>
      <trkpt lat="45.93208" lon="4.60583">
        <ele>405.7</ele>
        <time>2015-04-05T07:28:06Z</time>
      </trkpt>
      <trkpt lat="45.9325" lon="4.60607">
        <ele>394.2</ele>
        <time>2015-04-05T07:28:11Z</time>
      </trkpt>
      <trkpt lat="45.93275" lon="4.60622">
        <ele>389.7</ele>
        <time>2015-04-05T07:28:16Z</time>
      </trkpt>
      <trkpt lat="45.93288" lon="4.606">
        <ele>384.4</ele>
        <time>2015-04-05T07:28:21Z</time>
      </trkpt>
      <trkpt lat="45.93303" lon="4.6058">
        <ele>387.2</ele>
        <time>2015-04-05T07:28:26Z</time>
      </trkpt>
      <trkpt lat="45.93318" lon="4.60568">
        <ele>386.5</ele>
        <time>2015-04-05T07:28:31Z</time>
      </trkpt>
      <trkpt lat="45.93348" lon="4.60573">
        <ele>384.5</ele>
        <time>2015-04-05T07:28:36Z</time>
      </trkpt>
      <trkpt lat="45.9339" lon="4.60588">
        <ele>381.9</ele>
        <time>2015-04-05T07:28:41Z</time>
      </trkpt>
      <trkpt lat="45.93437" lon="4.60602">
        <ele>375</ele>
        <time>2015-04-05T07:28:46Z</time>
      </trkpt>
      <trkpt lat="45.93483" lon="4.60613">
        <ele>372</ele>
        <time>2015-04-05T07:28:51Z</time>
      </trkpt>
      <trkpt lat="45.93527" lon="4.60618">
        <ele>358.4</ele>
        <time>2015-04-05T07:28:56Z</time>
      </trkpt>
      <trkpt lat="45.93573" lon="4.60627">
        <ele>357.2</ele>
        <time>2015-04-05T07:29:01Z</time>
      </trkpt>
      <trkpt lat="45.93585" lon="4.60642">
        <ele>351.1</ele>
        <time>2015-04-05T07:29:06Z</time>
      </trkpt>
      <trkpt lat="45.93567" lon="4.60672">
        <ele>348.6</ele>
        <time>2015-04-05T07:29:11Z</time>
      </trkpt>
      <trkpt lat="45.93542" lon="4.60717">
        <ele>344.9</ele>
        <time>2015-04-05T07:29:16Z</time>
      </trkpt>
      <trkpt lat="45.93527" lon="4.60773">
        <ele>344.7</ele>
        <time>2015-04-05T07:29:21Z</time>
      </trkpt>
      <trkpt lat="45.93512" lon="4.60832">
        <ele>343.3</ele>
        <time>2015-04-05T07:29:26Z</time>
      </trkpt>
      <trkpt lat="45.93503" lon="4.60883">
        <ele>340.2</ele>
        <time>2015-04-05T07:29:31Z</time>
      </trkpt>
      <trkpt lat="45.93498" lon="4.60928">
        <ele>338.8</ele>
        <time>2015-04-05T07:29:36Z</time>
      </trkpt>
      <trkpt lat="45.9349" lon="4.6097">
        <ele>338.8</ele>
        <time>2015-04-05T07:29:41Z</time>
      </trkpt>
      <trkpt lat="45.93473" lon="4.61012">
        <ele>339</ele>
        <time>2015-04-05T07:29:46Z</time>
      </trkpt>
      <trkpt lat="45.93445" lon="4.61043">
        <ele>335.5</ele>
        <time>2015-04-05T07:29:51Z</time>
      </trkpt>
      <trkpt lat="45.93413" lon="4.61065">
        <ele>337.5</ele>
        <time>2015-04-05T07:29:56Z</time>
      </trkpt>
      <trkpt lat="45.9339" lon="4.61073">
        <ele>337.5</ele>
        <time>2015-04-05T07:30:01Z</time>
      </trkpt>
      <trkpt lat="45.93373" lon="4.61073">
        <ele>339.4</ele>
        <time>2015-04-05T07:30:06Z</time>
      </trkpt>
      <trkpt lat="45.93353" lon="4.61082">
        <ele>341</ele>
        <time>2015-04-05T07:30:11Z</time>
      </trkpt>
      <trkpt lat="45.9333" lon="4.61107">
        <ele>338.8</ele>
        <time>2015-04-05T07:30:16Z</time>
      </trkpt>
      <trkpt lat="45.93295" lon="4.6113">
        <ele>338.8</ele>
        <time>2015-04-05T07:30:21Z</time>
      </trkpt>
      <trkpt lat="45.9326" lon="4.6115">
        <ele>334.4</ele>
        <time>2015-04-05T07:30:26Z</time>
      </trkpt>
      <trkpt lat="45.93227" lon="4.61165">
        <ele>333.5</ele>
        <time>2015-04-05T07:30:31Z</time>
      </trkpt>
      <trkpt lat="45.93193" lon="4.61173">
        <ele>338</ele>
        <time>2015-04-05T07:30:36Z</time>
      </trkpt>
      <trkpt lat="45.9316" lon="4.61183">
        <ele>330.9</ele>
        <time>2015-04-05T07:30:41Z</time>
      </trkpt>
      <trkpt lat="45.93127" lon="4.61193">
        <ele>329.7</ele>
        <time>2015-04-05T07:30:46Z</time>
      </trkpt>
      <trkpt lat="45.93093" lon="4.61212">
        <ele>332.8</ele>
        <time>2015-04-05T07:30:51Z</time>
      </trkpt>
      <trkpt lat="45.93063" lon="4.61232">
        <ele>332.4</ele>
        <time>2015-04-05T07:30:56Z</time>
      </trkpt>
      <trkpt lat="45.93038" lon="4.61257">
        <ele>329.7</ele>
        <time>2015-04-05T07:31:01Z</time>
      </trkpt>
      <trkpt lat="45.93015" lon="4.6129">
        <ele>331.7</ele>
        <time>2015-04-05T07:31:06Z</time>
      </trkpt>
      <trkpt lat="45.92993" lon="4.61322">
        <ele>325.1</ele>
        <time>2015-04-05T07:31:11Z</time>
      </trkpt>
      <trkpt lat="45.93003" lon="4.61327">
        <ele>323.2</ele>
        <time>2015-04-05T07:31:16Z</time>
      </trkpt>
      <trkpt lat="45.93033" lon="4.61352">
        <ele>321.2</ele>
        <time>2015-04-05T07:31:21Z</time>
      </trkpt>
      <trkpt lat="45.93068" lon="4.61362">
        <ele>313.4</ele>
        <time>2015-04-05T07:31:26Z</time>
      </trkpt>
      <trkpt lat="45.93112" lon="4.61352">
        <ele>306.9</ele>
        <time>2015-04-05T07:31:31Z</time>
      </trkpt>
      <trkpt lat="45.93153" lon="4.6134">
        <ele>306.1</ele>
        <time>2015-04-05T07:31:36Z</time>
      </trkpt>
      <trkpt lat="45.93192" lon="4.61333">
        <ele>300.8</ele>
        <time>2015-04-05T07:31:41Z</time>
      </trkpt>
      <trkpt lat="45.93225" lon="4.61327">
        <ele>304.8</ele>
        <time>2015-04-05T07:31:46Z</time>
      </trkpt>
      <trkpt lat="45.93253" lon="4.61323">
        <ele>304.5</ele>
        <time>2015-04-05T07:31:51Z</time>
      </trkpt>
      <trkpt lat="45.93278" lon="4.61322">
        <ele>303.6</ele>
        <time>2015-04-05T07:31:56Z</time>
      </trkpt>
      <trkpt lat="45.93302" lon="4.61323">
        <ele>304.4</ele>
        <time>2015-04-05T07:32:01Z</time>
      </trkpt>
      <trkpt lat="45.93322" lon="4.61312">
        <ele>303.1</ele>
        <time>2015-04-05T07:32:06Z</time>
      </trkpt>
      <trkpt lat="45.93342" lon="4.613">
        <ele>304.1</ele>
        <time>2015-04-05T07:32:11Z</time>
      </trkpt>
      <trkpt lat="45.93365" lon="4.61293">
        <ele>303</ele>
        <time>2015-04-05T07:32:16Z</time>
      </trkpt>
      <trkpt lat="45.93392" lon="4.61325">
        <ele>298.3</ele>
        <time>2015-04-05T07:32:21Z</time>
      </trkpt>
      <trkpt lat="45.9343" lon="4.6133">
        <ele>296.3</ele>
        <time>2015-04-05T07:32:26Z</time>
      </trkpt>
      <trkpt lat="45.93453" lon="4.61327">
        <ele>291.1</ele>
        <time>2015-04-05T07:32:31Z</time>
      </trkpt>
      <trkpt lat="45.93477" lon="4.61318">
        <ele>289.6</ele>
        <time>2015-04-05T07:32:36Z</time>
      </trkpt>
      <trkpt lat="45.93507" lon="4.6132">
        <ele>285.6</ele>
        <time>2015-04-05T07:32:41Z</time>
      </trkpt>
      <trkpt lat="45.93553" lon="4.61338">
        <ele>280.1</ele>
        <time>2015-04-05T07:32:46Z</time>
      </trkpt>
      <trkpt lat="45.93583" lon="4.61362">
        <ele>272.5</ele>
        <time>2015-04-05T07:32:51Z</time>
      </trkpt>
      <trkpt lat="45.93588" lon="4.61375">
        <ele>274.4</ele>
        <time>2015-04-05T07:32:56Z</time>
      </trkpt>
      <trkpt lat="45.93587" lon="4.61395">
        <ele>274</ele>
        <time>2015-04-05T07:33:01Z</time>
      </trkpt>
      <trkpt lat="45.93583" lon="4.61413">
        <ele>275.8</ele>
        <time>2015-04-05T07:33:06Z</time>
      </trkpt>
      <trkpt lat="45.93578" lon="4.61428">
        <ele>278.1</ele>
        <time>2015-04-05T07:33:11Z</time>
      </trkpt>
      <trkpt lat="45.93575" lon="4.61442">
        <ele>277.1</ele>
        <time>2015-04-05T07:33:16Z</time>
      </trkpt>
      <trkpt lat="45.93572" lon="4.61452">
        <ele>280.8</ele>
        <time>2015-04-05T07:33:21Z</time>
      </trkpt>
      <trkpt lat="45.93568" lon="4.61462">
        <ele>283.5</ele>
        <time>2015-04-05T07:33:26Z</time>
      </trkpt>
      <trkpt lat="45.93565" lon="4.61472">
        <ele>284.5</ele>
        <time>2015-04-05T07:33:31Z</time>
      </trkpt>
      <trkpt lat="45.93563" lon="4.61482">
        <ele>285.3</ele>
        <time>2015-04-05T07:33:36Z</time>
      </trkpt>
      <trkpt lat="45.93562" lon="4.61492">
        <ele>287.3</ele>
        <time>2015-04-05T07:33:41Z</time>
      </trkpt>
      <trkpt lat="45.9356" lon="4.61502">
        <ele>287.8</ele>
        <time>2015-04-05T07:33:46Z</time>
      </trkpt>
      <trkpt lat="45.9356" lon="4.61513">
        <ele>287.9</ele>
        <time>2015-04-05T07:33:51Z</time>
      </trkpt>
      <trkpt lat="45.93558" lon="4.61523">
        <ele>289.2</ele>
        <time>2015-04-05T07:33:56Z</time>
      </trkpt>
      <trkpt lat="45.93557" lon="4.61533">
        <ele>290.1</ele>
        <time>2015-04-05T07:34:01Z</time>
      </trkpt>
      <trkpt lat="45.93557" lon="4.61543">
        <ele>291.8</ele>
        <time>2015-04-05T07:34:06Z</time>
      </trkpt>
      <trkpt lat="45.93555" lon="4.61553">
        <ele>292.9</ele>
        <time>2015-04-05T07:34:11Z</time>
      </trkpt>
      <trkpt lat="45.93553" lon="4.61565">
        <ele>294.4</ele>
        <time>2015-04-05T07:34:16Z</time>
      </trkpt>
      <trkpt lat="45.93553" lon="4.61573">
        <ele>295.7</ele>
        <time>2015-04-05T07:34:21Z</time>
      </trkpt>
      <trkpt lat="45.93553" lon="4.61583">
        <ele>297.2</ele>
        <time>2015-04-05T07:34:26Z</time>
      </trkpt>
      <trkpt lat="45.93555" lon="4.61593">
        <ele>299.5</ele>
        <time>2015-04-05T07:34:31Z</time>
      </trkpt>
      <trkpt lat="45.93558" lon="4.61602">
        <ele>300.3</ele>
        <time>2015-04-05T07:34:36Z</time>
      </trkpt>
      <trkpt lat="45.93563" lon="4.6161">
        <ele>300.5</ele>
        <time>2015-04-05T07:34:41Z</time>
      </trkpt>
      <trkpt lat="45.93567" lon="4.61618">
        <ele>301.7</ele>
        <time>2015-04-05T07:34:46Z</time>
      </trkpt>
      <trkpt lat="45.93572" lon="4.61625">
        <ele>303.7</ele>
        <time>2015-04-05T07:34:51Z</time>
      </trkpt>
      <trkpt lat="45.9358" lon="4.61628">
        <ele>304.8</ele>
        <time>2015-04-05T07:34:56Z</time>
      </trkpt>
      <trkpt lat="45.93588" lon="4.61628">
        <ele>306.1</ele>
        <time>2015-04-05T07:35:01Z</time>
      </trkpt>
      <trkpt lat="45.93597" lon="4.61628">
        <ele>308.2</ele>
        <time>2015-04-05T07:35:06Z</time>
      </trkpt>
      <trkpt lat="45.93605" lon="4.6163">
        <ele>308.7</ele>
        <time>2015-04-05T07:35:11Z</time>
      </trkpt>
      <trkpt lat="45.93613" lon="4.61632">
        <ele>310.1</ele>
        <time>2015-04-05T07:35:16Z</time>
      </trkpt>
      <trkpt lat="45.93622" lon="4.61633">
        <ele>311.1</ele>
        <time>2015-04-05T07:35:21Z</time>
      </trkpt>
      <trkpt lat="45.9363" lon="4.61637">
        <ele>312.4</ele>
        <time>2015-04-05T07:35:26Z</time>
      </trkpt>
      <trkpt lat="45.93638" lon="4.6164">
        <ele>313.3</ele>
        <time>2015-04-05T07:35:31Z</time>
      </trkpt>
      <trkpt lat="45.93645" lon="4.61645">
        <ele>314.4</ele>
        <time>2015-04-05T07:35:36Z</time>
      </trkpt>
      <trkpt lat="45.93653" lon="4.61648">
        <ele>315.5</ele>
        <time>2015-04-05T07:35:41Z</time>
      </trkpt>
      <trkpt lat="45.93663" lon="4.61645">
        <ele>316.4</ele>
        <time>2015-04-05T07:35:46Z</time>
      </trkpt>
      <trkpt lat="45.93673" lon="4.61643">
        <ele>316.6</ele>
        <time>2015-04-05T07:35:51Z</time>
      </trkpt>
      <trkpt lat="45.93683" lon="4.6164">
        <ele>317.3</ele>
        <time>2015-04-05T07:35:56Z</time>
      </trkpt>
      <trkpt lat="45.93693" lon="4.61638">
        <ele>319.2</ele>
        <time>2015-04-05T07:36:01Z</time>
      </trkpt>
      <trkpt lat="45.93703" lon="4.61637">
        <ele>320.2</ele>
        <time>2015-04-05T07:36:06Z</time>
      </trkpt>
      <trkpt lat="45.93713" lon="4.61638">
        <ele>322.3</ele>
        <time>2015-04-05T07:36:11Z</time>
      </trkpt>
      <trkpt lat="45.93723" lon="4.61638">
        <ele>322.7</ele>
        <time>2015-04-05T07:36:16Z</time>
      </trkpt>
      <trkpt lat="45.93733" lon="4.6164">
        <ele>323.7</ele>
        <time>2015-04-05T07:36:21Z</time>
      </trkpt>
      <trkpt lat="45.93742" lon="4.61642">
        <ele>325.4</ele>
        <time>2015-04-05T07:36:26Z</time>
      </trkpt>
      <trkpt lat="45.93752" lon="4.61642">
        <ele>326.8</ele>
        <time>2015-04-05T07:36:31Z</time>
      </trkpt>
      <trkpt lat="45.9376" lon="4.6164">
        <ele>327.7</ele>
        <time>2015-04-05T07:36:36Z</time>
      </trkpt>
      <trkpt lat="45.9377" lon="4.61638">
        <ele>329</ele>
        <time>2015-04-05T07:36:41Z</time>
      </trkpt>
      <trkpt lat="45.93778" lon="4.61638">
        <ele>330.2</ele>
        <time>2015-04-05T07:36:46Z</time>
      </trkpt>
      <trkpt lat="45.93787" lon="4.61635">
        <ele>331</ele>
        <time>2015-04-05T07:36:51Z</time>
      </trkpt>
      <trkpt lat="45.93797" lon="4.61635">
        <ele>333.6</ele>
        <time>2015-04-05T07:36:56Z</time>
      </trkpt>
      <trkpt lat="45.93805" lon="4.61632">
        <ele>334.1</ele>
        <time>2015-04-05T07:37:01Z</time>
      </trkpt>
      <trkpt lat="45.93813" lon="4.6163">
        <ele>335.3</ele>
        <time>2015-04-05T07:37:06Z</time>
      </trkpt>
      <trkpt lat="45.93822" lon="4.61627">
        <ele>336.7</ele>
        <time>2015-04-05T07:37:11Z</time>
      </trkpt>
      <trkpt lat="45.9383" lon="4.61623">
        <ele>337.6</ele>
        <time>2015-04-05T07:37:16Z</time>
      </trkpt>
      <trkpt lat="45.9384" lon="4.61623">
        <ele>338.6</ele>
        <time>2015-04-05T07:37:21Z</time>
      </trkpt>
      <trkpt lat="45.93847" lon="4.61625">
        <ele>340.5</ele>
        <time>2015-04-05T07:37:26Z</time>
      </trkpt>
      <trkpt lat="45.93855" lon="4.61633">
        <ele>340.7</ele>
        <time>2015-04-05T07:37:31Z</time>
      </trkpt>
      <trkpt lat="45.93863" lon="4.6163">
        <ele>342.4</ele>
        <time>2015-04-05T07:37:36Z</time>
      </trkpt>
      <trkpt lat="45.93872" lon="4.61623">
        <ele>344.1</ele>
        <time>2015-04-05T07:37:41Z</time>
      </trkpt>
      <trkpt lat="45.9388" lon="4.61615">
        <ele>345.2</ele>
        <time>2015-04-05T07:37:46Z</time>
      </trkpt>
      <trkpt lat="45.93888" lon="4.61607">
        <ele>346.4</ele>
        <time>2015-04-05T07:37:51Z</time>
      </trkpt>
      <trkpt lat="45.93897" lon="4.616">
        <ele>347.6</ele>
        <time>2015-04-05T07:37:56Z</time>
      </trkpt>
      <trkpt lat="45.93905" lon="4.61595">
        <ele>349.1</ele>
        <time>2015-04-05T07:38:01Z</time>
      </trkpt>
      <trkpt lat="45.9391" lon="4.61585">
        <ele>350.1</ele>
        <time>2015-04-05T07:38:06Z</time>
      </trkpt>
      <trkpt lat="45.93913" lon="4.61582">
        <ele>350.1</ele>
        <time>2015-04-05T07:38:11Z</time>
      </trkpt>
      <trkpt lat="45.93915" lon="4.61582">
        <ele>349.8</ele>
        <time>2015-04-05T07:38:16Z</time>
      </trkpt>
      <trkpt lat="45.93913" lon="4.61582">
        <ele>349.5</ele>
        <time>2015-04-05T07:44:06Z</time>
      </trkpt>
      <trkpt lat="45.93908" lon="4.6159">
        <ele>349.3</ele>
        <time>2015-04-05T07:44:11Z</time>
      </trkpt>
      <trkpt lat="45.93917" lon="4.616">
        <ele>349.2</ele>
        <time>2015-04-05T07:44:16Z</time>
      </trkpt>
      <trkpt lat="45.93925" lon="4.61595">
        <ele>350.5</ele>
        <time>2015-04-05T07:44:21Z</time>
      </trkpt>
      <trkpt lat="45.93932" lon="4.61595">
        <ele>351.5</ele>
        <time>2015-04-05T07:44:26Z</time>
      </trkpt>
      <trkpt lat="45.93938" lon="4.61603">
        <ele>351.4</ele>
        <time>2015-04-05T07:44:31Z</time>
      </trkpt>
      <trkpt lat="45.93945" lon="4.61612">
        <ele>352.7</ele>
        <time>2015-04-05T07:44:36Z</time>
      </trkpt>
      <trkpt lat="45.93953" lon="4.61618">
        <ele>355.5</ele>
        <time>2015-04-05T07:44:41Z</time>
      </trkpt>
      <trkpt lat="45.9396" lon="4.61627">
        <ele>357</ele>
        <time>2015-04-05T07:44:46Z</time>
      </trkpt>
      <trkpt lat="45.93967" lon="4.61632">
        <ele>356.4</ele>
        <time>2015-04-05T07:44:51Z</time>
      </trkpt>
      <trkpt lat="45.9397" lon="4.61625">
        <ele>358.1</ele>
        <time>2015-04-05T07:44:56Z</time>
      </trkpt>
      <trkpt lat="45.93975" lon="4.6161">
        <ele>357.9</ele>
        <time>2015-04-05T07:45:01Z</time>
      </trkpt>
      <trkpt lat="45.93982" lon="4.61597">
        <ele>358.3</ele>
        <time>2015-04-05T07:45:06Z</time>
      </trkpt>
      <trkpt lat="45.93988" lon="4.61583">
        <ele>357.6</ele>
        <time>2015-04-05T07:45:11Z</time>
      </trkpt>
      <trkpt lat="45.93992" lon="4.61575">
        <ele>357.9</ele>
        <time>2015-04-05T07:45:16Z</time>
      </trkpt>
      <trkpt lat="45.9399" lon="4.6157">
        <ele>357.3</ele>
        <time>2015-04-05T07:45:21Z</time>
      </trkpt>
      <trkpt lat="45.93987" lon="4.61582">
        <ele>357.4</ele>
        <time>2015-04-05T07:45:26Z</time>
      </trkpt>
      <trkpt lat="45.93978" lon="4.61605">
        <ele>358.9</ele>
        <time>2015-04-05T07:45:31Z</time>
      </trkpt>
      <trkpt lat="45.93968" lon="4.61623">
        <ele>358</ele>
        <time>2015-04-05T07:45:36Z</time>
      </trkpt>
      <trkpt lat="45.9397" lon="4.61643">
        <ele>356.8</ele>
        <time>2015-04-05T07:45:41Z</time>
      </trkpt>
      <trkpt lat="45.93983" lon="4.6166">
        <ele>360</ele>
        <time>2015-04-05T07:45:46Z</time>
      </trkpt>
      <trkpt lat="45.93993" lon="4.61673">
        <ele>361.6</ele>
        <time>2015-04-05T07:45:51Z</time>
      </trkpt>
      <trkpt lat="45.93998" lon="4.6168">
        <ele>363</ele>
        <time>2015-04-05T07:45:56Z</time>
      </trkpt>
      <trkpt lat="45.94005" lon="4.61683">
        <ele>364.8</ele>
        <time>2015-04-05T07:46:01Z</time>
      </trkpt>
      <trkpt lat="45.94012" lon="4.61687">
        <ele>366.7</ele>
        <time>2015-04-05T07:46:06Z</time>
      </trkpt>
      <trkpt lat="45.9402" lon="4.61682">
        <ele>368.4</ele>
        <time>2015-04-05T07:46:11Z</time>
      </trkpt>
      <trkpt lat="45.94027" lon="4.6167">
        <ele>369.5</ele>
        <time>2015-04-05T07:46:16Z</time>
      </trkpt>
      <trkpt lat="45.94037" lon="4.61662">
        <ele>369.7</ele>
        <time>2015-04-05T07:46:21Z</time>
      </trkpt>
      <trkpt lat="45.94045" lon="4.61658">
        <ele>370.3</ele>
        <time>2015-04-05T07:46:26Z</time>
      </trkpt>
      <trkpt lat="45.94055" lon="4.61657">
        <ele>372</ele>
        <time>2015-04-05T07:46:31Z</time>
      </trkpt>
      <trkpt lat="45.94067" lon="4.61655">
        <ele>372.5</ele>
        <time>2015-04-05T07:46:36Z</time>
      </trkpt>
      <trkpt lat="45.94075" lon="4.61648">
        <ele>374.5</ele>
        <time>2015-04-05T07:46:41Z</time>
      </trkpt>
      <trkpt lat="45.94085" lon="4.61642">
        <ele>375.2</ele>
        <time>2015-04-05T07:46:46Z</time>
      </trkpt>
      <trkpt lat="45.94092" lon="4.61637">
        <ele>376.2</ele>
        <time>2015-04-05T07:46:51Z</time>
      </trkpt>
      <trkpt lat="45.94102" lon="4.61635">
        <ele>376.7</ele>
        <time>2015-04-05T07:46:56Z</time>
      </trkpt>
      <trkpt lat="45.94108" lon="4.61632">
        <ele>379</ele>
        <time>2015-04-05T07:47:01Z</time>
      </trkpt>
      <trkpt lat="45.94115" lon="4.6163">
        <ele>379.9</ele>
        <time>2015-04-05T07:47:06Z</time>
      </trkpt>
      <trkpt lat="45.94118" lon="4.61627">
        <ele>381.2</ele>
        <time>2015-04-05T07:47:11Z</time>
      </trkpt>
      <trkpt lat="45.94125" lon="4.61627">
        <ele>382.1</ele>
        <time>2015-04-05T07:47:16Z</time>
      </trkpt>
      <trkpt lat="45.9413" lon="4.61625">
        <ele>383.7</ele>
        <time>2015-04-05T07:47:21Z</time>
      </trkpt>
      <trkpt lat="45.94133" lon="4.61625">
        <ele>384.8</ele>
        <time>2015-04-05T07:47:26Z</time>
      </trkpt>
      <trkpt lat="45.94138" lon="4.61625">
        <ele>386.3</ele>
        <time>2015-04-05T07:47:31Z</time>
      </trkpt>
      <trkpt lat="45.94142" lon="4.61627">
        <ele>387.3</ele>
        <time>2015-04-05T07:47:36Z</time>
      </trkpt>
      <trkpt lat="45.94147" lon="4.61627">
        <ele>389.9</ele>
        <time>2015-04-05T07:47:41Z</time>
      </trkpt>
      <trkpt lat="45.9415" lon="4.61628">
        <ele>390.8</ele>
        <time>2015-04-05T07:47:46Z</time>
      </trkpt>
      <trkpt lat="45.94155" lon="4.61627">
        <ele>392.6</ele>
        <time>2015-04-05T07:47:51Z</time>
      </trkpt>
      <trkpt lat="45.94158" lon="4.61623">
        <ele>392.2</ele>
        <time>2015-04-05T07:47:56Z</time>
      </trkpt>
      <trkpt lat="45.94162" lon="4.6162">
        <ele>394</ele>
        <time>2015-04-05T07:48:01Z</time>
      </trkpt>
      <trkpt lat="45.94165" lon="4.61618">
        <ele>394.8</ele>
        <time>2015-04-05T07:48:06Z</time>
      </trkpt>
      <trkpt lat="45.9417" lon="4.61618">
        <ele>396.1</ele>
        <time>2015-04-05T07:48:11Z</time>
      </trkpt>
      <trkpt lat="45.94177" lon="4.61617">
        <ele>396.1</ele>
        <time>2015-04-05T07:48:16Z</time>
      </trkpt>
      <trkpt lat="45.9418" lon="4.61612">
        <ele>399.1</ele>
        <time>2015-04-05T07:48:21Z</time>
      </trkpt>
      <trkpt lat="45.94185" lon="4.61608">
        <ele>398.1</ele>
        <time>2015-04-05T07:48:26Z</time>
      </trkpt>
      <trkpt lat="45.94188" lon="4.61603">
        <ele>399.2</ele>
        <time>2015-04-05T07:48:31Z</time>
      </trkpt>
      <trkpt lat="45.94192" lon="4.61602">
        <ele>402.3</ele>
        <time>2015-04-05T07:48:36Z</time>
      </trkpt>
      <trkpt lat="45.94195" lon="4.61598">
        <ele>402.6</ele>
        <time>2015-04-05T07:48:41Z</time>
      </trkpt>
      <trkpt lat="45.94198" lon="4.61593">
        <ele>403.2</ele>
        <time>2015-04-05T07:48:46Z</time>
      </trkpt>
      <trkpt lat="45.942" lon="4.61588">
        <ele>404.4</ele>
        <time>2015-04-05T07:48:51Z</time>
      </trkpt>
      <trkpt lat="45.942" lon="4.61583">
        <ele>405.2</ele>
        <time>2015-04-05T07:48:56Z</time>
      </trkpt>
      <trkpt lat="45.94202" lon="4.61577">
        <ele>407.6</ele>
        <time>2015-04-05T07:49:01Z</time>
      </trkpt>
      <trkpt lat="45.94203" lon="4.61572">
        <ele>407.2</ele>
        <time>2015-04-05T07:49:06Z</time>
      </trkpt>
      <trkpt lat="45.94203" lon="4.61565">
        <ele>409.5</ele>
        <time>2015-04-05T07:49:11Z</time>
      </trkpt>
      <trkpt lat="45.94205" lon="4.61562">
        <ele>409.8</ele>
        <time>2015-04-05T07:49:16Z</time>
      </trkpt>
      <trkpt lat="45.94205" lon="4.61555">
        <ele>411.2</ele>
        <time>2015-04-05T07:49:21Z</time>
      </trkpt>
      <trkpt lat="45.94205" lon="4.6155">
        <ele>412.3</ele>
        <time>2015-04-05T07:49:26Z</time>
      </trkpt>
      <trkpt lat="45.94207" lon="4.61543">
        <ele>412.7</ele>
        <time>2015-04-05T07:49:31Z</time>
      </trkpt>
      <trkpt lat="45.94208" lon="4.61538">
        <ele>414.7</ele>
        <time>2015-04-05T07:49:36Z</time>
      </trkpt>
      <trkpt lat="45.94208" lon="4.61535">
        <ele>416.5</ele>
        <time>2015-04-05T07:49:41Z</time>
      </trkpt>
      <trkpt lat="45.94208" lon="4.6153">
        <ele>416.6</ele>
        <time>2015-04-05T07:49:46Z</time>
      </trkpt>
      <trkpt lat="45.9421" lon="4.61523">
        <ele>418.4</ele>
        <time>2015-04-05T07:49:51Z</time>
      </trkpt>
      <trkpt lat="45.9421" lon="4.61517">
        <ele>419.4</ele>
        <time>2015-04-05T07:49:56Z</time>
      </trkpt>
      <trkpt lat="45.94212" lon="4.61508">
        <ele>419.7</ele>
        <time>2015-04-05T07:50:01Z</time>
      </trkpt>
      <trkpt lat="45.94215" lon="4.61502">
        <ele>420</ele>
        <time>2015-04-05T07:50:06Z</time>
      </trkpt>
      <trkpt lat="45.94217" lon="4.61497">
        <ele>421.5</ele>
        <time>2015-04-05T07:50:11Z</time>
      </trkpt>
      <trkpt lat="45.9422" lon="4.61492">
        <ele>423.3</ele>
        <time>2015-04-05T07:50:16Z</time>
      </trkpt>
      <trkpt lat="45.94223" lon="4.61493">
        <ele>424.6</ele>
        <time>2015-04-05T07:50:21Z</time>
      </trkpt>
      <trkpt lat="45.94227" lon="4.61495">
        <ele>423.9</ele>
        <time>2015-04-05T07:50:26Z</time>
      </trkpt>
      <trkpt lat="45.94232" lon="4.61497">
        <ele>425.1</ele>
        <time>2015-04-05T07:50:31Z</time>
      </trkpt>
      <trkpt lat="45.94238" lon="4.61497">
        <ele>426.3</ele>
        <time>2015-04-05T07:50:36Z</time>
      </trkpt>
      <trkpt lat="45.94243" lon="4.61495">
        <ele>427.7</ele>
        <time>2015-04-05T07:50:41Z</time>
      </trkpt>
      <trkpt lat="45.94247" lon="4.6149">
        <ele>427.5</ele>
        <time>2015-04-05T07:50:46Z</time>
      </trkpt>
      <trkpt lat="45.94248" lon="4.61483">
        <ele>428.9</ele>
        <time>2015-04-05T07:50:51Z</time>
      </trkpt>
      <trkpt lat="45.9425" lon="4.61478">
        <ele>429.8</ele>
        <time>2015-04-05T07:50:56Z</time>
      </trkpt>
      <trkpt lat="45.94252" lon="4.61473">
        <ele>431</ele>
        <time>2015-04-05T07:51:01Z</time>
      </trkpt>
      <trkpt lat="45.94255" lon="4.61468">
        <ele>431.5</ele>
        <time>2015-04-05T07:51:06Z</time>
      </trkpt>
      <trkpt lat="45.94257" lon="4.61462">
        <ele>432.9</ele>
        <time>2015-04-05T07:51:11Z</time>
      </trkpt>
      <trkpt lat="45.9426" lon="4.61458">
        <ele>433</ele>
        <time>2015-04-05T07:51:16Z</time>
      </trkpt>
      <trkpt lat="45.94262" lon="4.61452">
        <ele>433.5</ele>
        <time>2015-04-05T07:51:21Z</time>
      </trkpt>
      <trkpt lat="45.94263" lon="4.61447">
        <ele>435.3</ele>
        <time>2015-04-05T07:51:26Z</time>
      </trkpt>
      <trkpt lat="45.94265" lon="4.61443">
        <ele>436.7</ele>
        <time>2015-04-05T07:51:31Z</time>
      </trkpt>
      <trkpt lat="45.94265" lon="4.6144">
        <ele>436.3</ele>
        <time>2015-04-05T07:51:36Z</time>
      </trkpt>
      <trkpt lat="45.94268" lon="4.61437">
        <ele>437.8</ele>
        <time>2015-04-05T07:51:41Z</time>
      </trkpt>
      <trkpt lat="45.9427" lon="4.61432">
        <ele>438.8</ele>
        <time>2015-04-05T07:51:46Z</time>
      </trkpt>
      <trkpt lat="45.94273" lon="4.61427">
        <ele>439.7</ele>
        <time>2015-04-05T07:51:51Z</time>
      </trkpt>
      <trkpt lat="45.94277" lon="4.61423">
        <ele>439.6</ele>
        <time>2015-04-05T07:51:56Z</time>
      </trkpt>
      <trkpt lat="45.94278" lon="4.6142">
        <ele>442.1</ele>
        <time>2015-04-05T07:52:01Z</time>
      </trkpt>
      <trkpt lat="45.94282" lon="4.61413">
        <ele>441.8</ele>
        <time>2015-04-05T07:52:06Z</time>
      </trkpt>
      <trkpt lat="45.94285" lon="4.6141">
        <ele>442.9</ele>
        <time>2015-04-05T07:52:11Z</time>
      </trkpt>
      <trkpt lat="45.9429" lon="4.61407">
        <ele>443.5</ele>
        <time>2015-04-05T07:52:16Z</time>
      </trkpt>
      <trkpt lat="45.94292" lon="4.61402">
        <ele>444</ele>
        <time>2015-04-05T07:52:21Z</time>
      </trkpt>
      <trkpt lat="45.94297" lon="4.61397">
        <ele>445.4</ele>
        <time>2015-04-05T07:52:26Z</time>
      </trkpt>
      <trkpt lat="45.943" lon="4.6139">
        <ele>446.6</ele>
        <time>2015-04-05T07:52:31Z</time>
      </trkpt>
      <trkpt lat="45.94302" lon="4.61387">
        <ele>446.3</ele>
        <time>2015-04-05T07:52:36Z</time>
      </trkpt>
      <trkpt lat="45.94305" lon="4.61382">
        <ele>447.7</ele>
        <time>2015-04-05T07:52:41Z</time>
      </trkpt>
      <trkpt lat="45.94307" lon="4.61382">
        <ele>448.7</ele>
        <time>2015-04-05T07:52:46Z</time>
      </trkpt>
      <trkpt lat="45.9431" lon="4.61377">
        <ele>448.7</ele>
        <time>2015-04-05T07:52:56Z</time>
      </trkpt>
      <trkpt lat="45.94315" lon="4.61367">
        <ele>449.5</ele>
        <time>2015-04-05T07:53:01Z</time>
      </trkpt>
      <trkpt lat="45.9432" lon="4.61358">
        <ele>449.3</ele>
        <time>2015-04-05T07:53:06Z</time>
      </trkpt>
      <trkpt lat="45.94325" lon="4.61352">
        <ele>450.7</ele>
        <time>2015-04-05T07:53:11Z</time>
      </trkpt>
      <trkpt lat="45.94332" lon="4.61343">
        <ele>454</ele>
        <time>2015-04-05T07:53:16Z</time>
      </trkpt>
      <trkpt lat="45.94337" lon="4.61337">
        <ele>455</ele>
        <time>2015-04-05T07:53:21Z</time>
      </trkpt>
      <trkpt lat="45.94342" lon="4.6133">
        <ele>457.2</ele>
        <time>2015-04-05T07:53:26Z</time>
      </trkpt>
      <trkpt lat="45.94348" lon="4.61323">
        <ele>457.2</ele>
        <time>2015-04-05T07:53:31Z</time>
      </trkpt>
      <trkpt lat="45.94353" lon="4.61315">
        <ele>457.6</ele>
        <time>2015-04-05T07:53:36Z</time>
      </trkpt>
      <trkpt lat="45.94358" lon="4.61308">
        <ele>459.5</ele>
        <time>2015-04-05T07:53:41Z</time>
      </trkpt>
      <trkpt lat="45.94365" lon="4.61302">
        <ele>460.6</ele>
        <time>2015-04-05T07:53:46Z</time>
      </trkpt>
      <trkpt lat="45.94372" lon="4.61298">
        <ele>459.6</ele>
        <time>2015-04-05T07:53:51Z</time>
      </trkpt>
      <trkpt lat="45.94377" lon="4.61292">
        <ele>462.6</ele>
        <time>2015-04-05T07:53:56Z</time>
      </trkpt>
      <trkpt lat="45.94383" lon="4.61285">
        <ele>461.5</ele>
        <time>2015-04-05T07:54:01Z</time>
      </trkpt>
      <trkpt lat="45.94388" lon="4.61277">
        <ele>463.6</ele>
        <time>2015-04-05T07:54:06Z</time>
      </trkpt>
      <trkpt lat="45.94392" lon="4.61268">
        <ele>464.7</ele>
        <time>2015-04-05T07:54:11Z</time>
      </trkpt>
      <trkpt lat="45.94398" lon="4.61262">
        <ele>464.6</ele>
        <time>2015-04-05T07:54:16Z</time>
      </trkpt>
      <trkpt lat="45.94403" lon="4.61255">
        <ele>466.8</ele>
        <time>2015-04-05T07:54:21Z</time>
      </trkpt>
      <trkpt lat="45.94408" lon="4.6125">
        <ele>466.5</ele>
        <time>2015-04-05T07:54:26Z</time>
      </trkpt>
      <trkpt lat="45.94413" lon="4.61242">
        <ele>468.1</ele>
        <time>2015-04-05T07:54:31Z</time>
      </trkpt>
      <trkpt lat="45.94418" lon="4.61237">
        <ele>469.9</ele>
        <time>2015-04-05T07:54:36Z</time>
      </trkpt>
      <trkpt lat="45.94425" lon="4.61233">
        <ele>469.9</ele>
        <time>2015-04-05T07:54:41Z</time>
      </trkpt>
      <trkpt lat="45.9443" lon="4.61227">
        <ele>471.2</ele>
        <time>2015-04-05T07:54:46Z</time>
      </trkpt>
      <trkpt lat="45.94435" lon="4.61218">
        <ele>473</ele>
        <time>2015-04-05T07:54:51Z</time>
      </trkpt>
      <trkpt lat="45.94442" lon="4.61212">
        <ele>473.8</ele>
        <time>2015-04-05T07:54:56Z</time>
      </trkpt>
      <trkpt lat="45.94448" lon="4.61205">
        <ele>474.3</ele>
        <time>2015-04-05T07:55:01Z</time>
      </trkpt>
      <trkpt lat="45.94453" lon="4.61195">
        <ele>474.8</ele>
        <time>2015-04-05T07:55:06Z</time>
      </trkpt>
      <trkpt lat="45.94458" lon="4.61185">
        <ele>476.1</ele>
        <time>2015-04-05T07:55:11Z</time>
      </trkpt>
      <trkpt lat="45.94463" lon="4.61173">
        <ele>475.7</ele>
        <time>2015-04-05T07:55:16Z</time>
      </trkpt>
      <trkpt lat="45.9447" lon="4.61165">
        <ele>477.1</ele>
        <time>2015-04-05T07:55:21Z</time>
      </trkpt>
      <trkpt lat="45.94478" lon="4.61158">
        <ele>479</ele>
        <time>2015-04-05T07:55:26Z</time>
      </trkpt>
      <trkpt lat="45.94487" lon="4.61152">
        <ele>480</ele>
        <time>2015-04-05T07:55:31Z</time>
      </trkpt>
      <trkpt lat="45.94493" lon="4.61142">
        <ele>481.1</ele>
        <time>2015-04-05T07:55:36Z</time>
      </trkpt>
      <trkpt lat="45.94502" lon="4.61128">
        <ele>482</ele>
        <time>2015-04-05T07:55:41Z</time>
      </trkpt>
      <trkpt lat="45.94508" lon="4.61118">
        <ele>482.7</ele>
        <time>2015-04-05T07:55:46Z</time>
      </trkpt>
      <trkpt lat="45.94515" lon="4.61108">
        <ele>482.8</ele>
        <time>2015-04-05T07:55:51Z</time>
      </trkpt>
      <trkpt lat="45.94522" lon="4.611">
        <ele>483.8</ele>
        <time>2015-04-05T07:55:56Z</time>
      </trkpt>
      <trkpt lat="45.94528" lon="4.61092">
        <ele>483.8</ele>
        <time>2015-04-05T07:56:01Z</time>
      </trkpt>
      <trkpt lat="45.94537" lon="4.61082">
        <ele>484.7</ele>
        <time>2015-04-05T07:56:06Z</time>
      </trkpt>
      <trkpt lat="45.94547" lon="4.61078">
        <ele>483.8</ele>
        <time>2015-04-05T07:56:11Z</time>
      </trkpt>
      <trkpt lat="45.94557" lon="4.61083">
        <ele>485.5</ele>
        <time>2015-04-05T07:56:16Z</time>
      </trkpt>
      <trkpt lat="45.94567" lon="4.611">
        <ele>484.9</ele>
        <time>2015-04-05T07:56:21Z</time>
      </trkpt>
      <trkpt lat="45.94578" lon="4.61132">
        <ele>479.4</ele>
        <time>2015-04-05T07:56:26Z</time>
      </trkpt>
      <trkpt lat="45.94592" lon="4.61167">
        <ele>478.4</ele>
        <time>2015-04-05T07:56:31Z</time>
      </trkpt>
      <trkpt lat="45.94608" lon="4.61203">
        <ele>470.4</ele>
        <time>2015-04-05T07:56:36Z</time>
      </trkpt>
      <trkpt lat="45.9463" lon="4.61188">
        <ele>468.3</ele>
        <time>2015-04-05T07:56:41Z</time>
      </trkpt>
      <trkpt lat="45.94643" lon="4.61178">
        <ele>467.5</ele>
        <time>2015-04-05T07:56:46Z</time>
      </trkpt>
      <trkpt lat="45.94657" lon="4.612">
        <ele>460.5</ele>
        <time>2015-04-05T07:56:51Z</time>
      </trkpt>
      <trkpt lat="45.9468" lon="4.61217">
        <ele>457.5</ele>
        <time>2015-04-05T07:56:56Z</time>
      </trkpt>
      <trkpt lat="45.94705" lon="4.6125">
        <ele>448.2</ele>
        <time>2015-04-05T07:57:01Z</time>
      </trkpt>
      <trkpt lat="45.9472" lon="4.61262">
        <ele>446.2</ele>
        <time>2015-04-05T07:57:06Z</time>
      </trkpt>
      <trkpt lat="45.94733" lon="4.61257">
        <ele>442</ele>
        <time>2015-04-05T07:57:11Z</time>
      </trkpt>
      <trkpt lat="45.94743" lon="4.61248">
        <ele>443.4</ele>
        <time>2015-04-05T07:57:16Z</time>
      </trkpt>
      <trkpt lat="45.94752" lon="4.61238">
        <ele>444.2</ele>
        <time>2015-04-05T07:57:21Z</time>
      </trkpt>
      <trkpt lat="45.94753" lon="4.61233">
        <ele>444.9</ele>
        <time>2015-04-05T07:57:26Z</time>
      </trkpt>
      <trkpt lat="45.94757" lon="4.61232">
        <ele>445.1</ele>
        <time>2015-04-05T07:58:46Z</time>
      </trkpt>
      <trkpt lat="45.94762" lon="4.61218">
        <ele>445.8</ele>
        <time>2015-04-05T07:58:51Z</time>
      </trkpt>
      <trkpt lat="45.94767" lon="4.61207">
        <ele>446.6</ele>
        <time>2015-04-05T07:58:56Z</time>
      </trkpt>
      <trkpt lat="45.94772" lon="4.61197">
        <ele>448.7</ele>
        <time>2015-04-05T07:59:01Z</time>
      </trkpt>
      <trkpt lat="45.94777" lon="4.6119">
        <ele>449.5</ele>
        <time>2015-04-05T07:59:06Z</time>
      </trkpt>
      <trkpt lat="45.9478" lon="4.6118">
        <ele>451.2</ele>
        <time>2015-04-05T07:59:11Z</time>
      </trkpt>
      <trkpt lat="45.94787" lon="4.61173">
        <ele>452</ele>
        <time>2015-04-05T07:59:16Z</time>
      </trkpt>
      <trkpt lat="45.9479" lon="4.61163">
        <ele>452.4</ele>
        <time>2015-04-05T07:59:21Z</time>
      </trkpt>
      <trkpt lat="45.94795" lon="4.61153">
        <ele>454.6</ele>
        <time>2015-04-05T07:59:26Z</time>
      </trkpt>
      <trkpt lat="45.94798" lon="4.6114">
        <ele>456.1</ele>
        <time>2015-04-05T07:59:31Z</time>
      </trkpt>
      <trkpt lat="45.94803" lon="4.61128">
        <ele>458</ele>
        <time>2015-04-05T07:59:36Z</time>
      </trkpt>
      <trkpt lat="45.94807" lon="4.61117">
        <ele>458.6</ele>
        <time>2015-04-05T07:59:41Z</time>
      </trkpt>
      <trkpt lat="45.94808" lon="4.61105">
        <ele>459.9</ele>
        <time>2015-04-05T07:59:46Z</time>
      </trkpt>
      <trkpt lat="45.9481" lon="4.61093">
        <ele>462.3</ele>
        <time>2015-04-05T07:59:51Z</time>
      </trkpt>
      <trkpt lat="45.94813" lon="4.61085">
        <ele>462.3</ele>
        <time>2015-04-05T07:59:56Z</time>
      </trkpt>
      <trkpt lat="45.9482" lon="4.61075">
        <ele>462.8</ele>
        <time>2015-04-05T08:00:01Z</time>
      </trkpt>
      <trkpt lat="45.94823" lon="4.61065">
        <ele>465.1</ele>
        <time>2015-04-05T08:00:06Z</time>
      </trkpt>
      <trkpt lat="45.94827" lon="4.61055">
        <ele>466.2</ele>
        <time>2015-04-05T08:00:11Z</time>
      </trkpt>
      <trkpt lat="45.94832" lon="4.61043">
        <ele>467.9</ele>
        <time>2015-04-05T08:00:16Z</time>
      </trkpt>
      <trkpt lat="45.94833" lon="4.61033">
        <ele>469.4</ele>
        <time>2015-04-05T08:00:21Z</time>
      </trkpt>
      <trkpt lat="45.94837" lon="4.61023">
        <ele>471.1</ele>
        <time>2015-04-05T08:00:26Z</time>
      </trkpt>
      <trkpt lat="45.94842" lon="4.61015">
        <ele>471.8</ele>
        <time>2015-04-05T08:00:31Z</time>
      </trkpt>
      <trkpt lat="45.94845" lon="4.61005">
        <ele>471</ele>
        <time>2015-04-05T08:00:36Z</time>
      </trkpt>
      <trkpt lat="45.9485" lon="4.60993">
        <ele>473.1</ele>
        <time>2015-04-05T08:00:41Z</time>
      </trkpt>
      <trkpt lat="45.94853" lon="4.60983">
        <ele>474.1</ele>
        <time>2015-04-05T08:00:46Z</time>
      </trkpt>
      <trkpt lat="45.94858" lon="4.60972">
        <ele>476.5</ele>
        <time>2015-04-05T08:00:51Z</time>
      </trkpt>
      <trkpt lat="45.94863" lon="4.6096">
        <ele>477.1</ele>
        <time>2015-04-05T08:00:56Z</time>
      </trkpt>
      <trkpt lat="45.94868" lon="4.60948">
        <ele>478.1</ele>
        <time>2015-04-05T08:01:01Z</time>
      </trkpt>
      <trkpt lat="45.94872" lon="4.60933">
        <ele>478.6</ele>
        <time>2015-04-05T08:01:06Z</time>
      </trkpt>
      <trkpt lat="45.94873" lon="4.60923">
        <ele>481.3</ele>
        <time>2015-04-05T08:01:11Z</time>
      </trkpt>
      <trkpt lat="45.94882" lon="4.60927">
        <ele>478.3</ele>
        <time>2015-04-05T08:01:16Z</time>
      </trkpt>
      <trkpt lat="45.94895" lon="4.60947">
        <ele>478.3</ele>
        <time>2015-04-05T08:01:21Z</time>
      </trkpt>
      <trkpt lat="45.94905" lon="4.60963">
        <ele>471.9</ele>
        <time>2015-04-05T08:01:26Z</time>
      </trkpt>
      <trkpt lat="45.94922" lon="4.6099">
        <ele>466.4</ele>
        <time>2015-04-05T08:01:31Z</time>
      </trkpt>
      <trkpt lat="45.94935" lon="4.61008">
        <ele>466.2</ele>
        <time>2015-04-05T08:01:36Z</time>
      </trkpt>
      <trkpt lat="45.94945" lon="4.61033">
        <ele>463.2</ele>
        <time>2015-04-05T08:01:41Z</time>
      </trkpt>
      <trkpt lat="45.9495" lon="4.61057">
        <ele>457.2</ele>
        <time>2015-04-05T08:01:46Z</time>
      </trkpt>
      <trkpt lat="45.94962" lon="4.61077">
        <ele>452.9</ele>
        <time>2015-04-05T08:01:51Z</time>
      </trkpt>
      <trkpt lat="45.94967" lon="4.6109">
        <ele>451</ele>
        <time>2015-04-05T08:01:56Z</time>
      </trkpt>
      <trkpt lat="45.94973" lon="4.61105">
        <ele>449.3</ele>
        <time>2015-04-05T08:02:01Z</time>
      </trkpt>
      <trkpt lat="45.94985" lon="4.61128">
        <ele>445.2</ele>
        <time>2015-04-05T08:02:06Z</time>
      </trkpt>
      <trkpt lat="45.95" lon="4.61162">
        <ele>444.8</ele>
        <time>2015-04-05T08:02:11Z</time>
      </trkpt>
      <trkpt lat="45.95013" lon="4.61195">
        <ele>434.7</ele>
        <time>2015-04-05T08:02:16Z</time>
      </trkpt>
      <trkpt lat="45.95025" lon="4.61222">
        <ele>427.1</ele>
        <time>2015-04-05T08:02:21Z</time>
      </trkpt>
      <trkpt lat="45.95032" lon="4.61242">
        <ele>424.1</ele>
        <time>2015-04-05T08:02:26Z</time>
      </trkpt>
      <trkpt lat="45.95028" lon="4.61257">
        <ele>421.2</ele>
        <time>2015-04-05T08:02:31Z</time>
      </trkpt>
      <trkpt lat="45.9502" lon="4.61263">
        <ele>419.5</ele>
        <time>2015-04-05T08:02:36Z</time>
      </trkpt>
      <trkpt lat="45.95013" lon="4.61278">
        <ele>417.3</ele>
        <time>2015-04-05T08:02:41Z</time>
      </trkpt>
      <trkpt lat="45.95005" lon="4.61295">
        <ele>416.3</ele>
        <time>2015-04-05T08:02:46Z</time>
      </trkpt>
      <trkpt lat="45.94995" lon="4.6131">
        <ele>412.9</ele>
        <time>2015-04-05T08:02:51Z</time>
      </trkpt>
      <trkpt lat="45.9499" lon="4.61315">
        <ele>414.2</ele>
        <time>2015-04-05T08:02:56Z</time>
      </trkpt>
      <trkpt lat="45.9498" lon="4.61327">
        <ele>413.2</ele>
        <time>2015-04-05T08:03:01Z</time>
      </trkpt>
      <trkpt lat="45.94973" lon="4.6134">
        <ele>413.9</ele>
        <time>2015-04-05T08:03:06Z</time>
      </trkpt>
      <trkpt lat="45.94977" lon="4.61372">
        <ele>406.2</ele>
        <time>2015-04-05T08:03:11Z</time>
      </trkpt>
      <trkpt lat="45.9497" lon="4.614">
        <ele>403.3</ele>
        <time>2015-04-05T08:03:16Z</time>
      </trkpt>
      <trkpt lat="45.9497" lon="4.61418">
        <ele>399.9</ele>
        <time>2015-04-05T08:03:21Z</time>
      </trkpt>
      <trkpt lat="45.94982" lon="4.61467">
        <ele>395.9</ele>
        <time>2015-04-05T08:03:26Z</time>
      </trkpt>
      <trkpt lat="45.94992" lon="4.61513">
        <ele>384.7</ele>
        <time>2015-04-05T08:03:31Z</time>
      </trkpt>
      <trkpt lat="45.95008" lon="4.61562">
        <ele>376.8</ele>
        <time>2015-04-05T08:03:36Z</time>
      </trkpt>
      <trkpt lat="45.9503" lon="4.61615">
        <ele>369</ele>
        <time>2015-04-05T08:03:41Z</time>
      </trkpt>
      <trkpt lat="45.95048" lon="4.61653">
        <ele>359.7</ele>
        <time>2015-04-05T08:03:46Z</time>
      </trkpt>
      <trkpt lat="45.95067" lon="4.61647">
        <ele>356.5</ele>
        <time>2015-04-05T08:03:51Z</time>
      </trkpt>
      <trkpt lat="45.95088" lon="4.61622">
        <ele>357.2</ele>
        <time>2015-04-05T08:03:56Z</time>
      </trkpt>
      <trkpt lat="45.95107" lon="4.61598">
        <ele>352.7</ele>
        <time>2015-04-05T08:04:01Z</time>
      </trkpt>
      <trkpt lat="45.95128" lon="4.61595">
        <ele>351.7</ele>
        <time>2015-04-05T08:04:06Z</time>
      </trkpt>
      <trkpt lat="45.95158" lon="4.61588">
        <ele>347.6</ele>
        <time>2015-04-05T08:04:11Z</time>
      </trkpt>
      <trkpt lat="45.95195" lon="4.61572">
        <ele>345.6</ele>
        <time>2015-04-05T08:04:16Z</time>
      </trkpt>
      <trkpt lat="45.95232" lon="4.61558">
        <ele>347.4</ele>
        <time>2015-04-05T08:04:21Z</time>
      </trkpt>
      <trkpt lat="45.95258" lon="4.61552">
        <ele>349.7</ele>
        <time>2015-04-05T08:04:26Z</time>
      </trkpt>
      <trkpt lat="45.95288" lon="4.61545">
        <ele>347.3</ele>
        <time>2015-04-05T08:04:31Z</time>
      </trkpt>
      <trkpt lat="45.95322" lon="4.61535">
        <ele>343.1</ele>
        <time>2015-04-05T08:04:36Z</time>
      </trkpt>
      <trkpt lat="45.9535" lon="4.61525">
        <ele>343.5</ele>
        <time>2015-04-05T08:04:41Z</time>
      </trkpt>
      <trkpt lat="45.95377" lon="4.61518">
        <ele>344.6</ele>
        <time>2015-04-05T08:04:46Z</time>
      </trkpt>
      <trkpt lat="45.95397" lon="4.61508">
        <ele>344.9</ele>
        <time>2015-04-05T08:04:51Z</time>
      </trkpt>
      <trkpt lat="45.95415" lon="4.61502">
        <ele>344.1</ele>
        <time>2015-04-05T08:04:56Z</time>
      </trkpt>
      <trkpt lat="45.95433" lon="4.61492">
        <ele>344.1</ele>
        <time>2015-04-05T08:05:01Z</time>
      </trkpt>
      <trkpt lat="45.95453" lon="4.61482">
        <ele>343.6</ele>
        <time>2015-04-05T08:05:06Z</time>
      </trkpt>
      <trkpt lat="45.95477" lon="4.6147">
        <ele>342.6</ele>
        <time>2015-04-05T08:05:11Z</time>
      </trkpt>
      <trkpt lat="45.955" lon="4.61452">
        <ele>341.2</ele>
        <time>2015-04-05T08:05:16Z</time>
      </trkpt>
      <trkpt lat="45.95525" lon="4.6143">
        <ele>337.4</ele>
        <time>2015-04-05T08:05:21Z</time>
      </trkpt>
      <trkpt lat="45.95542" lon="4.61393">
        <ele>337.4</ele>
        <time>2015-04-05T08:05:26Z</time>
      </trkpt>
      <trkpt lat="45.95535" lon="4.61372">
        <ele>334.7</ele>
        <time>2015-04-05T08:05:31Z</time>
      </trkpt>
      <trkpt lat="45.95528" lon="4.61365">
        <ele>338.3</ele>
        <time>2015-04-05T08:05:36Z</time>
      </trkpt>
      <trkpt lat="45.9552" lon="4.61357">
        <ele>338.9</ele>
        <time>2015-04-05T08:05:41Z</time>
      </trkpt>
      <trkpt lat="45.95512" lon="4.6135">
        <ele>340</ele>
        <time>2015-04-05T08:05:46Z</time>
      </trkpt>
      <trkpt lat="45.955" lon="4.61342">
        <ele>340.7</ele>
        <time>2015-04-05T08:05:51Z</time>
      </trkpt>
      <trkpt lat="45.9549" lon="4.61335">
        <ele>341.7</ele>
        <time>2015-04-05T08:05:56Z</time>
      </trkpt>
      <trkpt lat="45.9548" lon="4.61328">
        <ele>343.4</ele>
        <time>2015-04-05T08:06:01Z</time>
      </trkpt>
      <trkpt lat="45.9547" lon="4.61322">
        <ele>343.4</ele>
        <time>2015-04-05T08:06:06Z</time>
      </trkpt>
      <trkpt lat="45.9546" lon="4.61312">
        <ele>345.1</ele>
        <time>2015-04-05T08:06:11Z</time>
      </trkpt>
      <trkpt lat="45.95452" lon="4.61302">
        <ele>345.9</ele>
        <time>2015-04-05T08:06:16Z</time>
      </trkpt>
      <trkpt lat="45.95443" lon="4.61293">
        <ele>346.7</ele>
        <time>2015-04-05T08:06:21Z</time>
      </trkpt>
      <trkpt lat="45.95437" lon="4.61283">
        <ele>347</ele>
        <time>2015-04-05T08:06:26Z</time>
      </trkpt>
      <trkpt lat="45.95428" lon="4.61273">
        <ele>349.1</ele>
        <time>2015-04-05T08:06:31Z</time>
      </trkpt>
      <trkpt lat="45.95422" lon="4.61263">
        <ele>350.9</ele>
        <time>2015-04-05T08:06:36Z</time>
      </trkpt>
      <trkpt lat="45.95415" lon="4.61252">
        <ele>352.7</ele>
        <time>2015-04-05T08:06:41Z</time>
      </trkpt>
      <trkpt lat="45.95408" lon="4.61242">
        <ele>353.1</ele>
        <time>2015-04-05T08:06:46Z</time>
      </trkpt>
      <trkpt lat="45.95402" lon="4.6123">
        <ele>353.7</ele>
        <time>2015-04-05T08:06:51Z</time>
      </trkpt>
      <trkpt lat="45.95395" lon="4.6122">
        <ele>354.9</ele>
        <time>2015-04-05T08:06:56Z</time>
      </trkpt>
      <trkpt lat="45.95388" lon="4.61208">
        <ele>354.7</ele>
        <time>2015-04-05T08:07:01Z</time>
      </trkpt>
      <trkpt lat="45.95383" lon="4.61197">
        <ele>356.4</ele>
        <time>2015-04-05T08:07:06Z</time>
      </trkpt>
      <trkpt lat="45.95382" lon="4.61177">
        <ele>356.4</ele>
        <time>2015-04-05T08:07:11Z</time>
      </trkpt>
      <trkpt lat="45.9538" lon="4.61155">
        <ele>356.2</ele>
        <time>2015-04-05T08:07:16Z</time>
      </trkpt>
      <trkpt lat="45.9538" lon="4.61135">
        <ele>358.6</ele>
        <time>2015-04-05T08:07:21Z</time>
      </trkpt>
      <trkpt lat="45.95382" lon="4.61117">
        <ele>359</ele>
        <time>2015-04-05T08:07:26Z</time>
      </trkpt>
      <trkpt lat="45.95382" lon="4.61097">
        <ele>359.1</ele>
        <time>2015-04-05T08:07:31Z</time>
      </trkpt>
      <trkpt lat="45.9538" lon="4.6108">
        <ele>360.2</ele>
        <time>2015-04-05T08:07:36Z</time>
      </trkpt>
      <trkpt lat="45.9538" lon="4.61058">
        <ele>360.6</ele>
        <time>2015-04-05T08:07:41Z</time>
      </trkpt>
      <trkpt lat="45.95382" lon="4.61037">
        <ele>362</ele>
        <time>2015-04-05T08:07:46Z</time>
      </trkpt>
      <trkpt lat="45.95382" lon="4.61007">
        <ele>362.2</ele>
        <time>2015-04-05T08:07:51Z</time>
      </trkpt>
      <trkpt lat="45.95382" lon="4.60972">
        <ele>362.2</ele>
        <time>2015-04-05T08:07:56Z</time>
      </trkpt>
      <trkpt lat="45.95382" lon="4.60932">
        <ele>359.3</ele>
        <time>2015-04-05T08:08:01Z</time>
      </trkpt>
      <trkpt lat="45.95377" lon="4.60888">
        <ele>360.3</ele>
        <time>2015-04-05T08:08:06Z</time>
      </trkpt>
      <trkpt lat="45.95372" lon="4.60852">
        <ele>355.6</ele>
        <time>2015-04-05T08:08:11Z</time>
      </trkpt>
      <trkpt lat="45.95372" lon="4.60813">
        <ele>358.6</ele>
        <time>2015-04-05T08:08:16Z</time>
      </trkpt>
      <trkpt lat="45.95373" lon="4.60782">
        <ele>358.4</ele>
        <time>2015-04-05T08:08:21Z</time>
      </trkpt>
      <trkpt lat="45.95373" lon="4.60763">
        <ele>359.2</ele>
        <time>2015-04-05T08:08:26Z</time>
      </trkpt>
      <trkpt lat="45.95375" lon="4.6075">
        <ele>359.3</ele>
        <time>2015-04-05T08:08:31Z</time>
      </trkpt>
      <trkpt lat="45.95367" lon="4.60755">
        <ele>360.2</ele>
        <time>2015-04-05T08:08:36Z</time>
      </trkpt>
      <trkpt lat="45.9536" lon="4.60762">
        <ele>362.3</ele>
        <time>2015-04-05T08:08:41Z</time>
      </trkpt>
      <trkpt lat="45.9535" lon="4.60765">
        <ele>363.1</ele>
        <time>2015-04-05T08:08:46Z</time>
      </trkpt>
      <trkpt lat="45.95343" lon="4.60767">
        <ele>365.5</ele>
        <time>2015-04-05T08:08:51Z</time>
      </trkpt>
      <trkpt lat="45.95337" lon="4.60765">
        <ele>367</ele>
        <time>2015-04-05T08:08:56Z</time>
      </trkpt>
      <trkpt lat="45.95328" lon="4.60762">
        <ele>369.7</ele>
        <time>2015-04-05T08:09:01Z</time>
      </trkpt>
      <trkpt lat="45.95322" lon="4.60758">
        <ele>371</ele>
        <time>2015-04-05T08:09:06Z</time>
      </trkpt>
      <trkpt lat="45.95315" lon="4.60755">
        <ele>372.3</ele>
        <time>2015-04-05T08:09:11Z</time>
      </trkpt>
      <trkpt lat="45.95307" lon="4.60755">
        <ele>373.8</ele>
        <time>2015-04-05T08:09:16Z</time>
      </trkpt>
      <trkpt lat="45.953" lon="4.60753">
        <ele>375.1</ele>
        <time>2015-04-05T08:09:21Z</time>
      </trkpt>
      <trkpt lat="45.95292" lon="4.60752">
        <ele>376.1</ele>
        <time>2015-04-05T08:09:26Z</time>
      </trkpt>
      <trkpt lat="45.95285" lon="4.60752">
        <ele>378.1</ele>
        <time>2015-04-05T08:09:31Z</time>
      </trkpt>
      <trkpt lat="45.95278" lon="4.60752">
        <ele>378.1</ele>
        <time>2015-04-05T08:09:36Z</time>
      </trkpt>
      <trkpt lat="45.95272" lon="4.6075">
        <ele>380.5</ele>
        <time>2015-04-05T08:09:41Z</time>
      </trkpt>
      <trkpt lat="45.95265" lon="4.6075">
        <ele>381.5</ele>
        <time>2015-04-05T08:09:46Z</time>
      </trkpt>
      <trkpt lat="45.95257" lon="4.60748">
        <ele>382.7</ele>
        <time>2015-04-05T08:09:51Z</time>
      </trkpt>
      <trkpt lat="45.9525" lon="4.60747">
        <ele>383.9</ele>
        <time>2015-04-05T08:09:56Z</time>
      </trkpt>
      <trkpt lat="45.95242" lon="4.60747">
        <ele>384.7</ele>
        <time>2015-04-05T08:10:01Z</time>
      </trkpt>
      <trkpt lat="45.95235" lon="4.60747">
        <ele>386.2</ele>
        <time>2015-04-05T08:10:06Z</time>
      </trkpt>
      <trkpt lat="45.95228" lon="4.60743">
        <ele>387.4</ele>
        <time>2015-04-05T08:10:11Z</time>
      </trkpt>
      <trkpt lat="45.95222" lon="4.60742">
        <ele>389</ele>
        <time>2015-04-05T08:10:16Z</time>
      </trkpt>
      <trkpt lat="45.95215" lon="4.60738">
        <ele>391</ele>
        <time>2015-04-05T08:10:21Z</time>
      </trkpt>
      <trkpt lat="45.95208" lon="4.60737">
        <ele>391.7</ele>
        <time>2015-04-05T08:10:26Z</time>
      </trkpt>
      <trkpt lat="45.952" lon="4.60733">
        <ele>393.1</ele>
        <time>2015-04-05T08:10:31Z</time>
      </trkpt>
      <trkpt lat="45.95193" lon="4.6073">
        <ele>394.5</ele>
        <time>2015-04-05T08:10:36Z</time>
      </trkpt>
      <trkpt lat="45.95187" lon="4.60728">
        <ele>397.3</ele>
        <time>2015-04-05T08:10:41Z</time>
      </trkpt>
      <trkpt lat="45.95182" lon="4.60725">
        <ele>397.7</ele>
        <time>2015-04-05T08:10:46Z</time>
      </trkpt>
      <trkpt lat="45.95175" lon="4.60723">
        <ele>399</ele>
        <time>2015-04-05T08:10:51Z</time>
      </trkpt>
      <trkpt lat="45.95168" lon="4.60718">
        <ele>400.1</ele>
        <time>2015-04-05T08:10:56Z</time>
      </trkpt>
      <trkpt lat="45.9516" lon="4.60715">
        <ele>400.7</ele>
        <time>2015-04-05T08:11:01Z</time>
      </trkpt>
      <trkpt lat="45.95153" lon="4.60713">
        <ele>402.2</ele>
        <time>2015-04-05T08:11:06Z</time>
      </trkpt>
      <trkpt lat="45.95147" lon="4.6071">
        <ele>403</ele>
        <time>2015-04-05T08:11:11Z</time>
      </trkpt>
      <trkpt lat="45.9514" lon="4.60707">
        <ele>405.3</ele>
        <time>2015-04-05T08:11:16Z</time>
      </trkpt>
      <trkpt lat="45.95133" lon="4.60702">
        <ele>405.9</ele>
        <time>2015-04-05T08:11:21Z</time>
      </trkpt>
      <trkpt lat="45.95125" lon="4.60698">
        <ele>407.2</ele>
        <time>2015-04-05T08:11:26Z</time>
      </trkpt>
      <trkpt lat="45.9512" lon="4.60693">
        <ele>408.4</ele>
        <time>2015-04-05T08:11:31Z</time>
      </trkpt>
      <trkpt lat="45.95112" lon="4.60688">
        <ele>408.4</ele>
        <time>2015-04-05T08:11:36Z</time>
      </trkpt>
      <trkpt lat="45.95105" lon="4.60685">
        <ele>409.8</ele>
        <time>2015-04-05T08:11:41Z</time>
      </trkpt>
      <trkpt lat="45.95098" lon="4.60682">
        <ele>411.3</ele>
        <time>2015-04-05T08:11:46Z</time>
      </trkpt>
      <trkpt lat="45.95092" lon="4.60677">
        <ele>412.3</ele>
        <time>2015-04-05T08:11:51Z</time>
      </trkpt>
      <trkpt lat="45.95087" lon="4.60672">
        <ele>413.2</ele>
        <time>2015-04-05T08:11:56Z</time>
      </trkpt>
      <trkpt lat="45.9508" lon="4.60667">
        <ele>414.1</ele>
        <time>2015-04-05T08:12:01Z</time>
      </trkpt>
      <trkpt lat="45.95075" lon="4.60658">
        <ele>414.7</ele>
        <time>2015-04-05T08:12:06Z</time>
      </trkpt>
      <trkpt lat="45.9507" lon="4.60653">
        <ele>417.1</ele>
        <time>2015-04-05T08:12:11Z</time>
      </trkpt>
      <trkpt lat="45.95063" lon="4.60647">
        <ele>419.5</ele>
        <time>2015-04-05T08:12:16Z</time>
      </trkpt>
      <trkpt lat="45.9506" lon="4.60642">
        <ele>419.9</ele>
        <time>2015-04-05T08:12:21Z</time>
      </trkpt>
      <trkpt lat="45.95055" lon="4.60635">
        <ele>420.5</ele>
        <time>2015-04-05T08:12:26Z</time>
      </trkpt>
      <trkpt lat="45.9505" lon="4.60627">
        <ele>421.3</ele>
        <time>2015-04-05T08:12:31Z</time>
      </trkpt>
      <trkpt lat="45.95045" lon="4.6062">
        <ele>423.2</ele>
        <time>2015-04-05T08:12:36Z</time>
      </trkpt>
      <trkpt lat="45.9504" lon="4.60612">
        <ele>425.1</ele>
        <time>2015-04-05T08:12:41Z</time>
      </trkpt>
      <trkpt lat="45.95037" lon="4.60607">
        <ele>426.1</ele>
        <time>2015-04-05T08:12:46Z</time>
      </trkpt>
      <trkpt lat="45.95032" lon="4.606">
        <ele>426.7</ele>
        <time>2015-04-05T08:12:51Z</time>
      </trkpt>
      <trkpt lat="45.95028" lon="4.60595">
        <ele>429.2</ele>
        <time>2015-04-05T08:12:56Z</time>
      </trkpt>
      <trkpt lat="45.95025" lon="4.60587">
        <ele>430.2</ele>
        <time>2015-04-05T08:13:01Z</time>
      </trkpt>
      <trkpt lat="45.95027" lon="4.60578">
        <ele>431.2</ele>
        <time>2015-04-05T08:13:06Z</time>
      </trkpt>
      <trkpt lat="45.95032" lon="4.60572">
        <ele>432.2</ele>
        <time>2015-04-05T08:13:11Z</time>
      </trkpt>
      <trkpt lat="45.95035" lon="4.60567">
        <ele>433.4</ele>
        <time>2015-04-05T08:13:16Z</time>
      </trkpt>
      <trkpt lat="45.95038" lon="4.60563">
        <ele>434.7</ele>
        <time>2015-04-05T08:13:21Z</time>
      </trkpt>
      <trkpt lat="45.95043" lon="4.60557">
        <ele>435.9</ele>
        <time>2015-04-05T08:13:26Z</time>
      </trkpt>
      <trkpt lat="45.95045" lon="4.6055">
        <ele>437.4</ele>
        <time>2015-04-05T08:13:31Z</time>
      </trkpt>
      <trkpt lat="45.9505" lon="4.60545">
        <ele>438.9</ele>
        <time>2015-04-05T08:13:36Z</time>
      </trkpt>
      <trkpt lat="45.95055" lon="4.6054">
        <ele>440.5</ele>
        <time>2015-04-05T08:13:41Z</time>
      </trkpt>
      <trkpt lat="45.95058" lon="4.60533">
        <ele>441.3</ele>
        <time>2015-04-05T08:13:46Z</time>
      </trkpt>
      <trkpt lat="45.95063" lon="4.60527">
        <ele>442.7</ele>
        <time>2015-04-05T08:13:51Z</time>
      </trkpt>
      <trkpt lat="45.95067" lon="4.6052">
        <ele>444.2</ele>
        <time>2015-04-05T08:13:56Z</time>
      </trkpt>
      <trkpt lat="45.95072" lon="4.60513">
        <ele>444.8</ele>
        <time>2015-04-05T08:14:01Z</time>
      </trkpt>
      <trkpt lat="45.95075" lon="4.60507">
        <ele>445.1</ele>
        <time>2015-04-05T08:14:06Z</time>
      </trkpt>
      <trkpt lat="45.9508" lon="4.605">
        <ele>446.9</ele>
        <time>2015-04-05T08:14:11Z</time>
      </trkpt>
      <trkpt lat="45.95083" lon="4.6049">
        <ele>448.2</ele>
        <time>2015-04-05T08:14:16Z</time>
      </trkpt>
      <trkpt lat="45.95087" lon="4.6048">
        <ele>449.4</ele>
        <time>2015-04-05T08:14:21Z</time>
      </trkpt>
      <trkpt lat="45.9509" lon="4.60472">
        <ele>450.1</ele>
        <time>2015-04-05T08:14:26Z</time>
      </trkpt>
      <trkpt lat="45.95092" lon="4.60465">
        <ele>451.2</ele>
        <time>2015-04-05T08:14:31Z</time>
      </trkpt>
      <trkpt lat="45.95092" lon="4.60455">
        <ele>452.7</ele>
        <time>2015-04-05T08:14:36Z</time>
      </trkpt>
      <trkpt lat="45.95092" lon="4.60448">
        <ele>454</ele>
        <time>2015-04-05T08:14:41Z</time>
      </trkpt>
      <trkpt lat="45.9509" lon="4.60438">
        <ele>455.6</ele>
        <time>2015-04-05T08:14:46Z</time>
      </trkpt>
      <trkpt lat="45.95088" lon="4.6043">
        <ele>456.9</ele>
        <time>2015-04-05T08:14:51Z</time>
      </trkpt>
      <trkpt lat="45.95088" lon="4.6042">
        <ele>458</ele>
        <time>2015-04-05T08:14:56Z</time>
      </trkpt>
      <trkpt lat="45.95085" lon="4.60413">
        <ele>460.1</ele>
        <time>2015-04-05T08:15:01Z</time>
      </trkpt>
      <trkpt lat="45.95083" lon="4.60405">
        <ele>460.6</ele>
        <time>2015-04-05T08:15:06Z</time>
      </trkpt>
      <trkpt lat="45.95085" lon="4.60398">
        <ele>461.6</ele>
        <time>2015-04-05T08:15:11Z</time>
      </trkpt>
      <trkpt lat="45.95087" lon="4.6039">
        <ele>463.6</ele>
        <time>2015-04-05T08:15:16Z</time>
      </trkpt>
      <trkpt lat="45.95088" lon="4.6038">
        <ele>464</ele>
        <time>2015-04-05T08:15:21Z</time>
      </trkpt>
      <trkpt lat="45.9509" lon="4.60372">
        <ele>464.2</ele>
        <time>2015-04-05T08:15:26Z</time>
      </trkpt>
      <trkpt lat="45.95088" lon="4.60363">
        <ele>467.2</ele>
        <time>2015-04-05T08:15:31Z</time>
      </trkpt>
      <trkpt lat="45.95085" lon="4.60358">
        <ele>469.2</ele>
        <time>2015-04-05T08:15:36Z</time>
      </trkpt>
      <trkpt lat="45.95082" lon="4.60353">
        <ele>469.8</ele>
        <time>2015-04-05T08:15:41Z</time>
      </trkpt>
      <trkpt lat="45.95077" lon="4.60348">
        <ele>470.2</ele>
        <time>2015-04-05T08:15:46Z</time>
      </trkpt>
      <trkpt lat="45.95072" lon="4.60343">
        <ele>471.2</ele>
        <time>2015-04-05T08:15:51Z</time>
      </trkpt>
      <trkpt lat="45.95067" lon="4.60335">
        <ele>473.4</ele>
        <time>2015-04-05T08:15:56Z</time>
      </trkpt>
      <trkpt lat="45.95063" lon="4.60328">
        <ele>475</ele>
        <time>2015-04-05T08:16:01Z</time>
      </trkpt>
      <trkpt lat="45.95058" lon="4.6032">
        <ele>475.3</ele>
        <time>2015-04-05T08:16:06Z</time>
      </trkpt>
      <trkpt lat="45.95053" lon="4.6031">
        <ele>476.8</ele>
        <time>2015-04-05T08:16:11Z</time>
      </trkpt>
      <trkpt lat="45.9505" lon="4.603">
        <ele>477</ele>
        <time>2015-04-05T08:16:16Z</time>
      </trkpt>
      <trkpt lat="45.95045" lon="4.60292">
        <ele>477.2</ele>
        <time>2015-04-05T08:16:21Z</time>
      </trkpt>
      <trkpt lat="45.95038" lon="4.60283">
        <ele>478.2</ele>
        <time>2015-04-05T08:16:26Z</time>
      </trkpt>
      <trkpt lat="45.95035" lon="4.60273">
        <ele>478.6</ele>
        <time>2015-04-05T08:16:31Z</time>
      </trkpt>
      <trkpt lat="45.95035" lon="4.60263">
        <ele>478.9</ele>
        <time>2015-04-05T08:16:36Z</time>
      </trkpt>
      <trkpt lat="45.95043" lon="4.60257">
        <ele>479</ele>
        <time>2015-04-05T08:16:41Z</time>
      </trkpt>
      <trkpt lat="45.95053" lon="4.60248">
        <ele>480.2</ele>
        <time>2015-04-05T08:16:46Z</time>
      </trkpt>
      <trkpt lat="45.95063" lon="4.6024">
        <ele>480.4</ele>
        <time>2015-04-05T08:16:51Z</time>
      </trkpt>
      <trkpt lat="45.95072" lon="4.60235">
        <ele>481.3</ele>
        <time>2015-04-05T08:16:56Z</time>
      </trkpt>
      <trkpt lat="45.9508" lon="4.6023">
        <ele>482.8</ele>
        <time>2015-04-05T08:17:01Z</time>
      </trkpt>
      <trkpt lat="45.95088" lon="4.60227">
        <ele>483.5</ele>
        <time>2015-04-05T08:17:06Z</time>
      </trkpt>
      <trkpt lat="45.95093" lon="4.60218">
        <ele>484.7</ele>
        <time>2015-04-05T08:17:11Z</time>
      </trkpt>
      <trkpt lat="45.95097" lon="4.60208">
        <ele>485.6</ele>
        <time>2015-04-05T08:17:16Z</time>
      </trkpt>
      <trkpt lat="45.951" lon="4.60202">
        <ele>486.8</ele>
        <time>2015-04-05T08:17:21Z</time>
      </trkpt>
      <trkpt lat="45.95103" lon="4.60195">
        <ele>489</ele>
        <time>2015-04-05T08:17:26Z</time>
      </trkpt>
      <trkpt lat="45.95107" lon="4.60187">
        <ele>489.4</ele>
        <time>2015-04-05T08:17:31Z</time>
      </trkpt>
      <trkpt lat="45.95112" lon="4.6018">
        <ele>490.2</ele>
        <time>2015-04-05T08:17:36Z</time>
      </trkpt>
      <trkpt lat="45.95113" lon="4.60173">
        <ele>492.4</ele>
        <time>2015-04-05T08:17:41Z</time>
      </trkpt>
      <trkpt lat="45.95118" lon="4.60165">
        <ele>493.1</ele>
        <time>2015-04-05T08:17:46Z</time>
      </trkpt>
      <trkpt lat="45.95122" lon="4.60158">
        <ele>494.3</ele>
        <time>2015-04-05T08:17:51Z</time>
      </trkpt>
      <trkpt lat="45.95125" lon="4.6015">
        <ele>495.2</ele>
        <time>2015-04-05T08:17:56Z</time>
      </trkpt>
      <trkpt lat="45.95128" lon="4.60142">
        <ele>497.5</ele>
        <time>2015-04-05T08:18:01Z</time>
      </trkpt>
      <trkpt lat="45.95133" lon="4.60137">
        <ele>498.2</ele>
        <time>2015-04-05T08:18:06Z</time>
      </trkpt>
      <trkpt lat="45.95138" lon="4.60132">
        <ele>499.3</ele>
        <time>2015-04-05T08:18:11Z</time>
      </trkpt>
      <trkpt lat="45.95142" lon="4.60127">
        <ele>501</ele>
        <time>2015-04-05T08:18:16Z</time>
      </trkpt>
      <trkpt lat="45.95147" lon="4.60122">
        <ele>501.8</ele>
        <time>2015-04-05T08:18:21Z</time>
      </trkpt>
      <trkpt lat="45.9515" lon="4.60115">
        <ele>502.8</ele>
        <time>2015-04-05T08:18:26Z</time>
      </trkpt>
      <trkpt lat="45.95153" lon="4.60108">
        <ele>503.2</ele>
        <time>2015-04-05T08:18:31Z</time>
      </trkpt>
      <trkpt lat="45.95157" lon="4.60103">
        <ele>504.6</ele>
        <time>2015-04-05T08:18:36Z</time>
      </trkpt>
      <trkpt lat="45.95158" lon="4.60098">
        <ele>505.2</ele>
        <time>2015-04-05T08:18:41Z</time>
      </trkpt>
      <trkpt lat="45.95162" lon="4.60093">
        <ele>506.1</ele>
        <time>2015-04-05T08:18:51Z</time>
      </trkpt>
      <trkpt lat="45.95163" lon="4.60088">
        <ele>508.2</ele>
        <time>2015-04-05T08:18:56Z</time>
      </trkpt>
      <trkpt lat="45.95167" lon="4.60083">
        <ele>509.4</ele>
        <time>2015-04-05T08:19:01Z</time>
      </trkpt>
      <trkpt lat="45.9517" lon="4.60078">
        <ele>509</ele>
        <time>2015-04-05T08:19:06Z</time>
      </trkpt>
      <trkpt lat="45.95173" lon="4.60073">
        <ele>510.4</ele>
        <time>2015-04-05T08:19:11Z</time>
      </trkpt>
      <trkpt lat="45.95175" lon="4.60068">
        <ele>511.6</ele>
        <time>2015-04-05T08:19:16Z</time>
      </trkpt>
      <trkpt lat="45.95178" lon="4.60062">
        <ele>513</ele>
        <time>2015-04-05T08:19:21Z</time>
      </trkpt>
      <trkpt lat="45.95182" lon="4.60057">
        <ele>514.3</ele>
        <time>2015-04-05T08:19:26Z</time>
      </trkpt>
      <trkpt lat="45.95185" lon="4.60052">
        <ele>514.9</ele>
        <time>2015-04-05T08:19:31Z</time>
      </trkpt>
      <trkpt lat="45.95187" lon="4.60045">
        <ele>515</ele>
        <time>2015-04-05T08:19:36Z</time>
      </trkpt>
      <trkpt lat="45.95188" lon="4.60042">
        <ele>517</ele>
        <time>2015-04-05T08:19:41Z</time>
      </trkpt>
      <trkpt lat="45.95192" lon="4.60038">
        <ele>517.9</ele>
        <time>2015-04-05T08:19:46Z</time>
      </trkpt>
      <trkpt lat="45.95195" lon="4.60035">
        <ele>518.2</ele>
        <time>2015-04-05T08:19:51Z</time>
      </trkpt>
      <trkpt lat="45.95198" lon="4.6003">
        <ele>518.1</ele>
        <time>2015-04-05T08:19:56Z</time>
      </trkpt>
      <trkpt lat="45.95202" lon="4.60025">
        <ele>520</ele>
        <time>2015-04-05T08:20:01Z</time>
      </trkpt>
      <trkpt lat="45.95202" lon="4.60022">
        <ele>520.6</ele>
        <time>2015-04-05T08:20:06Z</time>
      </trkpt>
      <trkpt lat="45.95205" lon="4.60015">
        <ele>521.5</ele>
        <time>2015-04-05T08:20:16Z</time>
      </trkpt>
      <trkpt lat="45.95207" lon="4.60007">
        <ele>521.9</ele>
        <time>2015-04-05T08:20:21Z</time>
      </trkpt>
      <trkpt lat="45.9521" lon="4.6">
        <ele>522.6</ele>
        <time>2015-04-05T08:20:26Z</time>
      </trkpt>
      <trkpt lat="45.95215" lon="4.59993">
        <ele>523.9</ele>
        <time>2015-04-05T08:20:31Z</time>
      </trkpt>
      <trkpt lat="45.95217" lon="4.59983">
        <ele>524.7</ele>
        <time>2015-04-05T08:20:36Z</time>
      </trkpt>
      <trkpt lat="45.9522" lon="4.59975">
        <ele>525.9</ele>
        <time>2015-04-05T08:20:41Z</time>
      </trkpt>
      <trkpt lat="45.95222" lon="4.59965">
        <ele>526.8</ele>
        <time>2015-04-05T08:20:46Z</time>
      </trkpt>
      <trkpt lat="45.95225" lon="4.59955">
        <ele>528.4</ele>
        <time>2015-04-05T08:20:51Z</time>
      </trkpt>
      <trkpt lat="45.95227" lon="4.59948">
        <ele>528.9</ele>
        <time>2015-04-05T08:20:56Z</time>
      </trkpt>
      <trkpt lat="45.95228" lon="4.59942">
        <ele>530.2</ele>
        <time>2015-04-05T08:21:01Z</time>
      </trkpt>
      <trkpt lat="45.9523" lon="4.59933">
        <ele>531</ele>
        <time>2015-04-05T08:21:06Z</time>
      </trkpt>
      <trkpt lat="45.95232" lon="4.59925">
        <ele>532.2</ele>
        <time>2015-04-05T08:21:11Z</time>
      </trkpt>
      <trkpt lat="45.95233" lon="4.59915">
        <ele>533.6</ele>
        <time>2015-04-05T08:21:16Z</time>
      </trkpt>
      <trkpt lat="45.95237" lon="4.59907">
        <ele>534.2</ele>
        <time>2015-04-05T08:21:21Z</time>
      </trkpt>
      <trkpt lat="45.95237" lon="4.59898">
        <ele>535.1</ele>
        <time>2015-04-05T08:21:26Z</time>
      </trkpt>
      <trkpt lat="45.9524" lon="4.59892">
        <ele>535.9</ele>
        <time>2015-04-05T08:21:31Z</time>
      </trkpt>
      <trkpt lat="45.95243" lon="4.59883">
        <ele>536.5</ele>
        <time>2015-04-05T08:21:36Z</time>
      </trkpt>
      <trkpt lat="45.95245" lon="4.59877">
        <ele>538.6</ele>
        <time>2015-04-05T08:21:41Z</time>
      </trkpt>
      <trkpt lat="45.95248" lon="4.59868">
        <ele>540.2</ele>
        <time>2015-04-05T08:21:46Z</time>
      </trkpt>
      <trkpt lat="45.9525" lon="4.59858">
        <ele>540.7</ele>
        <time>2015-04-05T08:21:51Z</time>
      </trkpt>
      <trkpt lat="45.95253" lon="4.59848">
        <ele>541.5</ele>
        <time>2015-04-05T08:21:56Z</time>
      </trkpt>
      <trkpt lat="45.95253" lon="4.59838">
        <ele>541.6</ele>
        <time>2015-04-05T08:22:01Z</time>
      </trkpt>
      <trkpt lat="45.95255" lon="4.5983">
        <ele>541.8</ele>
        <time>2015-04-05T08:22:06Z</time>
      </trkpt>
      <trkpt lat="45.95257" lon="4.59823">
        <ele>543</ele>
        <time>2015-04-05T08:22:11Z</time>
      </trkpt>
      <trkpt lat="45.95257" lon="4.59817">
        <ele>543</ele>
        <time>2015-04-05T08:22:16Z</time>
      </trkpt>
      <trkpt lat="45.95258" lon="4.59803">
        <ele>543.7</ele>
        <time>2015-04-05T08:22:21Z</time>
      </trkpt>
      <trkpt lat="45.95262" lon="4.59793">
        <ele>544</ele>
        <time>2015-04-05T08:22:26Z</time>
      </trkpt>
      <trkpt lat="45.95265" lon="4.59783">
        <ele>543.6</ele>
        <time>2015-04-05T08:22:31Z</time>
      </trkpt>
      <trkpt lat="45.95268" lon="4.59773">
        <ele>545</ele>
        <time>2015-04-05T08:22:36Z</time>
      </trkpt>
      <trkpt lat="45.95272" lon="4.59767">
        <ele>546.2</ele>
        <time>2015-04-05T08:22:41Z</time>
      </trkpt>
      <trkpt lat="45.95277" lon="4.59753">
        <ele>546.2</ele>
        <time>2015-04-05T08:22:46Z</time>
      </trkpt>
      <trkpt lat="45.9528" lon="4.5974">
        <ele>549</ele>
        <time>2015-04-05T08:22:51Z</time>
      </trkpt>
      <trkpt lat="45.95287" lon="4.59725">
        <ele>548.8</ele>
        <time>2015-04-05T08:22:56Z</time>
      </trkpt>
      <trkpt lat="45.95292" lon="4.59715">
        <ele>548.8</ele>
        <time>2015-04-05T08:23:01Z</time>
      </trkpt>
      <trkpt lat="45.95297" lon="4.59702">
        <ele>550.1</ele>
        <time>2015-04-05T08:23:06Z</time>
      </trkpt>
      <trkpt lat="45.95303" lon="4.59688">
        <ele>551.6</ele>
        <time>2015-04-05T08:23:11Z</time>
      </trkpt>
      <trkpt lat="45.9531" lon="4.59678">
        <ele>551.3</ele>
        <time>2015-04-05T08:23:16Z</time>
      </trkpt>
      <trkpt lat="45.95318" lon="4.5967">
        <ele>551.7</ele>
        <time>2015-04-05T08:23:21Z</time>
      </trkpt>
      <trkpt lat="45.95325" lon="4.59657">
        <ele>551.8</ele>
        <time>2015-04-05T08:23:26Z</time>
      </trkpt>
      <trkpt lat="45.95332" lon="4.5964">
        <ele>550.5</ele>
        <time>2015-04-05T08:23:31Z</time>
      </trkpt>
      <trkpt lat="45.9534" lon="4.59627">
        <ele>553.2</ele>
        <time>2015-04-05T08:23:36Z</time>
      </trkpt>
      <trkpt lat="45.95347" lon="4.59612">
        <ele>554.1</ele>
        <time>2015-04-05T08:23:41Z</time>
      </trkpt>
      <trkpt lat="45.95352" lon="4.59597">
        <ele>552.4</ele>
        <time>2015-04-05T08:23:46Z</time>
      </trkpt>
      <trkpt lat="45.9536" lon="4.59582">
        <ele>552.8</ele>
        <time>2015-04-05T08:23:51Z</time>
      </trkpt>
      <trkpt lat="45.95365" lon="4.59568">
        <ele>552.8</ele>
        <time>2015-04-05T08:23:56Z</time>
      </trkpt>
      <trkpt lat="45.95372" lon="4.59553">
        <ele>554</ele>
        <time>2015-04-05T08:24:01Z</time>
      </trkpt>
      <trkpt lat="45.95377" lon="4.5954">
        <ele>554.7</ele>
        <time>2015-04-05T08:24:06Z</time>
      </trkpt>
      <trkpt lat="45.95385" lon="4.5953">
        <ele>556.9</ele>
        <time>2015-04-05T08:24:11Z</time>
      </trkpt>
      <trkpt lat="45.95392" lon="4.59515">
        <ele>555</ele>
        <time>2015-04-05T08:24:16Z</time>
      </trkpt>
      <trkpt lat="45.95403" lon="4.59503">
        <ele>556.7</ele>
        <time>2015-04-05T08:24:21Z</time>
      </trkpt>
      <trkpt lat="45.95413" lon="4.59493">
        <ele>555.8</ele>
        <time>2015-04-05T08:24:26Z</time>
      </trkpt>
      <trkpt lat="45.95423" lon="4.59485">
        <ele>556.1</ele>
        <time>2015-04-05T08:24:31Z</time>
      </trkpt>
      <trkpt lat="45.95435" lon="4.59473">
        <ele>556.1</ele>
        <time>2015-04-05T08:24:36Z</time>
      </trkpt>
      <trkpt lat="45.95447" lon="4.59463">
        <ele>558.4</ele>
        <time>2015-04-05T08:24:41Z</time>
      </trkpt>
      <trkpt lat="45.9546" lon="4.5945">
        <ele>557.4</ele>
        <time>2015-04-05T08:24:46Z</time>
      </trkpt>
      <trkpt lat="45.95473" lon="4.59437">
        <ele>558</ele>
        <time>2015-04-05T08:24:51Z</time>
      </trkpt>
      <trkpt lat="45.95487" lon="4.59423">
        <ele>557</ele>
        <time>2015-04-05T08:24:56Z</time>
      </trkpt>
      <trkpt lat="45.95503" lon="4.59408">
        <ele>555</ele>
        <time>2015-04-05T08:25:01Z</time>
      </trkpt>
      <trkpt lat="45.95523" lon="4.59393">
        <ele>556.4</ele>
        <time>2015-04-05T08:25:06Z</time>
      </trkpt>
      <trkpt lat="45.95547" lon="4.59373">
        <ele>554.7</ele>
        <time>2015-04-05T08:25:11Z</time>
      </trkpt>
      <trkpt lat="45.95572" lon="4.5936">
        <ele>554.4</ele>
        <time>2015-04-05T08:25:16Z</time>
      </trkpt>
      <trkpt lat="45.95597" lon="4.59348">
        <ele>555.2</ele>
        <time>2015-04-05T08:25:21Z</time>
      </trkpt>
      <trkpt lat="45.95623" lon="4.59335">
        <ele>552.2</ele>
        <time>2015-04-05T08:25:26Z</time>
      </trkpt>
      <trkpt lat="45.9565" lon="4.59323">
        <ele>551.8</ele>
        <time>2015-04-05T08:25:31Z</time>
      </trkpt>
      <trkpt lat="45.95677" lon="4.59308">
        <ele>548.8</ele>
        <time>2015-04-05T08:25:36Z</time>
      </trkpt>
      <trkpt lat="45.957" lon="4.59298">
        <ele>547.4</ele>
        <time>2015-04-05T08:25:41Z</time>
      </trkpt>
      <trkpt lat="45.95728" lon="4.59283">
        <ele>544.2</ele>
        <time>2015-04-05T08:25:46Z</time>
      </trkpt>
      <trkpt lat="45.95755" lon="4.59267">
        <ele>541.6</ele>
        <time>2015-04-05T08:25:51Z</time>
      </trkpt>
      <trkpt lat="45.95785" lon="4.59252">
        <ele>542.6</ele>
        <time>2015-04-05T08:25:56Z</time>
      </trkpt>
      <trkpt lat="45.95812" lon="4.59238">
        <ele>541</ele>
        <time>2015-04-05T08:26:01Z</time>
      </trkpt>
      <trkpt lat="45.95835" lon="4.59233">
        <ele>539.3</ele>
        <time>2015-04-05T08:26:06Z</time>
      </trkpt>
      <trkpt lat="45.95858" lon="4.59225">
        <ele>542.1</ele>
        <time>2015-04-05T08:26:11Z</time>
      </trkpt>
      <trkpt lat="45.95878" lon="4.59213">
        <ele>540.2</ele>
        <time>2015-04-05T08:26:16Z</time>
      </trkpt>
      <trkpt lat="45.95898" lon="4.59195">
        <ele>539.2</ele>
        <time>2015-04-05T08:26:21Z</time>
      </trkpt>
      <trkpt lat="45.95922" lon="4.59172">
        <ele>539.2</ele>
        <time>2015-04-05T08:26:26Z</time>
      </trkpt>
      <trkpt lat="45.95952" lon="4.59162">
        <ele>533.9</ele>
        <time>2015-04-05T08:26:31Z</time>
      </trkpt>
      <trkpt lat="45.95962" lon="4.59173">
        <ele>535.9</ele>
        <time>2015-04-05T08:26:36Z</time>
      </trkpt>
      <trkpt lat="45.95973" lon="4.59183">
        <ele>537.4</ele>
        <time>2015-04-05T08:26:41Z</time>
      </trkpt>
      <trkpt lat="45.95985" lon="4.59193">
        <ele>538.6</ele>
        <time>2015-04-05T08:26:46Z</time>
      </trkpt>
      <trkpt lat="45.95993" lon="4.59207">
        <ele>538.5</ele>
        <time>2015-04-05T08:26:51Z</time>
      </trkpt>
      <trkpt lat="45.96007" lon="4.59218">
        <ele>540</ele>
        <time>2015-04-05T08:26:56Z</time>
      </trkpt>
      <trkpt lat="45.96017" lon="4.59232">
        <ele>539.6</ele>
        <time>2015-04-05T08:27:01Z</time>
      </trkpt>
      <trkpt lat="45.96032" lon="4.59243">
        <ele>540.5</ele>
        <time>2015-04-05T08:27:06Z</time>
      </trkpt>
      <trkpt lat="45.96048" lon="4.59252">
        <ele>541.3</ele>
        <time>2015-04-05T08:27:11Z</time>
      </trkpt>
      <trkpt lat="45.96065" lon="4.59258">
        <ele>541.6</ele>
        <time>2015-04-05T08:27:16Z</time>
      </trkpt>
      <trkpt lat="45.9608" lon="4.59263">
        <ele>541.6</ele>
        <time>2015-04-05T08:27:21Z</time>
      </trkpt>
      <trkpt lat="45.96097" lon="4.59265">
        <ele>541.9</ele>
        <time>2015-04-05T08:27:26Z</time>
      </trkpt>
      <trkpt lat="45.96112" lon="4.59267">
        <ele>544.4</ele>
        <time>2015-04-05T08:27:31Z</time>
      </trkpt>
      <trkpt lat="45.9613" lon="4.59273">
        <ele>543.4</ele>
        <time>2015-04-05T08:27:36Z</time>
      </trkpt>
      <trkpt lat="45.96147" lon="4.59278">
        <ele>543.8</ele>
        <time>2015-04-05T08:27:41Z</time>
      </trkpt>
      <trkpt lat="45.96165" lon="4.59285">
        <ele>544.2</ele>
        <time>2015-04-05T08:27:46Z</time>
      </trkpt>
      <trkpt lat="45.96182" lon="4.59293">
        <ele>544.7</ele>
        <time>2015-04-05T08:27:51Z</time>
      </trkpt>
      <trkpt lat="45.962" lon="4.59305">
        <ele>544.2</ele>
        <time>2015-04-05T08:27:56Z</time>
      </trkpt>
      <trkpt lat="45.96218" lon="4.59318">
        <ele>542.9</ele>
        <time>2015-04-05T08:28:01Z</time>
      </trkpt>
      <trkpt lat="45.96235" lon="4.59332">
        <ele>542.9</ele>
        <time>2015-04-05T08:28:06Z</time>
      </trkpt>
      <trkpt lat="45.9626" lon="4.59352">
        <ele>535.6</ele>
        <time>2015-04-05T08:28:11Z</time>
      </trkpt>
      <trkpt lat="45.9629" lon="4.59378">
        <ele>530.7</ele>
        <time>2015-04-05T08:28:16Z</time>
      </trkpt>
      <trkpt lat="45.96317" lon="4.59408">
        <ele>524.6</ele>
        <time>2015-04-05T08:28:21Z</time>
      </trkpt>
      <trkpt lat="45.96347" lon="4.59428">
        <ele>526.5</ele>
        <time>2015-04-05T08:28:26Z</time>
      </trkpt>
      <trkpt lat="45.96388" lon="4.59447">
        <ele>516.1</ele>
        <time>2015-04-05T08:28:31Z</time>
      </trkpt>
      <trkpt lat="45.96422" lon="4.59465">
        <ele>508.7</ele>
        <time>2015-04-05T08:28:36Z</time>
      </trkpt>
      <trkpt lat="45.9645" lon="4.59483">
        <ele>505.7</ele>
        <time>2015-04-05T08:28:41Z</time>
      </trkpt>
      <trkpt lat="45.96473" lon="4.59503">
        <ele>498.8</ele>
        <time>2015-04-05T08:28:46Z</time>
      </trkpt>
      <trkpt lat="45.96502" lon="4.59535">
        <ele>494.3</ele>
        <time>2015-04-05T08:28:51Z</time>
      </trkpt>
      <trkpt lat="45.96527" lon="4.59573">
        <ele>495.3</ele>
        <time>2015-04-05T08:28:56Z</time>
      </trkpt>
      <trkpt lat="45.96542" lon="4.59615">
        <ele>491.4</ele>
        <time>2015-04-05T08:29:01Z</time>
      </trkpt>
      <trkpt lat="45.96555" lon="4.5966">
        <ele>491.2</ele>
        <time>2015-04-05T08:29:06Z</time>
      </trkpt>
      <trkpt lat="45.96572" lon="4.59698">
        <ele>489.8</ele>
        <time>2015-04-05T08:29:11Z</time>
      </trkpt>
      <trkpt lat="45.96597" lon="4.59738">
        <ele>484.1</ele>
        <time>2015-04-05T08:29:16Z</time>
      </trkpt>
      <trkpt lat="45.96617" lon="4.59768">
        <ele>480.7</ele>
        <time>2015-04-05T08:29:21Z</time>
      </trkpt>
      <trkpt lat="45.96618" lon="4.59772">
        <ele>480.7</ele>
        <time>2015-04-05T08:29:26Z</time>
      </trkpt>
      <trkpt lat="45.96618" lon="4.59772">
        <ele>480.6</ele>
        <time>2015-04-05T08:29:31Z</time>
      </trkpt>
      <trkpt lat="45.9662" lon="4.59777">
        <ele>480.9</ele>
        <time>2015-04-05T08:29:36Z</time>
      </trkpt>
      <trkpt lat="45.96623" lon="4.59788">
        <ele>481.2</ele>
        <time>2015-04-05T08:29:41Z</time>
      </trkpt>
      <trkpt lat="45.96635" lon="4.59813">
        <ele>480.2</ele>
        <time>2015-04-05T08:29:46Z</time>
      </trkpt>
      <trkpt lat="45.9665" lon="4.59852">
        <ele>478.2</ele>
        <time>2015-04-05T08:29:51Z</time>
      </trkpt>
      <trkpt lat="45.96672" lon="4.59877">
        <ele>472.6</ele>
        <time>2015-04-05T08:29:56Z</time>
      </trkpt>
      <trkpt lat="45.96682" lon="4.5989">
        <ele>470.6</ele>
        <time>2015-04-05T08:30:01Z</time>
      </trkpt>
      <trkpt lat="45.96685" lon="4.5989">
        <ele>468.8</ele>
        <time>2015-04-05T08:30:06Z</time>
      </trkpt>
      <trkpt lat="45.96697" lon="4.59897">
        <ele>469.1</ele>
        <time>2015-04-05T08:30:11Z</time>
      </trkpt>
      <trkpt lat="45.9671" lon="4.599">
        <ele>469</ele>
        <time>2015-04-05T08:30:16Z</time>
      </trkpt>
      <trkpt lat="45.96723" lon="4.59905">
        <ele>467</ele>
        <time>2015-04-05T08:30:21Z</time>
      </trkpt>
      <trkpt lat="45.96737" lon="4.59903">
        <ele>463</ele>
        <time>2015-04-05T08:30:26Z</time>
      </trkpt>
      <trkpt lat="45.96752" lon="4.599">
        <ele>463.9</ele>
        <time>2015-04-05T08:30:31Z</time>
      </trkpt>
      <trkpt lat="45.96765" lon="4.59892">
        <ele>460.9</ele>
        <time>2015-04-05T08:30:36Z</time>
      </trkpt>
      <trkpt lat="45.96777" lon="4.5989">
        <ele>454.9</ele>
        <time>2015-04-05T08:30:41Z</time>
      </trkpt>
      <trkpt lat="45.96792" lon="4.59882">
        <ele>451.6</ele>
        <time>2015-04-05T08:30:46Z</time>
      </trkpt>
      <trkpt lat="45.96805" lon="4.59882">
        <ele>447.4</ele>
        <time>2015-04-05T08:30:51Z</time>
      </trkpt>
      <trkpt lat="45.96825" lon="4.5987">
        <ele>443.1</ele>
        <time>2015-04-05T08:30:56Z</time>
      </trkpt>
      <trkpt lat="45.9686" lon="4.59858">
        <ele>441</ele>
        <time>2015-04-05T08:31:01Z</time>
      </trkpt>
      <trkpt lat="45.96892" lon="4.59842">
        <ele>432</ele>
        <time>2015-04-05T08:31:06Z</time>
      </trkpt>
      <trkpt lat="45.96925" lon="4.59827">
        <ele>427.5</ele>
        <time>2015-04-05T08:31:11Z</time>
      </trkpt>
      <trkpt lat="45.96958" lon="4.59815">
        <ele>422.5</ele>
        <time>2015-04-05T08:31:16Z</time>
      </trkpt>
      <trkpt lat="45.96995" lon="4.59808">
        <ele>417.5</ele>
        <time>2015-04-05T08:31:21Z</time>
      </trkpt>
      <trkpt lat="45.97017" lon="4.59802">
        <ele>412.5</ele>
        <time>2015-04-05T08:31:26Z</time>
      </trkpt>
      <trkpt lat="45.97025" lon="4.59808">
        <ele>411.6</ele>
        <time>2015-04-05T08:31:31Z</time>
      </trkpt>
      <trkpt lat="45.97025" lon="4.59817">
        <ele>411.3</ele>
        <time>2015-04-05T08:31:36Z</time>
      </trkpt>
      <trkpt lat="45.9702" lon="4.5983">
        <ele>410.6</ele>
        <time>2015-04-05T08:31:41Z</time>
      </trkpt>
      <trkpt lat="45.97007" lon="4.59853">
        <ele>410</ele>
        <time>2015-04-05T08:31:46Z</time>
      </trkpt>
      <trkpt lat="45.96993" lon="4.59882">
        <ele>408.4</ele>
        <time>2015-04-05T08:31:51Z</time>
      </trkpt>
      <trkpt lat="45.96978" lon="4.59912">
        <ele>408.3</ele>
        <time>2015-04-05T08:31:56Z</time>
      </trkpt>
      <trkpt lat="45.96962" lon="4.59942">
        <ele>409.9</ele>
        <time>2015-04-05T08:32:01Z</time>
      </trkpt>
      <trkpt lat="45.96945" lon="4.59975">
        <ele>408.7</ele>
        <time>2015-04-05T08:32:06Z</time>
      </trkpt>
      <trkpt lat="45.96927" lon="4.60012">
        <ele>407.7</ele>
        <time>2015-04-05T08:32:11Z</time>
      </trkpt>
      <trkpt lat="45.96908" lon="4.60045">
        <ele>405.6</ele>
        <time>2015-04-05T08:32:16Z</time>
      </trkpt>
      <trkpt lat="45.9689" lon="4.6008">
        <ele>404.5</ele>
        <time>2015-04-05T08:32:21Z</time>
      </trkpt>
      <trkpt lat="45.96872" lon="4.6011">
        <ele>406.4</ele>
        <time>2015-04-05T08:32:26Z</time>
      </trkpt>
      <trkpt lat="45.96855" lon="4.60133">
        <ele>411.2</ele>
        <time>2015-04-05T08:32:31Z</time>
      </trkpt>
      <trkpt lat="45.96843" lon="4.60152">
        <ele>410.2</ele>
        <time>2015-04-05T08:32:36Z</time>
      </trkpt>
      <trkpt lat="45.96832" lon="4.60168">
        <ele>410.2</ele>
        <time>2015-04-05T08:32:41Z</time>
      </trkpt>
      <trkpt lat="45.9682" lon="4.60182">
        <ele>412.9</ele>
        <time>2015-04-05T08:32:46Z</time>
      </trkpt>
      <trkpt lat="45.96812" lon="4.602">
        <ele>413.1</ele>
        <time>2015-04-05T08:32:51Z</time>
      </trkpt>
      <trkpt lat="45.96808" lon="4.60207">
        <ele>412.9</ele>
        <time>2015-04-05T08:32:56Z</time>
      </trkpt>
      <trkpt lat="45.96808" lon="4.60207">
        <ele>412.9</ele>
        <time>2015-04-05T08:34:01Z</time>
      </trkpt>
      <trkpt lat="45.96802" lon="4.60215">
        <ele>413.1</ele>
        <time>2015-04-05T08:34:06Z</time>
      </trkpt>
      <trkpt lat="45.9679" lon="4.60233">
        <ele>413.4</ele>
        <time>2015-04-05T08:34:11Z</time>
      </trkpt>
      <trkpt lat="45.96778" lon="4.60252">
        <ele>414.7</ele>
        <time>2015-04-05T08:34:16Z</time>
      </trkpt>
      <trkpt lat="45.96765" lon="4.60275">
        <ele>415.7</ele>
        <time>2015-04-05T08:34:21Z</time>
      </trkpt>
      <trkpt lat="45.9675" lon="4.60303">
        <ele>414.7</ele>
        <time>2015-04-05T08:34:26Z</time>
      </trkpt>
      <trkpt lat="45.96733" lon="4.60335">
        <ele>412.7</ele>
        <time>2015-04-05T08:34:31Z</time>
      </trkpt>
      <trkpt lat="45.96717" lon="4.60362">
        <ele>412.7</ele>
        <time>2015-04-05T08:34:36Z</time>
      </trkpt>
      <trkpt lat="45.96698" lon="4.60398">
        <ele>406.1</ele>
        <time>2015-04-05T08:34:41Z</time>
      </trkpt>
      <trkpt lat="45.96673" lon="4.60443">
        <ele>406.9</ele>
        <time>2015-04-05T08:34:46Z</time>
      </trkpt>
      <trkpt lat="45.96653" lon="4.60475">
        <ele>400.4</ele>
        <time>2015-04-05T08:34:51Z</time>
      </trkpt>
      <trkpt lat="45.96628" lon="4.605">
        <ele>392.7</ele>
        <time>2015-04-05T08:34:56Z</time>
      </trkpt>
      <trkpt lat="45.96607" lon="4.60515">
        <ele>390.7</ele>
        <time>2015-04-05T08:35:01Z</time>
      </trkpt>
      <trkpt lat="45.96583" lon="4.60508">
        <ele>384.6</ele>
        <time>2015-04-05T08:35:06Z</time>
      </trkpt>
      <trkpt lat="45.96563" lon="4.60487">
        <ele>384.6</ele>
        <time>2015-04-05T08:35:11Z</time>
      </trkpt>
      <trkpt lat="45.9654" lon="4.60462">
        <ele>380.1</ele>
        <time>2015-04-05T08:35:16Z</time>
      </trkpt>
      <trkpt lat="45.96522" lon="4.60432">
        <ele>380.5</ele>
        <time>2015-04-05T08:35:21Z</time>
      </trkpt>
      <trkpt lat="45.96505" lon="4.60402">
        <ele>376.4</ele>
        <time>2015-04-05T08:35:26Z</time>
      </trkpt>
      <trkpt lat="45.96488" lon="4.6038">
        <ele>374.4</ele>
        <time>2015-04-05T08:35:31Z</time>
      </trkpt>
      <trkpt lat="45.96467" lon="4.60368">
        <ele>370.3</ele>
        <time>2015-04-05T08:35:36Z</time>
      </trkpt>
      <trkpt lat="45.96462" lon="4.60342">
        <ele>367.2</ele>
        <time>2015-04-05T08:35:41Z</time>
      </trkpt>
      <trkpt lat="45.96457" lon="4.6032">
        <ele>367.2</ele>
        <time>2015-04-05T08:35:46Z</time>
      </trkpt>
      <trkpt lat="45.96457" lon="4.603">
        <ele>366.2</ele>
        <time>2015-04-05T08:35:51Z</time>
      </trkpt>
      <trkpt lat="45.96452" lon="4.60285">
        <ele>366.5</ele>
        <time>2015-04-05T08:35:56Z</time>
      </trkpt>
      <trkpt lat="45.96433" lon="4.6028">
        <ele>362.5</ele>
        <time>2015-04-05T08:36:01Z</time>
      </trkpt>
      <trkpt lat="45.9641" lon="4.60278">
        <ele>359.9</ele>
        <time>2015-04-05T08:36:06Z</time>
      </trkpt>
      <trkpt lat="45.96392" lon="4.60275">
        <ele>359.5</ele>
        <time>2015-04-05T08:36:11Z</time>
      </trkpt>
      <trkpt lat="45.96372" lon="4.60273">
        <ele>361.6</ele>
        <time>2015-04-05T08:36:16Z</time>
      </trkpt>
      <trkpt lat="45.96355" lon="4.60273">
        <ele>359.9</ele>
        <time>2015-04-05T08:36:21Z</time>
      </trkpt>
      <trkpt lat="45.9633" lon="4.60282">
        <ele>358.7</ele>
        <time>2015-04-05T08:36:26Z</time>
      </trkpt>
      <trkpt lat="45.96308" lon="4.60293">
        <ele>358.7</ele>
        <time>2015-04-05T08:36:31Z</time>
      </trkpt>
      <trkpt lat="45.96305" lon="4.60318">
        <ele>354.7</ele>
        <time>2015-04-05T08:36:36Z</time>
      </trkpt>
      <trkpt lat="45.9628" lon="4.60315">
        <ele>349.7</ele>
        <time>2015-04-05T08:36:41Z</time>
      </trkpt>
      <trkpt lat="45.96257" lon="4.60302">
        <ele>346.8</ele>
        <time>2015-04-05T08:36:46Z</time>
      </trkpt>
      <trkpt lat="45.96238" lon="4.60295">
        <ele>340.7</ele>
        <time>2015-04-05T08:36:51Z</time>
      </trkpt>
      <trkpt lat="45.9622" lon="4.60308">
        <ele>334.3</ele>
        <time>2015-04-05T08:36:56Z</time>
      </trkpt>
      <trkpt lat="45.96215" lon="4.60328">
        <ele>329.1</ele>
        <time>2015-04-05T08:37:01Z</time>
      </trkpt>
      <trkpt lat="45.96205" lon="4.6036">
        <ele>329.1</ele>
        <time>2015-04-05T08:37:06Z</time>
      </trkpt>
      <trkpt lat="45.96193" lon="4.60378">
        <ele>325.2</ele>
        <time>2015-04-05T08:37:11Z</time>
      </trkpt>
      <trkpt lat="45.96182" lon="4.60398">
        <ele>325.2</ele>
        <time>2015-04-05T08:37:16Z</time>
      </trkpt>
      <trkpt lat="45.96172" lon="4.60425">
        <ele>322.7</ele>
        <time>2015-04-05T08:37:21Z</time>
      </trkpt>
      <trkpt lat="45.96163" lon="4.60455">
        <ele>323.4</ele>
        <time>2015-04-05T08:37:26Z</time>
      </trkpt>
      <trkpt lat="45.96153" lon="4.60485">
        <ele>319.6</ele>
        <time>2015-04-05T08:37:31Z</time>
      </trkpt>
      <trkpt lat="45.96147" lon="4.6052">
        <ele>319</ele>
        <time>2015-04-05T08:37:36Z</time>
      </trkpt>
      <trkpt lat="45.96135" lon="4.60555">
        <ele>317.7</ele>
        <time>2015-04-05T08:37:41Z</time>
      </trkpt>
      <trkpt lat="45.96123" lon="4.60585">
        <ele>318</ele>
        <time>2015-04-05T08:37:46Z</time>
      </trkpt>
      <trkpt lat="45.96112" lon="4.60613">
        <ele>318.7</ele>
        <time>2015-04-05T08:37:51Z</time>
      </trkpt>
      <trkpt lat="45.96097" lon="4.6064">
        <ele>320.3</ele>
        <time>2015-04-05T08:37:56Z</time>
      </trkpt>
      <trkpt lat="45.96082" lon="4.60667">
        <ele>321.7</ele>
        <time>2015-04-05T08:38:01Z</time>
      </trkpt>
      <trkpt lat="45.96065" lon="4.60695">
        <ele>322.8</ele>
        <time>2015-04-05T08:38:06Z</time>
      </trkpt>
      <trkpt lat="45.9605" lon="4.60725">
        <ele>323.4</ele>
        <time>2015-04-05T08:38:11Z</time>
      </trkpt>
      <trkpt lat="45.9604" lon="4.60757">
        <ele>324.3</ele>
        <time>2015-04-05T08:38:16Z</time>
      </trkpt>
      <trkpt lat="45.9603" lon="4.60788">
        <ele>325.6</ele>
        <time>2015-04-05T08:38:21Z</time>
      </trkpt>
      <trkpt lat="45.96018" lon="4.60817">
        <ele>326</ele>
        <time>2015-04-05T08:38:26Z</time>
      </trkpt>
      <trkpt lat="45.96002" lon="4.6084">
        <ele>328.4</ele>
        <time>2015-04-05T08:38:31Z</time>
      </trkpt>
      <trkpt lat="45.95982" lon="4.60852">
        <ele>329.3</ele>
        <time>2015-04-05T08:38:36Z</time>
      </trkpt>
      <trkpt lat="45.95962" lon="4.60855">
        <ele>330.6</ele>
        <time>2015-04-05T08:38:41Z</time>
      </trkpt>
      <trkpt lat="45.95943" lon="4.60852">
        <ele>329.9</ele>
        <time>2015-04-05T08:38:46Z</time>
      </trkpt>
      <trkpt lat="45.95928" lon="4.60843">
        <ele>330.4</ele>
        <time>2015-04-05T08:38:51Z</time>
      </trkpt>
      <trkpt lat="45.95912" lon="4.60833">
        <ele>331.2</ele>
        <time>2015-04-05T08:38:56Z</time>
      </trkpt>
      <trkpt lat="45.95895" lon="4.60823">
        <ele>331.2</ele>
        <time>2015-04-05T08:39:01Z</time>
      </trkpt>
      <trkpt lat="45.95877" lon="4.60815">
        <ele>333.3</ele>
        <time>2015-04-05T08:39:06Z</time>
      </trkpt>
      <trkpt lat="45.9586" lon="4.60812">
        <ele>333.4</ele>
        <time>2015-04-05T08:39:11Z</time>
      </trkpt>
      <trkpt lat="45.9584" lon="4.6081">
        <ele>333.4</ele>
        <time>2015-04-05T08:39:16Z</time>
      </trkpt>
      <trkpt lat="45.9582" lon="4.60805">
        <ele>333.9</ele>
        <time>2015-04-05T08:39:21Z</time>
      </trkpt>
      <trkpt lat="45.95798" lon="4.60802">
        <ele>332.9</ele>
        <time>2015-04-05T08:39:26Z</time>
      </trkpt>
      <trkpt lat="45.95773" lon="4.60795">
        <ele>334.2</ele>
        <time>2015-04-05T08:39:31Z</time>
      </trkpt>
      <trkpt lat="45.9575" lon="4.60792">
        <ele>331.1</ele>
        <time>2015-04-05T08:39:36Z</time>
      </trkpt>
      <trkpt lat="45.95723" lon="4.60788">
        <ele>334.6</ele>
        <time>2015-04-05T08:39:41Z</time>
      </trkpt>
      <trkpt lat="45.95698" lon="4.60785">
        <ele>330.3</ele>
        <time>2015-04-05T08:39:46Z</time>
      </trkpt>
      <trkpt lat="45.95673" lon="4.60782">
        <ele>333.3</ele>
        <time>2015-04-05T08:39:51Z</time>
      </trkpt>
      <trkpt lat="45.95648" lon="4.60782">
        <ele>333.6</ele>
        <time>2015-04-05T08:39:56Z</time>
      </trkpt>
      <trkpt lat="45.95623" lon="4.60777">
        <ele>334</ele>
        <time>2015-04-05T08:40:01Z</time>
      </trkpt>
      <trkpt lat="45.95602" lon="4.60773">
        <ele>333.7</ele>
        <time>2015-04-05T08:40:06Z</time>
      </trkpt>
      <trkpt lat="45.95583" lon="4.60773">
        <ele>333.2</ele>
        <time>2015-04-05T08:40:11Z</time>
      </trkpt>
      <trkpt lat="45.95563" lon="4.60777">
        <ele>333</ele>
        <time>2015-04-05T08:40:16Z</time>
      </trkpt>
      <trkpt lat="45.95545" lon="4.6078">
        <ele>334.5</ele>
        <time>2015-04-05T08:40:21Z</time>
      </trkpt>
      <trkpt lat="45.95527" lon="4.60793">
        <ele>335.5</ele>
        <time>2015-04-05T08:40:26Z</time>
      </trkpt>
      <trkpt lat="45.9551" lon="4.60813">
        <ele>334.1</ele>
        <time>2015-04-05T08:40:31Z</time>
      </trkpt>
      <trkpt lat="45.95497" lon="4.60842">
        <ele>335</ele>
        <time>2015-04-05T08:40:36Z</time>
      </trkpt>
      <trkpt lat="45.95487" lon="4.60868">
        <ele>335</ele>
        <time>2015-04-05T08:40:41Z</time>
      </trkpt>
      <trkpt lat="45.95478" lon="4.60893">
        <ele>333.3</ele>
        <time>2015-04-05T08:40:46Z</time>
      </trkpt>
      <trkpt lat="45.9547" lon="4.60923">
        <ele>332.7</ele>
        <time>2015-04-05T08:40:51Z</time>
      </trkpt>
      <trkpt lat="45.95467" lon="4.60957">
        <ele>336.1</ele>
        <time>2015-04-05T08:40:56Z</time>
      </trkpt>
      <trkpt lat="45.95468" lon="4.60993">
        <ele>333.6</ele>
        <time>2015-04-05T08:41:01Z</time>
      </trkpt>
      <trkpt lat="45.95473" lon="4.6103">
        <ele>333.6</ele>
        <time>2015-04-05T08:41:06Z</time>
      </trkpt>
      <trkpt lat="45.9548" lon="4.61068">
        <ele>330.9</ele>
        <time>2015-04-05T08:41:11Z</time>
      </trkpt>
      <trkpt lat="45.95487" lon="4.61105">
        <ele>331.7</ele>
        <time>2015-04-05T08:41:16Z</time>
      </trkpt>
      <trkpt lat="45.95487" lon="4.6114">
        <ele>330.9</ele>
        <time>2015-04-05T08:41:21Z</time>
      </trkpt>
      <trkpt lat="45.95485" lon="4.61175">
        <ele>329.8</ele>
        <time>2015-04-05T08:41:26Z</time>
      </trkpt>
      <trkpt lat="45.95487" lon="4.6121">
        <ele>332.4</ele>
        <time>2015-04-05T08:41:31Z</time>
      </trkpt>
      <trkpt lat="45.95493" lon="4.61247">
        <ele>331.8</ele>
        <time>2015-04-05T08:41:36Z</time>
      </trkpt>
      <trkpt lat="45.95507" lon="4.61277">
        <ele>331.8</ele>
        <time>2015-04-05T08:41:41Z</time>
      </trkpt>
      <trkpt lat="45.9552" lon="4.61302">
        <ele>331.2</ele>
        <time>2015-04-05T08:41:46Z</time>
      </trkpt>
      <trkpt lat="45.95525" lon="4.61318">
        <ele>331.5</ele>
        <time>2015-04-05T08:41:51Z</time>
      </trkpt>
      <trkpt lat="45.95528" lon="4.6133">
        <ele>333.6</ele>
        <time>2015-04-05T08:41:56Z</time>
      </trkpt>
      <trkpt lat="45.95535" lon="4.61338">
        <ele>334</ele>
        <time>2015-04-05T08:42:01Z</time>
      </trkpt>
      <trkpt lat="45.95537" lon="4.61348">
        <ele>331</ele>
        <time>2015-04-05T08:42:06Z</time>
      </trkpt>
      <trkpt lat="45.95542" lon="4.6136">
        <ele>335.5</ele>
        <time>2015-04-05T08:42:11Z</time>
      </trkpt>
      <trkpt lat="45.95545" lon="4.61373">
        <ele>335.6</ele>
        <time>2015-04-05T08:42:16Z</time>
      </trkpt>
      <trkpt lat="45.95548" lon="4.61392">
        <ele>335.9</ele>
        <time>2015-04-05T08:42:21Z</time>
      </trkpt>
      <trkpt lat="45.95553" lon="4.6142">
        <ele>335.8</ele>
        <time>2015-04-05T08:42:26Z</time>
      </trkpt>
      <trkpt lat="45.95558" lon="4.61468">
        <ele>333.3</ele>
        <time>2015-04-05T08:42:31Z</time>
      </trkpt>
      <trkpt lat="45.95553" lon="4.61518">
        <ele>328.7</ele>
        <time>2015-04-05T08:42:36Z</time>
      </trkpt>
      <trkpt lat="45.9554" lon="4.61563">
        <ele>328</ele>
        <time>2015-04-05T08:42:41Z</time>
      </trkpt>
      <trkpt lat="45.9552" lon="4.61593">
        <ele>327</ele>
        <time>2015-04-05T08:42:46Z</time>
      </trkpt>
      <trkpt lat="45.95495" lon="4.61623">
        <ele>330.6</ele>
        <time>2015-04-05T08:42:51Z</time>
      </trkpt>
      <trkpt lat="45.9546" lon="4.61645">
        <ele>325.8</ele>
        <time>2015-04-05T08:42:56Z</time>
      </trkpt>
      <trkpt lat="45.95418" lon="4.61647">
        <ele>325.8</ele>
        <time>2015-04-05T08:43:01Z</time>
      </trkpt>
      <trkpt lat="45.95382" lon="4.61645">
        <ele>324.8</ele>
        <time>2015-04-05T08:43:06Z</time>
      </trkpt>
      <trkpt lat="45.9535" lon="4.61642">
        <ele>324.8</ele>
        <time>2015-04-05T08:43:11Z</time>
      </trkpt>
      <trkpt lat="45.9532" lon="4.61643">
        <ele>323.5</ele>
        <time>2015-04-05T08:43:16Z</time>
      </trkpt>
      <trkpt lat="45.95293" lon="4.61648">
        <ele>327.2</ele>
        <time>2015-04-05T08:43:21Z</time>
      </trkpt>
      <trkpt lat="45.95268" lon="4.61653">
        <ele>324.1</ele>
        <time>2015-04-05T08:43:26Z</time>
      </trkpt>
      <trkpt lat="45.95243" lon="4.61677">
        <ele>325.2</ele>
        <time>2015-04-05T08:43:31Z</time>
      </trkpt>
      <trkpt lat="45.95222" lon="4.61707">
        <ele>323.2</ele>
        <time>2015-04-05T08:43:36Z</time>
      </trkpt>
      <trkpt lat="45.95202" lon="4.61743">
        <ele>324.2</ele>
        <time>2015-04-05T08:43:41Z</time>
      </trkpt>
      <trkpt lat="45.9519" lon="4.61785">
        <ele>323.5</ele>
        <time>2015-04-05T08:43:46Z</time>
      </trkpt>
      <trkpt lat="45.95178" lon="4.61817">
        <ele>325</ele>
        <time>2015-04-05T08:43:51Z</time>
      </trkpt>
      <trkpt lat="45.9517" lon="4.61843">
        <ele>325.9</ele>
        <time>2015-04-05T08:43:56Z</time>
      </trkpt>
      <trkpt lat="45.9516" lon="4.61862">
        <ele>323.3</ele>
        <time>2015-04-05T08:44:01Z</time>
      </trkpt>
      <trkpt lat="45.95147" lon="4.61887">
        <ele>323.3</ele>
        <time>2015-04-05T08:44:06Z</time>
      </trkpt>
      <trkpt lat="45.95133" lon="4.61913">
        <ele>324.4</ele>
        <time>2015-04-05T08:44:11Z</time>
      </trkpt>
      <trkpt lat="45.9511" lon="4.61927">
        <ele>319.9</ele>
        <time>2015-04-05T08:44:16Z</time>
      </trkpt>
      <trkpt lat="45.95083" lon="4.61935">
        <ele>323.5</ele>
        <time>2015-04-05T08:44:21Z</time>
      </trkpt>
      <trkpt lat="45.95055" lon="4.61942">
        <ele>322.5</ele>
        <time>2015-04-05T08:44:26Z</time>
      </trkpt>
      <trkpt lat="45.95027" lon="4.61955">
        <ele>323</ele>
        <time>2015-04-05T08:44:31Z</time>
      </trkpt>
      <trkpt lat="45.94995" lon="4.6197">
        <ele>320.4</ele>
        <time>2015-04-05T08:44:36Z</time>
      </trkpt>
      <trkpt lat="45.94965" lon="4.61987">
        <ele>322.9</ele>
        <time>2015-04-05T08:44:41Z</time>
      </trkpt>
      <trkpt lat="45.9493" lon="4.61997">
        <ele>321.9</ele>
        <time>2015-04-05T08:44:46Z</time>
      </trkpt>
      <trkpt lat="45.94895" lon="4.61993">
        <ele>320.9</ele>
        <time>2015-04-05T08:44:51Z</time>
      </trkpt>
      <trkpt lat="45.94863" lon="4.61988">
        <ele>316.5</ele>
        <time>2015-04-05T08:44:56Z</time>
      </trkpt>
      <trkpt lat="45.94832" lon="4.61967">
        <ele>318</ele>
        <time>2015-04-05T08:45:01Z</time>
      </trkpt>
      <trkpt lat="45.948" lon="4.61945">
        <ele>313.8</ele>
        <time>2015-04-05T08:45:06Z</time>
      </trkpt>
      <trkpt lat="45.9477" lon="4.61935">
        <ele>312.3</ele>
        <time>2015-04-05T08:45:11Z</time>
      </trkpt>
      <trkpt lat="45.94738" lon="4.61937">
        <ele>316.2</ele>
        <time>2015-04-05T08:45:16Z</time>
      </trkpt>
      <trkpt lat="45.94707" lon="4.61952">
        <ele>311.3</ele>
        <time>2015-04-05T08:45:21Z</time>
      </trkpt>
      <trkpt lat="45.9468" lon="4.61983">
        <ele>312.3</ele>
        <time>2015-04-05T08:45:26Z</time>
      </trkpt>
      <trkpt lat="45.94655" lon="4.62018">
        <ele>313.1</ele>
        <time>2015-04-05T08:45:31Z</time>
      </trkpt>
      <trkpt lat="45.94623" lon="4.62042">
        <ele>313.5</ele>
        <time>2015-04-05T08:45:36Z</time>
      </trkpt>
      <trkpt lat="45.94588" lon="4.62057">
        <ele>312.2</ele>
        <time>2015-04-05T08:45:41Z</time>
      </trkpt>
      <trkpt lat="45.94552" lon="4.62077">
        <ele>309.6</ele>
        <time>2015-04-05T08:45:46Z</time>
      </trkpt>
      <trkpt lat="45.94513" lon="4.62103">
        <ele>311</ele>
        <time>2015-04-05T08:45:51Z</time>
      </trkpt>
      <trkpt lat="45.94482" lon="4.6214">
        <ele>309.6</ele>
        <time>2015-04-05T08:45:56Z</time>
      </trkpt>
      <trkpt lat="45.94447" lon="4.62163">
        <ele>308</ele>
        <time>2015-04-05T08:46:01Z</time>
      </trkpt>
      <trkpt lat="45.94418" lon="4.62175">
        <ele>305.7</ele>
        <time>2015-04-05T08:46:06Z</time>
      </trkpt>
      <trkpt lat="45.94412" lon="4.6217">
        <ele>305.9</ele>
        <time>2015-04-05T08:46:11Z</time>
      </trkpt>
      <trkpt lat="45.94417" lon="4.62173">
        <ele>306.8</ele>
        <time>2015-04-05T08:46:16Z</time>
      </trkpt>
      <trkpt lat="45.94428" lon="4.62172">
        <ele>308.6</ele>
        <time>2015-04-05T08:46:21Z</time>
      </trkpt>
      <trkpt lat="45.94423" lon="4.6217">
        <ele>305.5</ele>
        <time>2015-04-05T08:46:26Z</time>
      </trkpt>
      <trkpt lat="45.94402" lon="4.62177">
        <ele>308.3</ele>
        <time>2015-04-05T08:46:31Z</time>
      </trkpt>
      <trkpt lat="45.94377" lon="4.6218">
        <ele>305.3</ele>
        <time>2015-04-05T08:46:36Z</time>
      </trkpt>
      <trkpt lat="45.94353" lon="4.62182">
        <ele>305.4</ele>
        <time>2015-04-05T08:46:41Z</time>
      </trkpt>
      <trkpt lat="45.9433" lon="4.62185">
        <ele>306.6</ele>
        <time>2015-04-05T08:46:46Z</time>
      </trkpt>
      <trkpt lat="45.94303" lon="4.62192">
        <ele>305.6</ele>
        <time>2015-04-05T08:46:51Z</time>
      </trkpt>
      <trkpt lat="45.94275" lon="4.62198">
        <ele>304.9</ele>
        <time>2015-04-05T08:46:56Z</time>
      </trkpt>
      <trkpt lat="45.94263" lon="4.62225">
        <ele>306.9</ele>
        <time>2015-04-05T08:47:01Z</time>
      </trkpt>
      <trkpt lat="45.94262" lon="4.62278">
        <ele>298.8</ele>
        <time>2015-04-05T08:47:06Z</time>
      </trkpt>
      <trkpt lat="45.94258" lon="4.62332">
        <ele>286</ele>
        <time>2015-04-05T08:47:11Z</time>
      </trkpt>
      <trkpt lat="45.94238" lon="4.62368">
        <ele>283.2</ele>
        <time>2015-04-05T08:47:16Z</time>
      </trkpt>
      <trkpt lat="45.94225" lon="4.62388">
        <ele>284.2</ele>
        <time>2015-04-05T08:47:21Z</time>
      </trkpt>
      <trkpt lat="45.94225" lon="4.62407">
        <ele>283.9</ele>
        <time>2015-04-05T08:47:26Z</time>
      </trkpt>
      <trkpt lat="45.94212" lon="4.62442">
        <ele>279.9</ele>
        <time>2015-04-05T08:47:31Z</time>
      </trkpt>
      <trkpt lat="45.94198" lon="4.62482">
        <ele>277.9</ele>
        <time>2015-04-05T08:47:36Z</time>
      </trkpt>
      <trkpt lat="45.94177" lon="4.62513">
        <ele>277.7</ele>
        <time>2015-04-05T08:47:41Z</time>
      </trkpt>
      <trkpt lat="45.9414" lon="4.62502">
        <ele>276.7</ele>
        <time>2015-04-05T08:47:46Z</time>
      </trkpt>
      <trkpt lat="45.941" lon="4.62488">
        <ele>270.3</ele>
        <time>2015-04-05T08:47:51Z</time>
      </trkpt>
      <trkpt lat="45.94083" lon="4.62512">
        <ele>268.3</ele>
        <time>2015-04-05T08:47:56Z</time>
      </trkpt>
      <trkpt lat="45.94058" lon="4.62515">
        <ele>268.3</ele>
        <time>2015-04-05T08:48:01Z</time>
      </trkpt>
      <trkpt lat="45.94038" lon="4.62535">
        <ele>265.7</ele>
        <time>2015-04-05T08:48:06Z</time>
      </trkpt>
      <trkpt lat="45.94023" lon="4.6257">
        <ele>265</ele>
        <time>2015-04-05T08:48:11Z</time>
      </trkpt>
      <trkpt lat="45.94" lon="4.626">
        <ele>261.4</ele>
        <time>2015-04-05T08:48:16Z</time>
      </trkpt>
      <trkpt lat="45.93987" lon="4.62642">
        <ele>257.9</ele>
        <time>2015-04-05T08:48:21Z</time>
      </trkpt>
      <trkpt lat="45.93992" lon="4.62672">
        <ele>257.3</ele>
        <time>2015-04-05T08:48:26Z</time>
      </trkpt>
      <trkpt lat="45.93995" lon="4.62698">
        <ele>259.3</ele>
        <time>2015-04-05T08:48:31Z</time>
      </trkpt>
      <trkpt lat="45.93988" lon="4.62742">
        <ele>258.6</ele>
        <time>2015-04-05T08:48:36Z</time>
      </trkpt>
      <trkpt lat="45.93978" lon="4.62783">
        <ele>257.2</ele>
        <time>2015-04-05T08:48:41Z</time>
      </trkpt>
      <trkpt lat="45.93963" lon="4.62777">
        <ele>255.7</ele>
        <time>2015-04-05T08:48:46Z</time>
      </trkpt>
      <trkpt lat="45.93947" lon="4.62758">
        <ele>257.4</ele>
        <time>2015-04-05T08:48:51Z</time>
      </trkpt>
      <trkpt lat="45.93935" lon="4.62768">
        <ele>257.5</ele>
        <time>2015-04-05T08:48:56Z</time>
      </trkpt>
      <trkpt lat="45.93927" lon="4.6281">
        <ele>256.5</ele>
        <time>2015-04-05T08:49:01Z</time>
      </trkpt>
      <trkpt lat="45.93915" lon="4.62858">
        <ele>256.5</ele>
        <time>2015-04-05T08:49:06Z</time>
      </trkpt>
      <trkpt lat="45.93903" lon="4.62913">
        <ele>255.5</ele>
        <time>2015-04-05T08:49:11Z</time>
      </trkpt>
      <trkpt lat="45.93885" lon="4.6295">
        <ele>251.4</ele>
        <time>2015-04-05T08:49:16Z</time>
      </trkpt>
      <trkpt lat="45.93862" lon="4.62938">
        <ele>251.1</ele>
        <time>2015-04-05T08:49:21Z</time>
      </trkpt>
      <trkpt lat="45.9384" lon="4.6293">
        <ele>251.6</ele>
        <time>2015-04-05T08:49:26Z</time>
      </trkpt>
      <trkpt lat="45.93825" lon="4.6294">
        <ele>252.6</ele>
        <time>2015-04-05T08:49:31Z</time>
      </trkpt>
      <trkpt lat="45.93817" lon="4.62973">
        <ele>250.6</ele>
        <time>2015-04-05T08:49:36Z</time>
      </trkpt>
      <trkpt lat="45.93793" lon="4.62973">
        <ele>251.9</ele>
        <time>2015-04-05T08:49:41Z</time>
      </trkpt>
      <trkpt lat="45.93772" lon="4.62963">
        <ele>254.7</ele>
        <time>2015-04-05T08:49:46Z</time>
      </trkpt>
      <trkpt lat="45.9375" lon="4.62962">
        <ele>253.9</ele>
        <time>2015-04-05T08:49:51Z</time>
      </trkpt>
      <trkpt lat="45.9373" lon="4.6297">
        <ele>256.3</ele>
        <time>2015-04-05T08:49:56Z</time>
      </trkpt>
      <trkpt lat="45.93708" lon="4.62968">
        <ele>254.7</ele>
        <time>2015-04-05T08:50:01Z</time>
      </trkpt>
      <trkpt lat="45.93688" lon="4.62968">
        <ele>255.6</ele>
        <time>2015-04-05T08:50:06Z</time>
      </trkpt>
      <trkpt lat="45.93668" lon="4.62968">
        <ele>256.2</ele>
        <time>2015-04-05T08:50:11Z</time>
      </trkpt>
      <trkpt lat="45.93647" lon="4.6297">
        <ele>257.2</ele>
        <time>2015-04-05T08:50:16Z</time>
      </trkpt>
      <trkpt lat="45.9364" lon="4.62997">
        <ele>260.1</ele>
        <time>2015-04-05T08:50:21Z</time>
      </trkpt>
      <trkpt lat="45.93638" lon="4.63028">
        <ele>258.4</ele>
        <time>2015-04-05T08:50:26Z</time>
      </trkpt>
      <trkpt lat="45.93628" lon="4.6306">
        <ele>258.2</ele>
        <time>2015-04-05T08:50:31Z</time>
      </trkpt>
      <trkpt lat="45.93615" lon="4.63095">
        <ele>258.7</ele>
        <time>2015-04-05T08:50:36Z</time>
      </trkpt>
      <trkpt lat="45.93598" lon="4.63132">
        <ele>258.7</ele>
        <time>2015-04-05T08:50:41Z</time>
      </trkpt>
      <trkpt lat="45.93583" lon="4.63163">
        <ele>256.7</ele>
        <time>2015-04-05T08:50:46Z</time>
      </trkpt>
      <trkpt lat="45.93563" lon="4.63148">
        <ele>253.7</ele>
        <time>2015-04-05T08:50:51Z</time>
      </trkpt>
      <trkpt lat="45.93543" lon="4.6313">
        <ele>252.8</ele>
        <time>2015-04-05T08:50:56Z</time>
      </trkpt>
      <trkpt lat="45.93522" lon="4.63115">
        <ele>255.2</ele>
        <time>2015-04-05T08:51:01Z</time>
      </trkpt>
      <trkpt lat="45.93505" lon="4.63093">
        <ele>253.9</ele>
        <time>2015-04-05T08:51:06Z</time>
      </trkpt>
      <trkpt lat="45.93488" lon="4.63077">
        <ele>254.3</ele>
        <time>2015-04-05T08:51:11Z</time>
      </trkpt>
      <trkpt lat="45.93478" lon="4.63103">
        <ele>255.4</ele>
        <time>2015-04-05T08:51:16Z</time>
      </trkpt>
      <trkpt lat="45.93462" lon="4.63142">
        <ele>253.7</ele>
        <time>2015-04-05T08:51:21Z</time>
      </trkpt>
      <trkpt lat="45.9342" lon="4.63155">
        <ele>252.5</ele>
        <time>2015-04-05T08:51:26Z</time>
      </trkpt>
      <trkpt lat="45.93377" lon="4.6317">
        <ele>251.5</ele>
        <time>2015-04-05T08:51:31Z</time>
      </trkpt>
      <trkpt lat="45.93332" lon="4.63183">
        <ele>246.2</ele>
        <time>2015-04-05T08:51:36Z</time>
      </trkpt>
      <trkpt lat="45.93292" lon="4.63207">
        <ele>246.2</ele>
        <time>2015-04-05T08:51:41Z</time>
      </trkpt>
      <trkpt lat="45.93253" lon="4.6323">
        <ele>236.5</ele>
        <time>2015-04-05T08:51:46Z</time>
      </trkpt>
      <trkpt lat="45.93212" lon="4.63248">
        <ele>230.8</ele>
        <time>2015-04-05T08:51:51Z</time>
      </trkpt>
      <trkpt lat="45.93183" lon="4.63265">
        <ele>218.4</ele>
        <time>2015-04-05T08:51:56Z</time>
      </trkpt>
      <trkpt lat="45.93155" lon="4.63302">
        <ele>209.3</ele>
        <time>2015-04-05T08:52:01Z</time>
      </trkpt>
      <trkpt lat="45.9313" lon="4.63317">
        <ele>199</ele>
        <time>2015-04-05T08:52:06Z</time>
      </trkpt>
      <trkpt lat="45.93105" lon="4.63313">
        <ele>199</ele>
        <time>2015-04-05T08:52:11Z</time>
      </trkpt>
      <trkpt lat="45.931" lon="4.63317">
        <ele>199.5</ele>
        <time>2015-04-05T08:52:16Z</time>
      </trkpt>
      <trkpt lat="45.93098" lon="4.6332">
        <ele>200.9</ele>
        <time>2015-04-05T08:52:21Z</time>
      </trkpt>
      <trkpt lat="45.93097" lon="4.63327">
        <ele>202.8</ele>
        <time>2015-04-05T08:52:26Z</time>
      </trkpt>
      <trkpt lat="45.93093" lon="4.63332">
        <ele>204.2</ele>
        <time>2015-04-05T08:52:31Z</time>
      </trkpt>
      <trkpt lat="45.93087" lon="4.6334">
        <ele>206.6</ele>
        <time>2015-04-05T08:52:36Z</time>
      </trkpt>
      <trkpt lat="45.93082" lon="4.6335">
        <ele>207.2</ele>
        <time>2015-04-05T08:52:41Z</time>
      </trkpt>
      <trkpt lat="45.9308" lon="4.6336">
        <ele>209</ele>
        <time>2015-04-05T08:52:46Z</time>
      </trkpt>
      <trkpt lat="45.9308" lon="4.63372">
        <ele>209.8</ele>
        <time>2015-04-05T08:52:51Z</time>
      </trkpt>
      <trkpt lat="45.93077" lon="4.63387">
        <ele>210.1</ele>
        <time>2015-04-05T08:52:56Z</time>
      </trkpt>
      <trkpt lat="45.93073" lon="4.63397">
        <ele>211.1</ele>
        <time>2015-04-05T08:53:01Z</time>
      </trkpt>
      <trkpt lat="45.93068" lon="4.63407">
        <ele>212.2</ele>
        <time>2015-04-05T08:53:06Z</time>
      </trkpt>
      <trkpt lat="45.93063" lon="4.63415">
        <ele>213.9</ele>
        <time>2015-04-05T08:53:11Z</time>
      </trkpt>
      <trkpt lat="45.93058" lon="4.63422">
        <ele>214.5</ele>
        <time>2015-04-05T08:53:16Z</time>
      </trkpt>
      <trkpt lat="45.93055" lon="4.6343">
        <ele>216.5</ele>
        <time>2015-04-05T08:53:21Z</time>
      </trkpt>
      <trkpt lat="45.9305" lon="4.63437">
        <ele>218.3</ele>
        <time>2015-04-05T08:53:26Z</time>
      </trkpt>
      <trkpt lat="45.93045" lon="4.63443">
        <ele>219.9</ele>
        <time>2015-04-05T08:53:31Z</time>
      </trkpt>
      <trkpt lat="45.93038" lon="4.63445">
        <ele>222.1</ele>
        <time>2015-04-05T08:53:36Z</time>
      </trkpt>
      <trkpt lat="45.93032" lon="4.63443">
        <ele>223.3</ele>
        <time>2015-04-05T08:53:41Z</time>
      </trkpt>
      <trkpt lat="45.93027" lon="4.63438">
        <ele>224.5</ele>
        <time>2015-04-05T08:53:46Z</time>
      </trkpt>
      <trkpt lat="45.93022" lon="4.63433">
        <ele>225.5</ele>
        <time>2015-04-05T08:53:51Z</time>
      </trkpt>
      <trkpt lat="45.93015" lon="4.6343">
        <ele>226.5</ele>
        <time>2015-04-05T08:53:56Z</time>
      </trkpt>
      <trkpt lat="45.9301" lon="4.63425">
        <ele>226.9</ele>
        <time>2015-04-05T08:54:01Z</time>
      </trkpt>
      <trkpt lat="45.93002" lon="4.6342">
        <ele>228.5</ele>
        <time>2015-04-05T08:54:06Z</time>
      </trkpt>
      <trkpt lat="45.92997" lon="4.63417">
        <ele>229.1</ele>
        <time>2015-04-05T08:54:11Z</time>
      </trkpt>
      <trkpt lat="45.9299" lon="4.63413">
        <ele>230.7</ele>
        <time>2015-04-05T08:54:16Z</time>
      </trkpt>
      <trkpt lat="45.92983" lon="4.63408">
        <ele>231</ele>
        <time>2015-04-05T08:54:21Z</time>
      </trkpt>
      <trkpt lat="45.92978" lon="4.63405">
        <ele>233</ele>
        <time>2015-04-05T08:54:26Z</time>
      </trkpt>
      <trkpt lat="45.9297" lon="4.63412">
        <ele>233.1</ele>
        <time>2015-04-05T08:54:31Z</time>
      </trkpt>
      <trkpt lat="45.92962" lon="4.63428">
        <ele>233.2</ele>
        <time>2015-04-05T08:54:36Z</time>
      </trkpt>
      <trkpt lat="45.9295" lon="4.63458">
        <ele>234</ele>
        <time>2015-04-05T08:54:41Z</time>
      </trkpt>
      <trkpt lat="45.92932" lon="4.63495">
        <ele>233.1</ele>
        <time>2015-04-05T08:54:46Z</time>
      </trkpt>
      <trkpt lat="45.92905" lon="4.63503">
        <ele>230.5</ele>
        <time>2015-04-05T08:54:51Z</time>
      </trkpt>
      <trkpt lat="45.92878" lon="4.6349">
        <ele>229.5</ele>
        <time>2015-04-05T08:54:56Z</time>
      </trkpt>
      <trkpt lat="45.92853" lon="4.63478">
        <ele>232.5</ele>
        <time>2015-04-05T08:55:01Z</time>
      </trkpt>
      <trkpt lat="45.92828" lon="4.63467">
        <ele>231.6</ele>
        <time>2015-04-05T08:55:06Z</time>
      </trkpt>
      <trkpt lat="45.92803" lon="4.63455">
        <ele>231.1</ele>
        <time>2015-04-05T08:55:11Z</time>
      </trkpt>
      <trkpt lat="45.9278" lon="4.63445">
        <ele>233.4</ele>
        <time>2015-04-05T08:55:16Z</time>
      </trkpt>
      <trkpt lat="45.92763" lon="4.63425">
        <ele>232.4</ele>
        <time>2015-04-05T08:55:21Z</time>
      </trkpt>
      <trkpt lat="45.9276" lon="4.63393">
        <ele>233.6</ele>
        <time>2015-04-05T08:55:26Z</time>
      </trkpt>
      <trkpt lat="45.92757" lon="4.6336">
        <ele>234.5</ele>
        <time>2015-04-05T08:55:31Z</time>
      </trkpt>
      <trkpt lat="45.92755" lon="4.63327">
        <ele>234.8</ele>
        <time>2015-04-05T08:55:36Z</time>
      </trkpt>
      <trkpt lat="45.92752" lon="4.63293">
        <ele>233.6</ele>
        <time>2015-04-05T08:55:41Z</time>
      </trkpt>
      <trkpt lat="45.92748" lon="4.6326">
        <ele>236.1</ele>
        <time>2015-04-05T08:55:46Z</time>
      </trkpt>
      <trkpt lat="45.92728" lon="4.63235">
        <ele>234.9</ele>
        <time>2015-04-05T08:55:51Z</time>
      </trkpt>
      <trkpt lat="45.92707" lon="4.63208">
        <ele>236.6</ele>
        <time>2015-04-05T08:55:56Z</time>
      </trkpt>
      <trkpt lat="45.9268" lon="4.63185">
        <ele>234.5</ele>
        <time>2015-04-05T08:56:01Z</time>
      </trkpt>
      <trkpt lat="45.92655" lon="4.63152">
        <ele>235.8</ele>
        <time>2015-04-05T08:56:06Z</time>
      </trkpt>
      <trkpt lat="45.92633" lon="4.63115">
        <ele>235.8</ele>
        <time>2015-04-05T08:56:11Z</time>
      </trkpt>
      <trkpt lat="45.9261" lon="4.6308">
        <ele>237.2</ele>
        <time>2015-04-05T08:56:16Z</time>
      </trkpt>
      <trkpt lat="45.92587" lon="4.63047">
        <ele>236.2</ele>
        <time>2015-04-05T08:56:21Z</time>
      </trkpt>
      <trkpt lat="45.92562" lon="4.63018">
        <ele>238.2</ele>
        <time>2015-04-05T08:56:26Z</time>
      </trkpt>
      <trkpt lat="45.92537" lon="4.62988">
        <ele>240.2</ele>
        <time>2015-04-05T08:56:31Z</time>
      </trkpt>
      <trkpt lat="45.92525" lon="4.62995">
        <ele>240.1</ele>
        <time>2015-04-05T08:56:36Z</time>
      </trkpt>
      <trkpt lat="45.9252" lon="4.63032">
        <ele>237.1</ele>
        <time>2015-04-05T08:56:41Z</time>
      </trkpt>
      <trkpt lat="45.92507" lon="4.63067">
        <ele>235.1</ele>
        <time>2015-04-05T08:56:46Z</time>
      </trkpt>
      <trkpt lat="45.92495" lon="4.631">
        <ele>235.1</ele>
        <time>2015-04-05T08:56:51Z</time>
      </trkpt>
      <trkpt lat="45.92483" lon="4.63125">
        <ele>231.2</ele>
        <time>2015-04-05T08:56:56Z</time>
      </trkpt>
      <trkpt lat="45.92478" lon="4.63135">
        <ele>233.7</ele>
        <time>2015-04-05T08:57:01Z</time>
      </trkpt>
      <trkpt lat="45.92477" lon="4.6314">
        <ele>234</ele>
        <time>2015-04-05T08:57:11Z</time>
      </trkpt>
      <trkpt lat="45.9247" lon="4.63158">
        <ele>232.8</ele>
        <time>2015-04-05T08:57:16Z</time>
      </trkpt>
      <trkpt lat="45.92453" lon="4.6318">
        <ele>231</ele>
        <time>2015-04-05T08:57:21Z</time>
      </trkpt>
      <trkpt lat="45.92433" lon="4.6321">
        <ele>233.1</ele>
        <time>2015-04-05T08:57:26Z</time>
      </trkpt>
      <trkpt lat="45.9241" lon="4.63218">
        <ele>230.4</ele>
        <time>2015-04-05T08:57:31Z</time>
      </trkpt>
      <trkpt lat="45.92382" lon="4.6321">
        <ele>231.3</ele>
        <time>2015-04-05T08:57:36Z</time>
      </trkpt>
      <trkpt lat="45.9235" lon="4.63202">
        <ele>230.4</ele>
        <time>2015-04-05T08:57:41Z</time>
      </trkpt>
      <trkpt lat="45.92315" lon="4.6319">
        <ele>230.9</ele>
        <time>2015-04-05T08:57:46Z</time>
      </trkpt>
      <trkpt lat="45.9228" lon="4.63182">
        <ele>229.1</ele>
        <time>2015-04-05T08:57:51Z</time>
      </trkpt>
      <trkpt lat="45.92238" lon="4.63177">
        <ele>228.5</ele>
        <time>2015-04-05T08:57:56Z</time>
      </trkpt>
      <trkpt lat="45.92198" lon="4.63175">
        <ele>228.9</ele>
        <time>2015-04-05T08:58:01Z</time>
      </trkpt>
      <trkpt lat="45.92162" lon="4.63175">
        <ele>229.1</ele>
        <time>2015-04-05T08:58:06Z</time>
      </trkpt>
      <trkpt lat="45.92128" lon="4.63173">
        <ele>229.1</ele>
        <time>2015-04-05T08:58:11Z</time>
      </trkpt>
      <trkpt lat="45.9211" lon="4.63145">
        <ele>228.6</ele>
        <time>2015-04-05T08:58:16Z</time>
      </trkpt>
      <trkpt lat="45.9208" lon="4.63137">
        <ele>229</ele>
        <time>2015-04-05T08:58:21Z</time>
      </trkpt>
      <trkpt lat="45.92047" lon="4.63137">
        <ele>229</ele>
        <time>2015-04-05T08:58:26Z</time>
      </trkpt>
      <trkpt lat="45.92013" lon="4.63137">
        <ele>228.8</ele>
        <time>2015-04-05T08:58:31Z</time>
      </trkpt>
      <trkpt lat="45.91977" lon="4.6314">
        <ele>229.4</ele>
        <time>2015-04-05T08:58:36Z</time>
      </trkpt>
      <trkpt lat="45.91943" lon="4.63143">
        <ele>227.4</ele>
        <time>2015-04-05T08:58:41Z</time>
      </trkpt>
      <trkpt lat="45.9192" lon="4.63155">
        <ele>227</ele>
        <time>2015-04-05T08:58:46Z</time>
      </trkpt>
      <trkpt lat="45.91895" lon="4.63173">
        <ele>228.9</ele>
        <time>2015-04-05T08:58:51Z</time>
      </trkpt>
      <trkpt lat="45.9188" lon="4.63175">
        <ele>228</ele>
        <time>2015-04-05T08:58:56Z</time>
      </trkpt>
      <trkpt lat="45.91862" lon="4.63148">
        <ele>229.6</ele>
        <time>2015-04-05T08:59:01Z</time>
      </trkpt>
      <trkpt lat="45.91838" lon="4.63118">
        <ele>229</ele>
        <time>2015-04-05T08:59:06Z</time>
      </trkpt>
      <trkpt lat="45.91817" lon="4.63097">
        <ele>229</ele>
        <time>2015-04-05T08:59:11Z</time>
      </trkpt>
      <trkpt lat="45.91798" lon="4.63067">
        <ele>228.8</ele>
        <time>2015-04-05T08:59:16Z</time>
      </trkpt>
      <trkpt lat="45.9178" lon="4.63027">
        <ele>227.9</ele>
        <time>2015-04-05T08:59:21Z</time>
      </trkpt>
      <trkpt lat="45.9176" lon="4.62985">
        <ele>226.7</ele>
        <time>2015-04-05T08:59:26Z</time>
      </trkpt>
      <trkpt lat="45.9173" lon="4.62948">
        <ele>222.1</ele>
        <time>2015-04-05T08:59:31Z</time>
      </trkpt>
      <trkpt lat="45.91698" lon="4.62907">
        <ele>222.1</ele>
        <time>2015-04-05T08:59:36Z</time>
      </trkpt>
      <trkpt lat="45.9165" lon="4.62883">
        <ele>213.1</ele>
        <time>2015-04-05T08:59:41Z</time>
      </trkpt>
      <trkpt lat="45.91605" lon="4.62887">
        <ele>212</ele>
        <time>2015-04-05T08:59:46Z</time>
      </trkpt>
      <trkpt lat="45.91573" lon="4.62907">
        <ele>213</ele>
        <time>2015-04-05T08:59:51Z</time>
      </trkpt>
      <trkpt lat="45.9155" lon="4.62925">
        <ele>214.9</ele>
        <time>2015-04-05T08:59:56Z</time>
      </trkpt>
      <trkpt lat="45.91523" lon="4.6294">
        <ele>218.3</ele>
        <time>2015-04-05T09:00:01Z</time>
      </trkpt>
      <trkpt lat="45.91497" lon="4.62937">
        <ele>213.4</ele>
        <time>2015-04-05T09:00:06Z</time>
      </trkpt>
      <trkpt lat="45.91472" lon="4.62923">
        <ele>215.7</ele>
        <time>2015-04-05T09:00:11Z</time>
      </trkpt>
      <trkpt lat="45.91448" lon="4.62912">
        <ele>218.1</ele>
        <time>2015-04-05T09:00:16Z</time>
      </trkpt>
      <trkpt lat="45.91425" lon="4.62905">
        <ele>220.1</ele>
        <time>2015-04-05T09:00:21Z</time>
      </trkpt>
      <trkpt lat="45.91403" lon="4.62905">
        <ele>221.1</ele>
        <time>2015-04-05T09:00:26Z</time>
      </trkpt>
      <trkpt lat="45.9138" lon="4.62892">
        <ele>217.8</ele>
        <time>2015-04-05T09:00:31Z</time>
      </trkpt>
      <trkpt lat="45.91365" lon="4.62865">
        <ele>219.7</ele>
        <time>2015-04-05T09:00:36Z</time>
      </trkpt>
      <trkpt lat="45.91342" lon="4.6285">
        <ele>220.7</ele>
        <time>2015-04-05T09:00:41Z</time>
      </trkpt>
      <trkpt lat="45.91317" lon="4.62837">
        <ele>220.2</ele>
        <time>2015-04-05T09:00:46Z</time>
      </trkpt>
      <trkpt lat="45.91297" lon="4.62822">
        <ele>220.2</ele>
        <time>2015-04-05T09:00:51Z</time>
      </trkpt>
      <trkpt lat="45.91277" lon="4.62825">
        <ele>220.2</ele>
        <time>2015-04-05T09:00:56Z</time>
      </trkpt>
      <trkpt lat="45.9125" lon="4.62832">
        <ele>219.5</ele>
        <time>2015-04-05T09:01:01Z</time>
      </trkpt>
      <trkpt lat="45.91222" lon="4.62843">
        <ele>218.2</ele>
        <time>2015-04-05T09:01:06Z</time>
      </trkpt>
      <trkpt lat="45.91197" lon="4.62863">
        <ele>219.2</ele>
        <time>2015-04-05T09:01:11Z</time>
      </trkpt>
      <trkpt lat="45.91177" lon="4.62893">
        <ele>219.2</ele>
        <time>2015-04-05T09:01:16Z</time>
      </trkpt>
      <trkpt lat="45.91158" lon="4.62927">
        <ele>218.2</ele>
        <time>2015-04-05T09:01:21Z</time>
      </trkpt>
      <trkpt lat="45.9114" lon="4.6296">
        <ele>213.1</ele>
        <time>2015-04-05T09:01:26Z</time>
      </trkpt>
      <trkpt lat="45.91117" lon="4.62987">
        <ele>217.1</ele>
        <time>2015-04-05T09:01:31Z</time>
      </trkpt>
      <trkpt lat="45.9109" lon="4.63013">
        <ele>218.1</ele>
        <time>2015-04-05T09:01:36Z</time>
      </trkpt>
      <trkpt lat="45.91065" lon="4.63038">
        <ele>212.9</ele>
        <time>2015-04-05T09:01:41Z</time>
      </trkpt>
      <trkpt lat="45.9104" lon="4.6307">
        <ele>211.7</ele>
        <time>2015-04-05T09:01:46Z</time>
      </trkpt>
      <trkpt lat="45.91013" lon="4.63093">
        <ele>209.1</ele>
        <time>2015-04-05T09:01:51Z</time>
      </trkpt>
      <trkpt lat="45.90983" lon="4.63105">
        <ele>209.1</ele>
        <time>2015-04-05T09:01:56Z</time>
      </trkpt>
      <trkpt lat="45.90953" lon="4.63122">
        <ele>207.9</ele>
        <time>2015-04-05T09:02:01Z</time>
      </trkpt>
      <trkpt lat="45.90925" lon="4.63143">
        <ele>209.3</ele>
        <time>2015-04-05T09:02:06Z</time>
      </trkpt>
      <trkpt lat="45.909" lon="4.63172">
        <ele>209.3</ele>
        <time>2015-04-05T09:02:11Z</time>
      </trkpt>
      <trkpt lat="45.9088" lon="4.6321">
        <ele>209.3</ele>
        <time>2015-04-05T09:02:16Z</time>
      </trkpt>
      <trkpt lat="45.90863" lon="4.6325">
        <ele>203.7</ele>
        <time>2015-04-05T09:02:21Z</time>
      </trkpt>
      <trkpt lat="45.90835" lon="4.63267">
        <ele>203.7</ele>
        <time>2015-04-05T09:02:26Z</time>
      </trkpt>
      <trkpt lat="45.90803" lon="4.63268">
        <ele>199.1</ele>
        <time>2015-04-05T09:02:31Z</time>
      </trkpt>
      <trkpt lat="45.90773" lon="4.6327">
        <ele>202.5</ele>
        <time>2015-04-05T09:02:36Z</time>
      </trkpt>
      <trkpt lat="45.9074" lon="4.63267">
        <ele>200.2</ele>
        <time>2015-04-05T09:02:41Z</time>
      </trkpt>
      <trkpt lat="45.90712" lon="4.6327">
        <ele>197</ele>
        <time>2015-04-05T09:02:46Z</time>
      </trkpt>
      <trkpt lat="45.9068" lon="4.63283">
        <ele>200.5</ele>
        <time>2015-04-05T09:02:51Z</time>
      </trkpt>
      <trkpt lat="45.90657" lon="4.63302">
        <ele>197.4</ele>
        <time>2015-04-05T09:02:56Z</time>
      </trkpt>
      <trkpt lat="45.90638" lon="4.63292">
        <ele>195.7</ele>
        <time>2015-04-05T09:03:01Z</time>
      </trkpt>
      <trkpt lat="45.90633" lon="4.63267">
        <ele>197.9</ele>
        <time>2015-04-05T09:03:06Z</time>
      </trkpt>
      <trkpt lat="45.90633" lon="4.63238">
        <ele>198.9</ele>
        <time>2015-04-05T09:03:11Z</time>
      </trkpt>
      <trkpt lat="45.90633" lon="4.63212">
        <ele>200.5</ele>
        <time>2015-04-05T09:03:16Z</time>
      </trkpt>
      <trkpt lat="45.90637" lon="4.63183">
        <ele>201</ele>
        <time>2015-04-05T09:03:21Z</time>
      </trkpt>
      <trkpt lat="45.90638" lon="4.63155">
        <ele>200.5</ele>
        <time>2015-04-05T09:03:26Z</time>
      </trkpt>
      <trkpt lat="45.90643" lon="4.63128">
        <ele>204.4</ele>
        <time>2015-04-05T09:03:31Z</time>
      </trkpt>
      <trkpt lat="45.9065" lon="4.63105">
        <ele>205.7</ele>
        <time>2015-04-05T09:03:36Z</time>
      </trkpt>
      <trkpt lat="45.90655" lon="4.63082">
        <ele>203.2</ele>
        <time>2015-04-05T09:03:41Z</time>
      </trkpt>
      <trkpt lat="45.90662" lon="4.63055">
        <ele>205.9</ele>
        <time>2015-04-05T09:03:46Z</time>
      </trkpt>
      <trkpt lat="45.90672" lon="4.63028">
        <ele>204.8</ele>
        <time>2015-04-05T09:03:51Z</time>
      </trkpt>
      <trkpt lat="45.90682" lon="4.6301">
        <ele>205.3</ele>
        <time>2015-04-05T09:03:56Z</time>
      </trkpt>
      <trkpt lat="45.90695" lon="4.62985">
        <ele>206.3</ele>
        <time>2015-04-05T09:04:01Z</time>
      </trkpt>
      <trkpt lat="45.90705" lon="4.62958">
        <ele>205.9</ele>
        <time>2015-04-05T09:04:06Z</time>
      </trkpt>
      <trkpt lat="45.9071" lon="4.62928">
        <ele>205.4</ele>
        <time>2015-04-05T09:04:11Z</time>
      </trkpt>
      <trkpt lat="45.90713" lon="4.62898">
        <ele>206.4</ele>
        <time>2015-04-05T09:04:16Z</time>
      </trkpt>
      <trkpt lat="45.90717" lon="4.62865">
        <ele>208.1</ele>
        <time>2015-04-05T09:04:21Z</time>
      </trkpt>
      <trkpt lat="45.9072" lon="4.62827">
        <ele>204.4</ele>
        <time>2015-04-05T09:04:26Z</time>
      </trkpt>
      <trkpt lat="45.90723" lon="4.62785">
        <ele>206.4</ele>
        <time>2015-04-05T09:04:31Z</time>
      </trkpt>
      <trkpt lat="45.9073" lon="4.62743">
        <ele>208.7</ele>
        <time>2015-04-05T09:04:36Z</time>
      </trkpt>
      <trkpt lat="45.90738" lon="4.62705">
        <ele>204.7</ele>
        <time>2015-04-05T09:04:41Z</time>
      </trkpt>
      <trkpt lat="45.90743" lon="4.6267">
        <ele>207.9</ele>
        <time>2015-04-05T09:04:46Z</time>
      </trkpt>
      <trkpt lat="45.90743" lon="4.62637">
        <ele>206.9</ele>
        <time>2015-04-05T09:04:51Z</time>
      </trkpt>
      <trkpt lat="45.90742" lon="4.62603">
        <ele>207.9</ele>
        <time>2015-04-05T09:04:56Z</time>
      </trkpt>
      <trkpt lat="45.90742" lon="4.6257">
        <ele>209</ele>
        <time>2015-04-05T09:05:01Z</time>
      </trkpt>
      <trkpt lat="45.90742" lon="4.6254">
        <ele>210.5</ele>
        <time>2015-04-05T09:05:06Z</time>
      </trkpt>
      <trkpt lat="45.90742" lon="4.62512">
        <ele>212</ele>
        <time>2015-04-05T09:05:11Z</time>
      </trkpt>
      <trkpt lat="45.90742" lon="4.62485">
        <ele>211.9</ele>
        <time>2015-04-05T09:05:16Z</time>
      </trkpt>
      <trkpt lat="45.90742" lon="4.6246">
        <ele>212.3</ele>
        <time>2015-04-05T09:05:21Z</time>
      </trkpt>
      <trkpt lat="45.90733" lon="4.62447">
        <ele>213.3</ele>
        <time>2015-04-05T09:05:26Z</time>
      </trkpt>
      <trkpt lat="45.90718" lon="4.62472">
        <ele>212.7</ele>
        <time>2015-04-05T09:05:31Z</time>
      </trkpt>
      <trkpt lat="45.90698" lon="4.62503">
        <ele>211.4</ele>
        <time>2015-04-05T09:05:36Z</time>
      </trkpt>
      <trkpt lat="45.90677" lon="4.6254">
        <ele>211.3</ele>
        <time>2015-04-05T09:05:41Z</time>
      </trkpt>
      <trkpt lat="45.90653" lon="4.62578">
        <ele>210</ele>
        <time>2015-04-05T09:05:46Z</time>
      </trkpt>
      <trkpt lat="45.9063" lon="4.62617">
        <ele>207.9</ele>
        <time>2015-04-05T09:05:51Z</time>
      </trkpt>
      <trkpt lat="45.90608" lon="4.62655">
        <ele>211.2</ele>
        <time>2015-04-05T09:05:56Z</time>
      </trkpt>
      <trkpt lat="45.90585" lon="4.6269">
        <ele>208.2</ele>
        <time>2015-04-05T09:06:01Z</time>
      </trkpt>
      <trkpt lat="45.90563" lon="4.62728">
        <ele>208</ele>
        <time>2015-04-05T09:06:06Z</time>
      </trkpt>
      <trkpt lat="45.90542" lon="4.62767">
        <ele>207</ele>
        <time>2015-04-05T09:06:11Z</time>
      </trkpt>
      <trkpt lat="45.90518" lon="4.62807">
        <ele>206.3</ele>
        <time>2015-04-05T09:06:16Z</time>
      </trkpt>
      <trkpt lat="45.90495" lon="4.62847">
        <ele>205</ele>
        <time>2015-04-05T09:06:21Z</time>
      </trkpt>
      <trkpt lat="45.90465" lon="4.62865">
        <ele>204</ele>
        <time>2015-04-05T09:06:26Z</time>
      </trkpt>
      <trkpt lat="45.90453" lon="4.62848">
        <ele>203</ele>
        <time>2015-04-05T09:06:31Z</time>
      </trkpt>
      <trkpt lat="45.90443" lon="4.62833">
        <ele>205.2</ele>
        <time>2015-04-05T09:06:36Z</time>
      </trkpt>
      <trkpt lat="45.90418" lon="4.62822">
        <ele>205.1</ele>
        <time>2015-04-05T09:06:41Z</time>
      </trkpt>
      <trkpt lat="45.90397" lon="4.62815">
        <ele>204.8</ele>
        <time>2015-04-05T09:06:46Z</time>
      </trkpt>
      <trkpt lat="45.90375" lon="4.62808">
        <ele>206.7</ele>
        <time>2015-04-05T09:06:51Z</time>
      </trkpt>
      <trkpt lat="45.90352" lon="4.62798">
        <ele>205.7</ele>
        <time>2015-04-05T09:06:56Z</time>
      </trkpt>
      <trkpt lat="45.90332" lon="4.62792">
        <ele>204.8</ele>
        <time>2015-04-05T09:07:01Z</time>
      </trkpt>
      <trkpt lat="45.90312" lon="4.62788">
        <ele>206.1</ele>
        <time>2015-04-05T09:07:06Z</time>
      </trkpt>
      <trkpt lat="45.90293" lon="4.62785">
        <ele>208.3</ele>
        <time>2015-04-05T09:07:11Z</time>
      </trkpt>
      <trkpt lat="45.90278" lon="4.62782">
        <ele>206.7</ele>
        <time>2015-04-05T09:07:16Z</time>
      </trkpt>
      <trkpt lat="45.90262" lon="4.62778">
        <ele>206.2</ele>
        <time>2015-04-05T09:07:21Z</time>
      </trkpt>
      <trkpt lat="45.90247" lon="4.6278">
        <ele>206.2</ele>
        <time>2015-04-05T09:07:26Z</time>
      </trkpt>
      <trkpt lat="45.90232" lon="4.62787">
        <ele>206.5</ele>
        <time>2015-04-05T09:07:31Z</time>
      </trkpt>
      <trkpt lat="45.90215" lon="4.62785">
        <ele>207.3</ele>
        <time>2015-04-05T09:07:36Z</time>
      </trkpt>
      <trkpt lat="45.90197" lon="4.62783">
        <ele>208.2</ele>
        <time>2015-04-05T09:07:41Z</time>
      </trkpt>
      <trkpt lat="45.90178" lon="4.62782">
        <ele>208.2</ele>
        <time>2015-04-05T09:07:46Z</time>
      </trkpt>
      <trkpt lat="45.90162" lon="4.62777">
        <ele>207.4</ele>
        <time>2015-04-05T09:07:51Z</time>
      </trkpt>
      <trkpt lat="45.90147" lon="4.62768">
        <ele>209</ele>
        <time>2015-04-05T09:07:56Z</time>
      </trkpt>
      <trkpt lat="45.9014" lon="4.62747">
        <ele>208</ele>
        <time>2015-04-05T09:08:01Z</time>
      </trkpt>
      <trkpt lat="45.9013" lon="4.62737">
        <ele>207</ele>
        <time>2015-04-05T09:08:06Z</time>
      </trkpt>
      <trkpt lat="45.90127" lon="4.62732">
        <ele>208.2</ele>
        <time>2015-04-05T09:08:11Z</time>
      </trkpt>
      <trkpt lat="45.90128" lon="4.6273">
        <ele>208.8</ele>
        <time>2015-04-05T09:08:16Z</time>
      </trkpt>
      <trkpt lat="45.90122" lon="4.62722">
        <ele>207.3</ele>
        <time>2015-04-05T09:08:21Z</time>
      </trkpt>
      <trkpt lat="45.90105" lon="4.62705">
        <ele>208.3</ele>
        <time>2015-04-05T09:08:26Z</time>
      </trkpt>
      <trkpt lat="45.90087" lon="4.6269">
        <ele>207.5</ele>
        <time>2015-04-05T09:08:31Z</time>
      </trkpt>
      <trkpt lat="45.90063" lon="4.62677">
        <ele>207.4</ele>
        <time>2015-04-05T09:08:36Z</time>
      </trkpt>
      <trkpt lat="45.90037" lon="4.62658">
        <ele>207.9</ele>
        <time>2015-04-05T09:08:41Z</time>
      </trkpt>
      <trkpt lat="45.90007" lon="4.62635">
        <ele>205.9</ele>
        <time>2015-04-05T09:08:46Z</time>
      </trkpt>
      <trkpt lat="45.89975" lon="4.62615">
        <ele>208.3</ele>
        <time>2015-04-05T09:08:51Z</time>
      </trkpt>
      <trkpt lat="45.89942" lon="4.62593">
        <ele>206.2</ele>
        <time>2015-04-05T09:08:56Z</time>
      </trkpt>
      <trkpt lat="45.89908" lon="4.6257">
        <ele>205.6</ele>
        <time>2015-04-05T09:09:01Z</time>
      </trkpt>
      <trkpt lat="45.89875" lon="4.62563">
        <ele>203.6</ele>
        <time>2015-04-05T09:09:06Z</time>
      </trkpt>
      <trkpt lat="45.89857" lon="4.62607">
        <ele>204.5</ele>
        <time>2015-04-05T09:09:11Z</time>
      </trkpt>
      <trkpt lat="45.8984" lon="4.62652">
        <ele>203.9</ele>
        <time>2015-04-05T09:09:16Z</time>
      </trkpt>
      <trkpt lat="45.89825" lon="4.62697">
        <ele>204.2</ele>
        <time>2015-04-05T09:09:21Z</time>
      </trkpt>
      <trkpt lat="45.89808" lon="4.62743">
        <ele>204.2</ele>
        <time>2015-04-05T09:09:26Z</time>
      </trkpt>
      <trkpt lat="45.89792" lon="4.62785">
        <ele>204.1</ele>
        <time>2015-04-05T09:09:31Z</time>
      </trkpt>
      <trkpt lat="45.89777" lon="4.62827">
        <ele>202.9</ele>
        <time>2015-04-05T09:09:36Z</time>
      </trkpt>
      <trkpt lat="45.89763" lon="4.62868">
        <ele>202.9</ele>
        <time>2015-04-05T09:09:41Z</time>
      </trkpt>
      <trkpt lat="45.89755" lon="4.62903">
        <ele>201.8</ele>
        <time>2015-04-05T09:09:46Z</time>
      </trkpt>
      <trkpt lat="45.89762" lon="4.62918">
        <ele>199.1</ele>
        <time>2015-04-05T09:09:51Z</time>
      </trkpt>
      <trkpt lat="45.89762" lon="4.62937">
        <ele>200.1</ele>
        <time>2015-04-05T09:09:56Z</time>
      </trkpt>
      <trkpt lat="45.89758" lon="4.62948">
        <ele>198.9</ele>
        <time>2015-04-05T09:10:01Z</time>
      </trkpt>
      <trkpt lat="45.8976" lon="4.62973">
        <ele>200.4</ele>
        <time>2015-04-05T09:10:06Z</time>
      </trkpt>
      <trkpt lat="45.89758" lon="4.63">
        <ele>198</ele>
        <time>2015-04-05T09:10:11Z</time>
      </trkpt>
      <trkpt lat="45.89758" lon="4.63023">
        <ele>198.4</ele>
        <time>2015-04-05T09:10:16Z</time>
      </trkpt>
      <trkpt lat="45.89757" lon="4.63027">
        <ele>198.7</ele>
        <time>2015-04-05T09:10:21Z</time>
      </trkpt>
      <trkpt lat="45.89757" lon="4.6303">
        <ele>197.7</ele>
        <time>2015-04-05T09:10:26Z</time>
      </trkpt>
      <trkpt lat="45.89755" lon="4.63042">
        <ele>198.8</ele>
        <time>2015-04-05T09:10:31Z</time>
      </trkpt>
      <trkpt lat="45.89755" lon="4.63047">
        <ele>198.5</ele>
        <time>2015-04-05T09:10:41Z</time>
      </trkpt>
      <trkpt lat="45.89755" lon="4.63068">
        <ele>198</ele>
        <time>2015-04-05T09:10:46Z</time>
      </trkpt>
      <trkpt lat="45.89757" lon="4.63085">
        <ele>197.4</ele>
        <time>2015-04-05T09:10:51Z</time>
      </trkpt>
      <trkpt lat="45.89755" lon="4.63103">
        <ele>197.4</ele>
        <time>2015-04-05T09:10:56Z</time>
      </trkpt>
      <trkpt lat="45.89755" lon="4.63132">
        <ele>197.6</ele>
        <time>2015-04-05T09:11:01Z</time>
      </trkpt>
      <trkpt lat="45.89752" lon="4.63158">
        <ele>196</ele>
        <time>2015-04-05T09:11:06Z</time>
      </trkpt>
      <trkpt lat="45.89753" lon="4.63173">
        <ele>196</ele>
        <time>2015-04-05T09:11:11Z</time>
      </trkpt>
      <trkpt lat="45.89753" lon="4.63192">
        <ele>197</ele>
        <time>2015-04-05T09:11:16Z</time>
      </trkpt>
      <trkpt lat="45.89753" lon="4.6321">
        <ele>197.6</ele>
        <time>2015-04-05T09:11:21Z</time>
      </trkpt>
      <trkpt lat="45.89752" lon="4.63232">
        <ele>194.9</ele>
        <time>2015-04-05T09:11:26Z</time>
      </trkpt>
      <trkpt lat="45.89752" lon="4.63257">
        <ele>195.4</ele>
        <time>2015-04-05T09:11:31Z</time>
      </trkpt>
      <trkpt lat="45.8975" lon="4.63287">
        <ele>195.9</ele>
        <time>2015-04-05T09:11:36Z</time>
      </trkpt>
      <trkpt lat="45.8975" lon="4.63318">
        <ele>193.5</ele>
        <time>2015-04-05T09:11:41Z</time>
      </trkpt>
      <trkpt lat="45.89748" lon="4.63353">
        <ele>191.6</ele>
        <time>2015-04-05T09:11:46Z</time>
      </trkpt>
      <trkpt lat="45.89743" lon="4.6338">
        <ele>193</ele>
        <time>2015-04-05T09:11:51Z</time>
      </trkpt>
      <trkpt lat="45.89737" lon="4.6339">
        <ele>191.5</ele>
        <time>2015-04-05T09:11:56Z</time>
      </trkpt>
      <trkpt lat="45.89732" lon="4.63398">
        <ele>191.5</ele>
        <time>2015-04-05T09:12:11Z</time>
      </trkpt>
      <trkpt lat="45.89713" lon="4.6341">
        <ele>195.2</ele>
        <time>2015-04-05T09:12:16Z</time>
      </trkpt>
      <trkpt lat="45.89693" lon="4.6342">
        <ele>192.2</ele>
        <time>2015-04-05T09:12:21Z</time>
      </trkpt>
      <trkpt lat="45.89673" lon="4.63428">
        <ele>193.6</ele>
        <time>2015-04-05T09:12:26Z</time>
      </trkpt>
      <trkpt lat="45.89653" lon="4.63437">
        <ele>195.9</ele>
        <time>2015-04-05T09:12:31Z</time>
      </trkpt>
      <trkpt lat="45.8963" lon="4.63442">
        <ele>195.5</ele>
        <time>2015-04-05T09:12:36Z</time>
      </trkpt>
      <trkpt lat="45.89608" lon="4.63438">
        <ele>196</ele>
        <time>2015-04-05T09:12:41Z</time>
      </trkpt>
      <trkpt lat="45.89587" lon="4.63435">
        <ele>196</ele>
        <time>2015-04-05T09:12:46Z</time>
      </trkpt>
      <trkpt lat="45.89582" lon="4.63452">
        <ele>197.3</ele>
        <time>2015-04-05T09:12:51Z</time>
      </trkpt>
      <trkpt lat="45.89567" lon="4.63468">
        <ele>193.2</ele>
        <time>2015-04-05T09:12:56Z</time>
      </trkpt>
      <trkpt lat="45.89545" lon="4.63475">
        <ele>193.8</ele>
        <time>2015-04-05T09:13:01Z</time>
      </trkpt>
      <trkpt lat="45.89525" lon="4.6348">
        <ele>195</ele>
        <time>2015-04-05T09:13:06Z</time>
      </trkpt>
      <trkpt lat="45.89508" lon="4.63478">
        <ele>195.1</ele>
        <time>2015-04-05T09:13:11Z</time>
      </trkpt>
      <trkpt lat="45.89495" lon="4.63483">
        <ele>196.3</ele>
        <time>2015-04-05T09:13:16Z</time>
      </trkpt>
      <trkpt lat="45.89492" lon="4.63493">
        <ele>194.7</ele>
        <time>2015-04-05T09:13:21Z</time>
      </trkpt>
      <trkpt lat="45.89497" lon="4.63518">
        <ele>196</ele>
        <time>2015-04-05T09:13:26Z</time>
      </trkpt>
      <trkpt lat="45.89482" lon="4.63535">
        <ele>194.8</ele>
        <time>2015-04-05T09:13:31Z</time>
      </trkpt>
      <trkpt lat="45.89465" lon="4.63547">
        <ele>192</ele>
        <time>2015-04-05T09:13:36Z</time>
      </trkpt>
      <trkpt lat="45.89463" lon="4.6355">
        <ele>192.9</ele>
        <time>2015-04-05T09:13:41Z</time>
      </trkpt>
      <trkpt lat="45.89463" lon="4.63552">
        <ele>193.9</ele>
        <time>2015-04-05T09:17:46Z</time>
      </trkpt>
      <trkpt lat="45.89458" lon="4.63553">
        <ele>193.1</ele>
        <time>2015-04-05T09:17:51Z</time>
      </trkpt>
      <trkpt lat="45.8946" lon="4.63578">
        <ele>192.7</ele>
        <time>2015-04-05T09:17:56Z</time>
      </trkpt>
      <trkpt lat="45.89462" lon="4.63622">
        <ele>191.3</ele>
        <time>2015-04-05T09:18:01Z</time>
      </trkpt>
      <trkpt lat="45.89463" lon="4.63673">
        <ele>187.8</ele>
        <time>2015-04-05T09:18:06Z</time>
      </trkpt>
      <trkpt lat="45.89465" lon="4.63727">
        <ele>184</ele>
        <time>2015-04-05T09:18:11Z</time>
      </trkpt>
      <trkpt lat="45.89458" lon="4.63775">
        <ele>186</ele>
        <time>2015-04-05T09:18:16Z</time>
      </trkpt>
      <trkpt lat="45.8945" lon="4.63818">
        <ele>185.2</ele>
        <time>2015-04-05T09:18:21Z</time>
      </trkpt>
      <trkpt lat="45.89442" lon="4.63858">
        <ele>187.1</ele>
        <time>2015-04-05T09:18:26Z</time>
      </trkpt>
      <trkpt lat="45.89428" lon="4.63895">
        <ele>185.6</ele>
        <time>2015-04-05T09:18:31Z</time>
      </trkpt>
      <trkpt lat="45.89413" lon="4.63928">
        <ele>183.6</ele>
        <time>2015-04-05T09:18:36Z</time>
      </trkpt>
      <trkpt lat="45.89395" lon="4.6395">
        <ele>183.8</ele>
        <time>2015-04-05T09:18:41Z</time>
      </trkpt>
      <trkpt lat="45.89373" lon="4.63963">
        <ele>184.4</ele>
        <time>2015-04-05T09:18:46Z</time>
      </trkpt>
      <trkpt lat="45.8935" lon="4.63973">
        <ele>184.4</ele>
        <time>2015-04-05T09:18:51Z</time>
      </trkpt>
      <trkpt lat="45.89323" lon="4.63988">
        <ele>182.4</ele>
        <time>2015-04-05T09:18:56Z</time>
      </trkpt>
      <trkpt lat="45.89293" lon="4.64003">
        <ele>180.6</ele>
        <time>2015-04-05T09:19:01Z</time>
      </trkpt>
      <trkpt lat="45.89263" lon="4.64015">
        <ele>180.6</ele>
        <time>2015-04-05T09:19:06Z</time>
      </trkpt>
      <trkpt lat="45.89237" lon="4.64028">
        <ele>184.2</ele>
        <time>2015-04-05T09:19:11Z</time>
      </trkpt>
      <trkpt lat="45.8922" lon="4.6406">
        <ele>182.6</ele>
        <time>2015-04-05T09:19:16Z</time>
      </trkpt>
      <trkpt lat="45.89208" lon="4.6411">
        <ele>179.6</ele>
        <time>2015-04-05T09:19:21Z</time>
      </trkpt>
      <trkpt lat="45.89195" lon="4.64167">
        <ele>177.6</ele>
        <time>2015-04-05T09:19:26Z</time>
      </trkpt>
      <trkpt lat="45.89183" lon="4.64222">
        <ele>173.2</ele>
        <time>2015-04-05T09:19:31Z</time>
      </trkpt>
      <trkpt lat="45.8917" lon="4.6427">
        <ele>169.8</ele>
        <time>2015-04-05T09:19:36Z</time>
      </trkpt>
      <trkpt lat="45.89153" lon="4.64307">
        <ele>168.9</ele>
        <time>2015-04-05T09:19:41Z</time>
      </trkpt>
      <trkpt lat="45.89132" lon="4.64343">
        <ele>170.1</ele>
        <time>2015-04-05T09:19:46Z</time>
      </trkpt>
      <trkpt lat="45.89102" lon="4.64358">
        <ele>169</ele>
        <time>2015-04-05T09:19:51Z</time>
      </trkpt>
      <trkpt lat="45.89073" lon="4.64372">
        <ele>164.5</ele>
        <time>2015-04-05T09:19:56Z</time>
      </trkpt>
      <trkpt lat="45.89038" lon="4.64368">
        <ele>157.7</ele>
        <time>2015-04-05T09:20:01Z</time>
      </trkpt>
      <trkpt lat="45.89" lon="4.64358">
        <ele>154.7</ele>
        <time>2015-04-05T09:20:06Z</time>
      </trkpt>
      <trkpt lat="45.8896" lon="4.64352">
        <ele>141</ele>
        <time>2015-04-05T09:20:11Z</time>
      </trkpt>
      <trkpt lat="45.88927" lon="4.64352">
        <ele>133.7</ele>
        <time>2015-04-05T09:20:16Z</time>
      </trkpt>
      <trkpt lat="45.88927" lon="4.6436">
        <ele>129.7</ele>
        <time>2015-04-05T09:20:21Z</time>
      </trkpt>
      <trkpt lat="45.88947" lon="4.64377">
        <ele>122.7</ele>
        <time>2015-04-05T09:20:26Z</time>
      </trkpt>
      <trkpt lat="45.88953" lon="4.64418">
        <ele>124</ele>
        <time>2015-04-05T09:20:31Z</time>
      </trkpt>
      <trkpt lat="45.8895" lon="4.6447">
        <ele>122.7</ele>
        <time>2015-04-05T09:20:36Z</time>
      </trkpt>
      <trkpt lat="45.88933" lon="4.64492">
        <ele>126.5</ele>
        <time>2015-04-05T09:20:41Z</time>
      </trkpt>
      <trkpt lat="45.8892" lon="4.64507">
        <ele>128</ele>
        <time>2015-04-05T09:20:46Z</time>
      </trkpt>
      <trkpt lat="45.88907" lon="4.64517">
        <ele>132</ele>
        <time>2015-04-05T09:20:51Z</time>
      </trkpt>
      <trkpt lat="45.88895" lon="4.64523">
        <ele>133.9</ele>
        <time>2015-04-05T09:20:56Z</time>
      </trkpt>
      <trkpt lat="45.88883" lon="4.6453">
        <ele>134.3</ele>
        <time>2015-04-05T09:21:01Z</time>
      </trkpt>
      <trkpt lat="45.88872" lon="4.64535">
        <ele>136</ele>
        <time>2015-04-05T09:21:06Z</time>
      </trkpt>
      <trkpt lat="45.8886" lon="4.6454">
        <ele>136.7</ele>
        <time>2015-04-05T09:21:11Z</time>
      </trkpt>
      <trkpt lat="45.88848" lon="4.64547">
        <ele>138.6</ele>
        <time>2015-04-05T09:21:16Z</time>
      </trkpt>
      <trkpt lat="45.88835" lon="4.64553">
        <ele>140</ele>
        <time>2015-04-05T09:21:21Z</time>
      </trkpt>
      <trkpt lat="45.88823" lon="4.64563">
        <ele>141</ele>
        <time>2015-04-05T09:21:26Z</time>
      </trkpt>
      <trkpt lat="45.88815" lon="4.6458">
        <ele>142.3</ele>
        <time>2015-04-05T09:21:31Z</time>
      </trkpt>
      <trkpt lat="45.88807" lon="4.64595">
        <ele>143.9</ele>
        <time>2015-04-05T09:21:36Z</time>
      </trkpt>
      <trkpt lat="45.88798" lon="4.64607">
        <ele>145.1</ele>
        <time>2015-04-05T09:21:41Z</time>
      </trkpt>
      <trkpt lat="45.8879" lon="4.64617">
        <ele>144.4</ele>
        <time>2015-04-05T09:21:46Z</time>
      </trkpt>
      <trkpt lat="45.8878" lon="4.64627">
        <ele>146.9</ele>
        <time>2015-04-05T09:21:51Z</time>
      </trkpt>
      <trkpt lat="45.88772" lon="4.64638">
        <ele>148.4</ele>
        <time>2015-04-05T09:21:56Z</time>
      </trkpt>
      <trkpt lat="45.88763" lon="4.64652">
        <ele>150.3</ele>
        <time>2015-04-05T09:22:01Z</time>
      </trkpt>
      <trkpt lat="45.88755" lon="4.64665">
        <ele>149.3</ele>
        <time>2015-04-05T09:22:06Z</time>
      </trkpt>
      <trkpt lat="45.88747" lon="4.6468">
        <ele>152.2</ele>
        <time>2015-04-05T09:22:11Z</time>
      </trkpt>
      <trkpt lat="45.88737" lon="4.64692">
        <ele>153.5</ele>
        <time>2015-04-05T09:22:16Z</time>
      </trkpt>
      <trkpt lat="45.88727" lon="4.64705">
        <ele>155.2</ele>
        <time>2015-04-05T09:22:21Z</time>
      </trkpt>
      <trkpt lat="45.88715" lon="4.64718">
        <ele>156.9</ele>
        <time>2015-04-05T09:22:26Z</time>
      </trkpt>
      <trkpt lat="45.88703" lon="4.64728">
        <ele>156.9</ele>
        <time>2015-04-05T09:22:31Z</time>
      </trkpt>
      <trkpt lat="45.88688" lon="4.64738">
        <ele>156.7</ele>
        <time>2015-04-05T09:22:36Z</time>
      </trkpt>
      <trkpt lat="45.88673" lon="4.64743">
        <ele>157.9</ele>
        <time>2015-04-05T09:22:41Z</time>
      </trkpt>
      <trkpt lat="45.8866" lon="4.64747">
        <ele>158.1</ele>
        <time>2015-04-05T09:22:46Z</time>
      </trkpt>
      <trkpt lat="45.88645" lon="4.64753">
        <ele>159.9</ele>
        <time>2015-04-05T09:22:51Z</time>
      </trkpt>
      <trkpt lat="45.8863" lon="4.64762">
        <ele>160.6</ele>
        <time>2015-04-05T09:22:56Z</time>
      </trkpt>
      <trkpt lat="45.88617" lon="4.6477">
        <ele>162.6</ele>
        <time>2015-04-05T09:23:01Z</time>
      </trkpt>
      <trkpt lat="45.88605" lon="4.64775">
        <ele>165.4</ele>
        <time>2015-04-05T09:23:06Z</time>
      </trkpt>
      <trkpt lat="45.88597" lon="4.64782">
        <ele>165.2</ele>
        <time>2015-04-05T09:23:11Z</time>
      </trkpt>
      <trkpt lat="45.88588" lon="4.6479">
        <ele>166.8</ele>
        <time>2015-04-05T09:23:16Z</time>
      </trkpt>
      <trkpt lat="45.8858" lon="4.648">
        <ele>168.7</ele>
        <time>2015-04-05T09:23:21Z</time>
      </trkpt>
      <trkpt lat="45.88573" lon="4.64808">
        <ele>170.2</ele>
        <time>2015-04-05T09:23:26Z</time>
      </trkpt>
      <trkpt lat="45.88567" lon="4.64818">
        <ele>171.5</ele>
        <time>2015-04-05T09:23:31Z</time>
      </trkpt>
      <trkpt lat="45.88557" lon="4.64828">
        <ele>173.3</ele>
        <time>2015-04-05T09:23:36Z</time>
      </trkpt>
      <trkpt lat="45.88548" lon="4.64835">
        <ele>174</ele>
        <time>2015-04-05T09:23:41Z</time>
      </trkpt>
      <trkpt lat="45.8854" lon="4.64843">
        <ele>175.2</ele>
        <time>2015-04-05T09:23:46Z</time>
      </trkpt>
      <trkpt lat="45.88533" lon="4.64848">
        <ele>176.1</ele>
        <time>2015-04-05T09:23:51Z</time>
      </trkpt>
      <trkpt lat="45.88525" lon="4.64857">
        <ele>177.3</ele>
        <time>2015-04-05T09:23:56Z</time>
      </trkpt>
      <trkpt lat="45.88517" lon="4.64865">
        <ele>178.6</ele>
        <time>2015-04-05T09:24:01Z</time>
      </trkpt>
      <trkpt lat="45.8851" lon="4.64873">
        <ele>179.6</ele>
        <time>2015-04-05T09:24:06Z</time>
      </trkpt>
      <trkpt lat="45.88503" lon="4.64882">
        <ele>180.5</ele>
        <time>2015-04-05T09:24:11Z</time>
      </trkpt>
      <trkpt lat="45.88495" lon="4.6489">
        <ele>181.4</ele>
        <time>2015-04-05T09:24:16Z</time>
      </trkpt>
      <trkpt lat="45.88487" lon="4.649">
        <ele>183.6</ele>
        <time>2015-04-05T09:24:21Z</time>
      </trkpt>
      <trkpt lat="45.88482" lon="4.64912">
        <ele>184.6</ele>
        <time>2015-04-05T09:24:26Z</time>
      </trkpt>
      <trkpt lat="45.88475" lon="4.64923">
        <ele>186.5</ele>
        <time>2015-04-05T09:24:31Z</time>
      </trkpt>
      <trkpt lat="45.88463" lon="4.6492">
        <ele>186.5</ele>
        <time>2015-04-05T09:24:36Z</time>
      </trkpt>
      <trkpt lat="45.88447" lon="4.64902">
        <ele>184.9</ele>
        <time>2015-04-05T09:24:41Z</time>
      </trkpt>
      <trkpt lat="45.88418" lon="4.6488">
        <ele>180.7</ele>
        <time>2015-04-05T09:24:46Z</time>
      </trkpt>
      <trkpt lat="45.88395" lon="4.64895">
        <ele>179.6</ele>
        <time>2015-04-05T09:24:51Z</time>
      </trkpt>
      <trkpt lat="45.88373" lon="4.64913">
        <ele>176.3</ele>
        <time>2015-04-05T09:24:56Z</time>
      </trkpt>
      <trkpt lat="45.8836" lon="4.64915">
        <ele>174.1</ele>
        <time>2015-04-05T09:25:01Z</time>
      </trkpt>
      <trkpt lat="45.88337" lon="4.64922">
        <ele>176.2</ele>
        <time>2015-04-05T09:25:06Z</time>
      </trkpt>
      <trkpt lat="45.88317" lon="4.6492">
        <ele>173.4</ele>
        <time>2015-04-05T09:25:11Z</time>
      </trkpt>
      <trkpt lat="45.88303" lon="4.64918">
        <ele>170.3</ele>
        <time>2015-04-05T09:25:16Z</time>
      </trkpt>
      <trkpt lat="45.8829" lon="4.6489">
        <ele>166.5</ele>
        <time>2015-04-05T09:25:21Z</time>
      </trkpt>
      <trkpt lat="45.8828" lon="4.64862">
        <ele>161.8</ele>
        <time>2015-04-05T09:25:26Z</time>
      </trkpt>
      <trkpt lat="45.88282" lon="4.64833">
        <ele>156.6</ele>
        <time>2015-04-05T09:25:31Z</time>
      </trkpt>
      <trkpt lat="45.88287" lon="4.64815">
        <ele>152.7</ele>
        <time>2015-04-05T09:25:36Z</time>
      </trkpt>
      <trkpt lat="45.88287" lon="4.64817">
        <ele>152.2</ele>
        <time>2015-04-05T09:26:06Z</time>
      </trkpt>
      <trkpt lat="45.88285" lon="4.64792">
        <ele>148.7</ele>
        <time>2015-04-05T09:26:11Z</time>
      </trkpt>
      <trkpt lat="45.8826" lon="4.64788">
        <ele>148.7</ele>
        <time>2015-04-05T09:26:16Z</time>
      </trkpt>
      <trkpt lat="45.88228" lon="4.64795">
        <ele>136.4</ele>
        <time>2015-04-05T09:26:21Z</time>
      </trkpt>
      <trkpt lat="45.8819" lon="4.64785">
        <ele>130.2</ele>
        <time>2015-04-05T09:26:26Z</time>
      </trkpt>
      <trkpt lat="45.88157" lon="4.64755">
        <ele>120</ele>
        <time>2015-04-05T09:26:31Z</time>
      </trkpt>
      <trkpt lat="45.88133" lon="4.64738">
        <ele>113.6</ele>
        <time>2015-04-05T09:26:36Z</time>
      </trkpt>
      <trkpt lat="45.88118" lon="4.64717">
        <ele>112.1</ele>
        <time>2015-04-05T09:26:41Z</time>
      </trkpt>
      <trkpt lat="45.88097" lon="4.647">
        <ele>110.6</ele>
        <time>2015-04-05T09:26:46Z</time>
      </trkpt>
      <trkpt lat="45.88082" lon="4.64688">
        <ele>110.6</ele>
        <time>2015-04-05T09:26:51Z</time>
      </trkpt>
      <trkpt lat="45.88058" lon="4.64693">
        <ele>110.1</ele>
        <time>2015-04-05T09:26:56Z</time>
      </trkpt>
      <trkpt lat="45.88035" lon="4.64702">
        <ele>109.9</ele>
        <time>2015-04-05T09:27:01Z</time>
      </trkpt>
      <trkpt lat="45.8801" lon="4.64708">
        <ele>110</ele>
        <time>2015-04-05T09:27:06Z</time>
      </trkpt>
      <trkpt lat="45.87997" lon="4.647">
        <ele>109.9</ele>
        <time>2015-04-05T09:27:11Z</time>
      </trkpt>
      <trkpt lat="45.8799" lon="4.64675">
        <ele>111</ele>
        <time>2015-04-05T09:27:16Z</time>
      </trkpt>
      <trkpt lat="45.87975" lon="4.64663">
        <ele>110.7</ele>
        <time>2015-04-05T09:27:21Z</time>
      </trkpt>
      <trkpt lat="45.87957" lon="4.64665">
        <ele>111.8</ele>
        <time>2015-04-05T09:27:26Z</time>
      </trkpt>
      <trkpt lat="45.87937" lon="4.64677">
        <ele>111.5</ele>
        <time>2015-04-05T09:27:31Z</time>
      </trkpt>
      <trkpt lat="45.87912" lon="4.64685">
        <ele>109.6</ele>
        <time>2015-04-05T09:27:36Z</time>
      </trkpt>
      <trkpt lat="45.87887" lon="4.64685">
        <ele>110.2</ele>
        <time>2015-04-05T09:27:41Z</time>
      </trkpt>
      <trkpt lat="45.87863" lon="4.6468">
        <ele>108.8</ele>
        <time>2015-04-05T09:27:46Z</time>
      </trkpt>
      <trkpt lat="45.87848" lon="4.64665">
        <ele>109.4</ele>
        <time>2015-04-05T09:27:51Z</time>
      </trkpt>
      <trkpt lat="45.87837" lon="4.64652">
        <ele>111.5</ele>
        <time>2015-04-05T09:27:56Z</time>
      </trkpt>
      <trkpt lat="45.87823" lon="4.64638">
        <ele>113.5</ele>
        <time>2015-04-05T09:28:01Z</time>
      </trkpt>
      <trkpt lat="45.87812" lon="4.64627">
        <ele>115</ele>
        <time>2015-04-05T09:28:06Z</time>
      </trkpt>
      <trkpt lat="45.87797" lon="4.64615">
        <ele>115.3</ele>
        <time>2015-04-05T09:28:11Z</time>
      </trkpt>
      <trkpt lat="45.87787" lon="4.64595">
        <ele>116.8</ele>
        <time>2015-04-05T09:28:16Z</time>
      </trkpt>
      <trkpt lat="45.87782" lon="4.64567">
        <ele>115.3</ele>
        <time>2015-04-05T09:28:21Z</time>
      </trkpt>
      <trkpt lat="45.87768" lon="4.6457">
        <ele>112.7</ele>
        <time>2015-04-05T09:28:26Z</time>
      </trkpt>
      <trkpt lat="45.87752" lon="4.64565">
        <ele>105.4</ele>
        <time>2015-04-05T09:28:31Z</time>
      </trkpt>
      <trkpt lat="45.87742" lon="4.64567">
        <ele>104.7</ele>
        <time>2015-04-05T09:28:36Z</time>
      </trkpt>
      <trkpt lat="45.87748" lon="4.64543">
        <ele>104.7</ele>
        <time>2015-04-05T09:28:41Z</time>
      </trkpt>
      <trkpt lat="45.87758" lon="4.6452">
        <ele>104.9</ele>
        <time>2015-04-05T09:28:46Z</time>
      </trkpt>
      <trkpt lat="45.87773" lon="4.64495">
        <ele>104.9</ele>
        <time>2015-04-05T09:28:51Z</time>
      </trkpt>
      <trkpt lat="45.87772" lon="4.64472">
        <ele>105.2</ele>
        <time>2015-04-05T09:28:56Z</time>
      </trkpt>
      <trkpt lat="45.87755" lon="4.64452">
        <ele>105.8</ele>
        <time>2015-04-05T09:29:01Z</time>
      </trkpt>
      <trkpt lat="45.87737" lon="4.6444">
        <ele>105.2</ele>
        <time>2015-04-05T09:29:06Z</time>
      </trkpt>
      <trkpt lat="45.87722" lon="4.64438">
        <ele>105.7</ele>
        <time>2015-04-05T09:29:11Z</time>
      </trkpt>
      <trkpt lat="45.87695" lon="4.6443">
        <ele>105.7</ele>
        <time>2015-04-05T09:29:16Z</time>
      </trkpt>
      <trkpt lat="45.87665" lon="4.64418">
        <ele>105.4</ele>
        <time>2015-04-05T09:29:21Z</time>
      </trkpt>
      <trkpt lat="45.87637" lon="4.64417">
        <ele>104.6</ele>
        <time>2015-04-05T09:29:26Z</time>
      </trkpt>
      <trkpt lat="45.87618" lon="4.64417">
        <ele>106</ele>
        <time>2015-04-05T09:29:31Z</time>
      </trkpt>
      <trkpt lat="45.87615" lon="4.6441">
        <ele>105.7</ele>
        <time>2015-04-05T09:29:36Z</time>
      </trkpt>
      <trkpt lat="45.87595" lon="4.644">
        <ele>107</ele>
        <time>2015-04-05T09:29:41Z</time>
      </trkpt>
      <trkpt lat="45.87568" lon="4.64378">
        <ele>106.8</ele>
        <time>2015-04-05T09:29:46Z</time>
      </trkpt>
      <trkpt lat="45.87533" lon="4.64363">
        <ele>107.3</ele>
        <time>2015-04-05T09:29:51Z</time>
      </trkpt>
      <trkpt lat="45.87498" lon="4.64352">
        <ele>105</ele>
        <time>2015-04-05T09:29:56Z</time>
      </trkpt>
      <trkpt lat="45.8747" lon="4.64342">
        <ele>106</ele>
        <time>2015-04-05T09:30:01Z</time>
      </trkpt>
      <trkpt lat="45.87448" lon="4.64337">
        <ele>107.1</ele>
        <time>2015-04-05T09:30:06Z</time>
      </trkpt>
      <trkpt lat="45.87423" lon="4.64335">
        <ele>106.7</ele>
        <time>2015-04-05T09:30:11Z</time>
      </trkpt>
      <trkpt lat="45.87392" lon="4.6434">
        <ele>108.4</ele>
        <time>2015-04-05T09:30:16Z</time>
      </trkpt>
      <trkpt lat="45.87358" lon="4.64357">
        <ele>104.6</ele>
        <time>2015-04-05T09:30:21Z</time>
      </trkpt>
      <trkpt lat="45.8733" lon="4.64385">
        <ele>104.3</ele>
        <time>2015-04-05T09:30:26Z</time>
      </trkpt>
      <trkpt lat="45.87302" lon="4.6441">
        <ele>104.9</ele>
        <time>2015-04-05T09:30:31Z</time>
      </trkpt>
      <trkpt lat="45.87273" lon="4.64432">
        <ele>105.6</ele>
        <time>2015-04-05T09:30:36Z</time>
      </trkpt>
      <trkpt lat="45.8725" lon="4.64452">
        <ele>104.8</ele>
        <time>2015-04-05T09:30:41Z</time>
      </trkpt>
      <trkpt lat="45.87227" lon="4.64472">
        <ele>106.4</ele>
        <time>2015-04-05T09:30:46Z</time>
      </trkpt>
      <trkpt lat="45.87208" lon="4.64488">
        <ele>108.3</ele>
        <time>2015-04-05T09:30:51Z</time>
      </trkpt>
      <trkpt lat="45.87193" lon="4.645">
        <ele>111</ele>
        <time>2015-04-05T09:30:56Z</time>
      </trkpt>
      <trkpt lat="45.87178" lon="4.64508">
        <ele>112.5</ele>
        <time>2015-04-05T09:31:01Z</time>
      </trkpt>
      <trkpt lat="45.87165" lon="4.64518">
        <ele>114.2</ele>
        <time>2015-04-05T09:31:06Z</time>
      </trkpt>
      <trkpt lat="45.87153" lon="4.64527">
        <ele>115.2</ele>
        <time>2015-04-05T09:31:11Z</time>
      </trkpt>
      <trkpt lat="45.8714" lon="4.6453">
        <ele>116.4</ele>
        <time>2015-04-05T09:31:16Z</time>
      </trkpt>
      <trkpt lat="45.87127" lon="4.64535">
        <ele>117.5</ele>
        <time>2015-04-05T09:31:21Z</time>
      </trkpt>
      <trkpt lat="45.87113" lon="4.64538">
        <ele>117.9</ele>
        <time>2015-04-05T09:31:26Z</time>
      </trkpt>
      <trkpt lat="45.871" lon="4.64542">
        <ele>118.8</ele>
        <time>2015-04-05T09:31:31Z</time>
      </trkpt>
      <trkpt lat="45.87083" lon="4.64543">
        <ele>119.1</ele>
        <time>2015-04-05T09:31:36Z</time>
      </trkpt>
      <trkpt lat="45.87077" lon="4.64513">
        <ele>118.2</ele>
        <time>2015-04-05T09:31:41Z</time>
      </trkpt>
      <trkpt lat="45.8707" lon="4.64468">
        <ele>116.7</ele>
        <time>2015-04-05T09:31:46Z</time>
      </trkpt>
      <trkpt lat="45.87063" lon="4.64427">
        <ele>117</ele>
        <time>2015-04-05T09:31:51Z</time>
      </trkpt>
      <trkpt lat="45.87042" lon="4.64408">
        <ele>118.3</ele>
        <time>2015-04-05T09:31:56Z</time>
      </trkpt>
      <trkpt lat="45.87018" lon="4.64392">
        <ele>119.9</ele>
        <time>2015-04-05T09:32:01Z</time>
      </trkpt>
      <trkpt lat="45.86993" lon="4.64393">
        <ele>121.1</ele>
        <time>2015-04-05T09:32:06Z</time>
      </trkpt>
      <trkpt lat="45.8698" lon="4.64403">
        <ele>122.6</ele>
        <time>2015-04-05T09:32:11Z</time>
      </trkpt>
      <trkpt lat="45.86968" lon="4.644">
        <ele>122.9</ele>
        <time>2015-04-05T09:32:16Z</time>
      </trkpt>
      <trkpt lat="45.86948" lon="4.64398">
        <ele>124.3</ele>
        <time>2015-04-05T09:32:21Z</time>
      </trkpt>
      <trkpt lat="45.86927" lon="4.64395">
        <ele>124.3</ele>
        <time>2015-04-05T09:32:26Z</time>
      </trkpt>
      <trkpt lat="45.86903" lon="4.6439">
        <ele>125.9</ele>
        <time>2015-04-05T09:32:31Z</time>
      </trkpt>
      <trkpt lat="45.86885" lon="4.64385">
        <ele>127.2</ele>
        <time>2015-04-05T09:32:36Z</time>
      </trkpt>
      <trkpt lat="45.86865" lon="4.64378">
        <ele>131.5</ele>
        <time>2015-04-05T09:32:41Z</time>
      </trkpt>
      <trkpt lat="45.86852" lon="4.64373">
        <ele>133.9</ele>
        <time>2015-04-05T09:32:46Z</time>
      </trkpt>
      <trkpt lat="45.86838" lon="4.64383">
        <ele>134.2</ele>
        <time>2015-04-05T09:32:51Z</time>
      </trkpt>
      <trkpt lat="45.86823" lon="4.644">
        <ele>134.5</ele>
        <time>2015-04-05T09:32:56Z</time>
      </trkpt>
      <trkpt lat="45.86808" lon="4.64413">
        <ele>135.3</ele>
        <time>2015-04-05T09:33:01Z</time>
      </trkpt>
      <trkpt lat="45.86792" lon="4.64415">
        <ele>136.4</ele>
        <time>2015-04-05T09:33:06Z</time>
      </trkpt>
      <trkpt lat="45.86785" lon="4.64393">
        <ele>138.4</ele>
        <time>2015-04-05T09:33:11Z</time>
      </trkpt>
      <trkpt lat="45.86777" lon="4.64368">
        <ele>138.4</ele>
        <time>2015-04-05T09:33:16Z</time>
      </trkpt>
      <trkpt lat="45.8677" lon="4.64343">
        <ele>140.7</ele>
        <time>2015-04-05T09:33:21Z</time>
      </trkpt>
      <trkpt lat="45.86762" lon="4.6432">
        <ele>139.6</ele>
        <time>2015-04-05T09:33:26Z</time>
      </trkpt>
      <trkpt lat="45.86755" lon="4.64298">
        <ele>139.7</ele>
        <time>2015-04-05T09:33:31Z</time>
      </trkpt>
      <trkpt lat="45.86743" lon="4.64287">
        <ele>140.6</ele>
        <time>2015-04-05T09:33:36Z</time>
      </trkpt>
      <trkpt lat="45.8673" lon="4.64287">
        <ele>142.9</ele>
        <time>2015-04-05T09:33:41Z</time>
      </trkpt>
      <trkpt lat="45.86718" lon="4.64283">
        <ele>143.5</ele>
        <time>2015-04-05T09:33:46Z</time>
      </trkpt>
      <trkpt lat="45.86715" lon="4.64285">
        <ele>144.7</ele>
        <time>2015-04-05T09:33:51Z</time>
      </trkpt>
      <trkpt lat="45.8671" lon="4.64288">
        <ele>144.7</ele>
        <time>2015-04-05T09:33:56Z</time>
      </trkpt>
      <trkpt lat="45.86698" lon="4.64293">
        <ele>145.8</ele>
        <time>2015-04-05T09:34:01Z</time>
      </trkpt>
      <trkpt lat="45.86688" lon="4.64295">
        <ele>147.5</ele>
        <time>2015-04-05T09:34:06Z</time>
      </trkpt>
      <trkpt lat="45.86677" lon="4.643">
        <ele>148.3</ele>
        <time>2015-04-05T09:34:11Z</time>
      </trkpt>
      <trkpt lat="45.86667" lon="4.64298">
        <ele>150</ele>
        <time>2015-04-05T09:34:16Z</time>
      </trkpt>
      <trkpt lat="45.86655" lon="4.64293">
        <ele>150.8</ele>
        <time>2015-04-05T09:34:21Z</time>
      </trkpt>
      <trkpt lat="45.86647" lon="4.64288">
        <ele>152.6</ele>
        <time>2015-04-05T09:34:26Z</time>
      </trkpt>
      <trkpt lat="45.86638" lon="4.64282">
        <ele>151.8</ele>
        <time>2015-04-05T09:34:31Z</time>
      </trkpt>
      <trkpt lat="45.8663" lon="4.64278">
        <ele>152.7</ele>
        <time>2015-04-05T09:34:36Z</time>
      </trkpt>
      <trkpt lat="45.86623" lon="4.64275">
        <ele>152.6</ele>
        <time>2015-04-05T09:34:41Z</time>
      </trkpt>
      <trkpt lat="45.86617" lon="4.64277">
        <ele>154.4</ele>
        <time>2015-04-05T09:34:46Z</time>
      </trkpt>
      <trkpt lat="45.86608" lon="4.64277">
        <ele>154.2</ele>
        <time>2015-04-05T09:34:51Z</time>
      </trkpt>
      <trkpt lat="45.866" lon="4.6428">
        <ele>154.5</ele>
        <time>2015-04-05T09:34:56Z</time>
      </trkpt>
      <trkpt lat="45.8659" lon="4.64287">
        <ele>155.7</ele>
        <time>2015-04-05T09:35:01Z</time>
      </trkpt>
      <trkpt lat="45.86582" lon="4.64287">
        <ele>156.7</ele>
        <time>2015-04-05T09:35:06Z</time>
      </trkpt>
      <trkpt lat="45.86572" lon="4.64292">
        <ele>156.1</ele>
        <time>2015-04-05T09:35:11Z</time>
      </trkpt>
      <trkpt lat="45.86562" lon="4.64297">
        <ele>158</ele>
        <time>2015-04-05T09:35:16Z</time>
      </trkpt>
      <trkpt lat="45.86552" lon="4.64303">
        <ele>158.3</ele>
        <time>2015-04-05T09:35:21Z</time>
      </trkpt>
      <trkpt lat="45.86542" lon="4.64308">
        <ele>159.1</ele>
        <time>2015-04-05T09:35:26Z</time>
      </trkpt>
      <trkpt lat="45.86532" lon="4.64317">
        <ele>160.2</ele>
        <time>2015-04-05T09:35:31Z</time>
      </trkpt>
      <trkpt lat="45.86523" lon="4.6432">
        <ele>159.4</ele>
        <time>2015-04-05T09:35:36Z</time>
      </trkpt>
      <trkpt lat="45.86515" lon="4.64327">
        <ele>161.5</ele>
        <time>2015-04-05T09:35:41Z</time>
      </trkpt>
      <trkpt lat="45.86505" lon="4.64333">
        <ele>160.7</ele>
        <time>2015-04-05T09:35:46Z</time>
      </trkpt>
      <trkpt lat="45.86493" lon="4.64342">
        <ele>161.9</ele>
        <time>2015-04-05T09:35:51Z</time>
      </trkpt>
      <trkpt lat="45.8648" lon="4.64345">
        <ele>161.3</ele>
        <time>2015-04-05T09:35:56Z</time>
      </trkpt>
      <trkpt lat="45.8647" lon="4.6435">
        <ele>163.1</ele>
        <time>2015-04-05T09:36:01Z</time>
      </trkpt>
      <trkpt lat="45.8646" lon="4.64355">
        <ele>162.9</ele>
        <time>2015-04-05T09:36:06Z</time>
      </trkpt>
      <trkpt lat="45.86447" lon="4.64358">
        <ele>162.9</ele>
        <time>2015-04-05T09:36:11Z</time>
      </trkpt>
      <trkpt lat="45.86427" lon="4.64363">
        <ele>164.4</ele>
        <time>2015-04-05T09:36:16Z</time>
      </trkpt>
      <trkpt lat="45.86408" lon="4.64368">
        <ele>165.8</ele>
        <time>2015-04-05T09:36:21Z</time>
      </trkpt>
      <trkpt lat="45.8639" lon="4.64372">
        <ele>166.1</ele>
        <time>2015-04-05T09:36:26Z</time>
      </trkpt>
      <trkpt lat="45.86372" lon="4.64375">
        <ele>165.8</ele>
        <time>2015-04-05T09:36:31Z</time>
      </trkpt>
      <trkpt lat="45.86352" lon="4.64377">
        <ele>164.6</ele>
        <time>2015-04-05T09:36:36Z</time>
      </trkpt>
      <trkpt lat="45.86333" lon="4.64372">
        <ele>164.9</ele>
        <time>2015-04-05T09:36:41Z</time>
      </trkpt>
      <trkpt lat="45.86318" lon="4.64352">
        <ele>165.9</ele>
        <time>2015-04-05T09:36:46Z</time>
      </trkpt>
      <trkpt lat="45.86318" lon="4.64322">
        <ele>165.5</ele>
        <time>2015-04-05T09:36:51Z</time>
      </trkpt>
      <trkpt lat="45.86307" lon="4.64302">
        <ele>165.5</ele>
        <time>2015-04-05T09:36:56Z</time>
      </trkpt>
      <trkpt lat="45.86282" lon="4.64293">
        <ele>166.9</ele>
        <time>2015-04-05T09:37:01Z</time>
      </trkpt>
      <trkpt lat="45.86252" lon="4.64287">
        <ele>165.9</ele>
        <time>2015-04-05T09:37:06Z</time>
      </trkpt>
      <trkpt lat="45.86223" lon="4.6428">
        <ele>163.5</ele>
        <time>2015-04-05T09:37:11Z</time>
      </trkpt>
      <trkpt lat="45.86197" lon="4.64277">
        <ele>164.9</ele>
        <time>2015-04-05T09:37:16Z</time>
      </trkpt>
      <trkpt lat="45.86172" lon="4.64273">
        <ele>167</ele>
        <time>2015-04-05T09:37:21Z</time>
      </trkpt>
      <trkpt lat="45.86147" lon="4.64272">
        <ele>164.4</ele>
        <time>2015-04-05T09:37:26Z</time>
      </trkpt>
      <trkpt lat="45.86125" lon="4.64267">
        <ele>167.5</ele>
        <time>2015-04-05T09:37:31Z</time>
      </trkpt>
      <trkpt lat="45.86105" lon="4.64262">
        <ele>167.9</ele>
        <time>2015-04-05T09:37:36Z</time>
      </trkpt>
      <trkpt lat="45.86085" lon="4.64262">
        <ele>168.1</ele>
        <time>2015-04-05T09:37:41Z</time>
      </trkpt>
      <trkpt lat="45.86063" lon="4.64263">
        <ele>169.4</ele>
        <time>2015-04-05T09:37:46Z</time>
      </trkpt>
      <trkpt lat="45.86048" lon="4.64265">
        <ele>167.7</ele>
        <time>2015-04-05T09:37:51Z</time>
      </trkpt>
      <trkpt lat="45.86032" lon="4.64268">
        <ele>169</ele>
        <time>2015-04-05T09:37:56Z</time>
      </trkpt>
      <trkpt lat="45.86012" lon="4.64265">
        <ele>171</ele>
        <time>2015-04-05T09:38:01Z</time>
      </trkpt>
      <trkpt lat="45.86015" lon="4.6425">
        <ele>169.6</ele>
        <time>2015-04-05T09:38:06Z</time>
      </trkpt>
      <trkpt lat="45.86027" lon="4.64237">
        <ele>171.7</ele>
        <time>2015-04-05T09:38:11Z</time>
      </trkpt>
      <trkpt lat="45.86042" lon="4.6422">
        <ele>171.4</ele>
        <time>2015-04-05T09:38:16Z</time>
      </trkpt>
      <trkpt lat="45.86058" lon="4.64202">
        <ele>170.2</ele>
        <time>2015-04-05T09:38:21Z</time>
      </trkpt>
      <trkpt lat="45.86068" lon="4.64185">
        <ele>171.1</ele>
        <time>2015-04-05T09:38:26Z</time>
      </trkpt>
      <trkpt lat="45.86078" lon="4.6417">
        <ele>172.1</ele>
        <time>2015-04-05T09:38:31Z</time>
      </trkpt>
      <trkpt lat="45.8609" lon="4.64155">
        <ele>173.4</ele>
        <time>2015-04-05T09:38:36Z</time>
      </trkpt>
      <trkpt lat="45.86102" lon="4.64138">
        <ele>172.9</ele>
        <time>2015-04-05T09:38:41Z</time>
      </trkpt>
      <trkpt lat="45.86112" lon="4.6412">
        <ele>173.2</ele>
        <time>2015-04-05T09:38:46Z</time>
      </trkpt>
      <trkpt lat="45.86125" lon="4.64102">
        <ele>173.2</ele>
        <time>2015-04-05T09:38:51Z</time>
      </trkpt>
      <trkpt lat="45.86137" lon="4.64082">
        <ele>173.7</ele>
        <time>2015-04-05T09:38:56Z</time>
      </trkpt>
      <trkpt lat="45.8615" lon="4.6406">
        <ele>175.7</ele>
        <time>2015-04-05T09:39:01Z</time>
      </trkpt>
      <trkpt lat="45.86162" lon="4.6404">
        <ele>173.8</ele>
        <time>2015-04-05T09:39:06Z</time>
      </trkpt>
      <trkpt lat="45.86173" lon="4.64018">
        <ele>176.5</ele>
        <time>2015-04-05T09:39:11Z</time>
      </trkpt>
      <trkpt lat="45.86185" lon="4.63997">
        <ele>177.4</ele>
        <time>2015-04-05T09:39:16Z</time>
      </trkpt>
      <trkpt lat="45.86197" lon="4.63975">
        <ele>175.8</ele>
        <time>2015-04-05T09:39:21Z</time>
      </trkpt>
      <trkpt lat="45.8621" lon="4.63948">
        <ele>177.3</ele>
        <time>2015-04-05T09:39:26Z</time>
      </trkpt>
      <trkpt lat="45.8622" lon="4.63925">
        <ele>177.3</ele>
        <time>2015-04-05T09:39:31Z</time>
      </trkpt>
      <trkpt lat="45.86233" lon="4.63902">
        <ele>178.6</ele>
        <time>2015-04-05T09:39:36Z</time>
      </trkpt>
      <trkpt lat="45.86245" lon="4.63875">
        <ele>179.4</ele>
        <time>2015-04-05T09:39:41Z</time>
      </trkpt>
      <trkpt lat="45.86263" lon="4.63872">
        <ele>177.7</ele>
        <time>2015-04-05T09:39:46Z</time>
      </trkpt>
      <trkpt lat="45.86287" lon="4.63875">
        <ele>177.3</ele>
        <time>2015-04-05T09:39:51Z</time>
      </trkpt>
      <trkpt lat="45.86307" lon="4.6387">
        <ele>178.6</ele>
        <time>2015-04-05T09:39:56Z</time>
      </trkpt>
      <trkpt lat="45.86327" lon="4.6387">
        <ele>179.7</ele>
        <time>2015-04-05T09:40:01Z</time>
      </trkpt>
      <trkpt lat="45.86338" lon="4.63852">
        <ele>178.5</ele>
        <time>2015-04-05T09:40:06Z</time>
      </trkpt>
      <trkpt lat="45.86337" lon="4.6383">
        <ele>180.3</ele>
        <time>2015-04-05T09:40:11Z</time>
      </trkpt>
      <trkpt lat="45.86323" lon="4.63813">
        <ele>181.6</ele>
        <time>2015-04-05T09:40:16Z</time>
      </trkpt>
      <trkpt lat="45.86308" lon="4.63795">
        <ele>183.4</ele>
        <time>2015-04-05T09:40:21Z</time>
      </trkpt>
      <trkpt lat="45.86293" lon="4.63778">
        <ele>183.7</ele>
        <time>2015-04-05T09:40:26Z</time>
      </trkpt>
      <trkpt lat="45.86278" lon="4.63763">
        <ele>184.3</ele>
        <time>2015-04-05T09:40:31Z</time>
      </trkpt>
      <trkpt lat="45.86262" lon="4.63747">
        <ele>184.8</ele>
        <time>2015-04-05T09:40:36Z</time>
      </trkpt>
      <trkpt lat="45.86245" lon="4.6373">
        <ele>184.4</ele>
        <time>2015-04-05T09:40:41Z</time>
      </trkpt>
      <trkpt lat="45.86225" lon="4.63708">
        <ele>185.2</ele>
        <time>2015-04-05T09:40:46Z</time>
      </trkpt>
      <trkpt lat="45.86203" lon="4.63682">
        <ele>184.2</ele>
        <time>2015-04-05T09:40:51Z</time>
      </trkpt>
      <trkpt lat="45.86175" lon="4.63652">
        <ele>183.3</ele>
        <time>2015-04-05T09:40:56Z</time>
      </trkpt>
      <trkpt lat="45.86142" lon="4.63617">
        <ele>179.1</ele>
        <time>2015-04-05T09:41:01Z</time>
      </trkpt>
      <trkpt lat="45.86137" lon="4.6357">
        <ele>176.6</ele>
        <time>2015-04-05T09:41:06Z</time>
      </trkpt>
      <trkpt lat="45.8616" lon="4.63533">
        <ele>175</ele>
        <time>2015-04-05T09:41:11Z</time>
      </trkpt>
      <trkpt lat="45.86177" lon="4.63497">
        <ele>175.4</ele>
        <time>2015-04-05T09:41:16Z</time>
      </trkpt>
      <trkpt lat="45.86193" lon="4.63472">
        <ele>177.6</ele>
        <time>2015-04-05T09:41:21Z</time>
      </trkpt>
      <trkpt lat="45.86215" lon="4.63468">
        <ele>179</ele>
        <time>2015-04-05T09:41:26Z</time>
      </trkpt>
      <trkpt lat="45.86237" lon="4.63478">
        <ele>179</ele>
        <time>2015-04-05T09:41:31Z</time>
      </trkpt>
      <trkpt lat="45.86258" lon="4.6349">
        <ele>180.1</ele>
        <time>2015-04-05T09:41:36Z</time>
      </trkpt>
      <trkpt lat="45.86278" lon="4.635">
        <ele>179.9</ele>
        <time>2015-04-05T09:41:41Z</time>
      </trkpt>
      <trkpt lat="45.86295" lon="4.6348">
        <ele>180.4</ele>
        <time>2015-04-05T09:41:46Z</time>
      </trkpt>
      <trkpt lat="45.86302" lon="4.63455">
        <ele>182.1</ele>
        <time>2015-04-05T09:41:51Z</time>
      </trkpt>
      <trkpt lat="45.86308" lon="4.63433">
        <ele>183.7</ele>
        <time>2015-04-05T09:41:56Z</time>
      </trkpt>
      <trkpt lat="45.86313" lon="4.63412">
        <ele>184.2</ele>
        <time>2015-04-05T09:42:01Z</time>
      </trkpt>
      <trkpt lat="45.8632" lon="4.6339">
        <ele>185.8</ele>
        <time>2015-04-05T09:42:06Z</time>
      </trkpt>
      <trkpt lat="45.86323" lon="4.63367">
        <ele>186.5</ele>
        <time>2015-04-05T09:42:11Z</time>
      </trkpt>
      <trkpt lat="45.86327" lon="4.63343">
        <ele>187.1</ele>
        <time>2015-04-05T09:42:16Z</time>
      </trkpt>
      <trkpt lat="45.86328" lon="4.63318">
        <ele>189.1</ele>
        <time>2015-04-05T09:42:21Z</time>
      </trkpt>
      <trkpt lat="45.86332" lon="4.63293">
        <ele>190.3</ele>
        <time>2015-04-05T09:42:26Z</time>
      </trkpt>
      <trkpt lat="45.86333" lon="4.63268">
        <ele>190.7</ele>
        <time>2015-04-05T09:42:31Z</time>
      </trkpt>
      <trkpt lat="45.86332" lon="4.63243">
        <ele>189.4</ele>
        <time>2015-04-05T09:42:36Z</time>
      </trkpt>
      <trkpt lat="45.86313" lon="4.63232">
        <ele>189.1</ele>
        <time>2015-04-05T09:42:41Z</time>
      </trkpt>
      <trkpt lat="45.8629" lon="4.63227">
        <ele>189.5</ele>
        <time>2015-04-05T09:42:46Z</time>
      </trkpt>
      <trkpt lat="45.86268" lon="4.6322">
        <ele>190.3</ele>
        <time>2015-04-05T09:42:51Z</time>
      </trkpt>
      <trkpt lat="45.86245" lon="4.63207">
        <ele>190.5</ele>
        <time>2015-04-05T09:42:56Z</time>
      </trkpt>
      <trkpt lat="45.86222" lon="4.63193">
        <ele>190.5</ele>
        <time>2015-04-05T09:43:01Z</time>
      </trkpt>
      <trkpt lat="45.86202" lon="4.63172">
        <ele>190.8</ele>
        <time>2015-04-05T09:43:06Z</time>
      </trkpt>
      <trkpt lat="45.86183" lon="4.63148">
        <ele>192.1</ele>
        <time>2015-04-05T09:43:11Z</time>
      </trkpt>
      <trkpt lat="45.86165" lon="4.63127">
        <ele>191.1</ele>
        <time>2015-04-05T09:43:16Z</time>
      </trkpt>
      <trkpt lat="45.86147" lon="4.63105">
        <ele>194.1</ele>
        <time>2015-04-05T09:43:21Z</time>
      </trkpt>
      <trkpt lat="45.86125" lon="4.63085">
        <ele>194.3</ele>
        <time>2015-04-05T09:43:26Z</time>
      </trkpt>
      <trkpt lat="45.86105" lon="4.63063">
        <ele>193.9</ele>
        <time>2015-04-05T09:43:31Z</time>
      </trkpt>
      <trkpt lat="45.86082" lon="4.6304">
        <ele>192.2</ele>
        <time>2015-04-05T09:43:36Z</time>
      </trkpt>
      <trkpt lat="45.86055" lon="4.63015">
        <ele>191</ele>
        <time>2015-04-05T09:43:41Z</time>
      </trkpt>
      <trkpt lat="45.8602" lon="4.62985">
        <ele>186.9</ele>
        <time>2015-04-05T09:43:46Z</time>
      </trkpt>
      <trkpt lat="45.8598" lon="4.62938">
        <ele>179.6</ele>
        <time>2015-04-05T09:43:51Z</time>
      </trkpt>
      <trkpt lat="45.85958" lon="4.62892">
        <ele>176.4</ele>
        <time>2015-04-05T09:43:56Z</time>
      </trkpt>
      <trkpt lat="45.8596" lon="4.62858">
        <ele>173.9</ele>
        <time>2015-04-05T09:44:01Z</time>
      </trkpt>
      <trkpt lat="45.85957" lon="4.62835">
        <ele>175.8</ele>
        <time>2015-04-05T09:44:06Z</time>
      </trkpt>
      <trkpt lat="45.85955" lon="4.62813">
        <ele>174</ele>
        <time>2015-04-05T09:44:11Z</time>
      </trkpt>
      <trkpt lat="45.85952" lon="4.628">
        <ele>177.2</ele>
        <time>2015-04-05T09:44:16Z</time>
      </trkpt>
      <trkpt lat="45.85948" lon="4.62787">
        <ele>179.4</ele>
        <time>2015-04-05T09:44:21Z</time>
      </trkpt>
      <trkpt lat="45.85945" lon="4.62773">
        <ele>179.5</ele>
        <time>2015-04-05T09:44:26Z</time>
      </trkpt>
      <trkpt lat="45.85943" lon="4.62758">
        <ele>182.9</ele>
        <time>2015-04-05T09:44:31Z</time>
      </trkpt>
      <trkpt lat="45.85942" lon="4.62745">
        <ele>183.6</ele>
        <time>2015-04-05T09:44:36Z</time>
      </trkpt>
      <trkpt lat="45.85942" lon="4.6273">
        <ele>184.7</ele>
        <time>2015-04-05T09:44:41Z</time>
      </trkpt>
      <trkpt lat="45.85945" lon="4.62715">
        <ele>186.3</ele>
        <time>2015-04-05T09:44:46Z</time>
      </trkpt>
      <trkpt lat="45.85948" lon="4.62698">
        <ele>186.5</ele>
        <time>2015-04-05T09:44:51Z</time>
      </trkpt>
      <trkpt lat="45.85952" lon="4.62683">
        <ele>187.5</ele>
        <time>2015-04-05T09:44:56Z</time>
      </trkpt>
      <trkpt lat="45.85953" lon="4.62667">
        <ele>189.3</ele>
        <time>2015-04-05T09:45:01Z</time>
      </trkpt>
      <trkpt lat="45.85957" lon="4.6265">
        <ele>188.9</ele>
        <time>2015-04-05T09:45:06Z</time>
      </trkpt>
      <trkpt lat="45.8596" lon="4.62633">
        <ele>191.1</ele>
        <time>2015-04-05T09:45:11Z</time>
      </trkpt>
      <trkpt lat="45.85963" lon="4.62615">
        <ele>191.2</ele>
        <time>2015-04-05T09:45:16Z</time>
      </trkpt>
      <trkpt lat="45.85967" lon="4.62595">
        <ele>190.5</ele>
        <time>2015-04-05T09:45:21Z</time>
      </trkpt>
      <trkpt lat="45.85968" lon="4.62575">
        <ele>193.4</ele>
        <time>2015-04-05T09:45:26Z</time>
      </trkpt>
      <trkpt lat="45.85972" lon="4.62557">
        <ele>193</ele>
        <time>2015-04-05T09:45:31Z</time>
      </trkpt>
      <trkpt lat="45.85973" lon="4.62537">
        <ele>193.8</ele>
        <time>2015-04-05T09:45:36Z</time>
      </trkpt>
      <trkpt lat="45.85977" lon="4.62517">
        <ele>195.1</ele>
        <time>2015-04-05T09:45:41Z</time>
      </trkpt>
      <trkpt lat="45.8598" lon="4.62498">
        <ele>195.4</ele>
        <time>2015-04-05T09:45:46Z</time>
      </trkpt>
      <trkpt lat="45.85987" lon="4.6248">
        <ele>195.5</ele>
        <time>2015-04-05T09:45:51Z</time>
      </trkpt>
      <trkpt lat="45.85992" lon="4.62458">
        <ele>196.4</ele>
        <time>2015-04-05T09:45:56Z</time>
      </trkpt>
      <trkpt lat="45.85998" lon="4.62438">
        <ele>198.3</ele>
        <time>2015-04-05T09:46:01Z</time>
      </trkpt>
      <trkpt lat="45.85998" lon="4.62417">
        <ele>197.3</ele>
        <time>2015-04-05T09:46:06Z</time>
      </trkpt>
      <trkpt lat="45.86003" lon="4.6239">
        <ele>197.3</ele>
        <time>2015-04-05T09:46:11Z</time>
      </trkpt>
      <trkpt lat="45.86005" lon="4.62358">
        <ele>199.5</ele>
        <time>2015-04-05T09:46:16Z</time>
      </trkpt>
      <trkpt lat="45.86008" lon="4.62327">
        <ele>200.6</ele>
        <time>2015-04-05T09:46:21Z</time>
      </trkpt>
      <trkpt lat="45.86012" lon="4.62295">
        <ele>200.6</ele>
        <time>2015-04-05T09:46:26Z</time>
      </trkpt>
      <trkpt lat="45.86015" lon="4.62267">
        <ele>201.6</ele>
        <time>2015-04-05T09:46:31Z</time>
      </trkpt>
      <trkpt lat="45.86018" lon="4.6224">
        <ele>202.8</ele>
        <time>2015-04-05T09:46:36Z</time>
      </trkpt>
      <trkpt lat="45.8602" lon="4.62215">
        <ele>202.8</ele>
        <time>2015-04-05T09:46:41Z</time>
      </trkpt>
      <trkpt lat="45.86015" lon="4.62183">
        <ele>202.8</ele>
        <time>2015-04-05T09:46:46Z</time>
      </trkpt>
      <trkpt lat="45.86008" lon="4.62153">
        <ele>203.3</ele>
        <time>2015-04-05T09:46:51Z</time>
      </trkpt>
      <trkpt lat="45.86003" lon="4.62122">
        <ele>201.7</ele>
        <time>2015-04-05T09:46:56Z</time>
      </trkpt>
      <trkpt lat="45.85998" lon="4.62093">
        <ele>203.4</ele>
        <time>2015-04-05T09:47:01Z</time>
      </trkpt>
      <trkpt lat="45.8599" lon="4.62065">
        <ele>203.5</ele>
        <time>2015-04-05T09:47:06Z</time>
      </trkpt>
      <trkpt lat="45.85982" lon="4.62037">
        <ele>204.8</ele>
        <time>2015-04-05T09:47:11Z</time>
      </trkpt>
      <trkpt lat="45.85972" lon="4.6201">
        <ele>200.2</ele>
        <time>2015-04-05T09:47:16Z</time>
      </trkpt>
      <trkpt lat="45.85958" lon="4.61995">
        <ele>202.6</ele>
        <time>2015-04-05T09:47:21Z</time>
      </trkpt>
      <trkpt lat="45.85932" lon="4.61993">
        <ele>200.7</ele>
        <time>2015-04-05T09:47:26Z</time>
      </trkpt>
      <trkpt lat="45.85898" lon="4.61995">
        <ele>199</ele>
        <time>2015-04-05T09:47:31Z</time>
      </trkpt>
      <trkpt lat="45.85863" lon="4.61988">
        <ele>201</ele>
        <time>2015-04-05T09:47:36Z</time>
      </trkpt>
      <trkpt lat="45.85828" lon="4.61977">
        <ele>200.2</ele>
        <time>2015-04-05T09:47:41Z</time>
      </trkpt>
      <trkpt lat="45.85795" lon="4.61958">
        <ele>201.7</ele>
        <time>2015-04-05T09:47:46Z</time>
      </trkpt>
      <trkpt lat="45.85768" lon="4.6193">
        <ele>202.6</ele>
        <time>2015-04-05T09:47:51Z</time>
      </trkpt>
      <trkpt lat="45.85747" lon="4.61897">
        <ele>200.5</ele>
        <time>2015-04-05T09:47:56Z</time>
      </trkpt>
      <trkpt lat="45.8573" lon="4.61867">
        <ele>199.5</ele>
        <time>2015-04-05T09:48:01Z</time>
      </trkpt>
      <trkpt lat="45.85725" lon="4.6186">
        <ele>198.4</ele>
        <time>2015-04-05T09:48:06Z</time>
      </trkpt>
      <trkpt lat="45.85718" lon="4.6185">
        <ele>197.4</ele>
        <time>2015-04-05T09:48:11Z</time>
      </trkpt>
      <trkpt lat="45.85718" lon="4.61848">
        <ele>197.1</ele>
        <time>2015-04-05T09:48:16Z</time>
      </trkpt>
      <trkpt lat="45.8572" lon="4.61852">
        <ele>196.5</ele>
        <time>2015-04-05T09:48:26Z</time>
      </trkpt>
      <trkpt lat="45.85723" lon="4.6186">
        <ele>197.6</ele>
        <time>2015-04-05T09:48:31Z</time>
      </trkpt>
      <trkpt lat="45.8573" lon="4.61867">
        <ele>198.1</ele>
        <time>2015-04-05T09:48:36Z</time>
      </trkpt>
      <trkpt lat="45.8574" lon="4.61883">
        <ele>198.7</ele>
        <time>2015-04-05T09:48:41Z</time>
      </trkpt>
      <trkpt lat="45.85752" lon="4.61903">
        <ele>200</ele>
        <time>2015-04-05T09:48:46Z</time>
      </trkpt>
      <trkpt lat="45.85765" lon="4.61922">
        <ele>201.2</ele>
        <time>2015-04-05T09:48:51Z</time>
      </trkpt>
      <trkpt lat="45.8578" lon="4.61915">
        <ele>201.7</ele>
        <time>2015-04-05T09:48:56Z</time>
      </trkpt>
      <trkpt lat="45.85788" lon="4.61893">
        <ele>201.9</ele>
        <time>2015-04-05T09:49:01Z</time>
      </trkpt>
      <trkpt lat="45.85792" lon="4.61868">
        <ele>202.1</ele>
        <time>2015-04-05T09:49:06Z</time>
      </trkpt>
      <trkpt lat="45.85797" lon="4.61845">
        <ele>203.1</ele>
        <time>2015-04-05T09:49:11Z</time>
      </trkpt>
      <trkpt lat="45.85803" lon="4.61822">
        <ele>203.1</ele>
        <time>2015-04-05T09:49:16Z</time>
      </trkpt>
      <trkpt lat="45.85812" lon="4.61795">
        <ele>202.6</ele>
        <time>2015-04-05T09:49:21Z</time>
      </trkpt>
      <trkpt lat="45.85818" lon="4.61773">
        <ele>203.3</ele>
        <time>2015-04-05T09:49:26Z</time>
      </trkpt>
      <trkpt lat="45.85825" lon="4.6175">
        <ele>204.3</ele>
        <time>2015-04-05T09:49:31Z</time>
      </trkpt>
      <trkpt lat="45.8583" lon="4.61728">
        <ele>204.9</ele>
        <time>2015-04-05T09:49:36Z</time>
      </trkpt>
      <trkpt lat="45.85837" lon="4.61707">
        <ele>205.8</ele>
        <time>2015-04-05T09:49:41Z</time>
      </trkpt>
      <trkpt lat="45.85843" lon="4.61683">
        <ele>207.3</ele>
        <time>2015-04-05T09:49:46Z</time>
      </trkpt>
      <trkpt lat="45.85848" lon="4.61655">
        <ele>209.2</ele>
        <time>2015-04-05T09:49:51Z</time>
      </trkpt>
      <trkpt lat="45.85857" lon="4.61628">
        <ele>207.5</ele>
        <time>2015-04-05T09:49:56Z</time>
      </trkpt>
      <trkpt lat="45.85863" lon="4.61603">
        <ele>209.3</ele>
        <time>2015-04-05T09:50:01Z</time>
      </trkpt>
      <trkpt lat="45.8587" lon="4.61583">
        <ele>209.3</ele>
        <time>2015-04-05T09:50:06Z</time>
      </trkpt>
      <trkpt lat="45.85875" lon="4.61565">
        <ele>209.9</ele>
        <time>2015-04-05T09:50:11Z</time>
      </trkpt>
      <trkpt lat="45.85872" lon="4.61547">
        <ele>210.7</ele>
        <time>2015-04-05T09:50:16Z</time>
      </trkpt>
      <trkpt lat="45.85858" lon="4.61533">
        <ele>210.4</ele>
        <time>2015-04-05T09:50:21Z</time>
      </trkpt>
      <trkpt lat="45.85842" lon="4.61523">
        <ele>211</ele>
        <time>2015-04-05T09:50:26Z</time>
      </trkpt>
      <trkpt lat="45.85817" lon="4.61515">
        <ele>209.6</ele>
        <time>2015-04-05T09:50:31Z</time>
      </trkpt>
      <trkpt lat="45.85792" lon="4.61508">
        <ele>202.8</ele>
        <time>2015-04-05T09:50:36Z</time>
      </trkpt>
      <trkpt lat="45.85772" lon="4.61498">
        <ele>198.7</ele>
        <time>2015-04-05T09:50:41Z</time>
      </trkpt>
      <trkpt lat="45.85758" lon="4.61477">
        <ele>197.9</ele>
        <time>2015-04-05T09:50:46Z</time>
      </trkpt>
      <trkpt lat="45.85742" lon="4.61433">
        <ele>195.6</ele>
        <time>2015-04-05T09:50:51Z</time>
      </trkpt>
      <trkpt lat="45.8572" lon="4.61382">
        <ele>193.6</ele>
        <time>2015-04-05T09:50:56Z</time>
      </trkpt>
      <trkpt lat="45.85678" lon="4.6137">
        <ele>191.6</ele>
        <time>2015-04-05T09:51:01Z</time>
      </trkpt>
      <trkpt lat="45.85638" lon="4.61398">
        <ele>192.6</ele>
        <time>2015-04-05T09:51:06Z</time>
      </trkpt>
      <trkpt lat="45.85602" lon="4.61418">
        <ele>193.6</ele>
        <time>2015-04-05T09:51:11Z</time>
      </trkpt>
      <trkpt lat="45.85572" lon="4.61438">
        <ele>195.2</ele>
        <time>2015-04-05T09:51:16Z</time>
      </trkpt>
      <trkpt lat="45.8555" lon="4.61468">
        <ele>194.1</ele>
        <time>2015-04-05T09:51:21Z</time>
      </trkpt>
      <trkpt lat="45.8552" lon="4.61483">
        <ele>192.4</ele>
        <time>2015-04-05T09:51:26Z</time>
      </trkpt>
      <trkpt lat="45.85487" lon="4.61492">
        <ele>193.6</ele>
        <time>2015-04-05T09:51:31Z</time>
      </trkpt>
      <trkpt lat="45.85452" lon="4.61488">
        <ele>192.1</ele>
        <time>2015-04-05T09:51:36Z</time>
      </trkpt>
      <trkpt lat="45.85438" lon="4.61443">
        <ele>192.8</ele>
        <time>2015-04-05T09:51:41Z</time>
      </trkpt>
      <trkpt lat="45.8544" lon="4.61393">
        <ele>194.1</ele>
        <time>2015-04-05T09:51:46Z</time>
      </trkpt>
      <trkpt lat="45.85442" lon="4.61348">
        <ele>193.6</ele>
        <time>2015-04-05T09:51:51Z</time>
      </trkpt>
      <trkpt lat="45.85442" lon="4.61312">
        <ele>195.4</ele>
        <time>2015-04-05T09:51:56Z</time>
      </trkpt>
      <trkpt lat="45.8543" lon="4.6128">
        <ele>196.4</ele>
        <time>2015-04-05T09:52:01Z</time>
      </trkpt>
      <trkpt lat="45.85407" lon="4.6126">
        <ele>195</ele>
        <time>2015-04-05T09:52:06Z</time>
      </trkpt>
      <trkpt lat="45.85385" lon="4.61245">
        <ele>196.8</ele>
        <time>2015-04-05T09:52:11Z</time>
      </trkpt>
      <trkpt lat="45.85377" lon="4.61225">
        <ele>196.2</ele>
        <time>2015-04-05T09:52:16Z</time>
      </trkpt>
      <trkpt lat="45.8538" lon="4.61207">
        <ele>198.8</ele>
        <time>2015-04-05T09:52:21Z</time>
      </trkpt>
      <trkpt lat="45.8536" lon="4.61188">
        <ele>201.5</ele>
        <time>2015-04-05T09:52:26Z</time>
      </trkpt>
      <trkpt lat="45.85338" lon="4.61187">
        <ele>198.9</ele>
        <time>2015-04-05T09:52:31Z</time>
      </trkpt>
      <trkpt lat="45.85315" lon="4.612">
        <ele>201.2</ele>
        <time>2015-04-05T09:52:36Z</time>
      </trkpt>
      <trkpt lat="45.8528" lon="4.6118">
        <ele>197.2</ele>
        <time>2015-04-05T09:52:41Z</time>
      </trkpt>
      <trkpt lat="45.8525" lon="4.61147">
        <ele>197</ele>
        <time>2015-04-05T09:52:46Z</time>
      </trkpt>
      <trkpt lat="45.85228" lon="4.61113">
        <ele>195.4</ele>
        <time>2015-04-05T09:52:51Z</time>
      </trkpt>
      <trkpt lat="45.85228" lon="4.61087">
        <ele>192.8</ele>
        <time>2015-04-05T09:52:56Z</time>
      </trkpt>
      <trkpt lat="45.85242" lon="4.61078">
        <ele>195.6</ele>
        <time>2015-04-05T09:53:01Z</time>
      </trkpt>
      <trkpt lat="45.85255" lon="4.61068">
        <ele>196.2</ele>
        <time>2015-04-05T09:53:06Z</time>
      </trkpt>
      <trkpt lat="45.8527" lon="4.6106">
        <ele>200.2</ele>
        <time>2015-04-05T09:53:11Z</time>
      </trkpt>
      <trkpt lat="45.85283" lon="4.61048">
        <ele>202.1</ele>
        <time>2015-04-05T09:53:16Z</time>
      </trkpt>
      <trkpt lat="45.85292" lon="4.61028">
        <ele>202</ele>
        <time>2015-04-05T09:53:21Z</time>
      </trkpt>
      <trkpt lat="45.85297" lon="4.61003">
        <ele>203.8</ele>
        <time>2015-04-05T09:53:26Z</time>
      </trkpt>
      <trkpt lat="45.85305" lon="4.60978">
        <ele>202.7</ele>
        <time>2015-04-05T09:53:31Z</time>
      </trkpt>
      <trkpt lat="45.85312" lon="4.60952">
        <ele>204.1</ele>
        <time>2015-04-05T09:53:36Z</time>
      </trkpt>
      <trkpt lat="45.8532" lon="4.60923">
        <ele>204.9</ele>
        <time>2015-04-05T09:53:41Z</time>
      </trkpt>
      <trkpt lat="45.85328" lon="4.60895">
        <ele>204.9</ele>
        <time>2015-04-05T09:53:46Z</time>
      </trkpt>
      <trkpt lat="45.85337" lon="4.60867">
        <ele>204.9</ele>
        <time>2015-04-05T09:53:51Z</time>
      </trkpt>
      <trkpt lat="45.85347" lon="4.60837">
        <ele>207.5</ele>
        <time>2015-04-05T09:53:56Z</time>
      </trkpt>
      <trkpt lat="45.85362" lon="4.6081">
        <ele>205.7</ele>
        <time>2015-04-05T09:54:01Z</time>
      </trkpt>
      <trkpt lat="45.85375" lon="4.60773">
        <ele>206.2</ele>
        <time>2015-04-05T09:54:06Z</time>
      </trkpt>
      <trkpt lat="45.8539" lon="4.60732">
        <ele>201.6</ele>
        <time>2015-04-05T09:54:11Z</time>
      </trkpt>
      <trkpt lat="45.8541" lon="4.60692">
        <ele>203.6</ele>
        <time>2015-04-05T09:54:16Z</time>
      </trkpt>
      <trkpt lat="45.85425" lon="4.6065">
        <ele>200.8</ele>
        <time>2015-04-05T09:54:21Z</time>
      </trkpt>
      <trkpt lat="45.85435" lon="4.60607">
        <ele>200.8</ele>
        <time>2015-04-05T09:54:26Z</time>
      </trkpt>
      <trkpt lat="45.85443" lon="4.60567">
        <ele>205</ele>
        <time>2015-04-05T09:54:31Z</time>
      </trkpt>
      <trkpt lat="45.85452" lon="4.6053">
        <ele>203.8</ele>
        <time>2015-04-05T09:54:36Z</time>
      </trkpt>
      <trkpt lat="45.85458" lon="4.605">
        <ele>201.8</ele>
        <time>2015-04-05T09:54:41Z</time>
      </trkpt>
      <trkpt lat="45.85463" lon="4.60472">
        <ele>202.6</ele>
        <time>2015-04-05T09:54:46Z</time>
      </trkpt>
      <trkpt lat="45.8547" lon="4.60445">
        <ele>203.4</ele>
        <time>2015-04-05T09:54:51Z</time>
      </trkpt>
      <trkpt lat="45.85473" lon="4.60417">
        <ele>203.1</ele>
        <time>2015-04-05T09:54:56Z</time>
      </trkpt>
      <trkpt lat="45.85452" lon="4.60405">
        <ele>200.3</ele>
        <time>2015-04-05T09:55:01Z</time>
      </trkpt>
      <trkpt lat="45.8541" lon="4.60395">
        <ele>196.2</ele>
        <time>2015-04-05T09:55:06Z</time>
      </trkpt>
      <trkpt lat="45.85367" lon="4.60387">
        <ele>195.4</ele>
        <time>2015-04-05T09:55:11Z</time>
      </trkpt>
      <trkpt lat="45.85317" lon="4.60383">
        <ele>189</ele>
        <time>2015-04-05T09:55:16Z</time>
      </trkpt>
      <trkpt lat="45.85272" lon="4.60365">
        <ele>189</ele>
        <time>2015-04-05T09:55:21Z</time>
      </trkpt>
      <trkpt lat="45.85232" lon="4.60348">
        <ele>186.2</ele>
        <time>2015-04-05T09:55:26Z</time>
      </trkpt>
      <trkpt lat="45.85202" lon="4.60347">
        <ele>186.7</ele>
        <time>2015-04-05T09:55:31Z</time>
      </trkpt>
      <trkpt lat="45.85182" lon="4.60382">
        <ele>185.8</ele>
        <time>2015-04-05T09:55:36Z</time>
      </trkpt>
      <trkpt lat="45.85155" lon="4.60412">
        <ele>186.2</ele>
        <time>2015-04-05T09:55:41Z</time>
      </trkpt>
      <trkpt lat="45.8512" lon="4.6042">
        <ele>186.9</ele>
        <time>2015-04-05T09:55:46Z</time>
      </trkpt>
      <trkpt lat="45.85088" lon="4.60418">
        <ele>184.6</ele>
        <time>2015-04-05T09:55:51Z</time>
      </trkpt>
      <trkpt lat="45.85072" lon="4.60423">
        <ele>185.5</ele>
        <time>2015-04-05T09:55:56Z</time>
      </trkpt>
      <trkpt lat="45.8506" lon="4.6046">
        <ele>184.4</ele>
        <time>2015-04-05T09:56:01Z</time>
      </trkpt>
      <trkpt lat="45.85048" lon="4.60495">
        <ele>183.8</ele>
        <time>2015-04-05T09:56:06Z</time>
      </trkpt>
      <trkpt lat="45.85043" lon="4.60525">
        <ele>183.5</ele>
        <time>2015-04-05T09:56:11Z</time>
      </trkpt>
      <trkpt lat="45.85038" lon="4.6055">
        <ele>184.4</ele>
        <time>2015-04-05T09:56:16Z</time>
      </trkpt>
      <trkpt lat="45.85025" lon="4.60567">
        <ele>183</ele>
        <time>2015-04-05T09:56:21Z</time>
      </trkpt>
      <trkpt lat="45.85013" lon="4.60577">
        <ele>183.2</ele>
        <time>2015-04-05T09:56:26Z</time>
      </trkpt>
      <trkpt lat="45.84995" lon="4.6057">
        <ele>184.1</ele>
        <time>2015-04-05T09:56:31Z</time>
      </trkpt>
      <trkpt lat="45.84975" lon="4.60563">
        <ele>184.1</ele>
        <time>2015-04-05T09:56:36Z</time>
      </trkpt>
      <trkpt lat="45.84957" lon="4.60555">
        <ele>184.1</ele>
        <time>2015-04-05T09:56:41Z</time>
      </trkpt>
      <trkpt lat="45.84938" lon="4.6055">
        <ele>184.3</ele>
        <time>2015-04-05T09:56:46Z</time>
      </trkpt>
      <trkpt lat="45.84918" lon="4.60547">
        <ele>185.1</ele>
        <time>2015-04-05T09:56:51Z</time>
      </trkpt>
      <trkpt lat="45.84898" lon="4.60542">
        <ele>184.6</ele>
        <time>2015-04-05T09:56:56Z</time>
      </trkpt>
      <trkpt lat="45.84878" lon="4.60535">
        <ele>185.4</ele>
        <time>2015-04-05T09:57:01Z</time>
      </trkpt>
      <trkpt lat="45.84857" lon="4.6053">
        <ele>185.7</ele>
        <time>2015-04-05T09:57:06Z</time>
      </trkpt>
      <trkpt lat="45.84837" lon="4.60523">
        <ele>185.3</ele>
        <time>2015-04-05T09:57:11Z</time>
      </trkpt>
      <trkpt lat="45.84817" lon="4.6052">
        <ele>185.3</ele>
        <time>2015-04-05T09:57:16Z</time>
      </trkpt>
      <trkpt lat="45.84812" lon="4.60542">
        <ele>186.2</ele>
        <time>2015-04-05T09:57:21Z</time>
      </trkpt>
      <trkpt lat="45.84817" lon="4.60572">
        <ele>185.3</ele>
        <time>2015-04-05T09:57:26Z</time>
      </trkpt>
      <trkpt lat="45.8482" lon="4.60602">
        <ele>186.3</ele>
        <time>2015-04-05T09:57:31Z</time>
      </trkpt>
      <trkpt lat="45.84822" lon="4.60632">
        <ele>184.2</ele>
        <time>2015-04-05T09:57:36Z</time>
      </trkpt>
      <trkpt lat="45.84825" lon="4.60662">
        <ele>184.9</ele>
        <time>2015-04-05T09:57:41Z</time>
      </trkpt>
      <trkpt lat="45.84828" lon="4.60697">
        <ele>185.8</ele>
        <time>2015-04-05T09:57:46Z</time>
      </trkpt>
      <trkpt lat="45.84835" lon="4.60733">
        <ele>187.2</ele>
        <time>2015-04-05T09:57:51Z</time>
      </trkpt>
      <trkpt lat="45.84843" lon="4.60762">
        <ele>184.4</ele>
        <time>2015-04-05T09:57:56Z</time>
      </trkpt>
      <trkpt lat="45.84853" lon="4.60792">
        <ele>187</ele>
        <time>2015-04-05T09:58:01Z</time>
      </trkpt>
      <trkpt lat="45.84865" lon="4.60815">
        <ele>184.7</ele>
        <time>2015-04-05T09:58:06Z</time>
      </trkpt>
      <trkpt lat="45.8487" lon="4.60837">
        <ele>185.2</ele>
        <time>2015-04-05T09:58:11Z</time>
      </trkpt>
      <trkpt lat="45.8487" lon="4.6085">
        <ele>185.7</ele>
        <time>2015-04-05T09:58:16Z</time>
      </trkpt>
      <trkpt lat="45.8487" lon="4.60868">
        <ele>186.1</ele>
        <time>2015-04-05T09:58:21Z</time>
      </trkpt>
      <trkpt lat="45.84863" lon="4.60882">
        <ele>185.4</ele>
        <time>2015-04-05T09:58:26Z</time>
      </trkpt>
      <trkpt lat="45.8485" lon="4.60892">
        <ele>186</ele>
        <time>2015-04-05T09:58:31Z</time>
      </trkpt>
      <trkpt lat="45.84838" lon="4.609">
        <ele>185.6</ele>
        <time>2015-04-05T09:58:36Z</time>
      </trkpt>
      <trkpt lat="45.84835" lon="4.60897">
        <ele>185.9</ele>
        <time>2015-04-05T09:58:41Z</time>
      </trkpt>
      <trkpt lat="45.84833" lon="4.60898">
        <ele>184.9</ele>
        <time>2015-04-05T09:58:46Z</time>
      </trkpt>
      <trkpt lat="45.84832" lon="4.60897">
        <ele>186.4</ele>
        <time>2015-04-05T09:58:51Z</time>
      </trkpt>
    </trkseg>
  </trk>
  <rte>
      <rtept lat="45.84772" lon="4.6081">
        <ele>292.3</ele>
      </rtept>
      <rtept lat="45.84832" lon="4.60897">
        <ele>291.1</ele>
      </rtept>
    </rte>
</gpx>